<?xml version="1.0" encoding="UTF-8" standalone="no" ?>
<gpx xmlns="http://www.topografix.com/GPX/1/1" xmlns:xsi="http://www.w3.org/2001/XMLSchema-instance" xsi:schemaLocation="http://www.topografix.com/GPX/1/1 http://www.topografix.com/GPX/1/1/gpx.xsd" version="1.1" creator="VisuGPX - https://www.visugpx.com">
  <metadata>
    <name>VTT44.com - rando d\\\'Avessac 2014</name>
    <desc><![CDATA[VTT44.com - rando d\\\'Avessac 2014

Attention, certaines parties sont privées.]]></desc>
  </metadata>
  <trk>
    <name><![CDATA[2014-03-30 12:05:57]]></name>
    <trkseg>
      <trkpt lat="47.64948" lon="-1.99525">
        <ele>68.87</ele>
        <time>2014-03-30T06:09:52Z</time>
      </trkpt>
      <trkpt lat="47.64947" lon="-1.99524">
        <ele>67.91</ele>
        <time>2014-03-30T06:14:54Z</time>
      </trkpt>
      <trkpt lat="47.64945" lon="-1.99528">
        <ele>69.35</ele>
        <time>2014-03-30T06:20:11Z</time>
      </trkpt>
      <trkpt lat="47.64939" lon="-1.99539">
        <ele>69.35</ele>
        <time>2014-03-30T06:20:14Z</time>
      </trkpt>
      <trkpt lat="47.64934" lon="-1.99553">
        <ele>69.35</ele>
        <time>2014-03-30T06:20:17Z</time>
      </trkpt>
      <trkpt lat="47.64929" lon="-1.99565">
        <ele>70.79</ele>
        <time>2014-03-30T06:20:21Z</time>
      </trkpt>
      <trkpt lat="47.64923" lon="-1.9958">
        <ele>71.27</ele>
        <time>2014-03-30T06:20:24Z</time>
      </trkpt>
      <trkpt lat="47.64917" lon="-1.99598">
        <ele>72.24</ele>
        <time>2014-03-30T06:20:27Z</time>
      </trkpt>
      <trkpt lat="47.64912" lon="-1.9961">
        <ele>72.72</ele>
        <time>2014-03-30T06:20:29Z</time>
      </trkpt>
      <trkpt lat="47.64907" lon="-1.99621">
        <ele>72.24</ele>
        <time>2014-03-30T06:20:31Z</time>
      </trkpt>
      <trkpt lat="47.64899" lon="-1.99635">
        <ele>71.76</ele>
        <time>2014-03-30T06:20:34Z</time>
      </trkpt>
      <trkpt lat="47.64892" lon="-1.99647">
        <ele>71.27</ele>
        <time>2014-03-30T06:20:37Z</time>
      </trkpt>
      <trkpt lat="47.64887" lon="-1.99662">
        <ele>70.79</ele>
        <time>2014-03-30T06:20:40Z</time>
      </trkpt>
      <trkpt lat="47.64881" lon="-1.99677">
        <ele>69.83</ele>
        <time>2014-03-30T06:20:44Z</time>
      </trkpt>
      <trkpt lat="47.64875" lon="-1.99688">
        <ele>69.83</ele>
        <time>2014-03-30T06:20:47Z</time>
      </trkpt>
      <trkpt lat="47.64869" lon="-1.99702">
        <ele>69.83</ele>
        <time>2014-03-30T06:20:51Z</time>
      </trkpt>
      <trkpt lat="47.64865" lon="-1.99716">
        <ele>69.35</ele>
        <time>2014-03-30T06:20:55Z</time>
      </trkpt>
      <trkpt lat="47.64872" lon="-1.99728">
        <ele>69.35</ele>
        <time>2014-03-30T06:20:59Z</time>
      </trkpt>
      <trkpt lat="47.64881" lon="-1.99738">
        <ele>69.35</ele>
        <time>2014-03-30T06:21:03Z</time>
      </trkpt>
      <trkpt lat="47.64886" lon="-1.99747">
        <ele>73.2</ele>
        <time>2014-03-30T06:22:00Z</time>
      </trkpt>
      <trkpt lat="47.6488" lon="-1.99736">
        <ele>72.24</ele>
        <time>2014-03-30T06:23:55Z</time>
      </trkpt>
      <trkpt lat="47.64872" lon="-1.99725">
        <ele>71.76</ele>
        <time>2014-03-30T06:24:00Z</time>
      </trkpt>
      <trkpt lat="47.64865" lon="-1.99716">
        <ele>71.76</ele>
        <time>2014-03-30T06:24:04Z</time>
      </trkpt>
      <trkpt lat="47.64858" lon="-1.99705">
        <ele>71.27</ele>
        <time>2014-03-30T06:24:10Z</time>
      </trkpt>
      <trkpt lat="47.64856" lon="-1.997">
        <ele>70.79</ele>
        <time>2014-03-30T06:28:16Z</time>
      </trkpt>
      <trkpt lat="47.64849" lon="-1.99693">
        <ele>72.72</ele>
        <time>2014-03-30T06:29:14Z</time>
      </trkpt>
      <trkpt lat="47.64842" lon="-1.99705">
        <ele>72.72</ele>
        <time>2014-03-30T06:29:20Z</time>
      </trkpt>
      <trkpt lat="47.64836" lon="-1.99715">
        <ele>72.72</ele>
        <time>2014-03-30T06:29:24Z</time>
      </trkpt>
      <trkpt lat="47.6483" lon="-1.99727">
        <ele>72.24</ele>
        <time>2014-03-30T06:29:30Z</time>
      </trkpt>
      <trkpt lat="47.64825" lon="-1.99738">
        <ele>72.24</ele>
        <time>2014-03-30T06:29:34Z</time>
      </trkpt>
      <trkpt lat="47.64817" lon="-1.99751">
        <ele>72.24</ele>
        <time>2014-03-30T06:29:39Z</time>
      </trkpt>
      <trkpt lat="47.64816" lon="-1.99763">
        <ele>72.72</ele>
        <time>2014-03-30T06:29:43Z</time>
      </trkpt>
      <trkpt lat="47.64823" lon="-1.99779">
        <ele>72.24</ele>
        <time>2014-03-30T06:29:47Z</time>
      </trkpt>
      <trkpt lat="47.64828" lon="-1.99792">
        <ele>72.24</ele>
        <time>2014-03-30T06:29:50Z</time>
      </trkpt>
      <trkpt lat="47.64833" lon="-1.99805">
        <ele>72.72</ele>
        <time>2014-03-30T06:29:53Z</time>
      </trkpt>
      <trkpt lat="47.64838" lon="-1.99817">
        <ele>73.2</ele>
        <time>2014-03-30T06:29:56Z</time>
      </trkpt>
      <trkpt lat="47.64843" lon="-1.99831">
        <ele>73.2</ele>
        <time>2014-03-30T06:30:00Z</time>
      </trkpt>
      <trkpt lat="47.64849" lon="-1.99845">
        <ele>73.68</ele>
        <time>2014-03-30T06:30:04Z</time>
      </trkpt>
      <trkpt lat="47.64853" lon="-1.99857">
        <ele>73.2</ele>
        <time>2014-03-30T06:30:07Z</time>
      </trkpt>
      <trkpt lat="47.64859" lon="-1.9987">
        <ele>73.68</ele>
        <time>2014-03-30T06:30:10Z</time>
      </trkpt>
      <trkpt lat="47.64864" lon="-1.99883">
        <ele>73.68</ele>
        <time>2014-03-30T06:30:13Z</time>
      </trkpt>
      <trkpt lat="47.64868" lon="-1.99896">
        <ele>74.16</ele>
        <time>2014-03-30T06:30:16Z</time>
      </trkpt>
      <trkpt lat="47.64873" lon="-1.99908">
        <ele>74.16</ele>
        <time>2014-03-30T06:30:19Z</time>
      </trkpt>
      <trkpt lat="47.64877" lon="-1.9992">
        <ele>74.64</ele>
        <time>2014-03-30T06:30:22Z</time>
      </trkpt>
      <trkpt lat="47.64881" lon="-1.99933">
        <ele>75.12</ele>
        <time>2014-03-30T06:30:25Z</time>
      </trkpt>
      <trkpt lat="47.64886" lon="-1.99946">
        <ele>75.12</ele>
        <time>2014-03-30T06:30:28Z</time>
      </trkpt>
      <trkpt lat="47.64891" lon="-1.99959">
        <ele>75.12</ele>
        <time>2014-03-30T06:30:31Z</time>
      </trkpt>
      <trkpt lat="47.64895" lon="-1.9997">
        <ele>75.12</ele>
        <time>2014-03-30T06:30:34Z</time>
      </trkpt>
      <trkpt lat="47.64899" lon="-1.99983">
        <ele>75.6</ele>
        <time>2014-03-30T06:30:37Z</time>
      </trkpt>
      <trkpt lat="47.64904" lon="-1.99995">
        <ele>75.6</ele>
        <time>2014-03-30T06:30:40Z</time>
      </trkpt>
      <trkpt lat="47.64908" lon="-2.00009">
        <ele>75.6</ele>
        <time>2014-03-30T06:30:43Z</time>
      </trkpt>
      <trkpt lat="47.64913" lon="-2.00022">
        <ele>75.6</ele>
        <time>2014-03-30T06:30:46Z</time>
      </trkpt>
      <trkpt lat="47.64918" lon="-2.00034">
        <ele>75.6</ele>
        <time>2014-03-30T06:30:49Z</time>
      </trkpt>
      <trkpt lat="47.64922" lon="-2.00046">
        <ele>75.6</ele>
        <time>2014-03-30T06:30:52Z</time>
      </trkpt>
      <trkpt lat="47.64927" lon="-2.00059">
        <ele>75.12</ele>
        <time>2014-03-30T06:30:55Z</time>
      </trkpt>
      <trkpt lat="47.64931" lon="-2.00072">
        <ele>74.64</ele>
        <time>2014-03-30T06:30:58Z</time>
      </trkpt>
      <trkpt lat="47.64936" lon="-2.00087">
        <ele>74.16</ele>
        <time>2014-03-30T06:31:01Z</time>
      </trkpt>
      <trkpt lat="47.64939" lon="-2.00102">
        <ele>74.16</ele>
        <time>2014-03-30T06:31:04Z</time>
      </trkpt>
      <trkpt lat="47.6494" lon="-2.00119">
        <ele>73.68</ele>
        <time>2014-03-30T06:31:07Z</time>
      </trkpt>
      <trkpt lat="47.6494" lon="-2.00134">
        <ele>73.2</ele>
        <time>2014-03-30T06:31:10Z</time>
      </trkpt>
      <trkpt lat="47.64941" lon="-2.00152">
        <ele>72.72</ele>
        <time>2014-03-30T06:31:13Z</time>
      </trkpt>
      <trkpt lat="47.64942" lon="-2.00172">
        <ele>72.24</ele>
        <time>2014-03-30T06:31:16Z</time>
      </trkpt>
      <trkpt lat="47.64943" lon="-2.00186">
        <ele>72.24</ele>
        <time>2014-03-30T06:31:18Z</time>
      </trkpt>
      <trkpt lat="47.64943" lon="-2.00201">
        <ele>72.24</ele>
        <time>2014-03-30T06:31:20Z</time>
      </trkpt>
      <trkpt lat="47.64944" lon="-2.00216">
        <ele>71.76</ele>
        <time>2014-03-30T06:31:22Z</time>
      </trkpt>
      <trkpt lat="47.64945" lon="-2.0023">
        <ele>71.76</ele>
        <time>2014-03-30T06:31:24Z</time>
      </trkpt>
      <trkpt lat="47.64946" lon="-2.00246">
        <ele>71.27</ele>
        <time>2014-03-30T06:31:26Z</time>
      </trkpt>
      <trkpt lat="47.64947" lon="-2.00261">
        <ele>70.79</ele>
        <time>2014-03-30T06:31:28Z</time>
      </trkpt>
      <trkpt lat="47.64947" lon="-2.00275">
        <ele>70.79</ele>
        <time>2014-03-30T06:31:30Z</time>
      </trkpt>
      <trkpt lat="47.64948" lon="-2.00293">
        <ele>70.31</ele>
        <time>2014-03-30T06:31:33Z</time>
      </trkpt>
      <trkpt lat="47.6495" lon="-2.00309">
        <ele>69.83</ele>
        <time>2014-03-30T06:31:36Z</time>
      </trkpt>
      <trkpt lat="47.64948" lon="-2.00321">
        <ele>69.83</ele>
        <time>2014-03-30T06:31:41Z</time>
      </trkpt>
      <trkpt lat="47.64937" lon="-2.00322">
        <ele>70.79</ele>
        <time>2014-03-30T06:31:48Z</time>
      </trkpt>
      <trkpt lat="47.64927" lon="-2.00323">
        <ele>72.24</ele>
        <time>2014-03-30T06:31:53Z</time>
      </trkpt>
      <trkpt lat="47.64918" lon="-2.00319">
        <ele>74.64</ele>
        <time>2014-03-30T06:31:57Z</time>
      </trkpt>
      <trkpt lat="47.64908" lon="-2.00315">
        <ele>77.52</ele>
        <time>2014-03-30T06:32:01Z</time>
      </trkpt>
      <trkpt lat="47.64897" lon="-2.00309">
        <ele>80.89</ele>
        <time>2014-03-30T06:32:06Z</time>
      </trkpt>
      <trkpt lat="47.64887" lon="-2.00312">
        <ele>81.37</ele>
        <time>2014-03-30T06:32:14Z</time>
      </trkpt>
      <trkpt lat="47.64887" lon="-2.0033">
        <ele>80.41</ele>
        <time>2014-03-30T06:32:19Z</time>
      </trkpt>
      <trkpt lat="47.64878" lon="-2.00339">
        <ele>80.41</ele>
        <time>2014-03-30T06:32:23Z</time>
      </trkpt>
      <trkpt lat="47.64873" lon="-2.00352">
        <ele>80.41</ele>
        <time>2014-03-30T06:32:26Z</time>
      </trkpt>
      <trkpt lat="47.64861" lon="-2.00355">
        <ele>80.89</ele>
        <time>2014-03-30T06:32:29Z</time>
      </trkpt>
      <trkpt lat="47.64851" lon="-2.00349">
        <ele>80.41</ele>
        <time>2014-03-30T06:32:32Z</time>
      </trkpt>
      <trkpt lat="47.64842" lon="-2.00337">
        <ele>78.97</ele>
        <time>2014-03-30T06:32:36Z</time>
      </trkpt>
      <trkpt lat="47.64832" lon="-2.00325">
        <ele>77.04</ele>
        <time>2014-03-30T06:32:40Z</time>
      </trkpt>
      <trkpt lat="47.64825" lon="-2.00315">
        <ele>76.08</ele>
        <time>2014-03-30T06:32:43Z</time>
      </trkpt>
      <trkpt lat="47.64816" lon="-2.00307">
        <ele>74.64</ele>
        <time>2014-03-30T06:32:47Z</time>
      </trkpt>
      <trkpt lat="47.64807" lon="-2.00319">
        <ele>73.2</ele>
        <time>2014-03-30T06:32:50Z</time>
      </trkpt>
      <trkpt lat="47.64798" lon="-2.00328">
        <ele>71.76</ele>
        <time>2014-03-30T06:32:52Z</time>
      </trkpt>
      <trkpt lat="47.64793" lon="-2.00344">
        <ele>70.31</ele>
        <time>2014-03-30T06:32:55Z</time>
      </trkpt>
      <trkpt lat="47.64789" lon="-2.00357">
        <ele>69.35</ele>
        <time>2014-03-30T06:32:58Z</time>
      </trkpt>
      <trkpt lat="47.6478" lon="-2.00365">
        <ele>67.91</ele>
        <time>2014-03-30T06:33:01Z</time>
      </trkpt>
      <trkpt lat="47.64772" lon="-2.00363">
        <ele>67.43</ele>
        <time>2014-03-30T06:33:04Z</time>
      </trkpt>
      <trkpt lat="47.64766" lon="-2.00375">
        <ele>67.43</ele>
        <time>2014-03-30T06:33:09Z</time>
      </trkpt>
      <trkpt lat="47.64762" lon="-2.00388">
        <ele>66.95</ele>
        <time>2014-03-30T06:33:13Z</time>
      </trkpt>
      <trkpt lat="47.64752" lon="-2.00394">
        <ele>67.91</ele>
        <time>2014-03-30T06:33:19Z</time>
      </trkpt>
      <trkpt lat="47.64741" lon="-2.00391">
        <ele>71.76</ele>
        <time>2014-03-30T06:33:26Z</time>
      </trkpt>
      <trkpt lat="47.6473" lon="-2.00388">
        <ele>77.04</ele>
        <time>2014-03-30T06:33:36Z</time>
      </trkpt>
      <trkpt lat="47.64716" lon="-2.00387">
        <ele>81.37</ele>
        <time>2014-03-30T06:33:46Z</time>
      </trkpt>
      <trkpt lat="47.64703" lon="-2.00382">
        <ele>85.69</ele>
        <time>2014-03-30T06:33:55Z</time>
      </trkpt>
      <trkpt lat="47.64691" lon="-2.00372">
        <ele>91.94</ele>
        <time>2014-03-30T06:34:04Z</time>
      </trkpt>
      <trkpt lat="47.64678" lon="-2.00364">
        <ele>93.87</ele>
        <time>2014-03-30T06:34:09Z</time>
      </trkpt>
      <trkpt lat="47.64667" lon="-2.00359">
        <ele>93.39</ele>
        <time>2014-03-30T06:34:14Z</time>
      </trkpt>
      <trkpt lat="47.64655" lon="-2.00352">
        <ele>94.35</ele>
        <time>2014-03-30T06:34:18Z</time>
      </trkpt>
      <trkpt lat="47.64643" lon="-2.00353">
        <ele>93.39</ele>
        <time>2014-03-30T06:34:21Z</time>
      </trkpt>
      <trkpt lat="47.64634" lon="-2.00359">
        <ele>92.42</ele>
        <time>2014-03-30T06:34:24Z</time>
      </trkpt>
      <trkpt lat="47.64627" lon="-2.0037">
        <ele>91.94</ele>
        <time>2014-03-30T06:34:27Z</time>
      </trkpt>
      <trkpt lat="47.64619" lon="-2.00382">
        <ele>91.94</ele>
        <time>2014-03-30T06:34:30Z</time>
      </trkpt>
      <trkpt lat="47.64613" lon="-2.00393">
        <ele>90.98</ele>
        <time>2014-03-30T06:34:33Z</time>
      </trkpt>
      <trkpt lat="47.64606" lon="-2.00409">
        <ele>90.02</ele>
        <time>2014-03-30T06:34:37Z</time>
      </trkpt>
      <trkpt lat="47.646" lon="-2.00421">
        <ele>90.02</ele>
        <time>2014-03-30T06:34:41Z</time>
      </trkpt>
      <trkpt lat="47.64593" lon="-2.00433">
        <ele>90.98</ele>
        <time>2014-03-30T06:34:45Z</time>
      </trkpt>
      <trkpt lat="47.64592" lon="-2.0045">
        <ele>91.46</ele>
        <time>2014-03-30T06:34:48Z</time>
      </trkpt>
      <trkpt lat="47.64595" lon="-2.0047">
        <ele>92.42</ele>
        <time>2014-03-30T06:34:51Z</time>
      </trkpt>
      <trkpt lat="47.64598" lon="-2.00485">
        <ele>91.94</ele>
        <time>2014-03-30T06:34:53Z</time>
      </trkpt>
      <trkpt lat="47.64606" lon="-2.00499">
        <ele>91.46</ele>
        <time>2014-03-30T06:34:56Z</time>
      </trkpt>
      <trkpt lat="47.64605" lon="-2.00516">
        <ele>91.46</ele>
        <time>2014-03-30T06:35:00Z</time>
      </trkpt>
      <trkpt lat="47.64607" lon="-2.00532">
        <ele>90.98</ele>
        <time>2014-03-30T06:35:03Z</time>
      </trkpt>
      <trkpt lat="47.64607" lon="-2.00548">
        <ele>90.98</ele>
        <time>2014-03-30T06:35:06Z</time>
      </trkpt>
      <trkpt lat="47.64607" lon="-2.00566">
        <ele>90.98</ele>
        <time>2014-03-30T06:35:09Z</time>
      </trkpt>
      <trkpt lat="47.64605" lon="-2.00583">
        <ele>90.98</ele>
        <time>2014-03-30T06:35:11Z</time>
      </trkpt>
      <trkpt lat="47.64605" lon="-2.00603">
        <ele>90.02</ele>
        <time>2014-03-30T06:35:13Z</time>
      </trkpt>
      <trkpt lat="47.64606" lon="-2.00622">
        <ele>89.54</ele>
        <time>2014-03-30T06:35:15Z</time>
      </trkpt>
      <trkpt lat="47.64608" lon="-2.00641">
        <ele>88.1</ele>
        <time>2014-03-30T06:35:18Z</time>
      </trkpt>
      <trkpt lat="47.64612" lon="-2.0066">
        <ele>86.66</ele>
        <time>2014-03-30T06:35:21Z</time>
      </trkpt>
      <trkpt lat="47.64613" lon="-2.00675">
        <ele>85.69</ele>
        <time>2014-03-30T06:35:23Z</time>
      </trkpt>
      <trkpt lat="47.64614" lon="-2.0069">
        <ele>84.73</ele>
        <time>2014-03-30T06:35:25Z</time>
      </trkpt>
      <trkpt lat="47.64615" lon="-2.00705">
        <ele>83.77</ele>
        <time>2014-03-30T06:35:27Z</time>
      </trkpt>
      <trkpt lat="47.64616" lon="-2.00727">
        <ele>82.81</ele>
        <time>2014-03-30T06:35:30Z</time>
      </trkpt>
      <trkpt lat="47.64618" lon="-2.00742">
        <ele>82.33</ele>
        <time>2014-03-30T06:35:32Z</time>
      </trkpt>
      <trkpt lat="47.64619" lon="-2.00757">
        <ele>81.85</ele>
        <time>2014-03-30T06:35:34Z</time>
      </trkpt>
      <trkpt lat="47.64619" lon="-2.00771">
        <ele>81.37</ele>
        <time>2014-03-30T06:35:36Z</time>
      </trkpt>
      <trkpt lat="47.64619" lon="-2.00786">
        <ele>81.37</ele>
        <time>2014-03-30T06:35:38Z</time>
      </trkpt>
      <trkpt lat="47.6462" lon="-2.008">
        <ele>80.41</ele>
        <time>2014-03-30T06:35:40Z</time>
      </trkpt>
      <trkpt lat="47.6462" lon="-2.00821">
        <ele>79.93</ele>
        <time>2014-03-30T06:35:43Z</time>
      </trkpt>
      <trkpt lat="47.6462" lon="-2.00837">
        <ele>79.45</ele>
        <time>2014-03-30T06:35:45Z</time>
      </trkpt>
      <trkpt lat="47.64621" lon="-2.00853">
        <ele>78.97</ele>
        <time>2014-03-30T06:35:47Z</time>
      </trkpt>
      <trkpt lat="47.64622" lon="-2.00869">
        <ele>78.48</ele>
        <time>2014-03-30T06:35:49Z</time>
      </trkpt>
      <trkpt lat="47.64622" lon="-2.00884">
        <ele>77.52</ele>
        <time>2014-03-30T06:35:51Z</time>
      </trkpt>
      <trkpt lat="47.64623" lon="-2.00899">
        <ele>76.56</ele>
        <time>2014-03-30T06:35:53Z</time>
      </trkpt>
      <trkpt lat="47.64625" lon="-2.00915">
        <ele>75.6</ele>
        <time>2014-03-30T06:35:55Z</time>
      </trkpt>
      <trkpt lat="47.64626" lon="-2.00931">
        <ele>74.64</ele>
        <time>2014-03-30T06:35:57Z</time>
      </trkpt>
      <trkpt lat="47.64626" lon="-2.0095">
        <ele>73.2</ele>
        <time>2014-03-30T06:36:00Z</time>
      </trkpt>
      <trkpt lat="47.64627" lon="-2.00974">
        <ele>72.24</ele>
        <time>2014-03-30T06:36:03Z</time>
      </trkpt>
      <trkpt lat="47.64629" lon="-2.00993">
        <ele>72.24</ele>
        <time>2014-03-30T06:36:05Z</time>
      </trkpt>
      <trkpt lat="47.64629" lon="-2.01011">
        <ele>71.27</ele>
        <time>2014-03-30T06:36:07Z</time>
      </trkpt>
      <trkpt lat="47.64629" lon="-2.01029">
        <ele>70.31</ele>
        <time>2014-03-30T06:36:09Z</time>
      </trkpt>
      <trkpt lat="47.6463" lon="-2.01048">
        <ele>69.83</ele>
        <time>2014-03-30T06:36:11Z</time>
      </trkpt>
      <trkpt lat="47.64631" lon="-2.01066">
        <ele>68.39</ele>
        <time>2014-03-30T06:36:13Z</time>
      </trkpt>
      <trkpt lat="47.64632" lon="-2.01084">
        <ele>66.95</ele>
        <time>2014-03-30T06:36:15Z</time>
      </trkpt>
      <trkpt lat="47.64632" lon="-2.011">
        <ele>65.51</ele>
        <time>2014-03-30T06:36:17Z</time>
      </trkpt>
      <trkpt lat="47.64634" lon="-2.01117">
        <ele>64.55</ele>
        <time>2014-03-30T06:36:19Z</time>
      </trkpt>
      <trkpt lat="47.64637" lon="-2.01135">
        <ele>63.1</ele>
        <time>2014-03-30T06:36:21Z</time>
      </trkpt>
      <trkpt lat="47.64639" lon="-2.01151">
        <ele>61.66</ele>
        <time>2014-03-30T06:36:23Z</time>
      </trkpt>
      <trkpt lat="47.6464" lon="-2.01172">
        <ele>60.7</ele>
        <time>2014-03-30T06:36:26Z</time>
      </trkpt>
      <trkpt lat="47.64642" lon="-2.01193">
        <ele>59.26</ele>
        <time>2014-03-30T06:36:29Z</time>
      </trkpt>
      <trkpt lat="47.64643" lon="-2.01208">
        <ele>58.78</ele>
        <time>2014-03-30T06:36:31Z</time>
      </trkpt>
      <trkpt lat="47.64644" lon="-2.0123">
        <ele>57.82</ele>
        <time>2014-03-30T06:36:34Z</time>
      </trkpt>
      <trkpt lat="47.64645" lon="-2.01246">
        <ele>57.34</ele>
        <time>2014-03-30T06:36:36Z</time>
      </trkpt>
      <trkpt lat="47.64645" lon="-2.01263">
        <ele>56.86</ele>
        <time>2014-03-30T06:36:38Z</time>
      </trkpt>
      <trkpt lat="47.64646" lon="-2.0128">
        <ele>55.89</ele>
        <time>2014-03-30T06:36:40Z</time>
      </trkpt>
      <trkpt lat="47.64649" lon="-2.01299">
        <ele>53.97</ele>
        <time>2014-03-30T06:36:43Z</time>
      </trkpt>
      <trkpt lat="47.64645" lon="-2.01314">
        <ele>52.53</ele>
        <time>2014-03-30T06:36:48Z</time>
      </trkpt>
      <trkpt lat="47.64634" lon="-2.01315">
        <ele>52.53</ele>
        <time>2014-03-30T06:36:52Z</time>
      </trkpt>
      <trkpt lat="47.64623" lon="-2.01321">
        <ele>52.53</ele>
        <time>2014-03-30T06:36:55Z</time>
      </trkpt>
      <trkpt lat="47.64613" lon="-2.01323">
        <ele>53.01</ele>
        <time>2014-03-30T06:36:57Z</time>
      </trkpt>
      <trkpt lat="47.64602" lon="-2.01322">
        <ele>53.01</ele>
        <time>2014-03-30T06:36:59Z</time>
      </trkpt>
      <trkpt lat="47.64592" lon="-2.0133">
        <ele>53.49</ele>
        <time>2014-03-30T06:37:02Z</time>
      </trkpt>
      <trkpt lat="47.64593" lon="-2.01349">
        <ele>53.01</ele>
        <time>2014-03-30T06:37:05Z</time>
      </trkpt>
      <trkpt lat="47.64594" lon="-2.01365">
        <ele>52.05</ele>
        <time>2014-03-30T06:37:07Z</time>
      </trkpt>
      <trkpt lat="47.64593" lon="-2.01385">
        <ele>51.09</ele>
        <time>2014-03-30T06:37:10Z</time>
      </trkpt>
      <trkpt lat="47.64588" lon="-2.01404">
        <ele>49.65</ele>
        <time>2014-03-30T06:37:13Z</time>
      </trkpt>
      <trkpt lat="47.64596" lon="-2.01421">
        <ele>48.68</ele>
        <time>2014-03-30T06:37:16Z</time>
      </trkpt>
      <trkpt lat="47.64604" lon="-2.01431">
        <ele>48.2</ele>
        <time>2014-03-30T06:37:18Z</time>
      </trkpt>
      <trkpt lat="47.64612" lon="-2.01444">
        <ele>47.24</ele>
        <time>2014-03-30T06:37:20Z</time>
      </trkpt>
      <trkpt lat="47.64619" lon="-2.0146">
        <ele>46.28</ele>
        <time>2014-03-30T06:37:22Z</time>
      </trkpt>
      <trkpt lat="47.64625" lon="-2.01478">
        <ele>45.32</ele>
        <time>2014-03-30T06:37:24Z</time>
      </trkpt>
      <trkpt lat="47.64632" lon="-2.01496">
        <ele>44.36</ele>
        <time>2014-03-30T06:37:26Z</time>
      </trkpt>
      <trkpt lat="47.64639" lon="-2.01514">
        <ele>42.92</ele>
        <time>2014-03-30T06:37:28Z</time>
      </trkpt>
      <trkpt lat="47.64646" lon="-2.01532">
        <ele>42.44</ele>
        <time>2014-03-30T06:37:30Z</time>
      </trkpt>
      <trkpt lat="47.64653" lon="-2.0155">
        <ele>41.47</ele>
        <time>2014-03-30T06:37:32Z</time>
      </trkpt>
      <trkpt lat="47.6466" lon="-2.01568">
        <ele>40.99</ele>
        <time>2014-03-30T06:37:34Z</time>
      </trkpt>
      <trkpt lat="47.64668" lon="-2.01585">
        <ele>40.99</ele>
        <time>2014-03-30T06:37:36Z</time>
      </trkpt>
      <trkpt lat="47.64675" lon="-2.01602">
        <ele>40.51</ele>
        <time>2014-03-30T06:37:38Z</time>
      </trkpt>
      <trkpt lat="47.64682" lon="-2.01621">
        <ele>39.55</ele>
        <time>2014-03-30T06:37:40Z</time>
      </trkpt>
      <trkpt lat="47.64689" lon="-2.01639">
        <ele>39.07</ele>
        <time>2014-03-30T06:37:42Z</time>
      </trkpt>
      <trkpt lat="47.64696" lon="-2.01656">
        <ele>38.59</ele>
        <time>2014-03-30T06:37:44Z</time>
      </trkpt>
      <trkpt lat="47.64703" lon="-2.01674">
        <ele>37.63</ele>
        <time>2014-03-30T06:37:46Z</time>
      </trkpt>
      <trkpt lat="47.6471" lon="-2.01693">
        <ele>37.15</ele>
        <time>2014-03-30T06:37:48Z</time>
      </trkpt>
      <trkpt lat="47.64718" lon="-2.01712">
        <ele>36.67</ele>
        <time>2014-03-30T06:37:50Z</time>
      </trkpt>
      <trkpt lat="47.64725" lon="-2.01731">
        <ele>36.19</ele>
        <time>2014-03-30T06:37:52Z</time>
      </trkpt>
      <trkpt lat="47.64733" lon="-2.01751">
        <ele>35.23</ele>
        <time>2014-03-30T06:37:54Z</time>
      </trkpt>
      <trkpt lat="47.64741" lon="-2.0177">
        <ele>35.23</ele>
        <time>2014-03-30T06:37:56Z</time>
      </trkpt>
      <trkpt lat="47.64749" lon="-2.01789">
        <ele>34.74</ele>
        <time>2014-03-30T06:37:58Z</time>
      </trkpt>
      <trkpt lat="47.64757" lon="-2.01807">
        <ele>34.26</ele>
        <time>2014-03-30T06:38:00Z</time>
      </trkpt>
      <trkpt lat="47.64768" lon="-2.01822">
        <ele>33.78</ele>
        <time>2014-03-30T06:38:02Z</time>
      </trkpt>
      <trkpt lat="47.64783" lon="-2.01823">
        <ele>33.3</ele>
        <time>2014-03-30T06:38:04Z</time>
      </trkpt>
      <trkpt lat="47.64798" lon="-2.01816">
        <ele>33.3</ele>
        <time>2014-03-30T06:38:06Z</time>
      </trkpt>
      <trkpt lat="47.64814" lon="-2.01808">
        <ele>32.82</ele>
        <time>2014-03-30T06:38:08Z</time>
      </trkpt>
      <trkpt lat="47.64829" lon="-2.01802">
        <ele>32.82</ele>
        <time>2014-03-30T06:38:10Z</time>
      </trkpt>
      <trkpt lat="47.64844" lon="-2.01798">
        <ele>32.34</ele>
        <time>2014-03-30T06:38:12Z</time>
      </trkpt>
      <trkpt lat="47.64859" lon="-2.01796">
        <ele>32.34</ele>
        <time>2014-03-30T06:38:14Z</time>
      </trkpt>
      <trkpt lat="47.64873" lon="-2.018">
        <ele>32.34</ele>
        <time>2014-03-30T06:38:16Z</time>
      </trkpt>
      <trkpt lat="47.64887" lon="-2.01805">
        <ele>32.82</ele>
        <time>2014-03-30T06:38:18Z</time>
      </trkpt>
      <trkpt lat="47.64901" lon="-2.01812">
        <ele>32.34</ele>
        <time>2014-03-30T06:38:20Z</time>
      </trkpt>
      <trkpt lat="47.64914" lon="-2.01819">
        <ele>32.82</ele>
        <time>2014-03-30T06:38:22Z</time>
      </trkpt>
      <trkpt lat="47.64928" lon="-2.01826">
        <ele>32.34</ele>
        <time>2014-03-30T06:38:24Z</time>
      </trkpt>
      <trkpt lat="47.64942" lon="-2.01833">
        <ele>32.82</ele>
        <time>2014-03-30T06:38:26Z</time>
      </trkpt>
      <trkpt lat="47.64955" lon="-2.0184">
        <ele>32.82</ele>
        <time>2014-03-30T06:38:28Z</time>
      </trkpt>
      <trkpt lat="47.64968" lon="-2.01847">
        <ele>32.82</ele>
        <time>2014-03-30T06:38:30Z</time>
      </trkpt>
      <trkpt lat="47.64981" lon="-2.01854">
        <ele>32.82</ele>
        <time>2014-03-30T06:38:32Z</time>
      </trkpt>
      <trkpt lat="47.64991" lon="-2.0186">
        <ele>32.34</ele>
        <time>2014-03-30T06:38:34Z</time>
      </trkpt>
      <trkpt lat="47.65" lon="-2.01866">
        <ele>32.34</ele>
        <time>2014-03-30T06:38:36Z</time>
      </trkpt>
      <trkpt lat="47.65003" lon="-2.01883">
        <ele>32.34</ele>
        <time>2014-03-30T06:38:39Z</time>
      </trkpt>
      <trkpt lat="47.64997" lon="-2.019">
        <ele>32.82</ele>
        <time>2014-03-30T06:38:42Z</time>
      </trkpt>
      <trkpt lat="47.64993" lon="-2.01914">
        <ele>32.82</ele>
        <time>2014-03-30T06:38:46Z</time>
      </trkpt>
      <trkpt lat="47.65003" lon="-2.01923">
        <ele>32.82</ele>
        <time>2014-03-30T06:38:52Z</time>
      </trkpt>
      <trkpt lat="47.65013" lon="-2.0193">
        <ele>33.3</ele>
        <time>2014-03-30T06:38:55Z</time>
      </trkpt>
      <trkpt lat="47.65025" lon="-2.01936">
        <ele>34.74</ele>
        <time>2014-03-30T06:38:58Z</time>
      </trkpt>
      <trkpt lat="47.65036" lon="-2.01942">
        <ele>35.71</ele>
        <time>2014-03-30T06:39:01Z</time>
      </trkpt>
      <trkpt lat="47.65047" lon="-2.01948">
        <ele>36.67</ele>
        <time>2014-03-30T06:39:05Z</time>
      </trkpt>
      <trkpt lat="47.6506" lon="-2.01954">
        <ele>38.11</ele>
        <time>2014-03-30T06:39:10Z</time>
      </trkpt>
      <trkpt lat="47.65072" lon="-2.01958">
        <ele>40.03</ele>
        <time>2014-03-30T06:39:15Z</time>
      </trkpt>
      <trkpt lat="47.65085" lon="-2.01961">
        <ele>40.99</ele>
        <time>2014-03-30T06:39:20Z</time>
      </trkpt>
      <trkpt lat="47.65096" lon="-2.01964">
        <ele>41.95</ele>
        <time>2014-03-30T06:39:25Z</time>
      </trkpt>
      <trkpt lat="47.6511" lon="-2.01965">
        <ele>42.92</ele>
        <time>2014-03-30T06:39:31Z</time>
      </trkpt>
      <trkpt lat="47.65123" lon="-2.01961">
        <ele>45.8</ele>
        <time>2014-03-30T06:39:38Z</time>
      </trkpt>
      <trkpt lat="47.65136" lon="-2.01958">
        <ele>46.28</ele>
        <time>2014-03-30T06:39:44Z</time>
      </trkpt>
      <trkpt lat="47.65149" lon="-2.0196">
        <ele>46.76</ele>
        <time>2014-03-30T06:39:51Z</time>
      </trkpt>
      <trkpt lat="47.65163" lon="-2.01961">
        <ele>46.76</ele>
        <time>2014-03-30T06:39:59Z</time>
      </trkpt>
      <trkpt lat="47.65176" lon="-2.01964">
        <ele>47.72</ele>
        <time>2014-03-30T06:40:06Z</time>
      </trkpt>
      <trkpt lat="47.6519" lon="-2.01968">
        <ele>49.16</ele>
        <time>2014-03-30T06:40:13Z</time>
      </trkpt>
      <trkpt lat="47.65204" lon="-2.01968">
        <ele>50.13</ele>
        <time>2014-03-30T06:40:19Z</time>
      </trkpt>
      <trkpt lat="47.65207" lon="-2.01955">
        <ele>50.61</ele>
        <time>2014-03-30T06:40:23Z</time>
      </trkpt>
      <trkpt lat="47.65207" lon="-2.01935">
        <ele>50.61</ele>
        <time>2014-03-30T06:40:26Z</time>
      </trkpt>
      <trkpt lat="47.65207" lon="-2.0192">
        <ele>50.13</ele>
        <time>2014-03-30T06:40:28Z</time>
      </trkpt>
      <trkpt lat="47.65209" lon="-2.01904">
        <ele>50.13</ele>
        <time>2014-03-30T06:40:30Z</time>
      </trkpt>
      <trkpt lat="47.65208" lon="-2.01888">
        <ele>49.65</ele>
        <time>2014-03-30T06:40:32Z</time>
      </trkpt>
      <trkpt lat="47.65207" lon="-2.01871">
        <ele>49.65</ele>
        <time>2014-03-30T06:40:34Z</time>
      </trkpt>
      <trkpt lat="47.65207" lon="-2.01853">
        <ele>49.16</ele>
        <time>2014-03-30T06:40:36Z</time>
      </trkpt>
      <trkpt lat="47.65206" lon="-2.01836">
        <ele>48.68</ele>
        <time>2014-03-30T06:40:38Z</time>
      </trkpt>
      <trkpt lat="47.65206" lon="-2.01819">
        <ele>48.2</ele>
        <time>2014-03-30T06:40:40Z</time>
      </trkpt>
      <trkpt lat="47.65207" lon="-2.01803">
        <ele>47.72</ele>
        <time>2014-03-30T06:40:42Z</time>
      </trkpt>
      <trkpt lat="47.65208" lon="-2.01786">
        <ele>47.24</ele>
        <time>2014-03-30T06:40:44Z</time>
      </trkpt>
      <trkpt lat="47.6521" lon="-2.0177">
        <ele>46.76</ele>
        <time>2014-03-30T06:40:46Z</time>
      </trkpt>
      <trkpt lat="47.65211" lon="-2.01754">
        <ele>46.76</ele>
        <time>2014-03-30T06:40:48Z</time>
      </trkpt>
      <trkpt lat="47.65214" lon="-2.01738">
        <ele>46.76</ele>
        <time>2014-03-30T06:40:50Z</time>
      </trkpt>
      <trkpt lat="47.65216" lon="-2.01723">
        <ele>46.28</ele>
        <time>2014-03-30T06:40:52Z</time>
      </trkpt>
      <trkpt lat="47.65219" lon="-2.01707">
        <ele>46.28</ele>
        <time>2014-03-30T06:40:54Z</time>
      </trkpt>
      <trkpt lat="47.65221" lon="-2.01691">
        <ele>46.28</ele>
        <time>2014-03-30T06:40:56Z</time>
      </trkpt>
      <trkpt lat="47.65223" lon="-2.01675">
        <ele>46.28</ele>
        <time>2014-03-30T06:40:58Z</time>
      </trkpt>
      <trkpt lat="47.65226" lon="-2.01659">
        <ele>46.28</ele>
        <time>2014-03-30T06:41:00Z</time>
      </trkpt>
      <trkpt lat="47.6523" lon="-2.01643">
        <ele>46.28</ele>
        <time>2014-03-30T06:41:02Z</time>
      </trkpt>
      <trkpt lat="47.65234" lon="-2.01627">
        <ele>46.76</ele>
        <time>2014-03-30T06:41:04Z</time>
      </trkpt>
      <trkpt lat="47.65238" lon="-2.01611">
        <ele>46.76</ele>
        <time>2014-03-30T06:41:06Z</time>
      </trkpt>
      <trkpt lat="47.65241" lon="-2.01596">
        <ele>46.76</ele>
        <time>2014-03-30T06:41:08Z</time>
      </trkpt>
      <trkpt lat="47.65244" lon="-2.01579">
        <ele>46.76</ele>
        <time>2014-03-30T06:41:10Z</time>
      </trkpt>
      <trkpt lat="47.65246" lon="-2.01563">
        <ele>46.28</ele>
        <time>2014-03-30T06:41:12Z</time>
      </trkpt>
      <trkpt lat="47.65249" lon="-2.01548">
        <ele>46.28</ele>
        <time>2014-03-30T06:41:14Z</time>
      </trkpt>
      <trkpt lat="47.65252" lon="-2.01531">
        <ele>46.28</ele>
        <time>2014-03-30T06:41:16Z</time>
      </trkpt>
      <trkpt lat="47.65254" lon="-2.01515">
        <ele>45.8</ele>
        <time>2014-03-30T06:41:18Z</time>
      </trkpt>
      <trkpt lat="47.65257" lon="-2.01499">
        <ele>45.32</ele>
        <time>2014-03-30T06:41:20Z</time>
      </trkpt>
      <trkpt lat="47.6526" lon="-2.01483">
        <ele>44.84</ele>
        <time>2014-03-30T06:41:22Z</time>
      </trkpt>
      <trkpt lat="47.65262" lon="-2.0147">
        <ele>44.84</ele>
        <time>2014-03-30T06:41:24Z</time>
      </trkpt>
      <trkpt lat="47.6526" lon="-2.01458">
        <ele>44.36</ele>
        <time>2014-03-30T06:41:27Z</time>
      </trkpt>
      <trkpt lat="47.65251" lon="-2.01453">
        <ele>43.4</ele>
        <time>2014-03-30T06:41:29Z</time>
      </trkpt>
      <trkpt lat="47.65241" lon="-2.01447">
        <ele>43.88</ele>
        <time>2014-03-30T06:41:31Z</time>
      </trkpt>
      <trkpt lat="47.65232" lon="-2.01442">
        <ele>43.88</ele>
        <time>2014-03-30T06:41:33Z</time>
      </trkpt>
      <trkpt lat="47.65219" lon="-2.01437">
        <ele>43.88</ele>
        <time>2014-03-30T06:41:35Z</time>
      </trkpt>
      <trkpt lat="47.65206" lon="-2.0143">
        <ele>43.88</ele>
        <time>2014-03-30T06:41:37Z</time>
      </trkpt>
      <trkpt lat="47.65197" lon="-2.01414">
        <ele>43.4</ele>
        <time>2014-03-30T06:41:39Z</time>
      </trkpt>
      <trkpt lat="47.65195" lon="-2.01396">
        <ele>42.92</ele>
        <time>2014-03-30T06:41:41Z</time>
      </trkpt>
      <trkpt lat="47.65202" lon="-2.01378">
        <ele>42.44</ele>
        <time>2014-03-30T06:41:43Z</time>
      </trkpt>
      <trkpt lat="47.65214" lon="-2.01362">
        <ele>41.95</ele>
        <time>2014-03-30T06:41:45Z</time>
      </trkpt>
      <trkpt lat="47.65225" lon="-2.01347">
        <ele>41.47</ele>
        <time>2014-03-30T06:41:47Z</time>
      </trkpt>
      <trkpt lat="47.65235" lon="-2.01334">
        <ele>40.51</ele>
        <time>2014-03-30T06:41:49Z</time>
      </trkpt>
      <trkpt lat="47.65245" lon="-2.01323">
        <ele>40.03</ele>
        <time>2014-03-30T06:41:51Z</time>
      </trkpt>
      <trkpt lat="47.65256" lon="-2.01314">
        <ele>39.55</ele>
        <time>2014-03-30T06:41:53Z</time>
      </trkpt>
      <trkpt lat="47.65263" lon="-2.01303">
        <ele>38.59</ele>
        <time>2014-03-30T06:41:55Z</time>
      </trkpt>
      <trkpt lat="47.65269" lon="-2.01285">
        <ele>34.74</ele>
        <time>2014-03-30T06:41:58Z</time>
      </trkpt>
      <trkpt lat="47.65274" lon="-2.01271">
        <ele>32.82</ele>
        <time>2014-03-30T06:42:02Z</time>
      </trkpt>
      <trkpt lat="47.65276" lon="-2.01257">
        <ele>32.34</ele>
        <time>2014-03-30T06:42:05Z</time>
      </trkpt>
      <trkpt lat="47.65281" lon="-2.01241">
        <ele>31.86</ele>
        <time>2014-03-30T06:42:08Z</time>
      </trkpt>
      <trkpt lat="47.65282" lon="-2.01222">
        <ele>32.34</ele>
        <time>2014-03-30T06:42:11Z</time>
      </trkpt>
      <trkpt lat="47.6528" lon="-2.01204">
        <ele>32.82</ele>
        <time>2014-03-30T06:42:14Z</time>
      </trkpt>
      <trkpt lat="47.65277" lon="-2.01185">
        <ele>33.3</ele>
        <time>2014-03-30T06:42:17Z</time>
      </trkpt>
      <trkpt lat="47.65271" lon="-2.01166">
        <ele>33.3</ele>
        <time>2014-03-30T06:42:20Z</time>
      </trkpt>
      <trkpt lat="47.65264" lon="-2.01149">
        <ele>33.3</ele>
        <time>2014-03-30T06:42:23Z</time>
      </trkpt>
      <trkpt lat="47.65255" lon="-2.01132">
        <ele>32.82</ele>
        <time>2014-03-30T06:42:26Z</time>
      </trkpt>
      <trkpt lat="47.65247" lon="-2.01115">
        <ele>32.82</ele>
        <time>2014-03-30T06:42:29Z</time>
      </trkpt>
      <trkpt lat="47.65241" lon="-2.01104">
        <ele>32.82</ele>
        <time>2014-03-30T06:42:31Z</time>
      </trkpt>
      <trkpt lat="47.65236" lon="-2.01093">
        <ele>32.82</ele>
        <time>2014-03-30T06:42:33Z</time>
      </trkpt>
      <trkpt lat="47.65231" lon="-2.01082">
        <ele>32.82</ele>
        <time>2014-03-30T06:42:35Z</time>
      </trkpt>
      <trkpt lat="47.65226" lon="-2.0107">
        <ele>32.82</ele>
        <time>2014-03-30T06:42:37Z</time>
      </trkpt>
      <trkpt lat="47.65222" lon="-2.01058">
        <ele>33.3</ele>
        <time>2014-03-30T06:42:39Z</time>
      </trkpt>
      <trkpt lat="47.65218" lon="-2.01045">
        <ele>33.3</ele>
        <time>2014-03-30T06:42:41Z</time>
      </trkpt>
      <trkpt lat="47.65215" lon="-2.01032">
        <ele>33.3</ele>
        <time>2014-03-30T06:42:43Z</time>
      </trkpt>
      <trkpt lat="47.65211" lon="-2.01019">
        <ele>32.82</ele>
        <time>2014-03-30T06:42:45Z</time>
      </trkpt>
      <trkpt lat="47.65208" lon="-2.01006">
        <ele>33.3</ele>
        <time>2014-03-30T06:42:47Z</time>
      </trkpt>
      <trkpt lat="47.65205" lon="-2.00993">
        <ele>33.3</ele>
        <time>2014-03-30T06:42:49Z</time>
      </trkpt>
      <trkpt lat="47.65201" lon="-2.0098">
        <ele>33.3</ele>
        <time>2014-03-30T06:42:51Z</time>
      </trkpt>
      <trkpt lat="47.65198" lon="-2.00967">
        <ele>33.78</ele>
        <time>2014-03-30T06:42:53Z</time>
      </trkpt>
      <trkpt lat="47.65195" lon="-2.00953">
        <ele>33.78</ele>
        <time>2014-03-30T06:42:55Z</time>
      </trkpt>
      <trkpt lat="47.65193" lon="-2.00939">
        <ele>33.78</ele>
        <time>2014-03-30T06:42:57Z</time>
      </trkpt>
      <trkpt lat="47.65191" lon="-2.00925">
        <ele>34.26</ele>
        <time>2014-03-30T06:42:59Z</time>
      </trkpt>
      <trkpt lat="47.65189" lon="-2.00912">
        <ele>34.74</ele>
        <time>2014-03-30T06:43:01Z</time>
      </trkpt>
      <trkpt lat="47.65185" lon="-2.00892">
        <ele>35.23</ele>
        <time>2014-03-30T06:43:04Z</time>
      </trkpt>
      <trkpt lat="47.65183" lon="-2.00873">
        <ele>35.71</ele>
        <time>2014-03-30T06:43:07Z</time>
      </trkpt>
      <trkpt lat="47.65182" lon="-2.00854">
        <ele>36.67</ele>
        <time>2014-03-30T06:43:10Z</time>
      </trkpt>
      <trkpt lat="47.65182" lon="-2.00837">
        <ele>37.63</ele>
        <time>2014-03-30T06:43:13Z</time>
      </trkpt>
      <trkpt lat="47.65184" lon="-2.00819">
        <ele>38.59</ele>
        <time>2014-03-30T06:43:16Z</time>
      </trkpt>
      <trkpt lat="47.65186" lon="-2.00801">
        <ele>39.07</ele>
        <time>2014-03-30T06:43:19Z</time>
      </trkpt>
      <trkpt lat="47.6519" lon="-2.00784">
        <ele>39.55</ele>
        <time>2014-03-30T06:43:22Z</time>
      </trkpt>
      <trkpt lat="47.65193" lon="-2.00766">
        <ele>40.51</ele>
        <time>2014-03-30T06:43:25Z</time>
      </trkpt>
      <trkpt lat="47.65196" lon="-2.00748">
        <ele>40.99</ele>
        <time>2014-03-30T06:43:28Z</time>
      </trkpt>
      <trkpt lat="47.652" lon="-2.00731">
        <ele>41.47</ele>
        <time>2014-03-30T06:43:31Z</time>
      </trkpt>
      <trkpt lat="47.65203" lon="-2.00714">
        <ele>42.92</ele>
        <time>2014-03-30T06:43:34Z</time>
      </trkpt>
      <trkpt lat="47.65206" lon="-2.00697">
        <ele>43.4</ele>
        <time>2014-03-30T06:43:37Z</time>
      </trkpt>
      <trkpt lat="47.6521" lon="-2.00679">
        <ele>43.88</ele>
        <time>2014-03-30T06:43:40Z</time>
      </trkpt>
      <trkpt lat="47.65213" lon="-2.00662">
        <ele>44.36</ele>
        <time>2014-03-30T06:43:43Z</time>
      </trkpt>
      <trkpt lat="47.65216" lon="-2.00645">
        <ele>44.84</ele>
        <time>2014-03-30T06:43:46Z</time>
      </trkpt>
      <trkpt lat="47.6522" lon="-2.00627">
        <ele>45.32</ele>
        <time>2014-03-30T06:43:49Z</time>
      </trkpt>
      <trkpt lat="47.65223" lon="-2.0061">
        <ele>45.32</ele>
        <time>2014-03-30T06:43:52Z</time>
      </trkpt>
      <trkpt lat="47.65226" lon="-2.00592">
        <ele>45.8</ele>
        <time>2014-03-30T06:43:55Z</time>
      </trkpt>
      <trkpt lat="47.65227" lon="-2.00573">
        <ele>46.28</ele>
        <time>2014-03-30T06:43:58Z</time>
      </trkpt>
      <trkpt lat="47.65228" lon="-2.00555">
        <ele>46.76</ele>
        <time>2014-03-30T06:44:01Z</time>
      </trkpt>
      <trkpt lat="47.6523" lon="-2.00535">
        <ele>46.76</ele>
        <time>2014-03-30T06:44:04Z</time>
      </trkpt>
      <trkpt lat="47.65231" lon="-2.00516">
        <ele>46.76</ele>
        <time>2014-03-30T06:44:07Z</time>
      </trkpt>
      <trkpt lat="47.65233" lon="-2.00496">
        <ele>47.24</ele>
        <time>2014-03-30T06:44:10Z</time>
      </trkpt>
      <trkpt lat="47.65235" lon="-2.00483">
        <ele>47.24</ele>
        <time>2014-03-30T06:44:12Z</time>
      </trkpt>
      <trkpt lat="47.65237" lon="-2.0047">
        <ele>47.24</ele>
        <time>2014-03-30T06:44:14Z</time>
      </trkpt>
      <trkpt lat="47.65239" lon="-2.00457">
        <ele>47.72</ele>
        <time>2014-03-30T06:44:16Z</time>
      </trkpt>
      <trkpt lat="47.65242" lon="-2.00444">
        <ele>47.72</ele>
        <time>2014-03-30T06:44:18Z</time>
      </trkpt>
      <trkpt lat="47.65245" lon="-2.00431">
        <ele>47.72</ele>
        <time>2014-03-30T06:44:20Z</time>
      </trkpt>
      <trkpt lat="47.65247" lon="-2.00417">
        <ele>47.72</ele>
        <time>2014-03-30T06:44:22Z</time>
      </trkpt>
      <trkpt lat="47.6525" lon="-2.00403">
        <ele>47.24</ele>
        <time>2014-03-30T06:44:24Z</time>
      </trkpt>
      <trkpt lat="47.65253" lon="-2.0039">
        <ele>47.24</ele>
        <time>2014-03-30T06:44:26Z</time>
      </trkpt>
      <trkpt lat="47.65256" lon="-2.00377">
        <ele>47.24</ele>
        <time>2014-03-30T06:44:28Z</time>
      </trkpt>
      <trkpt lat="47.65259" lon="-2.00364">
        <ele>47.24</ele>
        <time>2014-03-30T06:44:30Z</time>
      </trkpt>
      <trkpt lat="47.65262" lon="-2.0035">
        <ele>47.24</ele>
        <time>2014-03-30T06:44:32Z</time>
      </trkpt>
      <trkpt lat="47.65266" lon="-2.00336">
        <ele>47.72</ele>
        <time>2014-03-30T06:44:34Z</time>
      </trkpt>
      <trkpt lat="47.65269" lon="-2.00322">
        <ele>47.72</ele>
        <time>2014-03-30T06:44:36Z</time>
      </trkpt>
      <trkpt lat="47.65273" lon="-2.00308">
        <ele>47.24</ele>
        <time>2014-03-30T06:44:38Z</time>
      </trkpt>
      <trkpt lat="47.65277" lon="-2.00295">
        <ele>47.24</ele>
        <time>2014-03-30T06:44:40Z</time>
      </trkpt>
      <trkpt lat="47.6528" lon="-2.00281">
        <ele>47.24</ele>
        <time>2014-03-30T06:44:42Z</time>
      </trkpt>
      <trkpt lat="47.65284" lon="-2.00268">
        <ele>47.24</ele>
        <time>2014-03-30T06:44:44Z</time>
      </trkpt>
      <trkpt lat="47.65288" lon="-2.00254">
        <ele>47.24</ele>
        <time>2014-03-30T06:44:46Z</time>
      </trkpt>
      <trkpt lat="47.65292" lon="-2.00241">
        <ele>47.24</ele>
        <time>2014-03-30T06:44:48Z</time>
      </trkpt>
      <trkpt lat="47.65295" lon="-2.00226">
        <ele>47.24</ele>
        <time>2014-03-30T06:44:50Z</time>
      </trkpt>
      <trkpt lat="47.65299" lon="-2.00212">
        <ele>47.24</ele>
        <time>2014-03-30T06:44:52Z</time>
      </trkpt>
      <trkpt lat="47.65303" lon="-2.00198">
        <ele>47.72</ele>
        <time>2014-03-30T06:44:54Z</time>
      </trkpt>
      <trkpt lat="47.65307" lon="-2.00184">
        <ele>47.72</ele>
        <time>2014-03-30T06:44:56Z</time>
      </trkpt>
      <trkpt lat="47.6531" lon="-2.0017">
        <ele>48.2</ele>
        <time>2014-03-30T06:44:58Z</time>
      </trkpt>
      <trkpt lat="47.65314" lon="-2.00157">
        <ele>48.2</ele>
        <time>2014-03-30T06:45:00Z</time>
      </trkpt>
      <trkpt lat="47.65318" lon="-2.00143">
        <ele>48.2</ele>
        <time>2014-03-30T06:45:02Z</time>
      </trkpt>
      <trkpt lat="47.65322" lon="-2.00128">
        <ele>48.2</ele>
        <time>2014-03-30T06:45:04Z</time>
      </trkpt>
      <trkpt lat="47.65326" lon="-2.00114">
        <ele>48.2</ele>
        <time>2014-03-30T06:45:06Z</time>
      </trkpt>
      <trkpt lat="47.6533" lon="-2.00099">
        <ele>48.2</ele>
        <time>2014-03-30T06:45:08Z</time>
      </trkpt>
      <trkpt lat="47.65333" lon="-2.00084">
        <ele>48.2</ele>
        <time>2014-03-30T06:45:10Z</time>
      </trkpt>
      <trkpt lat="47.65336" lon="-2.00068">
        <ele>48.2</ele>
        <time>2014-03-30T06:45:12Z</time>
      </trkpt>
      <trkpt lat="47.65338" lon="-2.00051">
        <ele>48.68</ele>
        <time>2014-03-30T06:45:14Z</time>
      </trkpt>
      <trkpt lat="47.65338" lon="-2.00036">
        <ele>48.68</ele>
        <time>2014-03-30T06:45:16Z</time>
      </trkpt>
      <trkpt lat="47.65337" lon="-2.0002">
        <ele>49.16</ele>
        <time>2014-03-30T06:45:18Z</time>
      </trkpt>
      <trkpt lat="47.65336" lon="-2.00004">
        <ele>49.65</ele>
        <time>2014-03-30T06:45:20Z</time>
      </trkpt>
      <trkpt lat="47.65335" lon="-1.99989">
        <ele>49.65</ele>
        <time>2014-03-30T06:45:22Z</time>
      </trkpt>
      <trkpt lat="47.65335" lon="-1.99973">
        <ele>49.65</ele>
        <time>2014-03-30T06:45:24Z</time>
      </trkpt>
      <trkpt lat="47.65334" lon="-1.99958">
        <ele>49.65</ele>
        <time>2014-03-30T06:45:26Z</time>
      </trkpt>
      <trkpt lat="47.65333" lon="-1.99942">
        <ele>49.65</ele>
        <time>2014-03-30T06:45:28Z</time>
      </trkpt>
      <trkpt lat="47.65332" lon="-1.99927">
        <ele>50.13</ele>
        <time>2014-03-30T06:45:30Z</time>
      </trkpt>
      <trkpt lat="47.65331" lon="-1.99911">
        <ele>50.13</ele>
        <time>2014-03-30T06:45:32Z</time>
      </trkpt>
      <trkpt lat="47.6533" lon="-1.99897">
        <ele>50.13</ele>
        <time>2014-03-30T06:45:34Z</time>
      </trkpt>
      <trkpt lat="47.6533" lon="-1.99882">
        <ele>50.13</ele>
        <time>2014-03-30T06:45:36Z</time>
      </trkpt>
      <trkpt lat="47.65329" lon="-1.99866">
        <ele>50.13</ele>
        <time>2014-03-30T06:45:38Z</time>
      </trkpt>
      <trkpt lat="47.65328" lon="-1.99851">
        <ele>50.13</ele>
        <time>2014-03-30T06:45:40Z</time>
      </trkpt>
      <trkpt lat="47.65327" lon="-1.99836">
        <ele>50.13</ele>
        <time>2014-03-30T06:45:42Z</time>
      </trkpt>
      <trkpt lat="47.65327" lon="-1.99821">
        <ele>50.13</ele>
        <time>2014-03-30T06:45:44Z</time>
      </trkpt>
      <trkpt lat="47.65326" lon="-1.99806">
        <ele>50.13</ele>
        <time>2014-03-30T06:45:46Z</time>
      </trkpt>
      <trkpt lat="47.65327" lon="-1.99791">
        <ele>49.65</ele>
        <time>2014-03-30T06:45:48Z</time>
      </trkpt>
      <trkpt lat="47.65327" lon="-1.99776">
        <ele>49.65</ele>
        <time>2014-03-30T06:45:50Z</time>
      </trkpt>
      <trkpt lat="47.65327" lon="-1.99762">
        <ele>49.65</ele>
        <time>2014-03-30T06:45:52Z</time>
      </trkpt>
      <trkpt lat="47.65333" lon="-1.99748">
        <ele>49.65</ele>
        <time>2014-03-30T06:45:55Z</time>
      </trkpt>
      <trkpt lat="47.65345" lon="-1.99755">
        <ele>49.16</ele>
        <time>2014-03-30T06:45:58Z</time>
      </trkpt>
      <trkpt lat="47.65354" lon="-1.99765">
        <ele>48.68</ele>
        <time>2014-03-30T06:46:00Z</time>
      </trkpt>
      <trkpt lat="47.65365" lon="-1.99774">
        <ele>48.2</ele>
        <time>2014-03-30T06:46:02Z</time>
      </trkpt>
      <trkpt lat="47.65375" lon="-1.99784">
        <ele>47.72</ele>
        <time>2014-03-30T06:46:04Z</time>
      </trkpt>
      <trkpt lat="47.65385" lon="-1.99794">
        <ele>47.24</ele>
        <time>2014-03-30T06:46:06Z</time>
      </trkpt>
      <trkpt lat="47.65396" lon="-1.99804">
        <ele>47.24</ele>
        <time>2014-03-30T06:46:08Z</time>
      </trkpt>
      <trkpt lat="47.65408" lon="-1.99815">
        <ele>46.28</ele>
        <time>2014-03-30T06:46:10Z</time>
      </trkpt>
      <trkpt lat="47.65419" lon="-1.99826">
        <ele>46.28</ele>
        <time>2014-03-30T06:46:12Z</time>
      </trkpt>
      <trkpt lat="47.6543" lon="-1.99836">
        <ele>46.28</ele>
        <time>2014-03-30T06:46:14Z</time>
      </trkpt>
      <trkpt lat="47.65442" lon="-1.99847">
        <ele>46.28</ele>
        <time>2014-03-30T06:46:16Z</time>
      </trkpt>
      <trkpt lat="47.65453" lon="-1.99858">
        <ele>46.28</ele>
        <time>2014-03-30T06:46:18Z</time>
      </trkpt>
      <trkpt lat="47.65464" lon="-1.99868">
        <ele>45.8</ele>
        <time>2014-03-30T06:46:20Z</time>
      </trkpt>
      <trkpt lat="47.65475" lon="-1.99879">
        <ele>45.8</ele>
        <time>2014-03-30T06:46:22Z</time>
      </trkpt>
      <trkpt lat="47.65486" lon="-1.9989">
        <ele>45.8</ele>
        <time>2014-03-30T06:46:24Z</time>
      </trkpt>
      <trkpt lat="47.65497" lon="-1.99901">
        <ele>45.8</ele>
        <time>2014-03-30T06:46:26Z</time>
      </trkpt>
      <trkpt lat="47.65508" lon="-1.99911">
        <ele>45.32</ele>
        <time>2014-03-30T06:46:28Z</time>
      </trkpt>
      <trkpt lat="47.65519" lon="-1.99921">
        <ele>45.8</ele>
        <time>2014-03-30T06:46:30Z</time>
      </trkpt>
      <trkpt lat="47.6553" lon="-1.99931">
        <ele>46.28</ele>
        <time>2014-03-30T06:46:32Z</time>
      </trkpt>
      <trkpt lat="47.65541" lon="-1.99942">
        <ele>46.76</ele>
        <time>2014-03-30T06:46:34Z</time>
      </trkpt>
      <trkpt lat="47.65552" lon="-1.99953">
        <ele>47.24</ele>
        <time>2014-03-30T06:46:36Z</time>
      </trkpt>
      <trkpt lat="47.65563" lon="-1.99963">
        <ele>47.24</ele>
        <time>2014-03-30T06:46:38Z</time>
      </trkpt>
      <trkpt lat="47.65574" lon="-1.99974">
        <ele>47.72</ele>
        <time>2014-03-30T06:46:40Z</time>
      </trkpt>
      <trkpt lat="47.65585" lon="-1.99984">
        <ele>48.2</ele>
        <time>2014-03-30T06:46:42Z</time>
      </trkpt>
      <trkpt lat="47.65596" lon="-1.99995">
        <ele>47.72</ele>
        <time>2014-03-30T06:46:44Z</time>
      </trkpt>
      <trkpt lat="47.65607" lon="-2.00005">
        <ele>47.72</ele>
        <time>2014-03-30T06:46:46Z</time>
      </trkpt>
      <trkpt lat="47.65617" lon="-2.00015">
        <ele>47.24</ele>
        <time>2014-03-30T06:46:48Z</time>
      </trkpt>
      <trkpt lat="47.65628" lon="-2.00025">
        <ele>47.24</ele>
        <time>2014-03-30T06:46:50Z</time>
      </trkpt>
      <trkpt lat="47.65638" lon="-2.00035">
        <ele>46.76</ele>
        <time>2014-03-30T06:46:52Z</time>
      </trkpt>
      <trkpt lat="47.65649" lon="-2.00045">
        <ele>46.76</ele>
        <time>2014-03-30T06:46:54Z</time>
      </trkpt>
      <trkpt lat="47.65659" lon="-2.00055">
        <ele>46.28</ele>
        <time>2014-03-30T06:46:56Z</time>
      </trkpt>
      <trkpt lat="47.6567" lon="-2.00065">
        <ele>46.28</ele>
        <time>2014-03-30T06:46:58Z</time>
      </trkpt>
      <trkpt lat="47.65681" lon="-2.00076">
        <ele>46.28</ele>
        <time>2014-03-30T06:47:00Z</time>
      </trkpt>
      <trkpt lat="47.65691" lon="-2.00086">
        <ele>45.8</ele>
        <time>2014-03-30T06:47:02Z</time>
      </trkpt>
      <trkpt lat="47.65702" lon="-2.00095">
        <ele>45.8</ele>
        <time>2014-03-30T06:47:04Z</time>
      </trkpt>
      <trkpt lat="47.65713" lon="-2.00106">
        <ele>45.8</ele>
        <time>2014-03-30T06:47:06Z</time>
      </trkpt>
      <trkpt lat="47.65725" lon="-2.00118">
        <ele>45.32</ele>
        <time>2014-03-30T06:47:08Z</time>
      </trkpt>
      <trkpt lat="47.65737" lon="-2.00129">
        <ele>45.32</ele>
        <time>2014-03-30T06:47:10Z</time>
      </trkpt>
      <trkpt lat="47.65749" lon="-2.0014">
        <ele>45.32</ele>
        <time>2014-03-30T06:47:12Z</time>
      </trkpt>
      <trkpt lat="47.6576" lon="-2.00151">
        <ele>45.32</ele>
        <time>2014-03-30T06:47:14Z</time>
      </trkpt>
      <trkpt lat="47.6577" lon="-2.00162">
        <ele>45.32</ele>
        <time>2014-03-30T06:47:16Z</time>
      </trkpt>
      <trkpt lat="47.6578" lon="-2.00172">
        <ele>45.8</ele>
        <time>2014-03-30T06:47:18Z</time>
      </trkpt>
      <trkpt lat="47.65789" lon="-2.00181">
        <ele>46.28</ele>
        <time>2014-03-30T06:47:20Z</time>
      </trkpt>
      <trkpt lat="47.65797" lon="-2.00191">
        <ele>45.8</ele>
        <time>2014-03-30T06:47:22Z</time>
      </trkpt>
      <trkpt lat="47.65798" lon="-2.00203">
        <ele>45.8</ele>
        <time>2014-03-30T06:47:24Z</time>
      </trkpt>
      <trkpt lat="47.65793" lon="-2.00222">
        <ele>45.32</ele>
        <time>2014-03-30T06:47:27Z</time>
      </trkpt>
      <trkpt lat="47.6579" lon="-2.0024">
        <ele>44.36</ele>
        <time>2014-03-30T06:47:30Z</time>
      </trkpt>
      <trkpt lat="47.65786" lon="-2.00257">
        <ele>44.36</ele>
        <time>2014-03-30T06:47:33Z</time>
      </trkpt>
      <trkpt lat="47.65779" lon="-2.00273">
        <ele>44.36</ele>
        <time>2014-03-30T06:47:36Z</time>
      </trkpt>
      <trkpt lat="47.6577" lon="-2.00286">
        <ele>44.84</ele>
        <time>2014-03-30T06:47:39Z</time>
      </trkpt>
      <trkpt lat="47.65762" lon="-2.00299">
        <ele>45.32</ele>
        <time>2014-03-30T06:47:42Z</time>
      </trkpt>
      <trkpt lat="47.65756" lon="-2.00315">
        <ele>45.8</ele>
        <time>2014-03-30T06:47:45Z</time>
      </trkpt>
      <trkpt lat="47.65752" lon="-2.00332">
        <ele>46.76</ele>
        <time>2014-03-30T06:47:48Z</time>
      </trkpt>
      <trkpt lat="47.65749" lon="-2.0035">
        <ele>47.24</ele>
        <time>2014-03-30T06:47:51Z</time>
      </trkpt>
      <trkpt lat="47.65745" lon="-2.0037">
        <ele>47.24</ele>
        <time>2014-03-30T06:47:54Z</time>
      </trkpt>
      <trkpt lat="47.65743" lon="-2.00383">
        <ele>47.24</ele>
        <time>2014-03-30T06:47:56Z</time>
      </trkpt>
      <trkpt lat="47.65741" lon="-2.00397">
        <ele>47.24</ele>
        <time>2014-03-30T06:47:58Z</time>
      </trkpt>
      <trkpt lat="47.65739" lon="-2.00411">
        <ele>47.24</ele>
        <time>2014-03-30T06:48:00Z</time>
      </trkpt>
      <trkpt lat="47.65737" lon="-2.00425">
        <ele>47.24</ele>
        <time>2014-03-30T06:48:02Z</time>
      </trkpt>
      <trkpt lat="47.65735" lon="-2.00439">
        <ele>47.72</ele>
        <time>2014-03-30T06:48:04Z</time>
      </trkpt>
      <trkpt lat="47.65733" lon="-2.00453">
        <ele>47.72</ele>
        <time>2014-03-30T06:48:06Z</time>
      </trkpt>
      <trkpt lat="47.65731" lon="-2.00473">
        <ele>47.72</ele>
        <time>2014-03-30T06:48:09Z</time>
      </trkpt>
      <trkpt lat="47.65729" lon="-2.00493">
        <ele>47.24</ele>
        <time>2014-03-30T06:48:12Z</time>
      </trkpt>
      <trkpt lat="47.65727" lon="-2.00513">
        <ele>47.72</ele>
        <time>2014-03-30T06:48:15Z</time>
      </trkpt>
      <trkpt lat="47.6572" lon="-2.00528">
        <ele>48.68</ele>
        <time>2014-03-30T06:48:18Z</time>
      </trkpt>
      <trkpt lat="47.6571" lon="-2.00533">
        <ele>49.16</ele>
        <time>2014-03-30T06:48:21Z</time>
      </trkpt>
      <trkpt lat="47.65701" lon="-2.00542">
        <ele>49.16</ele>
        <time>2014-03-30T06:48:24Z</time>
      </trkpt>
      <trkpt lat="47.65692" lon="-2.00553">
        <ele>48.68</ele>
        <time>2014-03-30T06:48:27Z</time>
      </trkpt>
      <trkpt lat="47.65683" lon="-2.00561">
        <ele>48.2</ele>
        <time>2014-03-30T06:48:31Z</time>
      </trkpt>
      <trkpt lat="47.65673" lon="-2.00558">
        <ele>48.68</ele>
        <time>2014-03-30T06:48:36Z</time>
      </trkpt>
      <trkpt lat="47.65661" lon="-2.00557">
        <ele>53.01</ele>
        <time>2014-03-30T06:48:55Z</time>
      </trkpt>
      <trkpt lat="47.65653" lon="-2.00545">
        <ele>59.26</ele>
        <time>2014-03-30T06:49:08Z</time>
      </trkpt>
      <trkpt lat="47.65649" lon="-2.00528">
        <ele>61.18</ele>
        <time>2014-03-30T06:49:13Z</time>
      </trkpt>
      <trkpt lat="47.65652" lon="-2.00511">
        <ele>64.55</ele>
        <time>2014-03-30T06:49:19Z</time>
      </trkpt>
      <trkpt lat="47.65651" lon="-2.00491">
        <ele>69.35</ele>
        <time>2014-03-30T06:49:26Z</time>
      </trkpt>
      <trkpt lat="47.65643" lon="-2.00481">
        <ele>71.76</ele>
        <time>2014-03-30T06:49:30Z</time>
      </trkpt>
      <trkpt lat="47.6564" lon="-2.00465">
        <ele>72.72</ele>
        <time>2014-03-30T06:49:35Z</time>
      </trkpt>
      <trkpt lat="47.65634" lon="-2.00449">
        <ele>74.64</ele>
        <time>2014-03-30T06:49:43Z</time>
      </trkpt>
      <trkpt lat="47.65633" lon="-2.00434">
        <ele>76.56</ele>
        <time>2014-03-30T06:49:48Z</time>
      </trkpt>
      <trkpt lat="47.65631" lon="-2.00415">
        <ele>78</ele>
        <time>2014-03-30T06:49:52Z</time>
      </trkpt>
      <trkpt lat="47.65622" lon="-2.00412">
        <ele>76.56</ele>
        <time>2014-03-30T06:49:56Z</time>
      </trkpt>
      <trkpt lat="47.65611" lon="-2.00418">
        <ele>76.56</ele>
        <time>2014-03-30T06:49:59Z</time>
      </trkpt>
      <trkpt lat="47.65599" lon="-2.00428">
        <ele>75.6</ele>
        <time>2014-03-30T06:50:02Z</time>
      </trkpt>
      <trkpt lat="47.65588" lon="-2.00435">
        <ele>74.64</ele>
        <time>2014-03-30T06:50:04Z</time>
      </trkpt>
      <trkpt lat="47.65576" lon="-2.00444">
        <ele>71.27</ele>
        <time>2014-03-30T06:50:07Z</time>
      </trkpt>
      <trkpt lat="47.65568" lon="-2.00458">
        <ele>63.58</ele>
        <time>2014-03-30T06:50:11Z</time>
      </trkpt>
      <trkpt lat="47.65573" lon="-2.00465">
        <ele>61.18</ele>
        <time>2014-03-30T06:50:15Z</time>
      </trkpt>
      <trkpt lat="47.6558" lon="-2.00475">
        <ele>62.62</ele>
        <time>2014-03-30T06:50:21Z</time>
      </trkpt>
      <trkpt lat="47.65583" lon="-2.00493">
        <ele>58.78</ele>
        <time>2014-03-30T06:50:33Z</time>
      </trkpt>
      <trkpt lat="47.65579" lon="-2.0051">
        <ele>57.82</ele>
        <time>2014-03-30T06:50:37Z</time>
      </trkpt>
      <trkpt lat="47.65584" lon="-2.00525">
        <ele>55.41</ele>
        <time>2014-03-30T06:50:43Z</time>
      </trkpt>
      <trkpt lat="47.65597" lon="-2.00534">
        <ele>53.49</ele>
        <time>2014-03-30T06:50:51Z</time>
      </trkpt>
      <trkpt lat="47.6561" lon="-2.00543">
        <ele>54.93</ele>
        <time>2014-03-30T06:51:03Z</time>
      </trkpt>
      <trkpt lat="47.65619" lon="-2.00564">
        <ele>56.37</ele>
        <time>2014-03-30T06:51:17Z</time>
      </trkpt>
      <trkpt lat="47.65622" lon="-2.00583">
        <ele>56.37</ele>
        <time>2014-03-30T06:51:23Z</time>
      </trkpt>
      <trkpt lat="47.65624" lon="-2.00602">
        <ele>54.93</ele>
        <time>2014-03-30T06:51:28Z</time>
      </trkpt>
      <trkpt lat="47.65614" lon="-2.00614">
        <ele>53.01</ele>
        <time>2014-03-30T06:51:33Z</time>
      </trkpt>
      <trkpt lat="47.6561" lon="-2.00637">
        <ele>53.01</ele>
        <time>2014-03-30T06:51:39Z</time>
      </trkpt>
      <trkpt lat="47.65611" lon="-2.00656">
        <ele>52.53</ele>
        <time>2014-03-30T06:51:43Z</time>
      </trkpt>
      <trkpt lat="47.65619" lon="-2.00667">
        <ele>51.57</ele>
        <time>2014-03-30T06:51:48Z</time>
      </trkpt>
      <trkpt lat="47.65631" lon="-2.00669">
        <ele>51.09</ele>
        <time>2014-03-30T06:51:55Z</time>
      </trkpt>
      <trkpt lat="47.65647" lon="-2.00665">
        <ele>53.49</ele>
        <time>2014-03-30T06:52:09Z</time>
      </trkpt>
      <trkpt lat="47.65656" lon="-2.00677">
        <ele>52.05</ele>
        <time>2014-03-30T06:52:16Z</time>
      </trkpt>
      <trkpt lat="47.65653" lon="-2.00689">
        <ele>50.13</ele>
        <time>2014-03-30T06:52:21Z</time>
      </trkpt>
      <trkpt lat="47.65645" lon="-2.00685">
        <ele>50.13</ele>
        <time>2014-03-30T06:52:26Z</time>
      </trkpt>
      <trkpt lat="47.65637" lon="-2.0069">
        <ele>50.13</ele>
        <time>2014-03-30T06:52:32Z</time>
      </trkpt>
      <trkpt lat="47.65632" lon="-2.00706">
        <ele>49.16</ele>
        <time>2014-03-30T06:52:37Z</time>
      </trkpt>
      <trkpt lat="47.65622" lon="-2.00717">
        <ele>47.24</ele>
        <time>2014-03-30T06:52:42Z</time>
      </trkpt>
      <trkpt lat="47.65621" lon="-2.00733">
        <ele>44.36</ele>
        <time>2014-03-30T06:52:49Z</time>
      </trkpt>
      <trkpt lat="47.65628" lon="-2.00743">
        <ele>43.88</ele>
        <time>2014-03-30T06:52:57Z</time>
      </trkpt>
      <trkpt lat="47.65628" lon="-2.00758">
        <ele>42.44</ele>
        <time>2014-03-30T06:53:03Z</time>
      </trkpt>
      <trkpt lat="47.65624" lon="-2.00775">
        <ele>41.47</ele>
        <time>2014-03-30T06:53:22Z</time>
      </trkpt>
      <trkpt lat="47.65613" lon="-2.00777">
        <ele>46.28</ele>
        <time>2014-03-30T06:53:33Z</time>
      </trkpt>
      <trkpt lat="47.65611" lon="-2.00762">
        <ele>47.72</ele>
        <time>2014-03-30T06:53:38Z</time>
      </trkpt>
      <trkpt lat="47.65602" lon="-2.00755">
        <ele>48.68</ele>
        <time>2014-03-30T06:53:45Z</time>
      </trkpt>
      <trkpt lat="47.65592" lon="-2.00743">
        <ele>50.61</ele>
        <time>2014-03-30T06:53:53Z</time>
      </trkpt>
      <trkpt lat="47.65585" lon="-2.00726">
        <ele>52.53</ele>
        <time>2014-03-30T06:53:58Z</time>
      </trkpt>
      <trkpt lat="47.65575" lon="-2.00705">
        <ele>54.93</ele>
        <time>2014-03-30T06:54:06Z</time>
      </trkpt>
      <trkpt lat="47.65567" lon="-2.00692">
        <ele>59.74</ele>
        <time>2014-03-30T06:54:13Z</time>
      </trkpt>
      <trkpt lat="47.65556" lon="-2.00687">
        <ele>65.99</ele>
        <time>2014-03-30T06:54:21Z</time>
      </trkpt>
      <trkpt lat="47.65544" lon="-2.00687">
        <ele>72.24</ele>
        <time>2014-03-30T06:54:30Z</time>
      </trkpt>
      <trkpt lat="47.65534" lon="-2.00699">
        <ele>75.12</ele>
        <time>2014-03-30T06:54:35Z</time>
      </trkpt>
      <trkpt lat="47.6553" lon="-2.00713">
        <ele>76.08</ele>
        <time>2014-03-30T06:54:39Z</time>
      </trkpt>
      <trkpt lat="47.65527" lon="-2.00728">
        <ele>73.68</ele>
        <time>2014-03-30T06:54:43Z</time>
      </trkpt>
      <trkpt lat="47.65528" lon="-2.00744">
        <ele>69.35</ele>
        <time>2014-03-30T06:54:48Z</time>
      </trkpt>
      <trkpt lat="47.65522" lon="-2.00763">
        <ele>66.47</ele>
        <time>2014-03-30T06:54:55Z</time>
      </trkpt>
      <trkpt lat="47.6551" lon="-2.00774">
        <ele>65.03</ele>
        <time>2014-03-30T06:55:00Z</time>
      </trkpt>
      <trkpt lat="47.65498" lon="-2.00787">
        <ele>64.07</ele>
        <time>2014-03-30T06:55:05Z</time>
      </trkpt>
      <trkpt lat="47.65489" lon="-2.008">
        <ele>64.55</ele>
        <time>2014-03-30T06:55:10Z</time>
      </trkpt>
      <trkpt lat="47.65478" lon="-2.00808">
        <ele>66.95</ele>
        <time>2014-03-30T06:55:16Z</time>
      </trkpt>
      <trkpt lat="47.65468" lon="-2.00817">
        <ele>69.35</ele>
        <time>2014-03-30T06:55:23Z</time>
      </trkpt>
      <trkpt lat="47.65456" lon="-2.00816">
        <ele>70.31</ele>
        <time>2014-03-30T06:55:30Z</time>
      </trkpt>
      <trkpt lat="47.65447" lon="-2.00809">
        <ele>73.2</ele>
        <time>2014-03-30T06:55:36Z</time>
      </trkpt>
      <trkpt lat="47.65435" lon="-2.00803">
        <ele>77.04</ele>
        <time>2014-03-30T06:55:46Z</time>
      </trkpt>
      <trkpt lat="47.65423" lon="-2.00794">
        <ele>80.89</ele>
        <time>2014-03-30T06:55:57Z</time>
      </trkpt>
      <trkpt lat="47.65413" lon="-2.00781">
        <ele>88.1</ele>
        <time>2014-03-30T06:56:08Z</time>
      </trkpt>
      <trkpt lat="47.65417" lon="-2.00768">
        <ele>89.54</ele>
        <time>2014-03-30T06:56:14Z</time>
      </trkpt>
      <trkpt lat="47.6541" lon="-2.00749">
        <ele>88.58</ele>
        <time>2014-03-30T06:56:28Z</time>
      </trkpt>
      <trkpt lat="47.65399" lon="-2.00742">
        <ele>90.98</ele>
        <time>2014-03-30T06:56:34Z</time>
      </trkpt>
      <trkpt lat="47.65393" lon="-2.00725">
        <ele>91.94</ele>
        <time>2014-03-30T06:56:43Z</time>
      </trkpt>
      <trkpt lat="47.65388" lon="-2.00706">
        <ele>90.02</ele>
        <time>2014-03-30T06:56:51Z</time>
      </trkpt>
      <trkpt lat="47.65387" lon="-2.00686">
        <ele>90.02</ele>
        <time>2014-03-30T06:56:56Z</time>
      </trkpt>
      <trkpt lat="47.65382" lon="-2.0067">
        <ele>90.98</ele>
        <time>2014-03-30T06:57:01Z</time>
      </trkpt>
      <trkpt lat="47.65375" lon="-2.00654">
        <ele>91.46</ele>
        <time>2014-03-30T06:57:07Z</time>
      </trkpt>
      <trkpt lat="47.65368" lon="-2.00639">
        <ele>92.9</ele>
        <time>2014-03-30T06:57:11Z</time>
      </trkpt>
      <trkpt lat="47.65358" lon="-2.00632">
        <ele>90.02</ele>
        <time>2014-03-30T06:57:16Z</time>
      </trkpt>
      <trkpt lat="47.65347" lon="-2.00622">
        <ele>87.62</ele>
        <time>2014-03-30T06:57:20Z</time>
      </trkpt>
      <trkpt lat="47.65336" lon="-2.0062">
        <ele>85.69</ele>
        <time>2014-03-30T06:57:23Z</time>
      </trkpt>
      <trkpt lat="47.65325" lon="-2.00623">
        <ele>82.81</ele>
        <time>2014-03-30T06:57:27Z</time>
      </trkpt>
      <trkpt lat="47.65317" lon="-2.00636">
        <ele>79.93</ele>
        <time>2014-03-30T06:57:31Z</time>
      </trkpt>
      <trkpt lat="47.65306" lon="-2.00649">
        <ele>77.04</ele>
        <time>2014-03-30T06:57:35Z</time>
      </trkpt>
      <trkpt lat="47.653" lon="-2.00665">
        <ele>74.64</ele>
        <time>2014-03-30T06:57:39Z</time>
      </trkpt>
      <trkpt lat="47.653" lon="-2.00681">
        <ele>71.76</ele>
        <time>2014-03-30T06:57:44Z</time>
      </trkpt>
      <trkpt lat="47.65304" lon="-2.00696">
        <ele>67.43</ele>
        <time>2014-03-30T06:57:49Z</time>
      </trkpt>
      <trkpt lat="47.65314" lon="-2.00708">
        <ele>63.58</ele>
        <time>2014-03-30T06:57:56Z</time>
      </trkpt>
      <trkpt lat="47.65328" lon="-2.00717">
        <ele>62.14</ele>
        <time>2014-03-30T06:58:05Z</time>
      </trkpt>
      <trkpt lat="47.65334" lon="-2.00732">
        <ele>63.58</ele>
        <time>2014-03-30T06:58:15Z</time>
      </trkpt>
      <trkpt lat="47.65338" lon="-2.00747">
        <ele>63.58</ele>
        <time>2014-03-30T06:58:22Z</time>
      </trkpt>
      <trkpt lat="47.65342" lon="-2.00763">
        <ele>64.07</ele>
        <time>2014-03-30T06:58:29Z</time>
      </trkpt>
      <trkpt lat="47.65348" lon="-2.00783">
        <ele>63.1</ele>
        <time>2014-03-30T06:58:36Z</time>
      </trkpt>
      <trkpt lat="47.65349" lon="-2.0081">
        <ele>61.18</ele>
        <time>2014-03-30T06:58:41Z</time>
      </trkpt>
      <trkpt lat="47.65343" lon="-2.00821">
        <ele>59.74</ele>
        <time>2014-03-30T06:58:46Z</time>
      </trkpt>
      <trkpt lat="47.65332" lon="-2.0083">
        <ele>58.3</ele>
        <time>2014-03-30T06:58:50Z</time>
      </trkpt>
      <trkpt lat="47.65329" lon="-2.00848">
        <ele>57.34</ele>
        <time>2014-03-30T06:58:54Z</time>
      </trkpt>
      <trkpt lat="47.65325" lon="-2.00866">
        <ele>56.86</ele>
        <time>2014-03-30T06:58:58Z</time>
      </trkpt>
      <trkpt lat="47.65326" lon="-2.00882">
        <ele>55.89</ele>
        <time>2014-03-30T06:59:01Z</time>
      </trkpt>
      <trkpt lat="47.65329" lon="-2.00898">
        <ele>55.89</ele>
        <time>2014-03-30T06:59:05Z</time>
      </trkpt>
      <trkpt lat="47.65333" lon="-2.00911">
        <ele>55.89</ele>
        <time>2014-03-30T06:59:09Z</time>
      </trkpt>
      <trkpt lat="47.65337" lon="-2.00926">
        <ele>55.41</ele>
        <time>2014-03-30T06:59:14Z</time>
      </trkpt>
      <trkpt lat="47.65332" lon="-2.00942">
        <ele>55.41</ele>
        <time>2014-03-30T06:59:18Z</time>
      </trkpt>
      <trkpt lat="47.65322" lon="-2.00946">
        <ele>55.41</ele>
        <time>2014-03-30T06:59:22Z</time>
      </trkpt>
      <trkpt lat="47.65315" lon="-2.00956">
        <ele>54.93</ele>
        <time>2014-03-30T06:59:25Z</time>
      </trkpt>
      <trkpt lat="47.65304" lon="-2.00967">
        <ele>53.01</ele>
        <time>2014-03-30T06:59:29Z</time>
      </trkpt>
      <trkpt lat="47.65292" lon="-2.00973">
        <ele>51.09</ele>
        <time>2014-03-30T06:59:32Z</time>
      </trkpt>
      <trkpt lat="47.65282" lon="-2.00976">
        <ele>50.13</ele>
        <time>2014-03-30T06:59:34Z</time>
      </trkpt>
      <trkpt lat="47.65273" lon="-2.00976">
        <ele>49.16</ele>
        <time>2014-03-30T06:59:36Z</time>
      </trkpt>
      <trkpt lat="47.65264" lon="-2.00981">
        <ele>46.76</ele>
        <time>2014-03-30T06:59:40Z</time>
      </trkpt>
      <trkpt lat="47.65266" lon="-2.00995">
        <ele>45.8</ele>
        <time>2014-03-30T06:59:44Z</time>
      </trkpt>
      <trkpt lat="47.65266" lon="-2.01013">
        <ele>45.32</ele>
        <time>2014-03-30T06:59:48Z</time>
      </trkpt>
      <trkpt lat="47.65268" lon="-2.01028">
        <ele>43.88</ele>
        <time>2014-03-30T06:59:51Z</time>
      </trkpt>
      <trkpt lat="47.65273" lon="-2.01044">
        <ele>41.95</ele>
        <time>2014-03-30T06:59:55Z</time>
      </trkpt>
      <trkpt lat="47.65279" lon="-2.01055">
        <ele>40.99</ele>
        <time>2014-03-30T07:00:00Z</time>
      </trkpt>
      <trkpt lat="47.65288" lon="-2.01065">
        <ele>39.55</ele>
        <time>2014-03-30T07:00:12Z</time>
      </trkpt>
      <trkpt lat="47.65298" lon="-2.01073">
        <ele>41.95</ele>
        <time>2014-03-30T07:00:19Z</time>
      </trkpt>
      <trkpt lat="47.65311" lon="-2.01078">
        <ele>42.44</ele>
        <time>2014-03-30T07:00:31Z</time>
      </trkpt>
      <trkpt lat="47.65327" lon="-2.011">
        <ele>46.28</ele>
        <time>2014-03-30T07:00:52Z</time>
      </trkpt>
      <trkpt lat="47.65326" lon="-2.01117">
        <ele>43.88</ele>
        <time>2014-03-30T07:00:55Z</time>
      </trkpt>
      <trkpt lat="47.65336" lon="-2.01127">
        <ele>43.88</ele>
        <time>2014-03-30T07:01:01Z</time>
      </trkpt>
      <trkpt lat="47.65349" lon="-2.01133">
        <ele>43.4</ele>
        <time>2014-03-30T07:01:06Z</time>
      </trkpt>
      <trkpt lat="47.65358" lon="-2.01133">
        <ele>40.99</ele>
        <time>2014-03-30T07:01:12Z</time>
      </trkpt>
      <trkpt lat="47.65357" lon="-2.0115">
        <ele>39.07</ele>
        <time>2014-03-30T07:01:18Z</time>
      </trkpt>
      <trkpt lat="47.65351" lon="-2.01162">
        <ele>38.11</ele>
        <time>2014-03-30T07:01:34Z</time>
      </trkpt>
      <trkpt lat="47.6534" lon="-2.01162">
        <ele>41.95</ele>
        <time>2014-03-30T07:01:49Z</time>
      </trkpt>
      <trkpt lat="47.65333" lon="-2.01171">
        <ele>42.92</ele>
        <time>2014-03-30T07:01:57Z</time>
      </trkpt>
      <trkpt lat="47.65336" lon="-2.0119">
        <ele>40.51</ele>
        <time>2014-03-30T07:02:09Z</time>
      </trkpt>
      <trkpt lat="47.65339" lon="-2.01206">
        <ele>36.19</ele>
        <time>2014-03-30T07:02:16Z</time>
      </trkpt>
      <trkpt lat="47.65349" lon="-2.01208">
        <ele>30.9</ele>
        <time>2014-03-30T07:02:23Z</time>
      </trkpt>
      <trkpt lat="47.65359" lon="-2.01212">
        <ele>29.46</ele>
        <time>2014-03-30T07:02:27Z</time>
      </trkpt>
      <trkpt lat="47.65371" lon="-2.01216">
        <ele>28.5</ele>
        <time>2014-03-30T07:02:31Z</time>
      </trkpt>
      <trkpt lat="47.65386" lon="-2.01219">
        <ele>29.46</ele>
        <time>2014-03-30T07:02:35Z</time>
      </trkpt>
      <trkpt lat="47.6539" lon="-2.01207">
        <ele>30.42</ele>
        <time>2014-03-30T07:02:39Z</time>
      </trkpt>
      <trkpt lat="47.65398" lon="-2.01195">
        <ele>31.86</ele>
        <time>2014-03-30T07:02:44Z</time>
      </trkpt>
      <trkpt lat="47.65407" lon="-2.01185">
        <ele>34.26</ele>
        <time>2014-03-30T07:02:50Z</time>
      </trkpt>
      <trkpt lat="47.65419" lon="-2.01179">
        <ele>35.71</ele>
        <time>2014-03-30T07:02:54Z</time>
      </trkpt>
      <trkpt lat="47.6543" lon="-2.01171">
        <ele>37.63</ele>
        <time>2014-03-30T07:02:58Z</time>
      </trkpt>
      <trkpt lat="47.65439" lon="-2.01163">
        <ele>39.07</ele>
        <time>2014-03-30T07:03:02Z</time>
      </trkpt>
      <trkpt lat="47.65449" lon="-2.01164">
        <ele>39.07</ele>
        <time>2014-03-30T07:03:06Z</time>
      </trkpt>
      <trkpt lat="47.65461" lon="-2.01177">
        <ele>38.11</ele>
        <time>2014-03-30T07:03:09Z</time>
      </trkpt>
      <trkpt lat="47.65469" lon="-2.01185">
        <ele>37.63</ele>
        <time>2014-03-30T07:03:11Z</time>
      </trkpt>
      <trkpt lat="47.6548" lon="-2.01195">
        <ele>35.71</ele>
        <time>2014-03-30T07:03:14Z</time>
      </trkpt>
      <trkpt lat="47.6549" lon="-2.01201">
        <ele>34.26</ele>
        <time>2014-03-30T07:03:17Z</time>
      </trkpt>
      <trkpt lat="47.655" lon="-2.01193">
        <ele>34.74</ele>
        <time>2014-03-30T07:03:23Z</time>
      </trkpt>
      <trkpt lat="47.65507" lon="-2.01179">
        <ele>36.67</ele>
        <time>2014-03-30T07:03:30Z</time>
      </trkpt>
      <trkpt lat="47.65516" lon="-2.01169">
        <ele>40.51</ele>
        <time>2014-03-30T07:03:39Z</time>
      </trkpt>
      <trkpt lat="47.6553" lon="-2.01165">
        <ele>42.92</ele>
        <time>2014-03-30T07:03:46Z</time>
      </trkpt>
      <trkpt lat="47.6554" lon="-2.01163">
        <ele>42.44</ele>
        <time>2014-03-30T07:03:51Z</time>
      </trkpt>
      <trkpt lat="47.65541" lon="-2.01179">
        <ele>39.07</ele>
        <time>2014-03-30T07:03:56Z</time>
      </trkpt>
      <trkpt lat="47.65551" lon="-2.01179">
        <ele>36.67</ele>
        <time>2014-03-30T07:04:02Z</time>
      </trkpt>
      <trkpt lat="47.65566" lon="-2.01176">
        <ele>36.19</ele>
        <time>2014-03-30T07:04:08Z</time>
      </trkpt>
      <trkpt lat="47.65579" lon="-2.0117">
        <ele>39.55</ele>
        <time>2014-03-30T07:04:16Z</time>
      </trkpt>
      <trkpt lat="47.65592" lon="-2.01161">
        <ele>44.36</ele>
        <time>2014-03-30T07:04:26Z</time>
      </trkpt>
      <trkpt lat="47.65603" lon="-2.01155">
        <ele>46.76</ele>
        <time>2014-03-30T07:04:32Z</time>
      </trkpt>
      <trkpt lat="47.65607" lon="-2.0114">
        <ele>49.16</ele>
        <time>2014-03-30T07:04:39Z</time>
      </trkpt>
      <trkpt lat="47.65607" lon="-2.01122">
        <ele>49.65</ele>
        <time>2014-03-30T07:04:48Z</time>
      </trkpt>
      <trkpt lat="47.65615" lon="-2.01104">
        <ele>49.65</ele>
        <time>2014-03-30T07:04:57Z</time>
      </trkpt>
      <trkpt lat="47.65613" lon="-2.01088">
        <ele>51.09</ele>
        <time>2014-03-30T07:05:04Z</time>
      </trkpt>
      <trkpt lat="47.65607" lon="-2.01075">
        <ele>52.05</ele>
        <time>2014-03-30T07:05:11Z</time>
      </trkpt>
      <trkpt lat="47.65601" lon="-2.01078">
        <ele>51.09</ele>
        <time>2014-03-30T07:05:19Z</time>
      </trkpt>
      <trkpt lat="47.65591" lon="-2.01079">
        <ele>51.09</ele>
        <time>2014-03-30T07:05:27Z</time>
      </trkpt>
      <trkpt lat="47.65578" lon="-2.01074">
        <ele>52.05</ele>
        <time>2014-03-30T07:05:34Z</time>
      </trkpt>
      <trkpt lat="47.65573" lon="-2.01061">
        <ele>52.05</ele>
        <time>2014-03-30T07:05:40Z</time>
      </trkpt>
      <trkpt lat="47.65573" lon="-2.01044">
        <ele>52.05</ele>
        <time>2014-03-30T07:05:46Z</time>
      </trkpt>
      <trkpt lat="47.65579" lon="-2.01031">
        <ele>51.57</ele>
        <time>2014-03-30T07:05:51Z</time>
      </trkpt>
      <trkpt lat="47.65589" lon="-2.01025">
        <ele>51.57</ele>
        <time>2014-03-30T07:05:55Z</time>
      </trkpt>
      <trkpt lat="47.65598" lon="-2.01029">
        <ele>50.61</ele>
        <time>2014-03-30T07:05:59Z</time>
      </trkpt>
      <trkpt lat="47.65608" lon="-2.01035">
        <ele>50.13</ele>
        <time>2014-03-30T07:06:02Z</time>
      </trkpt>
      <trkpt lat="47.6562" lon="-2.01037">
        <ele>50.13</ele>
        <time>2014-03-30T07:06:05Z</time>
      </trkpt>
      <trkpt lat="47.65633" lon="-2.01042">
        <ele>49.65</ele>
        <time>2014-03-30T07:06:08Z</time>
      </trkpt>
      <trkpt lat="47.65643" lon="-2.01042">
        <ele>48.68</ele>
        <time>2014-03-30T07:06:11Z</time>
      </trkpt>
      <trkpt lat="47.65649" lon="-2.01028">
        <ele>47.24</ele>
        <time>2014-03-30T07:06:14Z</time>
      </trkpt>
      <trkpt lat="47.65652" lon="-2.0101">
        <ele>44.84</ele>
        <time>2014-03-30T07:06:17Z</time>
      </trkpt>
      <trkpt lat="47.65654" lon="-2.00994">
        <ele>43.4</ele>
        <time>2014-03-30T07:06:20Z</time>
      </trkpt>
      <trkpt lat="47.65656" lon="-2.00979">
        <ele>42.44</ele>
        <time>2014-03-30T07:06:23Z</time>
      </trkpt>
      <trkpt lat="47.65657" lon="-2.00963">
        <ele>42.44</ele>
        <time>2014-03-30T07:06:26Z</time>
      </trkpt>
      <trkpt lat="47.65658" lon="-2.00946">
        <ele>41.95</ele>
        <time>2014-03-30T07:06:30Z</time>
      </trkpt>
      <trkpt lat="47.65654" lon="-2.0093">
        <ele>43.4</ele>
        <time>2014-03-30T07:06:34Z</time>
      </trkpt>
      <trkpt lat="47.65649" lon="-2.00913">
        <ele>45.8</ele>
        <time>2014-03-30T07:06:38Z</time>
      </trkpt>
      <trkpt lat="47.65646" lon="-2.00896">
        <ele>49.16</ele>
        <time>2014-03-30T07:06:42Z</time>
      </trkpt>
      <trkpt lat="47.65642" lon="-2.00877">
        <ele>52.05</ele>
        <time>2014-03-30T07:06:46Z</time>
      </trkpt>
      <trkpt lat="47.65642" lon="-2.00857">
        <ele>55.41</ele>
        <time>2014-03-30T07:06:51Z</time>
      </trkpt>
      <trkpt lat="47.65648" lon="-2.00845">
        <ele>57.82</ele>
        <time>2014-03-30T07:06:57Z</time>
      </trkpt>
      <trkpt lat="47.65655" lon="-2.00848">
        <ele>55.89</ele>
        <time>2014-03-30T07:07:04Z</time>
      </trkpt>
      <trkpt lat="47.65664" lon="-2.00856">
        <ele>54.45</ele>
        <time>2014-03-30T07:07:09Z</time>
      </trkpt>
      <trkpt lat="47.65675" lon="-2.00859">
        <ele>51.09</ele>
        <time>2014-03-30T07:07:17Z</time>
      </trkpt>
      <trkpt lat="47.65688" lon="-2.0086">
        <ele>46.76</ele>
        <time>2014-03-30T07:07:29Z</time>
      </trkpt>
      <trkpt lat="47.65697" lon="-2.00851">
        <ele>45.32</ele>
        <time>2014-03-30T07:07:39Z</time>
      </trkpt>
      <trkpt lat="47.65704" lon="-2.00839">
        <ele>49.16</ele>
        <time>2014-03-30T07:07:54Z</time>
      </trkpt>
      <trkpt lat="47.65712" lon="-2.00826">
        <ele>51.09</ele>
        <time>2014-03-30T07:08:02Z</time>
      </trkpt>
      <trkpt lat="47.65715" lon="-2.00811">
        <ele>54.93</ele>
        <time>2014-03-30T07:08:10Z</time>
      </trkpt>
      <trkpt lat="47.65714" lon="-2.00793">
        <ele>60.22</ele>
        <time>2014-03-30T07:08:18Z</time>
      </trkpt>
      <trkpt lat="47.65716" lon="-2.00777">
        <ele>65.03</ele>
        <time>2014-03-30T07:08:25Z</time>
      </trkpt>
      <trkpt lat="47.65723" lon="-2.00765">
        <ele>69.83</ele>
        <time>2014-03-30T07:08:31Z</time>
      </trkpt>
      <trkpt lat="47.65732" lon="-2.00753">
        <ele>76.08</ele>
        <time>2014-03-30T07:08:39Z</time>
      </trkpt>
      <trkpt lat="47.65742" lon="-2.00745">
        <ele>77.04</ele>
        <time>2014-03-30T07:08:44Z</time>
      </trkpt>
      <trkpt lat="47.65746" lon="-2.00753">
        <ele>78.97</ele>
        <time>2014-03-30T07:08:50Z</time>
      </trkpt>
      <trkpt lat="47.65744" lon="-2.0077">
        <ele>79.93</ele>
        <time>2014-03-30T07:08:54Z</time>
      </trkpt>
      <trkpt lat="47.65752" lon="-2.00776">
        <ele>79.45</ele>
        <time>2014-03-30T07:08:59Z</time>
      </trkpt>
      <trkpt lat="47.65767" lon="-2.0077">
        <ele>76.56</ele>
        <time>2014-03-30T07:09:04Z</time>
      </trkpt>
      <trkpt lat="47.65778" lon="-2.00771">
        <ele>74.16</ele>
        <time>2014-03-30T07:09:08Z</time>
      </trkpt>
      <trkpt lat="47.65783" lon="-2.00782">
        <ele>72.72</ele>
        <time>2014-03-30T07:09:13Z</time>
      </trkpt>
      <trkpt lat="47.65802" lon="-2.00783">
        <ele>71.27</ele>
        <time>2014-03-30T07:09:17Z</time>
      </trkpt>
      <trkpt lat="47.65817" lon="-2.00784">
        <ele>69.35</ele>
        <time>2014-03-30T07:09:20Z</time>
      </trkpt>
      <trkpt lat="47.65832" lon="-2.00788">
        <ele>66.95</ele>
        <time>2014-03-30T07:09:23Z</time>
      </trkpt>
      <trkpt lat="47.65843" lon="-2.00787">
        <ele>63.58</ele>
        <time>2014-03-30T07:09:26Z</time>
      </trkpt>
      <trkpt lat="47.65848" lon="-2.008">
        <ele>59.74</ele>
        <time>2014-03-30T07:09:29Z</time>
      </trkpt>
      <trkpt lat="47.65851" lon="-2.00815">
        <ele>56.86</ele>
        <time>2014-03-30T07:09:31Z</time>
      </trkpt>
      <trkpt lat="47.65854" lon="-2.00834">
        <ele>51.57</ele>
        <time>2014-03-30T07:09:34Z</time>
      </trkpt>
      <trkpt lat="47.65852" lon="-2.00846">
        <ele>48.2</ele>
        <time>2014-03-30T07:09:37Z</time>
      </trkpt>
      <trkpt lat="47.65848" lon="-2.0086">
        <ele>44.36</ele>
        <time>2014-03-30T07:09:40Z</time>
      </trkpt>
      <trkpt lat="47.65846" lon="-2.00874">
        <ele>40.51</ele>
        <time>2014-03-30T07:09:43Z</time>
      </trkpt>
      <trkpt lat="47.65843" lon="-2.00889">
        <ele>37.63</ele>
        <time>2014-03-30T07:09:46Z</time>
      </trkpt>
      <trkpt lat="47.6584" lon="-2.00906">
        <ele>35.71</ele>
        <time>2014-03-30T07:09:49Z</time>
      </trkpt>
      <trkpt lat="47.65839" lon="-2.00924">
        <ele>33.3</ele>
        <time>2014-03-30T07:09:53Z</time>
      </trkpt>
      <trkpt lat="47.6584" lon="-2.0094">
        <ele>29.46</ele>
        <time>2014-03-30T07:09:58Z</time>
      </trkpt>
      <trkpt lat="47.65852" lon="-2.0094">
        <ele>26.09</ele>
        <time>2014-03-30T07:10:04Z</time>
      </trkpt>
      <trkpt lat="47.65862" lon="-2.00945">
        <ele>24.17</ele>
        <time>2014-03-30T07:10:07Z</time>
      </trkpt>
      <trkpt lat="47.65874" lon="-2.00947">
        <ele>21.77</ele>
        <time>2014-03-30T07:10:11Z</time>
      </trkpt>
      <trkpt lat="47.65887" lon="-2.00953">
        <ele>19.84</ele>
        <time>2014-03-30T07:10:16Z</time>
      </trkpt>
      <trkpt lat="47.65902" lon="-2.00951">
        <ele>19.36</ele>
        <time>2014-03-30T07:10:20Z</time>
      </trkpt>
      <trkpt lat="47.65912" lon="-2.0095">
        <ele>18.4</ele>
        <time>2014-03-30T07:10:22Z</time>
      </trkpt>
      <trkpt lat="47.65922" lon="-2.00949">
        <ele>17.92</ele>
        <time>2014-03-30T07:10:24Z</time>
      </trkpt>
      <trkpt lat="47.65936" lon="-2.0095">
        <ele>16.96</ele>
        <time>2014-03-30T07:10:27Z</time>
      </trkpt>
      <trkpt lat="47.65948" lon="-2.00944">
        <ele>16</ele>
        <time>2014-03-30T07:10:30Z</time>
      </trkpt>
      <trkpt lat="47.65957" lon="-2.00936">
        <ele>15.52</ele>
        <time>2014-03-30T07:10:32Z</time>
      </trkpt>
      <trkpt lat="47.65966" lon="-2.00923">
        <ele>16</ele>
        <time>2014-03-30T07:10:35Z</time>
      </trkpt>
      <trkpt lat="47.65976" lon="-2.00908">
        <ele>16.96</ele>
        <time>2014-03-30T07:10:38Z</time>
      </trkpt>
      <trkpt lat="47.65984" lon="-2.00891">
        <ele>17.92</ele>
        <time>2014-03-30T07:10:41Z</time>
      </trkpt>
      <trkpt lat="47.65995" lon="-2.00874">
        <ele>16.48</ele>
        <time>2014-03-30T07:10:44Z</time>
      </trkpt>
      <trkpt lat="47.66002" lon="-2.00862">
        <ele>15.04</ele>
        <time>2014-03-30T07:10:46Z</time>
      </trkpt>
      <trkpt lat="47.66012" lon="-2.00846">
        <ele>12.63</ele>
        <time>2014-03-30T07:10:49Z</time>
      </trkpt>
      <trkpt lat="47.66022" lon="-2.0083">
        <ele>11.19</ele>
        <time>2014-03-30T07:10:52Z</time>
      </trkpt>
      <trkpt lat="47.66031" lon="-2.00817">
        <ele>10.71</ele>
        <time>2014-03-30T07:10:55Z</time>
      </trkpt>
      <trkpt lat="47.66041" lon="-2.00806">
        <ele>10.71</ele>
        <time>2014-03-30T07:10:58Z</time>
      </trkpt>
      <trkpt lat="47.66053" lon="-2.00796">
        <ele>10.71</ele>
        <time>2014-03-30T07:11:01Z</time>
      </trkpt>
      <trkpt lat="47.66067" lon="-2.00785">
        <ele>11.19</ele>
        <time>2014-03-30T07:11:04Z</time>
      </trkpt>
      <trkpt lat="47.66077" lon="-2.0078">
        <ele>11.67</ele>
        <time>2014-03-30T07:11:06Z</time>
      </trkpt>
      <trkpt lat="47.66086" lon="-2.00774">
        <ele>12.15</ele>
        <time>2014-03-30T07:11:08Z</time>
      </trkpt>
      <trkpt lat="47.66095" lon="-2.00767">
        <ele>13.12</ele>
        <time>2014-03-30T07:11:10Z</time>
      </trkpt>
      <trkpt lat="47.66104" lon="-2.0076">
        <ele>13.6</ele>
        <time>2014-03-30T07:11:12Z</time>
      </trkpt>
      <trkpt lat="47.66116" lon="-2.00748">
        <ele>14.08</ele>
        <time>2014-03-30T07:11:15Z</time>
      </trkpt>
      <trkpt lat="47.66129" lon="-2.00737">
        <ele>14.56</ele>
        <time>2014-03-30T07:11:18Z</time>
      </trkpt>
      <trkpt lat="47.66141" lon="-2.00723">
        <ele>13.6</ele>
        <time>2014-03-30T07:11:21Z</time>
      </trkpt>
      <trkpt lat="47.6615" lon="-2.00711">
        <ele>13.6</ele>
        <time>2014-03-30T07:11:24Z</time>
      </trkpt>
      <trkpt lat="47.66159" lon="-2.00699">
        <ele>12.63</ele>
        <time>2014-03-30T07:11:27Z</time>
      </trkpt>
      <trkpt lat="47.66167" lon="-2.00687">
        <ele>12.15</ele>
        <time>2014-03-30T07:11:30Z</time>
      </trkpt>
      <trkpt lat="47.66175" lon="-2.00675">
        <ele>11.67</ele>
        <time>2014-03-30T07:11:33Z</time>
      </trkpt>
      <trkpt lat="47.66183" lon="-2.00663">
        <ele>11.67</ele>
        <time>2014-03-30T07:11:36Z</time>
      </trkpt>
      <trkpt lat="47.66191" lon="-2.0065">
        <ele>12.63</ele>
        <time>2014-03-30T07:11:39Z</time>
      </trkpt>
      <trkpt lat="47.66199" lon="-2.00638">
        <ele>14.08</ele>
        <time>2014-03-30T07:11:42Z</time>
      </trkpt>
      <trkpt lat="47.66207" lon="-2.00627">
        <ele>15.52</ele>
        <time>2014-03-30T07:11:45Z</time>
      </trkpt>
      <trkpt lat="47.66217" lon="-2.00617">
        <ele>17.44</ele>
        <time>2014-03-30T07:11:49Z</time>
      </trkpt>
      <trkpt lat="47.66227" lon="-2.00607">
        <ele>18.4</ele>
        <time>2014-03-30T07:11:53Z</time>
      </trkpt>
      <trkpt lat="47.66238" lon="-2.00605">
        <ele>19.36</ele>
        <time>2014-03-30T07:11:57Z</time>
      </trkpt>
      <trkpt lat="47.66249" lon="-2.00604">
        <ele>19.36</ele>
        <time>2014-03-30T07:12:00Z</time>
      </trkpt>
      <trkpt lat="47.66261" lon="-2.00603">
        <ele>20.32</ele>
        <time>2014-03-30T07:12:03Z</time>
      </trkpt>
      <trkpt lat="47.66273" lon="-2.00602">
        <ele>20.81</ele>
        <time>2014-03-30T07:12:06Z</time>
      </trkpt>
      <trkpt lat="47.66284" lon="-2.00601">
        <ele>21.29</ele>
        <time>2014-03-30T07:12:09Z</time>
      </trkpt>
      <trkpt lat="47.66295" lon="-2.006">
        <ele>22.25</ele>
        <time>2014-03-30T07:12:12Z</time>
      </trkpt>
      <trkpt lat="47.66306" lon="-2.00599">
        <ele>22.73</ele>
        <time>2014-03-30T07:12:15Z</time>
      </trkpt>
      <trkpt lat="47.66317" lon="-2.00599">
        <ele>21.77</ele>
        <time>2014-03-30T07:12:18Z</time>
      </trkpt>
      <trkpt lat="47.66329" lon="-2.00598">
        <ele>21.77</ele>
        <time>2014-03-30T07:12:21Z</time>
      </trkpt>
      <trkpt lat="47.66341" lon="-2.00597">
        <ele>21.29</ele>
        <time>2014-03-30T07:12:24Z</time>
      </trkpt>
      <trkpt lat="47.66353" lon="-2.00596">
        <ele>21.29</ele>
        <time>2014-03-30T07:12:27Z</time>
      </trkpt>
      <trkpt lat="47.66367" lon="-2.00596">
        <ele>20.81</ele>
        <time>2014-03-30T07:12:30Z</time>
      </trkpt>
      <trkpt lat="47.66381" lon="-2.00596">
        <ele>20.81</ele>
        <time>2014-03-30T07:12:33Z</time>
      </trkpt>
      <trkpt lat="47.66394" lon="-2.00601">
        <ele>21.29</ele>
        <time>2014-03-30T07:12:36Z</time>
      </trkpt>
      <trkpt lat="47.66402" lon="-2.00612">
        <ele>20.32</ele>
        <time>2014-03-30T07:12:38Z</time>
      </trkpt>
      <trkpt lat="47.66406" lon="-2.00627">
        <ele>18.4</ele>
        <time>2014-03-30T07:12:40Z</time>
      </trkpt>
      <trkpt lat="47.66408" lon="-2.00645">
        <ele>16.48</ele>
        <time>2014-03-30T07:12:42Z</time>
      </trkpt>
      <trkpt lat="47.66412" lon="-2.00662">
        <ele>14.08</ele>
        <time>2014-03-30T07:12:44Z</time>
      </trkpt>
      <trkpt lat="47.66415" lon="-2.00677">
        <ele>12.63</ele>
        <time>2014-03-30T07:12:46Z</time>
      </trkpt>
      <trkpt lat="47.66422" lon="-2.00689">
        <ele>11.67</ele>
        <time>2014-03-30T07:12:48Z</time>
      </trkpt>
      <trkpt lat="47.66433" lon="-2.00695">
        <ele>10.23</ele>
        <time>2014-03-30T07:12:51Z</time>
      </trkpt>
      <trkpt lat="47.66443" lon="-2.00689">
        <ele>9.75</ele>
        <time>2014-03-30T07:12:54Z</time>
      </trkpt>
      <trkpt lat="47.66449" lon="-2.00678">
        <ele>9.75</ele>
        <time>2014-03-30T07:12:58Z</time>
      </trkpt>
      <trkpt lat="47.6646" lon="-2.00677">
        <ele>8.79</ele>
        <time>2014-03-30T07:13:02Z</time>
      </trkpt>
      <trkpt lat="47.6647" lon="-2.00676">
        <ele>8.31</ele>
        <time>2014-03-30T07:13:05Z</time>
      </trkpt>
      <trkpt lat="47.66481" lon="-2.00675">
        <ele>8.31</ele>
        <time>2014-03-30T07:13:08Z</time>
      </trkpt>
      <trkpt lat="47.6649" lon="-2.00673">
        <ele>8.79</ele>
        <time>2014-03-30T07:13:11Z</time>
      </trkpt>
      <trkpt lat="47.66501" lon="-2.00669">
        <ele>8.79</ele>
        <time>2014-03-30T07:13:15Z</time>
      </trkpt>
      <trkpt lat="47.66511" lon="-2.00658">
        <ele>8.79</ele>
        <time>2014-03-30T07:13:19Z</time>
      </trkpt>
      <trkpt lat="47.66512" lon="-2.00642">
        <ele>10.23</ele>
        <time>2014-03-30T07:13:23Z</time>
      </trkpt>
      <trkpt lat="47.66513" lon="-2.00623">
        <ele>11.19</ele>
        <time>2014-03-30T07:13:27Z</time>
      </trkpt>
      <trkpt lat="47.66513" lon="-2.00607">
        <ele>12.15</ele>
        <time>2014-03-30T07:13:31Z</time>
      </trkpt>
      <trkpt lat="47.66513" lon="-2.00593">
        <ele>12.15</ele>
        <time>2014-03-30T07:13:35Z</time>
      </trkpt>
      <trkpt lat="47.66513" lon="-2.00576">
        <ele>12.63</ele>
        <time>2014-03-30T07:13:39Z</time>
      </trkpt>
      <trkpt lat="47.6651" lon="-2.00562">
        <ele>13.6</ele>
        <time>2014-03-30T07:13:43Z</time>
      </trkpt>
      <trkpt lat="47.66512" lon="-2.00547">
        <ele>15.04</ele>
        <time>2014-03-30T07:13:47Z</time>
      </trkpt>
      <trkpt lat="47.66519" lon="-2.00534">
        <ele>15.04</ele>
        <time>2014-03-30T07:13:51Z</time>
      </trkpt>
      <trkpt lat="47.66526" lon="-2.00523">
        <ele>16</ele>
        <time>2014-03-30T07:13:55Z</time>
      </trkpt>
      <trkpt lat="47.66531" lon="-2.00506">
        <ele>17.44</ele>
        <time>2014-03-30T07:13:59Z</time>
      </trkpt>
      <trkpt lat="47.66531" lon="-2.0049">
        <ele>19.84</ele>
        <time>2014-03-30T07:14:03Z</time>
      </trkpt>
      <trkpt lat="47.66533" lon="-2.00475">
        <ele>21.77</ele>
        <time>2014-03-30T07:14:07Z</time>
      </trkpt>
      <trkpt lat="47.66535" lon="-2.00456">
        <ele>24.17</ele>
        <time>2014-03-30T07:14:12Z</time>
      </trkpt>
      <trkpt lat="47.66537" lon="-2.00433">
        <ele>26.09</ele>
        <time>2014-03-30T07:14:19Z</time>
      </trkpt>
      <trkpt lat="47.6654" lon="-2.00415">
        <ele>28.5</ele>
        <time>2014-03-30T07:14:24Z</time>
      </trkpt>
      <trkpt lat="47.66537" lon="-2.00401">
        <ele>35.23</ele>
        <time>2014-03-30T07:14:30Z</time>
      </trkpt>
      <trkpt lat="47.6653" lon="-2.00386">
        <ele>39.07</ele>
        <time>2014-03-30T07:14:38Z</time>
      </trkpt>
      <trkpt lat="47.66526" lon="-2.0037">
        <ele>38.59</ele>
        <time>2014-03-30T07:14:45Z</time>
      </trkpt>
      <trkpt lat="47.66528" lon="-2.00355">
        <ele>38.59</ele>
        <time>2014-03-30T07:14:51Z</time>
      </trkpt>
      <trkpt lat="47.66531" lon="-2.00338">
        <ele>38.11</ele>
        <time>2014-03-30T07:14:56Z</time>
      </trkpt>
      <trkpt lat="47.66532" lon="-2.00322">
        <ele>38.59</ele>
        <time>2014-03-30T07:15:03Z</time>
      </trkpt>
      <trkpt lat="47.66532" lon="-2.00298">
        <ele>33.78</ele>
        <time>2014-03-30T07:15:13Z</time>
      </trkpt>
      <trkpt lat="47.6653" lon="-2.00282">
        <ele>32.82</ele>
        <time>2014-03-30T07:15:15Z</time>
      </trkpt>
      <trkpt lat="47.66529" lon="-2.00262">
        <ele>29.94</ele>
        <time>2014-03-30T07:15:18Z</time>
      </trkpt>
      <trkpt lat="47.66531" lon="-2.00241">
        <ele>27.05</ele>
        <time>2014-03-30T07:15:21Z</time>
      </trkpt>
      <trkpt lat="47.66532" lon="-2.00226">
        <ele>25.13</ele>
        <time>2014-03-30T07:15:23Z</time>
      </trkpt>
      <trkpt lat="47.66538" lon="-2.00211">
        <ele>22.73</ele>
        <time>2014-03-30T07:15:26Z</time>
      </trkpt>
      <trkpt lat="47.66543" lon="-2.00194">
        <ele>20.32</ele>
        <time>2014-03-30T07:15:29Z</time>
      </trkpt>
      <trkpt lat="47.66546" lon="-2.00177">
        <ele>18.4</ele>
        <time>2014-03-30T07:15:32Z</time>
      </trkpt>
      <trkpt lat="47.66543" lon="-2.00163">
        <ele>18.88</ele>
        <time>2014-03-30T07:15:35Z</time>
      </trkpt>
      <trkpt lat="47.6654" lon="-2.00147">
        <ele>18.4</ele>
        <time>2014-03-30T07:15:38Z</time>
      </trkpt>
      <trkpt lat="47.66538" lon="-2.0013">
        <ele>17.92</ele>
        <time>2014-03-30T07:15:41Z</time>
      </trkpt>
      <trkpt lat="47.66534" lon="-2.00115">
        <ele>17.92</ele>
        <time>2014-03-30T07:15:44Z</time>
      </trkpt>
      <trkpt lat="47.66537" lon="-2.001">
        <ele>16.48</ele>
        <time>2014-03-30T07:15:47Z</time>
      </trkpt>
      <trkpt lat="47.6654" lon="-2.00082">
        <ele>15.04</ele>
        <time>2014-03-30T07:15:50Z</time>
      </trkpt>
      <trkpt lat="47.66545" lon="-2.00071">
        <ele>14.08</ele>
        <time>2014-03-30T07:15:53Z</time>
      </trkpt>
      <trkpt lat="47.66553" lon="-2.00063">
        <ele>11.19</ele>
        <time>2014-03-30T07:16:00Z</time>
      </trkpt>
      <trkpt lat="47.66564" lon="-2.00055">
        <ele>10.23</ele>
        <time>2014-03-30T07:16:04Z</time>
      </trkpt>
      <trkpt lat="47.66577" lon="-2.00058">
        <ele>8.79</ele>
        <time>2014-03-30T07:16:07Z</time>
      </trkpt>
      <trkpt lat="47.66587" lon="-2.00059">
        <ele>8.31</ele>
        <time>2014-03-30T07:16:09Z</time>
      </trkpt>
      <trkpt lat="47.66597" lon="-2.00061">
        <ele>7.35</ele>
        <time>2014-03-30T07:16:11Z</time>
      </trkpt>
      <trkpt lat="47.66608" lon="-2.00062">
        <ele>6.87</ele>
        <time>2014-03-30T07:16:13Z</time>
      </trkpt>
      <trkpt lat="47.66617" lon="-2.00062">
        <ele>6.39</ele>
        <time>2014-03-30T07:16:15Z</time>
      </trkpt>
      <trkpt lat="47.66627" lon="-2.00062">
        <ele>6.87</ele>
        <time>2014-03-30T07:16:17Z</time>
      </trkpt>
      <trkpt lat="47.66638" lon="-2.00065">
        <ele>6.39</ele>
        <time>2014-03-30T07:16:19Z</time>
      </trkpt>
      <trkpt lat="47.66649" lon="-2.00067">
        <ele>6.39</ele>
        <time>2014-03-30T07:16:21Z</time>
      </trkpt>
      <trkpt lat="47.6666" lon="-2.00069">
        <ele>6.39</ele>
        <time>2014-03-30T07:16:23Z</time>
      </trkpt>
      <trkpt lat="47.66672" lon="-2.0007">
        <ele>6.39</ele>
        <time>2014-03-30T07:16:25Z</time>
      </trkpt>
      <trkpt lat="47.66683" lon="-2.00072">
        <ele>5.91</ele>
        <time>2014-03-30T07:16:27Z</time>
      </trkpt>
      <trkpt lat="47.66694" lon="-2.00074">
        <ele>5.91</ele>
        <time>2014-03-30T07:16:29Z</time>
      </trkpt>
      <trkpt lat="47.66705" lon="-2.00076">
        <ele>5.91</ele>
        <time>2014-03-30T07:16:31Z</time>
      </trkpt>
      <trkpt lat="47.66715" lon="-2.00077">
        <ele>5.91</ele>
        <time>2014-03-30T07:16:33Z</time>
      </trkpt>
      <trkpt lat="47.66726" lon="-2.00079">
        <ele>5.91</ele>
        <time>2014-03-30T07:16:35Z</time>
      </trkpt>
      <trkpt lat="47.66737" lon="-2.00081">
        <ele>5.91</ele>
        <time>2014-03-30T07:16:37Z</time>
      </trkpt>
      <trkpt lat="47.66747" lon="-2.00083">
        <ele>5.91</ele>
        <time>2014-03-30T07:16:39Z</time>
      </trkpt>
      <trkpt lat="47.66756" lon="-2.00084">
        <ele>5.91</ele>
        <time>2014-03-30T07:16:41Z</time>
      </trkpt>
      <trkpt lat="47.66768" lon="-2.00088">
        <ele>5.42</ele>
        <time>2014-03-30T07:16:44Z</time>
      </trkpt>
      <trkpt lat="47.66778" lon="-2.00088">
        <ele>5.42</ele>
        <time>2014-03-30T07:16:47Z</time>
      </trkpt>
      <trkpt lat="47.6679" lon="-2.00088">
        <ele>5.42</ele>
        <time>2014-03-30T07:16:50Z</time>
      </trkpt>
      <trkpt lat="47.66799" lon="-2.0009">
        <ele>5.91</ele>
        <time>2014-03-30T07:16:52Z</time>
      </trkpt>
      <trkpt lat="47.66809" lon="-2.00091">
        <ele>5.91</ele>
        <time>2014-03-30T07:16:54Z</time>
      </trkpt>
      <trkpt lat="47.66819" lon="-2.00091">
        <ele>5.91</ele>
        <time>2014-03-30T07:16:56Z</time>
      </trkpt>
      <trkpt lat="47.66829" lon="-2.00092">
        <ele>5.91</ele>
        <time>2014-03-30T07:16:58Z</time>
      </trkpt>
      <trkpt lat="47.66839" lon="-2.00094">
        <ele>5.91</ele>
        <time>2014-03-30T07:17:00Z</time>
      </trkpt>
      <trkpt lat="47.66848" lon="-2.00095">
        <ele>5.42</ele>
        <time>2014-03-30T07:17:02Z</time>
      </trkpt>
      <trkpt lat="47.66858" lon="-2.00097">
        <ele>5.91</ele>
        <time>2014-03-30T07:17:04Z</time>
      </trkpt>
      <trkpt lat="47.66867" lon="-2.001">
        <ele>5.91</ele>
        <time>2014-03-30T07:17:06Z</time>
      </trkpt>
      <trkpt lat="47.66878" lon="-2.00102">
        <ele>6.39</ele>
        <time>2014-03-30T07:17:08Z</time>
      </trkpt>
      <trkpt lat="47.66889" lon="-2.00104">
        <ele>6.39</ele>
        <time>2014-03-30T07:17:10Z</time>
      </trkpt>
      <trkpt lat="47.669" lon="-2.00106">
        <ele>6.39</ele>
        <time>2014-03-30T07:17:12Z</time>
      </trkpt>
      <trkpt lat="47.66912" lon="-2.00107">
        <ele>6.87</ele>
        <time>2014-03-30T07:17:14Z</time>
      </trkpt>
      <trkpt lat="47.66923" lon="-2.00109">
        <ele>6.87</ele>
        <time>2014-03-30T07:17:16Z</time>
      </trkpt>
      <trkpt lat="47.66935" lon="-2.0011">
        <ele>6.39</ele>
        <time>2014-03-30T07:17:18Z</time>
      </trkpt>
      <trkpt lat="47.66946" lon="-2.00111">
        <ele>6.39</ele>
        <time>2014-03-30T07:17:20Z</time>
      </trkpt>
      <trkpt lat="47.66957" lon="-2.00113">
        <ele>6.39</ele>
        <time>2014-03-30T07:17:22Z</time>
      </trkpt>
      <trkpt lat="47.66967" lon="-2.00115">
        <ele>5.91</ele>
        <time>2014-03-30T07:17:24Z</time>
      </trkpt>
      <trkpt lat="47.66977" lon="-2.00116">
        <ele>6.39</ele>
        <time>2014-03-30T07:17:26Z</time>
      </trkpt>
      <trkpt lat="47.66988" lon="-2.00115">
        <ele>6.39</ele>
        <time>2014-03-30T07:17:29Z</time>
      </trkpt>
      <trkpt lat="47.66996" lon="-2.00106">
        <ele>6.39</ele>
        <time>2014-03-30T07:17:32Z</time>
      </trkpt>
      <trkpt lat="47.66998" lon="-2.00091">
        <ele>5.91</ele>
        <time>2014-03-30T07:17:35Z</time>
      </trkpt>
      <trkpt lat="47.67" lon="-2.00075">
        <ele>6.39</ele>
        <time>2014-03-30T07:17:39Z</time>
      </trkpt>
      <trkpt lat="47.67001" lon="-2.00061">
        <ele>6.39</ele>
        <time>2014-03-30T07:17:42Z</time>
      </trkpt>
      <trkpt lat="47.67002" lon="-2.00047">
        <ele>6.39</ele>
        <time>2014-03-30T07:17:45Z</time>
      </trkpt>
      <trkpt lat="47.67004" lon="-2.00033">
        <ele>6.39</ele>
        <time>2014-03-30T07:17:48Z</time>
      </trkpt>
      <trkpt lat="47.67006" lon="-2.00017">
        <ele>6.39</ele>
        <time>2014-03-30T07:17:51Z</time>
      </trkpt>
      <trkpt lat="47.67008" lon="-1.99998">
        <ele>6.39</ele>
        <time>2014-03-30T07:17:54Z</time>
      </trkpt>
      <trkpt lat="47.6701" lon="-1.99979">
        <ele>6.39</ele>
        <time>2014-03-30T07:17:57Z</time>
      </trkpt>
      <trkpt lat="47.67012" lon="-1.9996">
        <ele>6.87</ele>
        <time>2014-03-30T07:18:00Z</time>
      </trkpt>
      <trkpt lat="47.67014" lon="-1.99941">
        <ele>6.39</ele>
        <time>2014-03-30T07:18:03Z</time>
      </trkpt>
      <trkpt lat="47.67016" lon="-1.99923">
        <ele>6.39</ele>
        <time>2014-03-30T07:18:06Z</time>
      </trkpt>
      <trkpt lat="47.67019" lon="-1.99906">
        <ele>6.39</ele>
        <time>2014-03-30T07:18:09Z</time>
      </trkpt>
      <trkpt lat="47.6702" lon="-1.99888">
        <ele>6.39</ele>
        <time>2014-03-30T07:18:12Z</time>
      </trkpt>
      <trkpt lat="47.67021" lon="-1.99872">
        <ele>6.39</ele>
        <time>2014-03-30T07:18:15Z</time>
      </trkpt>
      <trkpt lat="47.6702" lon="-1.99857">
        <ele>5.91</ele>
        <time>2014-03-30T07:18:18Z</time>
      </trkpt>
      <trkpt lat="47.6702" lon="-1.99842">
        <ele>5.42</ele>
        <time>2014-03-30T07:18:21Z</time>
      </trkpt>
      <trkpt lat="47.6702" lon="-1.99827">
        <ele>5.42</ele>
        <time>2014-03-30T07:18:24Z</time>
      </trkpt>
      <trkpt lat="47.67021" lon="-1.99813">
        <ele>5.91</ele>
        <time>2014-03-30T07:18:27Z</time>
      </trkpt>
      <trkpt lat="47.6702" lon="-1.99799">
        <ele>5.91</ele>
        <time>2014-03-30T07:18:30Z</time>
      </trkpt>
      <trkpt lat="47.67021" lon="-1.99781">
        <ele>5.91</ele>
        <time>2014-03-30T07:18:33Z</time>
      </trkpt>
      <trkpt lat="47.67021" lon="-1.99764">
        <ele>5.42</ele>
        <time>2014-03-30T07:18:36Z</time>
      </trkpt>
      <trkpt lat="47.67022" lon="-1.99747">
        <ele>4.94</ele>
        <time>2014-03-30T07:18:39Z</time>
      </trkpt>
      <trkpt lat="47.67022" lon="-1.9973">
        <ele>4.94</ele>
        <time>2014-03-30T07:18:42Z</time>
      </trkpt>
      <trkpt lat="47.67023" lon="-1.99712">
        <ele>5.42</ele>
        <time>2014-03-30T07:18:45Z</time>
      </trkpt>
      <trkpt lat="47.67024" lon="-1.99695">
        <ele>5.42</ele>
        <time>2014-03-30T07:18:48Z</time>
      </trkpt>
      <trkpt lat="47.67025" lon="-1.99677">
        <ele>5.42</ele>
        <time>2014-03-30T07:18:51Z</time>
      </trkpt>
      <trkpt lat="47.67025" lon="-1.99663">
        <ele>5.42</ele>
        <time>2014-03-30T07:18:54Z</time>
      </trkpt>
      <trkpt lat="47.67026" lon="-1.99649">
        <ele>4.94</ele>
        <time>2014-03-30T07:18:57Z</time>
      </trkpt>
      <trkpt lat="47.67025" lon="-1.99634">
        <ele>5.42</ele>
        <time>2014-03-30T07:19:00Z</time>
      </trkpt>
      <trkpt lat="47.67026" lon="-1.99619">
        <ele>5.91</ele>
        <time>2014-03-30T07:19:03Z</time>
      </trkpt>
      <trkpt lat="47.67033" lon="-1.99607">
        <ele>6.39</ele>
        <time>2014-03-30T07:19:06Z</time>
      </trkpt>
      <trkpt lat="47.67044" lon="-1.99599">
        <ele>7.35</ele>
        <time>2014-03-30T07:19:10Z</time>
      </trkpt>
      <trkpt lat="47.67055" lon="-1.99593">
        <ele>7.83</ele>
        <time>2014-03-30T07:19:13Z</time>
      </trkpt>
      <trkpt lat="47.67067" lon="-1.99588">
        <ele>8.79</ele>
        <time>2014-03-30T07:19:16Z</time>
      </trkpt>
      <trkpt lat="47.6708" lon="-1.99582">
        <ele>8.79</ele>
        <time>2014-03-30T07:19:19Z</time>
      </trkpt>
      <trkpt lat="47.67092" lon="-1.99574">
        <ele>9.75</ele>
        <time>2014-03-30T07:19:22Z</time>
      </trkpt>
      <trkpt lat="47.67104" lon="-1.99564">
        <ele>10.71</ele>
        <time>2014-03-30T07:19:25Z</time>
      </trkpt>
      <trkpt lat="47.67117" lon="-1.99553">
        <ele>11.19</ele>
        <time>2014-03-30T07:19:28Z</time>
      </trkpt>
      <trkpt lat="47.67129" lon="-1.99541">
        <ele>10.71</ele>
        <time>2014-03-30T07:19:31Z</time>
      </trkpt>
      <trkpt lat="47.67137" lon="-1.99533">
        <ele>9.75</ele>
        <time>2014-03-30T07:19:33Z</time>
      </trkpt>
      <trkpt lat="47.67146" lon="-1.99525">
        <ele>9.75</ele>
        <time>2014-03-30T07:19:35Z</time>
      </trkpt>
      <trkpt lat="47.67154" lon="-1.99516">
        <ele>9.75</ele>
        <time>2014-03-30T07:19:37Z</time>
      </trkpt>
      <trkpt lat="47.67163" lon="-1.99507">
        <ele>9.75</ele>
        <time>2014-03-30T07:19:39Z</time>
      </trkpt>
      <trkpt lat="47.67171" lon="-1.99499">
        <ele>9.75</ele>
        <time>2014-03-30T07:19:41Z</time>
      </trkpt>
      <trkpt lat="47.6718" lon="-1.99491">
        <ele>9.27</ele>
        <time>2014-03-30T07:19:43Z</time>
      </trkpt>
      <trkpt lat="47.67189" lon="-1.99485">
        <ele>9.27</ele>
        <time>2014-03-30T07:19:45Z</time>
      </trkpt>
      <trkpt lat="47.67199" lon="-1.99479">
        <ele>8.79</ele>
        <time>2014-03-30T07:19:47Z</time>
      </trkpt>
      <trkpt lat="47.6721" lon="-1.99473">
        <ele>8.31</ele>
        <time>2014-03-30T07:19:49Z</time>
      </trkpt>
      <trkpt lat="47.67222" lon="-1.99466">
        <ele>7.83</ele>
        <time>2014-03-30T07:19:51Z</time>
      </trkpt>
      <trkpt lat="47.67233" lon="-1.9946">
        <ele>7.35</ele>
        <time>2014-03-30T07:19:53Z</time>
      </trkpt>
      <trkpt lat="47.67243" lon="-1.99455">
        <ele>7.35</ele>
        <time>2014-03-30T07:19:55Z</time>
      </trkpt>
      <trkpt lat="47.6725" lon="-1.99445">
        <ele>7.35</ele>
        <time>2014-03-30T07:19:57Z</time>
      </trkpt>
      <trkpt lat="47.67251" lon="-1.99429">
        <ele>9.27</ele>
        <time>2014-03-30T07:20:01Z</time>
      </trkpt>
      <trkpt lat="47.67248" lon="-1.99413">
        <ele>11.19</ele>
        <time>2014-03-30T07:20:06Z</time>
      </trkpt>
      <trkpt lat="47.67245" lon="-1.99399">
        <ele>13.12</ele>
        <time>2014-03-30T07:20:11Z</time>
      </trkpt>
      <trkpt lat="47.67242" lon="-1.99384">
        <ele>15.04</ele>
        <time>2014-03-30T07:20:16Z</time>
      </trkpt>
      <trkpt lat="47.6724" lon="-1.99369">
        <ele>16.96</ele>
        <time>2014-03-30T07:20:22Z</time>
      </trkpt>
      <trkpt lat="47.67238" lon="-1.99354">
        <ele>18.4</ele>
        <time>2014-03-30T07:20:28Z</time>
      </trkpt>
      <trkpt lat="47.67236" lon="-1.99341">
        <ele>19.84</ele>
        <time>2014-03-30T07:20:33Z</time>
      </trkpt>
      <trkpt lat="47.67234" lon="-1.99326">
        <ele>21.29</ele>
        <time>2014-03-30T07:20:38Z</time>
      </trkpt>
      <trkpt lat="47.67232" lon="-1.99311">
        <ele>22.73</ele>
        <time>2014-03-30T07:20:43Z</time>
      </trkpt>
      <trkpt lat="47.6723" lon="-1.99298">
        <ele>24.17</ele>
        <time>2014-03-30T07:20:48Z</time>
      </trkpt>
      <trkpt lat="47.67228" lon="-1.99284">
        <ele>25.13</ele>
        <time>2014-03-30T07:20:53Z</time>
      </trkpt>
      <trkpt lat="47.67226" lon="-1.9927">
        <ele>26.57</ele>
        <time>2014-03-30T07:20:58Z</time>
      </trkpt>
      <trkpt lat="47.67225" lon="-1.99256">
        <ele>27.53</ele>
        <time>2014-03-30T07:21:03Z</time>
      </trkpt>
      <trkpt lat="47.67223" lon="-1.99242">
        <ele>28.5</ele>
        <time>2014-03-30T07:21:08Z</time>
      </trkpt>
      <trkpt lat="47.6722" lon="-1.99228">
        <ele>28.98</ele>
        <time>2014-03-30T07:21:13Z</time>
      </trkpt>
      <trkpt lat="47.67218" lon="-1.99214">
        <ele>28.98</ele>
        <time>2014-03-30T07:21:18Z</time>
      </trkpt>
      <trkpt lat="47.67216" lon="-1.992">
        <ele>29.46</ele>
        <time>2014-03-30T07:21:23Z</time>
      </trkpt>
      <trkpt lat="47.67215" lon="-1.99184">
        <ele>29.94</ele>
        <time>2014-03-30T07:21:29Z</time>
      </trkpt>
      <trkpt lat="47.67213" lon="-1.9917">
        <ele>29.94</ele>
        <time>2014-03-30T07:21:34Z</time>
      </trkpt>
      <trkpt lat="47.67212" lon="-1.99154">
        <ele>29.46</ele>
        <time>2014-03-30T07:21:38Z</time>
      </trkpt>
      <trkpt lat="47.67211" lon="-1.99138">
        <ele>28.98</ele>
        <time>2014-03-30T07:21:41Z</time>
      </trkpt>
      <trkpt lat="47.67209" lon="-1.9912">
        <ele>28.02</ele>
        <time>2014-03-30T07:21:44Z</time>
      </trkpt>
      <trkpt lat="47.67207" lon="-1.991">
        <ele>27.05</ele>
        <time>2014-03-30T07:21:47Z</time>
      </trkpt>
      <trkpt lat="47.67205" lon="-1.99085">
        <ele>26.57</ele>
        <time>2014-03-30T07:21:49Z</time>
      </trkpt>
      <trkpt lat="47.67204" lon="-1.9907">
        <ele>26.09</ele>
        <time>2014-03-30T07:21:51Z</time>
      </trkpt>
      <trkpt lat="47.67202" lon="-1.99056">
        <ele>26.09</ele>
        <time>2014-03-30T07:21:53Z</time>
      </trkpt>
      <trkpt lat="47.67201" lon="-1.99041">
        <ele>25.61</ele>
        <time>2014-03-30T07:21:55Z</time>
      </trkpt>
      <trkpt lat="47.672" lon="-1.99026">
        <ele>25.61</ele>
        <time>2014-03-30T07:21:57Z</time>
      </trkpt>
      <trkpt lat="47.67198" lon="-1.99011">
        <ele>25.13</ele>
        <time>2014-03-30T07:21:59Z</time>
      </trkpt>
      <trkpt lat="47.67197" lon="-1.98997">
        <ele>25.13</ele>
        <time>2014-03-30T07:22:01Z</time>
      </trkpt>
      <trkpt lat="47.67195" lon="-1.98982">
        <ele>24.65</ele>
        <time>2014-03-30T07:22:03Z</time>
      </trkpt>
      <trkpt lat="47.67194" lon="-1.98967">
        <ele>24.17</ele>
        <time>2014-03-30T07:22:05Z</time>
      </trkpt>
      <trkpt lat="47.67193" lon="-1.98952">
        <ele>24.17</ele>
        <time>2014-03-30T07:22:07Z</time>
      </trkpt>
      <trkpt lat="47.67191" lon="-1.98938">
        <ele>24.17</ele>
        <time>2014-03-30T07:22:09Z</time>
      </trkpt>
      <trkpt lat="47.6719" lon="-1.98924">
        <ele>24.17</ele>
        <time>2014-03-30T07:22:11Z</time>
      </trkpt>
      <trkpt lat="47.67188" lon="-1.9891">
        <ele>24.17</ele>
        <time>2014-03-30T07:22:13Z</time>
      </trkpt>
      <trkpt lat="47.67187" lon="-1.98896">
        <ele>24.65</ele>
        <time>2014-03-30T07:22:15Z</time>
      </trkpt>
      <trkpt lat="47.67186" lon="-1.98882">
        <ele>24.65</ele>
        <time>2014-03-30T07:22:17Z</time>
      </trkpt>
      <trkpt lat="47.67184" lon="-1.98868">
        <ele>25.13</ele>
        <time>2014-03-30T07:22:19Z</time>
      </trkpt>
      <trkpt lat="47.67183" lon="-1.98848">
        <ele>25.13</ele>
        <time>2014-03-30T07:22:22Z</time>
      </trkpt>
      <trkpt lat="47.67182" lon="-1.98835">
        <ele>25.61</ele>
        <time>2014-03-30T07:22:24Z</time>
      </trkpt>
      <trkpt lat="47.6718" lon="-1.98821">
        <ele>25.61</ele>
        <time>2014-03-30T07:22:26Z</time>
      </trkpt>
      <trkpt lat="47.67179" lon="-1.98808">
        <ele>25.61</ele>
        <time>2014-03-30T07:22:28Z</time>
      </trkpt>
      <trkpt lat="47.67177" lon="-1.98788">
        <ele>25.61</ele>
        <time>2014-03-30T07:22:31Z</time>
      </trkpt>
      <trkpt lat="47.67175" lon="-1.98769">
        <ele>25.61</ele>
        <time>2014-03-30T07:22:34Z</time>
      </trkpt>
      <trkpt lat="47.67174" lon="-1.98751">
        <ele>25.61</ele>
        <time>2014-03-30T07:22:37Z</time>
      </trkpt>
      <trkpt lat="47.67172" lon="-1.98732">
        <ele>25.61</ele>
        <time>2014-03-30T07:22:40Z</time>
      </trkpt>
      <trkpt lat="47.6717" lon="-1.98719">
        <ele>26.09</ele>
        <time>2014-03-30T07:22:42Z</time>
      </trkpt>
      <trkpt lat="47.67168" lon="-1.98699">
        <ele>26.09</ele>
        <time>2014-03-30T07:22:45Z</time>
      </trkpt>
      <trkpt lat="47.67167" lon="-1.9868">
        <ele>26.09</ele>
        <time>2014-03-30T07:22:48Z</time>
      </trkpt>
      <trkpt lat="47.67165" lon="-1.98661">
        <ele>26.09</ele>
        <time>2014-03-30T07:22:51Z</time>
      </trkpt>
      <trkpt lat="47.67163" lon="-1.98642">
        <ele>26.09</ele>
        <time>2014-03-30T07:22:54Z</time>
      </trkpt>
      <trkpt lat="47.67161" lon="-1.98624">
        <ele>26.09</ele>
        <time>2014-03-30T07:22:57Z</time>
      </trkpt>
      <trkpt lat="47.67159" lon="-1.98608">
        <ele>26.09</ele>
        <time>2014-03-30T07:23:00Z</time>
      </trkpt>
      <trkpt lat="47.67158" lon="-1.98591">
        <ele>26.09</ele>
        <time>2014-03-30T07:23:03Z</time>
      </trkpt>
      <trkpt lat="47.67156" lon="-1.98573">
        <ele>26.09</ele>
        <time>2014-03-30T07:23:06Z</time>
      </trkpt>
      <trkpt lat="47.67154" lon="-1.98556">
        <ele>26.57</ele>
        <time>2014-03-30T07:23:09Z</time>
      </trkpt>
      <trkpt lat="47.67153" lon="-1.98541">
        <ele>26.57</ele>
        <time>2014-03-30T07:23:12Z</time>
      </trkpt>
      <trkpt lat="47.67151" lon="-1.98528">
        <ele>26.57</ele>
        <time>2014-03-30T07:23:15Z</time>
      </trkpt>
      <trkpt lat="47.67151" lon="-1.98511">
        <ele>26.57</ele>
        <time>2014-03-30T07:23:19Z</time>
      </trkpt>
      <trkpt lat="47.67152" lon="-1.98495">
        <ele>27.05</ele>
        <time>2014-03-30T07:23:22Z</time>
      </trkpt>
      <trkpt lat="47.67153" lon="-1.98479">
        <ele>27.05</ele>
        <time>2014-03-30T07:23:25Z</time>
      </trkpt>
      <trkpt lat="47.67155" lon="-1.98465">
        <ele>27.05</ele>
        <time>2014-03-30T07:23:28Z</time>
      </trkpt>
      <trkpt lat="47.67155" lon="-1.9845">
        <ele>27.05</ele>
        <time>2014-03-30T07:23:31Z</time>
      </trkpt>
      <trkpt lat="47.67156" lon="-1.98435">
        <ele>27.05</ele>
        <time>2014-03-30T07:23:34Z</time>
      </trkpt>
      <trkpt lat="47.67157" lon="-1.98419">
        <ele>27.05</ele>
        <time>2014-03-30T07:23:37Z</time>
      </trkpt>
      <trkpt lat="47.67156" lon="-1.98403">
        <ele>27.05</ele>
        <time>2014-03-30T07:23:40Z</time>
      </trkpt>
      <trkpt lat="47.6715" lon="-1.9839">
        <ele>26.57</ele>
        <time>2014-03-30T07:23:43Z</time>
      </trkpt>
      <trkpt lat="47.67138" lon="-1.98382">
        <ele>26.09</ele>
        <time>2014-03-30T07:23:46Z</time>
      </trkpt>
      <trkpt lat="47.67126" lon="-1.98378">
        <ele>25.61</ele>
        <time>2014-03-30T07:23:49Z</time>
      </trkpt>
      <trkpt lat="47.67117" lon="-1.98375">
        <ele>25.13</ele>
        <time>2014-03-30T07:23:51Z</time>
      </trkpt>
      <trkpt lat="47.67103" lon="-1.98373">
        <ele>25.13</ele>
        <time>2014-03-30T07:23:54Z</time>
      </trkpt>
      <trkpt lat="47.67094" lon="-1.98371">
        <ele>25.13</ele>
        <time>2014-03-30T07:23:56Z</time>
      </trkpt>
      <trkpt lat="47.67085" lon="-1.98369">
        <ele>25.13</ele>
        <time>2014-03-30T07:23:58Z</time>
      </trkpt>
      <trkpt lat="47.67076" lon="-1.98367">
        <ele>25.13</ele>
        <time>2014-03-30T07:24:00Z</time>
      </trkpt>
      <trkpt lat="47.67062" lon="-1.98364">
        <ele>25.13</ele>
        <time>2014-03-30T07:24:03Z</time>
      </trkpt>
      <trkpt lat="47.67053" lon="-1.98363">
        <ele>25.13</ele>
        <time>2014-03-30T07:24:05Z</time>
      </trkpt>
      <trkpt lat="47.67043" lon="-1.9836">
        <ele>25.13</ele>
        <time>2014-03-30T07:24:07Z</time>
      </trkpt>
      <trkpt lat="47.67032" lon="-1.98355">
        <ele>25.13</ele>
        <time>2014-03-30T07:24:09Z</time>
      </trkpt>
      <trkpt lat="47.67022" lon="-1.98348">
        <ele>24.17</ele>
        <time>2014-03-30T07:24:11Z</time>
      </trkpt>
      <trkpt lat="47.67013" lon="-1.98339">
        <ele>23.69</ele>
        <time>2014-03-30T07:24:13Z</time>
      </trkpt>
      <trkpt lat="47.67005" lon="-1.98329">
        <ele>23.21</ele>
        <time>2014-03-30T07:24:15Z</time>
      </trkpt>
      <trkpt lat="47.66995" lon="-1.98316">
        <ele>22.73</ele>
        <time>2014-03-30T07:24:18Z</time>
      </trkpt>
      <trkpt lat="47.66989" lon="-1.98304">
        <ele>22.25</ele>
        <time>2014-03-30T07:24:21Z</time>
      </trkpt>
      <trkpt lat="47.66992" lon="-1.98288">
        <ele>21.77</ele>
        <time>2014-03-30T07:24:24Z</time>
      </trkpt>
      <trkpt lat="47.66998" lon="-1.9827">
        <ele>21.29</ele>
        <time>2014-03-30T07:24:27Z</time>
      </trkpt>
      <trkpt lat="47.67002" lon="-1.98256">
        <ele>20.81</ele>
        <time>2014-03-30T07:24:29Z</time>
      </trkpt>
      <trkpt lat="47.67003" lon="-1.98241">
        <ele>19.84</ele>
        <time>2014-03-30T07:24:31Z</time>
      </trkpt>
      <trkpt lat="47.66999" lon="-1.98225">
        <ele>18.88</ele>
        <time>2014-03-30T07:24:33Z</time>
      </trkpt>
      <trkpt lat="47.6699" lon="-1.98214">
        <ele>17.92</ele>
        <time>2014-03-30T07:24:35Z</time>
      </trkpt>
      <trkpt lat="47.66979" lon="-1.98204">
        <ele>16.96</ele>
        <time>2014-03-30T07:24:37Z</time>
      </trkpt>
      <trkpt lat="47.66971" lon="-1.98191">
        <ele>16</ele>
        <time>2014-03-30T07:24:39Z</time>
      </trkpt>
      <trkpt lat="47.66966" lon="-1.98172">
        <ele>15.52</ele>
        <time>2014-03-30T07:24:41Z</time>
      </trkpt>
      <trkpt lat="47.66964" lon="-1.98151">
        <ele>14.56</ele>
        <time>2014-03-30T07:24:43Z</time>
      </trkpt>
      <trkpt lat="47.66962" lon="-1.9813">
        <ele>13.6</ele>
        <time>2014-03-30T07:24:45Z</time>
      </trkpt>
      <trkpt lat="47.66959" lon="-1.98108">
        <ele>13.6</ele>
        <time>2014-03-30T07:24:47Z</time>
      </trkpt>
      <trkpt lat="47.66956" lon="-1.98085">
        <ele>13.12</ele>
        <time>2014-03-30T07:24:49Z</time>
      </trkpt>
      <trkpt lat="47.66952" lon="-1.98061">
        <ele>12.63</ele>
        <time>2014-03-30T07:24:51Z</time>
      </trkpt>
      <trkpt lat="47.66948" lon="-1.98039">
        <ele>11.67</ele>
        <time>2014-03-30T07:24:53Z</time>
      </trkpt>
      <trkpt lat="47.6694" lon="-1.98018">
        <ele>10.71</ele>
        <time>2014-03-30T07:24:55Z</time>
      </trkpt>
      <trkpt lat="47.6693" lon="-1.98003">
        <ele>10.71</ele>
        <time>2014-03-30T07:24:57Z</time>
      </trkpt>
      <trkpt lat="47.6692" lon="-1.97991">
        <ele>10.23</ele>
        <time>2014-03-30T07:24:59Z</time>
      </trkpt>
      <trkpt lat="47.66909" lon="-1.97981">
        <ele>10.23</ele>
        <time>2014-03-30T07:25:01Z</time>
      </trkpt>
      <trkpt lat="47.66899" lon="-1.97974">
        <ele>10.23</ele>
        <time>2014-03-30T07:25:03Z</time>
      </trkpt>
      <trkpt lat="47.66889" lon="-1.97968">
        <ele>10.23</ele>
        <time>2014-03-30T07:25:05Z</time>
      </trkpt>
      <trkpt lat="47.66879" lon="-1.97961">
        <ele>10.71</ele>
        <time>2014-03-30T07:25:07Z</time>
      </trkpt>
      <trkpt lat="47.66869" lon="-1.97954">
        <ele>11.19</ele>
        <time>2014-03-30T07:25:09Z</time>
      </trkpt>
      <trkpt lat="47.66861" lon="-1.97946">
        <ele>11.67</ele>
        <time>2014-03-30T07:25:11Z</time>
      </trkpt>
      <trkpt lat="47.66852" lon="-1.97932">
        <ele>12.15</ele>
        <time>2014-03-30T07:25:14Z</time>
      </trkpt>
      <trkpt lat="47.66846" lon="-1.97919">
        <ele>13.6</ele>
        <time>2014-03-30T07:25:17Z</time>
      </trkpt>
      <trkpt lat="47.66836" lon="-1.97916">
        <ele>14.56</ele>
        <time>2014-03-30T07:25:22Z</time>
      </trkpt>
      <trkpt lat="47.66825" lon="-1.97912">
        <ele>15.04</ele>
        <time>2014-03-30T07:25:27Z</time>
      </trkpt>
      <trkpt lat="47.66816" lon="-1.97906">
        <ele>15.04</ele>
        <time>2014-03-30T07:25:32Z</time>
      </trkpt>
      <trkpt lat="47.66806" lon="-1.97896">
        <ele>16.48</ele>
        <time>2014-03-30T07:25:37Z</time>
      </trkpt>
      <trkpt lat="47.66796" lon="-1.97904">
        <ele>17.44</ele>
        <time>2014-03-30T07:25:42Z</time>
      </trkpt>
      <trkpt lat="47.66792" lon="-1.97919">
        <ele>18.4</ele>
        <time>2014-03-30T07:25:48Z</time>
      </trkpt>
      <trkpt lat="47.66788" lon="-1.97935">
        <ele>18.4</ele>
        <time>2014-03-30T07:25:53Z</time>
      </trkpt>
      <trkpt lat="47.66778" lon="-1.97937">
        <ele>19.84</ele>
        <time>2014-03-30T07:25:57Z</time>
      </trkpt>
      <trkpt lat="47.66776" lon="-1.97926">
        <ele>21.29</ele>
        <time>2014-03-30T07:26:01Z</time>
      </trkpt>
      <trkpt lat="47.66779" lon="-1.97911">
        <ele>23.21</ele>
        <time>2014-03-30T07:26:08Z</time>
      </trkpt>
      <trkpt lat="47.66775" lon="-1.97895">
        <ele>22.25</ele>
        <time>2014-03-30T07:26:12Z</time>
      </trkpt>
      <trkpt lat="47.66773" lon="-1.97876">
        <ele>22.73</ele>
        <time>2014-03-30T07:26:16Z</time>
      </trkpt>
      <trkpt lat="47.66771" lon="-1.97861">
        <ele>23.21</ele>
        <time>2014-03-30T07:26:19Z</time>
      </trkpt>
      <trkpt lat="47.66771" lon="-1.97841">
        <ele>23.69</ele>
        <time>2014-03-30T07:26:23Z</time>
      </trkpt>
      <trkpt lat="47.66776" lon="-1.97831">
        <ele>23.69</ele>
        <time>2014-03-30T07:26:27Z</time>
      </trkpt>
      <trkpt lat="47.6678" lon="-1.97819">
        <ele>23.69</ele>
        <time>2014-03-30T07:26:30Z</time>
      </trkpt>
      <trkpt lat="47.66787" lon="-1.97807">
        <ele>22.73</ele>
        <time>2014-03-30T07:26:33Z</time>
      </trkpt>
      <trkpt lat="47.66793" lon="-1.97797">
        <ele>21.29</ele>
        <time>2014-03-30T07:26:37Z</time>
      </trkpt>
      <trkpt lat="47.66797" lon="-1.9778">
        <ele>19.36</ele>
        <time>2014-03-30T07:26:41Z</time>
      </trkpt>
      <trkpt lat="47.66797" lon="-1.97763">
        <ele>17.44</ele>
        <time>2014-03-30T07:26:45Z</time>
      </trkpt>
      <trkpt lat="47.66789" lon="-1.97758">
        <ele>16.48</ele>
        <time>2014-03-30T07:26:50Z</time>
      </trkpt>
      <trkpt lat="47.66777" lon="-1.97754">
        <ele>18.4</ele>
        <time>2014-03-30T07:26:55Z</time>
      </trkpt>
      <trkpt lat="47.66768" lon="-1.97759">
        <ele>19.36</ele>
        <time>2014-03-30T07:27:00Z</time>
      </trkpt>
      <trkpt lat="47.66759" lon="-1.97757">
        <ele>20.81</ele>
        <time>2014-03-30T07:27:08Z</time>
      </trkpt>
      <trkpt lat="47.66754" lon="-1.97746">
        <ele>23.21</ele>
        <time>2014-03-30T07:27:16Z</time>
      </trkpt>
      <trkpt lat="47.66758" lon="-1.97733">
        <ele>24.65</ele>
        <time>2014-03-30T07:27:20Z</time>
      </trkpt>
      <trkpt lat="47.66767" lon="-1.97722">
        <ele>24.17</ele>
        <time>2014-03-30T07:27:24Z</time>
      </trkpt>
      <trkpt lat="47.66768" lon="-1.97705">
        <ele>23.21</ele>
        <time>2014-03-30T07:27:30Z</time>
      </trkpt>
      <trkpt lat="47.66759" lon="-1.97696">
        <ele>24.65</ele>
        <time>2014-03-30T07:27:35Z</time>
      </trkpt>
      <trkpt lat="47.66749" lon="-1.97692">
        <ele>24.17</ele>
        <time>2014-03-30T07:27:41Z</time>
      </trkpt>
      <trkpt lat="47.66743" lon="-1.97682">
        <ele>24.65</ele>
        <time>2014-03-30T07:27:47Z</time>
      </trkpt>
      <trkpt lat="47.66745" lon="-1.97668">
        <ele>26.57</ele>
        <time>2014-03-30T07:27:54Z</time>
      </trkpt>
      <trkpt lat="47.66742" lon="-1.97649">
        <ele>28.5</ele>
        <time>2014-03-30T07:28:00Z</time>
      </trkpt>
      <trkpt lat="47.66735" lon="-1.97637">
        <ele>30.42</ele>
        <time>2014-03-30T07:28:06Z</time>
      </trkpt>
      <trkpt lat="47.6673" lon="-1.97619">
        <ele>30.42</ele>
        <time>2014-03-30T07:28:11Z</time>
      </trkpt>
      <trkpt lat="47.66727" lon="-1.97603">
        <ele>29.94</ele>
        <time>2014-03-30T07:28:15Z</time>
      </trkpt>
      <trkpt lat="47.66725" lon="-1.97587">
        <ele>28.98</ele>
        <time>2014-03-30T07:28:20Z</time>
      </trkpt>
      <trkpt lat="47.66722" lon="-1.97571">
        <ele>29.94</ele>
        <time>2014-03-30T07:28:25Z</time>
      </trkpt>
      <trkpt lat="47.66719" lon="-1.97556">
        <ele>30.42</ele>
        <time>2014-03-30T07:28:31Z</time>
      </trkpt>
      <trkpt lat="47.66722" lon="-1.97531">
        <ele>23.69</ele>
        <time>2014-03-30T07:28:43Z</time>
      </trkpt>
      <trkpt lat="47.6672" lon="-1.97516">
        <ele>19.84</ele>
        <time>2014-03-30T07:28:48Z</time>
      </trkpt>
      <trkpt lat="47.66717" lon="-1.97501">
        <ele>19.36</ele>
        <time>2014-03-30T07:28:53Z</time>
      </trkpt>
      <trkpt lat="47.6671" lon="-1.97487">
        <ele>19.84</ele>
        <time>2014-03-30T07:28:57Z</time>
      </trkpt>
      <trkpt lat="47.66704" lon="-1.97473">
        <ele>19.84</ele>
        <time>2014-03-30T07:29:02Z</time>
      </trkpt>
      <trkpt lat="47.66702" lon="-1.97456">
        <ele>18.4</ele>
        <time>2014-03-30T07:29:09Z</time>
      </trkpt>
      <trkpt lat="47.66705" lon="-1.9744">
        <ele>16.48</ele>
        <time>2014-03-30T07:29:13Z</time>
      </trkpt>
      <trkpt lat="47.66701" lon="-1.97427">
        <ele>15.04</ele>
        <time>2014-03-30T07:29:16Z</time>
      </trkpt>
      <trkpt lat="47.66695" lon="-1.97414">
        <ele>13.6</ele>
        <time>2014-03-30T07:29:19Z</time>
      </trkpt>
      <trkpt lat="47.6669" lon="-1.97397">
        <ele>13.6</ele>
        <time>2014-03-30T07:29:22Z</time>
      </trkpt>
      <trkpt lat="47.66686" lon="-1.97378">
        <ele>14.08</ele>
        <time>2014-03-30T07:29:25Z</time>
      </trkpt>
      <trkpt lat="47.66682" lon="-1.97359">
        <ele>14.08</ele>
        <time>2014-03-30T07:29:28Z</time>
      </trkpt>
      <trkpt lat="47.66679" lon="-1.97339">
        <ele>13.6</ele>
        <time>2014-03-30T07:29:31Z</time>
      </trkpt>
      <trkpt lat="47.66676" lon="-1.97322">
        <ele>13.6</ele>
        <time>2014-03-30T07:29:34Z</time>
      </trkpt>
      <trkpt lat="47.66674" lon="-1.97307">
        <ele>14.08</ele>
        <time>2014-03-30T07:29:37Z</time>
      </trkpt>
      <trkpt lat="47.66672" lon="-1.97293">
        <ele>15.52</ele>
        <time>2014-03-30T07:29:40Z</time>
      </trkpt>
      <trkpt lat="47.66669" lon="-1.9728">
        <ele>17.44</ele>
        <time>2014-03-30T07:29:43Z</time>
      </trkpt>
      <trkpt lat="47.66666" lon="-1.97263">
        <ele>19.84</ele>
        <time>2014-03-30T07:29:47Z</time>
      </trkpt>
      <trkpt lat="47.66664" lon="-1.97248">
        <ele>20.81</ele>
        <time>2014-03-30T07:29:50Z</time>
      </trkpt>
      <trkpt lat="47.66661" lon="-1.97231">
        <ele>21.29</ele>
        <time>2014-03-30T07:29:53Z</time>
      </trkpt>
      <trkpt lat="47.66658" lon="-1.97213">
        <ele>21.77</ele>
        <time>2014-03-30T07:29:56Z</time>
      </trkpt>
      <trkpt lat="47.66654" lon="-1.97195">
        <ele>20.81</ele>
        <time>2014-03-30T07:29:59Z</time>
      </trkpt>
      <trkpt lat="47.66651" lon="-1.97177">
        <ele>20.81</ele>
        <time>2014-03-30T07:30:02Z</time>
      </trkpt>
      <trkpt lat="47.66648" lon="-1.9716">
        <ele>19.84</ele>
        <time>2014-03-30T07:30:05Z</time>
      </trkpt>
      <trkpt lat="47.66645" lon="-1.97141">
        <ele>18.88</ele>
        <time>2014-03-30T07:30:08Z</time>
      </trkpt>
      <trkpt lat="47.66642" lon="-1.97122">
        <ele>17.92</ele>
        <time>2014-03-30T07:30:11Z</time>
      </trkpt>
      <trkpt lat="47.66639" lon="-1.97104">
        <ele>17.92</ele>
        <time>2014-03-30T07:30:14Z</time>
      </trkpt>
      <trkpt lat="47.66636" lon="-1.97086">
        <ele>18.4</ele>
        <time>2014-03-30T07:30:17Z</time>
      </trkpt>
      <trkpt lat="47.66633" lon="-1.97068">
        <ele>17.92</ele>
        <time>2014-03-30T07:30:20Z</time>
      </trkpt>
      <trkpt lat="47.66629" lon="-1.97051">
        <ele>16.96</ele>
        <time>2014-03-30T07:30:23Z</time>
      </trkpt>
      <trkpt lat="47.66626" lon="-1.97033">
        <ele>15.52</ele>
        <time>2014-03-30T07:30:26Z</time>
      </trkpt>
      <trkpt lat="47.66623" lon="-1.97013">
        <ele>13.6</ele>
        <time>2014-03-30T07:30:29Z</time>
      </trkpt>
      <trkpt lat="47.6662" lon="-1.96999">
        <ele>12.63</ele>
        <time>2014-03-30T07:30:31Z</time>
      </trkpt>
      <trkpt lat="47.66617" lon="-1.96985">
        <ele>12.15</ele>
        <time>2014-03-30T07:30:33Z</time>
      </trkpt>
      <trkpt lat="47.66613" lon="-1.96966">
        <ele>11.19</ele>
        <time>2014-03-30T07:30:36Z</time>
      </trkpt>
      <trkpt lat="47.6661" lon="-1.96949">
        <ele>10.71</ele>
        <time>2014-03-30T07:30:39Z</time>
      </trkpt>
      <trkpt lat="47.66606" lon="-1.96933">
        <ele>9.75</ele>
        <time>2014-03-30T07:30:42Z</time>
      </trkpt>
      <trkpt lat="47.66603" lon="-1.96918">
        <ele>9.75</ele>
        <time>2014-03-30T07:30:45Z</time>
      </trkpt>
      <trkpt lat="47.66601" lon="-1.96902">
        <ele>9.27</ele>
        <time>2014-03-30T07:30:48Z</time>
      </trkpt>
      <trkpt lat="47.66599" lon="-1.96887">
        <ele>8.79</ele>
        <time>2014-03-30T07:30:51Z</time>
      </trkpt>
      <trkpt lat="47.66596" lon="-1.96871">
        <ele>8.79</ele>
        <time>2014-03-30T07:30:54Z</time>
      </trkpt>
      <trkpt lat="47.66593" lon="-1.96857">
        <ele>8.79</ele>
        <time>2014-03-30T07:30:57Z</time>
      </trkpt>
      <trkpt lat="47.66591" lon="-1.96841">
        <ele>8.79</ele>
        <time>2014-03-30T07:31:00Z</time>
      </trkpt>
      <trkpt lat="47.66588" lon="-1.96824">
        <ele>8.31</ele>
        <time>2014-03-30T07:31:03Z</time>
      </trkpt>
      <trkpt lat="47.66585" lon="-1.96809">
        <ele>8.31</ele>
        <time>2014-03-30T07:31:06Z</time>
      </trkpt>
      <trkpt lat="47.66581" lon="-1.96792">
        <ele>8.31</ele>
        <time>2014-03-30T07:31:09Z</time>
      </trkpt>
      <trkpt lat="47.6658" lon="-1.96776">
        <ele>8.31</ele>
        <time>2014-03-30T07:31:12Z</time>
      </trkpt>
      <trkpt lat="47.66577" lon="-1.96761">
        <ele>7.83</ele>
        <time>2014-03-30T07:31:15Z</time>
      </trkpt>
      <trkpt lat="47.66575" lon="-1.96747">
        <ele>7.35</ele>
        <time>2014-03-30T07:31:18Z</time>
      </trkpt>
      <trkpt lat="47.66572" lon="-1.96732">
        <ele>7.35</ele>
        <time>2014-03-30T07:31:21Z</time>
      </trkpt>
      <trkpt lat="47.6657" lon="-1.96716">
        <ele>7.35</ele>
        <time>2014-03-30T07:31:24Z</time>
      </trkpt>
      <trkpt lat="47.66566" lon="-1.96701">
        <ele>6.87</ele>
        <time>2014-03-30T07:31:27Z</time>
      </trkpt>
      <trkpt lat="47.66563" lon="-1.96686">
        <ele>6.87</ele>
        <time>2014-03-30T07:31:30Z</time>
      </trkpt>
      <trkpt lat="47.6656" lon="-1.96671">
        <ele>6.87</ele>
        <time>2014-03-30T07:31:34Z</time>
      </trkpt>
      <trkpt lat="47.66557" lon="-1.96654">
        <ele>6.87</ele>
        <time>2014-03-30T07:31:38Z</time>
      </trkpt>
      <trkpt lat="47.66555" lon="-1.9664">
        <ele>7.35</ele>
        <time>2014-03-30T07:31:41Z</time>
      </trkpt>
      <trkpt lat="47.66552" lon="-1.96623">
        <ele>6.87</ele>
        <time>2014-03-30T07:31:45Z</time>
      </trkpt>
      <trkpt lat="47.66551" lon="-1.96609">
        <ele>6.39</ele>
        <time>2014-03-30T07:31:49Z</time>
      </trkpt>
      <trkpt lat="47.66548" lon="-1.96594">
        <ele>6.39</ele>
        <time>2014-03-30T07:31:54Z</time>
      </trkpt>
      <trkpt lat="47.66545" lon="-1.96579">
        <ele>6.39</ele>
        <time>2014-03-30T07:31:59Z</time>
      </trkpt>
      <trkpt lat="47.66543" lon="-1.96564">
        <ele>6.39</ele>
        <time>2014-03-30T07:32:03Z</time>
      </trkpt>
      <trkpt lat="47.6654" lon="-1.96549">
        <ele>6.39</ele>
        <time>2014-03-30T07:32:07Z</time>
      </trkpt>
      <trkpt lat="47.66538" lon="-1.96535">
        <ele>6.39</ele>
        <time>2014-03-30T07:32:11Z</time>
      </trkpt>
      <trkpt lat="47.66535" lon="-1.96519">
        <ele>6.87</ele>
        <time>2014-03-30T07:32:15Z</time>
      </trkpt>
      <trkpt lat="47.66531" lon="-1.96504">
        <ele>6.87</ele>
        <time>2014-03-30T07:32:19Z</time>
      </trkpt>
      <trkpt lat="47.66529" lon="-1.96488">
        <ele>6.39</ele>
        <time>2014-03-30T07:32:24Z</time>
      </trkpt>
      <trkpt lat="47.66527" lon="-1.96474">
        <ele>6.39</ele>
        <time>2014-03-30T07:32:28Z</time>
      </trkpt>
      <trkpt lat="47.66524" lon="-1.96459">
        <ele>6.39</ele>
        <time>2014-03-30T07:32:32Z</time>
      </trkpt>
      <trkpt lat="47.6652" lon="-1.96442">
        <ele>6.39</ele>
        <time>2014-03-30T07:32:36Z</time>
      </trkpt>
      <trkpt lat="47.66517" lon="-1.96426">
        <ele>6.39</ele>
        <time>2014-03-30T07:32:40Z</time>
      </trkpt>
      <trkpt lat="47.66515" lon="-1.96413">
        <ele>6.39</ele>
        <time>2014-03-30T07:32:43Z</time>
      </trkpt>
      <trkpt lat="47.66512" lon="-1.96399">
        <ele>6.39</ele>
        <time>2014-03-30T07:32:46Z</time>
      </trkpt>
      <trkpt lat="47.66509" lon="-1.96385">
        <ele>6.39</ele>
        <time>2014-03-30T07:32:49Z</time>
      </trkpt>
      <trkpt lat="47.66507" lon="-1.9637">
        <ele>6.39</ele>
        <time>2014-03-30T07:32:52Z</time>
      </trkpt>
      <trkpt lat="47.66504" lon="-1.96355">
        <ele>6.39</ele>
        <time>2014-03-30T07:32:55Z</time>
      </trkpt>
      <trkpt lat="47.66501" lon="-1.96341">
        <ele>6.39</ele>
        <time>2014-03-30T07:32:58Z</time>
      </trkpt>
      <trkpt lat="47.66498" lon="-1.96327">
        <ele>6.39</ele>
        <time>2014-03-30T07:33:01Z</time>
      </trkpt>
      <trkpt lat="47.66496" lon="-1.96311">
        <ele>6.87</ele>
        <time>2014-03-30T07:33:05Z</time>
      </trkpt>
      <trkpt lat="47.66494" lon="-1.96295">
        <ele>6.87</ele>
        <time>2014-03-30T07:33:09Z</time>
      </trkpt>
      <trkpt lat="47.66491" lon="-1.96277">
        <ele>6.87</ele>
        <time>2014-03-30T07:33:13Z</time>
      </trkpt>
      <trkpt lat="47.66491" lon="-1.96261">
        <ele>6.87</ele>
        <time>2014-03-30T07:33:17Z</time>
      </trkpt>
      <trkpt lat="47.6649" lon="-1.96245">
        <ele>6.87</ele>
        <time>2014-03-30T07:33:20Z</time>
      </trkpt>
      <trkpt lat="47.6649" lon="-1.96229">
        <ele>6.87</ele>
        <time>2014-03-30T07:33:23Z</time>
      </trkpt>
      <trkpt lat="47.66491" lon="-1.96212">
        <ele>6.87</ele>
        <time>2014-03-30T07:33:26Z</time>
      </trkpt>
      <trkpt lat="47.66491" lon="-1.96194">
        <ele>6.87</ele>
        <time>2014-03-30T07:33:29Z</time>
      </trkpt>
      <trkpt lat="47.66492" lon="-1.96176">
        <ele>6.39</ele>
        <time>2014-03-30T07:33:32Z</time>
      </trkpt>
      <trkpt lat="47.66494" lon="-1.96159">
        <ele>6.39</ele>
        <time>2014-03-30T07:33:35Z</time>
      </trkpt>
      <trkpt lat="47.66497" lon="-1.96142">
        <ele>6.39</ele>
        <time>2014-03-30T07:33:38Z</time>
      </trkpt>
      <trkpt lat="47.66499" lon="-1.96125">
        <ele>6.87</ele>
        <time>2014-03-30T07:33:41Z</time>
      </trkpt>
      <trkpt lat="47.66499" lon="-1.96106">
        <ele>6.87</ele>
        <time>2014-03-30T07:33:44Z</time>
      </trkpt>
      <trkpt lat="47.66499" lon="-1.96092">
        <ele>6.87</ele>
        <time>2014-03-30T07:33:46Z</time>
      </trkpt>
      <trkpt lat="47.66498" lon="-1.96077">
        <ele>6.39</ele>
        <time>2014-03-30T07:33:48Z</time>
      </trkpt>
      <trkpt lat="47.66495" lon="-1.96063">
        <ele>6.39</ele>
        <time>2014-03-30T07:33:50Z</time>
      </trkpt>
      <trkpt lat="47.66493" lon="-1.96049">
        <ele>6.87</ele>
        <time>2014-03-30T07:33:52Z</time>
      </trkpt>
      <trkpt lat="47.66489" lon="-1.9603">
        <ele>7.83</ele>
        <time>2014-03-30T07:33:55Z</time>
      </trkpt>
      <trkpt lat="47.66481" lon="-1.96014">
        <ele>8.79</ele>
        <time>2014-03-30T07:33:58Z</time>
      </trkpt>
      <trkpt lat="47.6647" lon="-1.96004">
        <ele>9.75</ele>
        <time>2014-03-30T07:34:01Z</time>
      </trkpt>
      <trkpt lat="47.6646" lon="-1.96002">
        <ele>10.71</ele>
        <time>2014-03-30T07:34:04Z</time>
      </trkpt>
      <trkpt lat="47.66448" lon="-1.96004">
        <ele>12.15</ele>
        <time>2014-03-30T07:34:08Z</time>
      </trkpt>
      <trkpt lat="47.66436" lon="-1.96003">
        <ele>12.15</ele>
        <time>2014-03-30T07:34:11Z</time>
      </trkpt>
      <trkpt lat="47.66424" lon="-1.96001">
        <ele>12.63</ele>
        <time>2014-03-30T07:34:14Z</time>
      </trkpt>
      <trkpt lat="47.66416" lon="-1.96005">
        <ele>13.6</ele>
        <time>2014-03-30T07:34:17Z</time>
      </trkpt>
      <trkpt lat="47.66412" lon="-1.96019">
        <ele>15.04</ele>
        <time>2014-03-30T07:34:21Z</time>
      </trkpt>
      <trkpt lat="47.66412" lon="-1.96035">
        <ele>16.48</ele>
        <time>2014-03-30T07:34:26Z</time>
      </trkpt>
      <trkpt lat="47.66416" lon="-1.96049">
        <ele>16.96</ele>
        <time>2014-03-30T07:34:31Z</time>
      </trkpt>
      <trkpt lat="47.66426" lon="-1.96054">
        <ele>17.44</ele>
        <time>2014-03-30T07:34:36Z</time>
      </trkpt>
      <trkpt lat="47.66437" lon="-1.96059">
        <ele>17.92</ele>
        <time>2014-03-30T07:34:40Z</time>
      </trkpt>
      <trkpt lat="47.66441" lon="-1.96069">
        <ele>18.88</ele>
        <time>2014-03-30T07:34:46Z</time>
      </trkpt>
      <trkpt lat="47.66444" lon="-1.96087">
        <ele>20.81</ele>
        <time>2014-03-30T07:34:54Z</time>
      </trkpt>
      <trkpt lat="47.66437" lon="-1.96099">
        <ele>21.29</ele>
        <time>2014-03-30T07:35:01Z</time>
      </trkpt>
      <trkpt lat="47.66434" lon="-1.96115">
        <ele>25.13</ele>
        <time>2014-03-30T07:35:17Z</time>
      </trkpt>
      <trkpt lat="47.6643" lon="-1.96132">
        <ele>26.09</ele>
        <time>2014-03-30T07:35:23Z</time>
      </trkpt>
      <trkpt lat="47.66435" lon="-1.96147">
        <ele>29.46</ele>
        <time>2014-03-30T07:35:33Z</time>
      </trkpt>
      <trkpt lat="47.66438" lon="-1.96161">
        <ele>29.94</ele>
        <time>2014-03-30T07:35:39Z</time>
      </trkpt>
      <trkpt lat="47.66434" lon="-1.96174">
        <ele>31.86</ele>
        <time>2014-03-30T07:36:13Z</time>
      </trkpt>
      <trkpt lat="47.66429" lon="-1.96186">
        <ele>31.86</ele>
        <time>2014-03-30T07:36:22Z</time>
      </trkpt>
      <trkpt lat="47.66432" lon="-1.96202">
        <ele>30.9</ele>
        <time>2014-03-30T07:36:28Z</time>
      </trkpt>
      <trkpt lat="47.66436" lon="-1.96215">
        <ele>29.46</ele>
        <time>2014-03-30T07:36:31Z</time>
      </trkpt>
      <trkpt lat="47.66433" lon="-1.96235">
        <ele>24.65</ele>
        <time>2014-03-30T07:36:44Z</time>
      </trkpt>
      <trkpt lat="47.66425" lon="-1.96241">
        <ele>24.65</ele>
        <time>2014-03-30T07:36:48Z</time>
      </trkpt>
      <trkpt lat="47.66422" lon="-1.96257">
        <ele>22.73</ele>
        <time>2014-03-30T07:36:54Z</time>
      </trkpt>
      <trkpt lat="47.66422" lon="-1.96276">
        <ele>20.81</ele>
        <time>2014-03-30T07:36:58Z</time>
      </trkpt>
      <trkpt lat="47.66422" lon="-1.96295">
        <ele>18.88</ele>
        <time>2014-03-30T07:37:01Z</time>
      </trkpt>
      <trkpt lat="47.66422" lon="-1.96312">
        <ele>17.44</ele>
        <time>2014-03-30T07:37:03Z</time>
      </trkpt>
      <trkpt lat="47.66422" lon="-1.9633">
        <ele>16</ele>
        <time>2014-03-30T07:37:05Z</time>
      </trkpt>
      <trkpt lat="47.66421" lon="-1.96351">
        <ele>15.04</ele>
        <time>2014-03-30T07:37:07Z</time>
      </trkpt>
      <trkpt lat="47.66419" lon="-1.96372">
        <ele>13.6</ele>
        <time>2014-03-30T07:37:09Z</time>
      </trkpt>
      <trkpt lat="47.66418" lon="-1.96395">
        <ele>12.15</ele>
        <time>2014-03-30T07:37:11Z</time>
      </trkpt>
      <trkpt lat="47.66416" lon="-1.96418">
        <ele>11.19</ele>
        <time>2014-03-30T07:37:13Z</time>
      </trkpt>
      <trkpt lat="47.66415" lon="-1.96442">
        <ele>9.75</ele>
        <time>2014-03-30T07:37:15Z</time>
      </trkpt>
      <trkpt lat="47.66414" lon="-1.96465">
        <ele>9.27</ele>
        <time>2014-03-30T07:37:17Z</time>
      </trkpt>
      <trkpt lat="47.66412" lon="-1.96487">
        <ele>8.31</ele>
        <time>2014-03-30T07:37:19Z</time>
      </trkpt>
      <trkpt lat="47.66408" lon="-1.96508">
        <ele>7.83</ele>
        <time>2014-03-30T07:37:21Z</time>
      </trkpt>
      <trkpt lat="47.66404" lon="-1.96527">
        <ele>7.83</ele>
        <time>2014-03-30T07:37:23Z</time>
      </trkpt>
      <trkpt lat="47.66401" lon="-1.96545">
        <ele>7.83</ele>
        <time>2014-03-30T07:37:25Z</time>
      </trkpt>
      <trkpt lat="47.66398" lon="-1.9656">
        <ele>7.35</ele>
        <time>2014-03-30T07:37:27Z</time>
      </trkpt>
      <trkpt lat="47.66389" lon="-1.96568">
        <ele>7.35</ele>
        <time>2014-03-30T07:37:30Z</time>
      </trkpt>
      <trkpt lat="47.66381" lon="-1.96563">
        <ele>7.35</ele>
        <time>2014-03-30T07:37:33Z</time>
      </trkpt>
      <trkpt lat="47.66371" lon="-1.96558">
        <ele>8.31</ele>
        <time>2014-03-30T07:37:36Z</time>
      </trkpt>
      <trkpt lat="47.66361" lon="-1.96553">
        <ele>9.27</ele>
        <time>2014-03-30T07:37:39Z</time>
      </trkpt>
      <trkpt lat="47.66352" lon="-1.96548">
        <ele>9.75</ele>
        <time>2014-03-30T07:37:42Z</time>
      </trkpt>
      <trkpt lat="47.66343" lon="-1.96543">
        <ele>10.71</ele>
        <time>2014-03-30T07:37:45Z</time>
      </trkpt>
      <trkpt lat="47.66334" lon="-1.96538">
        <ele>11.67</ele>
        <time>2014-03-30T07:37:48Z</time>
      </trkpt>
      <trkpt lat="47.66325" lon="-1.96533">
        <ele>12.63</ele>
        <time>2014-03-30T07:37:51Z</time>
      </trkpt>
      <trkpt lat="47.66314" lon="-1.96528">
        <ele>13.6</ele>
        <time>2014-03-30T07:37:55Z</time>
      </trkpt>
      <trkpt lat="47.66304" lon="-1.96522">
        <ele>14.56</ele>
        <time>2014-03-30T07:37:59Z</time>
      </trkpt>
      <trkpt lat="47.66294" lon="-1.96515">
        <ele>15.52</ele>
        <time>2014-03-30T07:38:04Z</time>
      </trkpt>
      <trkpt lat="47.66292" lon="-1.965">
        <ele>16</ele>
        <time>2014-03-30T07:38:09Z</time>
      </trkpt>
      <trkpt lat="47.66292" lon="-1.96485">
        <ele>16</ele>
        <time>2014-03-30T07:38:14Z</time>
      </trkpt>
      <trkpt lat="47.66291" lon="-1.96469">
        <ele>16.48</ele>
        <time>2014-03-30T07:38:19Z</time>
      </trkpt>
      <trkpt lat="47.66291" lon="-1.96455">
        <ele>17.44</ele>
        <time>2014-03-30T07:38:24Z</time>
      </trkpt>
      <trkpt lat="47.6629" lon="-1.96441">
        <ele>17.44</ele>
        <time>2014-03-30T07:38:29Z</time>
      </trkpt>
      <trkpt lat="47.6629" lon="-1.96427">
        <ele>17.44</ele>
        <time>2014-03-30T07:38:34Z</time>
      </trkpt>
      <trkpt lat="47.6629" lon="-1.96411">
        <ele>18.88</ele>
        <time>2014-03-30T07:38:40Z</time>
      </trkpt>
      <trkpt lat="47.6629" lon="-1.96398">
        <ele>18.88</ele>
        <time>2014-03-30T07:38:45Z</time>
      </trkpt>
      <trkpt lat="47.66289" lon="-1.96382">
        <ele>19.84</ele>
        <time>2014-03-30T07:38:51Z</time>
      </trkpt>
      <trkpt lat="47.66289" lon="-1.96368">
        <ele>19.84</ele>
        <time>2014-03-30T07:38:57Z</time>
      </trkpt>
      <trkpt lat="47.66289" lon="-1.96352">
        <ele>20.32</ele>
        <time>2014-03-30T07:39:04Z</time>
      </trkpt>
      <trkpt lat="47.66289" lon="-1.96337">
        <ele>20.32</ele>
        <time>2014-03-30T07:39:11Z</time>
      </trkpt>
      <trkpt lat="47.66288" lon="-1.96323">
        <ele>21.29</ele>
        <time>2014-03-30T07:39:18Z</time>
      </trkpt>
      <trkpt lat="47.66287" lon="-1.96308">
        <ele>21.77</ele>
        <time>2014-03-30T07:39:25Z</time>
      </trkpt>
      <trkpt lat="47.66288" lon="-1.96294">
        <ele>21.77</ele>
        <time>2014-03-30T07:39:34Z</time>
      </trkpt>
      <trkpt lat="47.66288" lon="-1.9628">
        <ele>22.25</ele>
        <time>2014-03-30T07:39:39Z</time>
      </trkpt>
      <trkpt lat="47.66287" lon="-1.96264">
        <ele>22.73</ele>
        <time>2014-03-30T07:39:44Z</time>
      </trkpt>
      <trkpt lat="47.66287" lon="-1.9625">
        <ele>23.69</ele>
        <time>2014-03-30T07:39:49Z</time>
      </trkpt>
      <trkpt lat="47.66287" lon="-1.96237">
        <ele>23.69</ele>
        <time>2014-03-30T07:39:54Z</time>
      </trkpt>
      <trkpt lat="47.66286" lon="-1.96222">
        <ele>23.69</ele>
        <time>2014-03-30T07:39:59Z</time>
      </trkpt>
      <trkpt lat="47.66286" lon="-1.96206">
        <ele>24.65</ele>
        <time>2014-03-30T07:40:04Z</time>
      </trkpt>
      <trkpt lat="47.66286" lon="-1.96192">
        <ele>25.13</ele>
        <time>2014-03-30T07:40:09Z</time>
      </trkpt>
      <trkpt lat="47.66285" lon="-1.96176">
        <ele>25.61</ele>
        <time>2014-03-30T07:40:14Z</time>
      </trkpt>
      <trkpt lat="47.66285" lon="-1.96162">
        <ele>26.09</ele>
        <time>2014-03-30T07:40:18Z</time>
      </trkpt>
      <trkpt lat="47.66285" lon="-1.96146">
        <ele>26.09</ele>
        <time>2014-03-30T07:40:23Z</time>
      </trkpt>
      <trkpt lat="47.66285" lon="-1.96133">
        <ele>26.57</ele>
        <time>2014-03-30T07:40:27Z</time>
      </trkpt>
      <trkpt lat="47.66285" lon="-1.96118">
        <ele>27.05</ele>
        <time>2014-03-30T07:40:31Z</time>
      </trkpt>
      <trkpt lat="47.66284" lon="-1.96103">
        <ele>27.53</ele>
        <time>2014-03-30T07:40:35Z</time>
      </trkpt>
      <trkpt lat="47.66284" lon="-1.96088">
        <ele>28.02</ele>
        <time>2014-03-30T07:40:39Z</time>
      </trkpt>
      <trkpt lat="47.66284" lon="-1.96073">
        <ele>28.5</ele>
        <time>2014-03-30T07:40:43Z</time>
      </trkpt>
      <trkpt lat="47.66283" lon="-1.96058">
        <ele>29.46</ele>
        <time>2014-03-30T07:40:47Z</time>
      </trkpt>
      <trkpt lat="47.66284" lon="-1.96043">
        <ele>29.94</ele>
        <time>2014-03-30T07:40:51Z</time>
      </trkpt>
      <trkpt lat="47.66284" lon="-1.96028">
        <ele>30.42</ele>
        <time>2014-03-30T07:40:55Z</time>
      </trkpt>
      <trkpt lat="47.66282" lon="-1.96015">
        <ele>30.9</ele>
        <time>2014-03-30T07:40:59Z</time>
      </trkpt>
      <trkpt lat="47.66283" lon="-1.96006">
        <ele>30.42</ele>
        <time>2014-03-30T07:41:11Z</time>
      </trkpt>
      <trkpt lat="47.66282" lon="-1.96005">
        <ele>38.11</ele>
        <time>2014-03-30T07:54:48Z</time>
      </trkpt>
      <trkpt lat="47.66288" lon="-1.95994">
        <ele>37.15</ele>
        <time>2014-03-30T07:54:58Z</time>
      </trkpt>
      <trkpt lat="47.66295" lon="-1.95985">
        <ele>35.71</ele>
        <time>2014-03-30T07:55:04Z</time>
      </trkpt>
      <trkpt lat="47.66303" lon="-1.95976">
        <ele>34.26</ele>
        <time>2014-03-30T07:55:09Z</time>
      </trkpt>
      <trkpt lat="47.66313" lon="-1.95974">
        <ele>34.74</ele>
        <time>2014-03-30T07:55:14Z</time>
      </trkpt>
      <trkpt lat="47.66324" lon="-1.95972">
        <ele>34.26</ele>
        <time>2014-03-30T07:55:17Z</time>
      </trkpt>
      <trkpt lat="47.66337" lon="-1.95973">
        <ele>33.78</ele>
        <time>2014-03-30T07:55:20Z</time>
      </trkpt>
      <trkpt lat="47.6635" lon="-1.95968">
        <ele>32.82</ele>
        <time>2014-03-30T07:55:23Z</time>
      </trkpt>
      <trkpt lat="47.66358" lon="-1.95958">
        <ele>29.94</ele>
        <time>2014-03-30T07:55:27Z</time>
      </trkpt>
      <trkpt lat="47.66351" lon="-1.95945">
        <ele>28.02</ele>
        <time>2014-03-30T07:55:32Z</time>
      </trkpt>
      <trkpt lat="47.66344" lon="-1.95933">
        <ele>27.05</ele>
        <time>2014-03-30T07:55:36Z</time>
      </trkpt>
      <trkpt lat="47.66341" lon="-1.95915">
        <ele>27.05</ele>
        <time>2014-03-30T07:55:40Z</time>
      </trkpt>
      <trkpt lat="47.66337" lon="-1.95896">
        <ele>27.53</ele>
        <time>2014-03-30T07:55:44Z</time>
      </trkpt>
      <trkpt lat="47.66332" lon="-1.95882">
        <ele>28.02</ele>
        <time>2014-03-30T07:55:47Z</time>
      </trkpt>
      <trkpt lat="47.66332" lon="-1.95867">
        <ele>29.94</ele>
        <time>2014-03-30T07:55:52Z</time>
      </trkpt>
      <trkpt lat="47.66341" lon="-1.9587">
        <ele>29.94</ele>
        <time>2014-03-30T07:55:56Z</time>
      </trkpt>
      <trkpt lat="47.66349" lon="-1.95883">
        <ele>30.9</ele>
        <time>2014-03-30T07:56:22Z</time>
      </trkpt>
      <trkpt lat="47.66358" lon="-1.95894">
        <ele>28.5</ele>
        <time>2014-03-30T07:56:25Z</time>
      </trkpt>
      <trkpt lat="47.66364" lon="-1.95905">
        <ele>25.13</ele>
        <time>2014-03-30T07:56:30Z</time>
      </trkpt>
      <trkpt lat="47.66372" lon="-1.95918">
        <ele>25.13</ele>
        <time>2014-03-30T07:56:39Z</time>
      </trkpt>
      <trkpt lat="47.6638" lon="-1.95925">
        <ele>27.05</ele>
        <time>2014-03-30T07:56:45Z</time>
      </trkpt>
      <trkpt lat="47.66388" lon="-1.95921">
        <ele>28.02</ele>
        <time>2014-03-30T07:56:53Z</time>
      </trkpt>
      <trkpt lat="47.66398" lon="-1.95918">
        <ele>26.57</ele>
        <time>2014-03-30T07:57:01Z</time>
      </trkpt>
      <trkpt lat="47.66403" lon="-1.95932">
        <ele>27.53</ele>
        <time>2014-03-30T07:57:08Z</time>
      </trkpt>
      <trkpt lat="47.66408" lon="-1.95944">
        <ele>28.02</ele>
        <time>2014-03-30T07:57:12Z</time>
      </trkpt>
      <trkpt lat="47.66416" lon="-1.9594">
        <ele>26.57</ele>
        <time>2014-03-30T07:57:16Z</time>
      </trkpt>
      <trkpt lat="47.6642" lon="-1.95926">
        <ele>25.61</ele>
        <time>2014-03-30T07:57:20Z</time>
      </trkpt>
      <trkpt lat="47.66419" lon="-1.95911">
        <ele>21.77</ele>
        <time>2014-03-30T07:57:23Z</time>
      </trkpt>
      <trkpt lat="47.66418" lon="-1.95893">
        <ele>18.4</ele>
        <time>2014-03-30T07:57:26Z</time>
      </trkpt>
      <trkpt lat="47.66416" lon="-1.95875">
        <ele>16</ele>
        <time>2014-03-30T07:57:29Z</time>
      </trkpt>
      <trkpt lat="47.66415" lon="-1.95856">
        <ele>14.08</ele>
        <time>2014-03-30T07:57:32Z</time>
      </trkpt>
      <trkpt lat="47.66414" lon="-1.95839">
        <ele>12.63</ele>
        <time>2014-03-30T07:57:35Z</time>
      </trkpt>
      <trkpt lat="47.66411" lon="-1.9582">
        <ele>12.15</ele>
        <time>2014-03-30T07:57:38Z</time>
      </trkpt>
      <trkpt lat="47.66408" lon="-1.95803">
        <ele>11.67</ele>
        <time>2014-03-30T07:57:41Z</time>
      </trkpt>
      <trkpt lat="47.66405" lon="-1.95787">
        <ele>11.67</ele>
        <time>2014-03-30T07:57:44Z</time>
      </trkpt>
      <trkpt lat="47.66402" lon="-1.95771">
        <ele>11.67</ele>
        <time>2014-03-30T07:57:47Z</time>
      </trkpt>
      <trkpt lat="47.664" lon="-1.95755">
        <ele>11.67</ele>
        <time>2014-03-30T07:57:50Z</time>
      </trkpt>
      <trkpt lat="47.66397" lon="-1.95737">
        <ele>11.67</ele>
        <time>2014-03-30T07:57:53Z</time>
      </trkpt>
      <trkpt lat="47.66394" lon="-1.9572">
        <ele>11.67</ele>
        <time>2014-03-30T07:57:56Z</time>
      </trkpt>
      <trkpt lat="47.66391" lon="-1.95704">
        <ele>11.67</ele>
        <time>2014-03-30T07:57:59Z</time>
      </trkpt>
      <trkpt lat="47.66388" lon="-1.95688">
        <ele>11.19</ele>
        <time>2014-03-30T07:58:02Z</time>
      </trkpt>
      <trkpt lat="47.66386" lon="-1.95673">
        <ele>11.19</ele>
        <time>2014-03-30T07:58:05Z</time>
      </trkpt>
      <trkpt lat="47.66383" lon="-1.95655">
        <ele>10.71</ele>
        <time>2014-03-30T07:58:08Z</time>
      </trkpt>
      <trkpt lat="47.6638" lon="-1.95638">
        <ele>10.71</ele>
        <time>2014-03-30T07:58:11Z</time>
      </trkpt>
      <trkpt lat="47.66378" lon="-1.95622">
        <ele>10.23</ele>
        <time>2014-03-30T07:58:14Z</time>
      </trkpt>
      <trkpt lat="47.66376" lon="-1.95609">
        <ele>10.23</ele>
        <time>2014-03-30T07:58:17Z</time>
      </trkpt>
      <trkpt lat="47.66374" lon="-1.95595">
        <ele>10.23</ele>
        <time>2014-03-30T07:58:20Z</time>
      </trkpt>
      <trkpt lat="47.66371" lon="-1.95581">
        <ele>10.23</ele>
        <time>2014-03-30T07:58:23Z</time>
      </trkpt>
      <trkpt lat="47.66369" lon="-1.95566">
        <ele>10.23</ele>
        <time>2014-03-30T07:58:26Z</time>
      </trkpt>
      <trkpt lat="47.66367" lon="-1.95552">
        <ele>10.23</ele>
        <time>2014-03-30T07:58:29Z</time>
      </trkpt>
      <trkpt lat="47.66364" lon="-1.95537">
        <ele>10.23</ele>
        <time>2014-03-30T07:58:32Z</time>
      </trkpt>
      <trkpt lat="47.66362" lon="-1.95523">
        <ele>10.23</ele>
        <time>2014-03-30T07:58:35Z</time>
      </trkpt>
      <trkpt lat="47.6636" lon="-1.95509">
        <ele>10.23</ele>
        <time>2014-03-30T07:58:38Z</time>
      </trkpt>
      <trkpt lat="47.6636" lon="-1.95495">
        <ele>10.23</ele>
        <time>2014-03-30T07:58:41Z</time>
      </trkpt>
      <trkpt lat="47.66361" lon="-1.9548">
        <ele>9.75</ele>
        <time>2014-03-30T07:58:44Z</time>
      </trkpt>
      <trkpt lat="47.66363" lon="-1.95466">
        <ele>9.27</ele>
        <time>2014-03-30T07:58:47Z</time>
      </trkpt>
      <trkpt lat="47.66364" lon="-1.95452">
        <ele>9.27</ele>
        <time>2014-03-30T07:58:50Z</time>
      </trkpt>
      <trkpt lat="47.66366" lon="-1.95435">
        <ele>8.79</ele>
        <time>2014-03-30T07:58:53Z</time>
      </trkpt>
      <trkpt lat="47.66367" lon="-1.95418">
        <ele>8.79</ele>
        <time>2014-03-30T07:58:56Z</time>
      </trkpt>
      <trkpt lat="47.66369" lon="-1.95401">
        <ele>8.31</ele>
        <time>2014-03-30T07:58:59Z</time>
      </trkpt>
      <trkpt lat="47.66371" lon="-1.95384">
        <ele>8.31</ele>
        <time>2014-03-30T07:59:02Z</time>
      </trkpt>
      <trkpt lat="47.66372" lon="-1.95366">
        <ele>8.31</ele>
        <time>2014-03-30T07:59:05Z</time>
      </trkpt>
      <trkpt lat="47.66374" lon="-1.95347">
        <ele>8.31</ele>
        <time>2014-03-30T07:59:08Z</time>
      </trkpt>
      <trkpt lat="47.66375" lon="-1.9533">
        <ele>8.31</ele>
        <time>2014-03-30T07:59:11Z</time>
      </trkpt>
      <trkpt lat="47.66377" lon="-1.95311">
        <ele>7.83</ele>
        <time>2014-03-30T07:59:14Z</time>
      </trkpt>
      <trkpt lat="47.66378" lon="-1.95294">
        <ele>7.83</ele>
        <time>2014-03-30T07:59:17Z</time>
      </trkpt>
      <trkpt lat="47.66379" lon="-1.95276">
        <ele>6.87</ele>
        <time>2014-03-30T07:59:20Z</time>
      </trkpt>
      <trkpt lat="47.66381" lon="-1.95257">
        <ele>6.87</ele>
        <time>2014-03-30T07:59:23Z</time>
      </trkpt>
      <trkpt lat="47.66383" lon="-1.95237">
        <ele>6.87</ele>
        <time>2014-03-30T07:59:26Z</time>
      </trkpt>
      <trkpt lat="47.66385" lon="-1.95218">
        <ele>7.35</ele>
        <time>2014-03-30T07:59:29Z</time>
      </trkpt>
      <trkpt lat="47.66387" lon="-1.952">
        <ele>6.87</ele>
        <time>2014-03-30T07:59:32Z</time>
      </trkpt>
      <trkpt lat="47.66389" lon="-1.95187">
        <ele>6.87</ele>
        <time>2014-03-30T07:59:35Z</time>
      </trkpt>
      <trkpt lat="47.66392" lon="-1.95173">
        <ele>7.35</ele>
        <time>2014-03-30T07:59:39Z</time>
      </trkpt>
      <trkpt lat="47.66397" lon="-1.95159">
        <ele>6.87</ele>
        <time>2014-03-30T07:59:44Z</time>
      </trkpt>
      <trkpt lat="47.66401" lon="-1.95145">
        <ele>7.35</ele>
        <time>2014-03-30T07:59:48Z</time>
      </trkpt>
      <trkpt lat="47.66405" lon="-1.95129">
        <ele>7.83</ele>
        <time>2014-03-30T07:59:52Z</time>
      </trkpt>
      <trkpt lat="47.66409" lon="-1.95116">
        <ele>7.83</ele>
        <time>2014-03-30T07:59:55Z</time>
      </trkpt>
      <trkpt lat="47.66412" lon="-1.95103">
        <ele>8.31</ele>
        <time>2014-03-30T07:59:58Z</time>
      </trkpt>
      <trkpt lat="47.66415" lon="-1.95087">
        <ele>8.31</ele>
        <time>2014-03-30T08:00:01Z</time>
      </trkpt>
      <trkpt lat="47.66419" lon="-1.95071">
        <ele>8.31</ele>
        <time>2014-03-30T08:00:04Z</time>
      </trkpt>
      <trkpt lat="47.66424" lon="-1.95054">
        <ele>8.79</ele>
        <time>2014-03-30T08:00:07Z</time>
      </trkpt>
      <trkpt lat="47.66428" lon="-1.95039">
        <ele>8.31</ele>
        <time>2014-03-30T08:00:10Z</time>
      </trkpt>
      <trkpt lat="47.66433" lon="-1.95024">
        <ele>7.83</ele>
        <time>2014-03-30T08:00:13Z</time>
      </trkpt>
      <trkpt lat="47.66437" lon="-1.9501">
        <ele>8.31</ele>
        <time>2014-03-30T08:00:16Z</time>
      </trkpt>
      <trkpt lat="47.6644" lon="-1.94995">
        <ele>8.31</ele>
        <time>2014-03-30T08:00:19Z</time>
      </trkpt>
      <trkpt lat="47.66444" lon="-1.94982">
        <ele>8.31</ele>
        <time>2014-03-30T08:00:22Z</time>
      </trkpt>
      <trkpt lat="47.66447" lon="-1.94968">
        <ele>8.31</ele>
        <time>2014-03-30T08:00:25Z</time>
      </trkpt>
      <trkpt lat="47.66451" lon="-1.94956">
        <ele>8.79</ele>
        <time>2014-03-30T08:00:28Z</time>
      </trkpt>
      <trkpt lat="47.66455" lon="-1.94942">
        <ele>8.31</ele>
        <time>2014-03-30T08:00:31Z</time>
      </trkpt>
      <trkpt lat="47.66458" lon="-1.94929">
        <ele>8.31</ele>
        <time>2014-03-30T08:00:34Z</time>
      </trkpt>
      <trkpt lat="47.66461" lon="-1.94916">
        <ele>8.31</ele>
        <time>2014-03-30T08:00:37Z</time>
      </trkpt>
      <trkpt lat="47.66465" lon="-1.94903">
        <ele>8.79</ele>
        <time>2014-03-30T08:00:40Z</time>
      </trkpt>
      <trkpt lat="47.66469" lon="-1.94891">
        <ele>9.27</ele>
        <time>2014-03-30T08:00:43Z</time>
      </trkpt>
      <trkpt lat="47.66475" lon="-1.9488">
        <ele>8.79</ele>
        <time>2014-03-30T08:00:46Z</time>
      </trkpt>
      <trkpt lat="47.66483" lon="-1.94869">
        <ele>9.27</ele>
        <time>2014-03-30T08:00:49Z</time>
      </trkpt>
      <trkpt lat="47.6649" lon="-1.94859">
        <ele>8.79</ele>
        <time>2014-03-30T08:00:52Z</time>
      </trkpt>
      <trkpt lat="47.66497" lon="-1.94848">
        <ele>9.27</ele>
        <time>2014-03-30T08:00:55Z</time>
      </trkpt>
      <trkpt lat="47.66505" lon="-1.94837">
        <ele>9.27</ele>
        <time>2014-03-30T08:00:58Z</time>
      </trkpt>
      <trkpt lat="47.66512" lon="-1.94826">
        <ele>9.27</ele>
        <time>2014-03-30T08:01:01Z</time>
      </trkpt>
      <trkpt lat="47.66516" lon="-1.94814">
        <ele>10.71</ele>
        <time>2014-03-30T08:01:04Z</time>
      </trkpt>
      <trkpt lat="47.66512" lon="-1.94796">
        <ele>11.19</ele>
        <time>2014-03-30T08:01:08Z</time>
      </trkpt>
      <trkpt lat="47.66508" lon="-1.94778">
        <ele>11.19</ele>
        <time>2014-03-30T08:01:12Z</time>
      </trkpt>
      <trkpt lat="47.66505" lon="-1.94764">
        <ele>11.19</ele>
        <time>2014-03-30T08:01:15Z</time>
      </trkpt>
      <trkpt lat="47.66502" lon="-1.94751">
        <ele>11.19</ele>
        <time>2014-03-30T08:01:18Z</time>
      </trkpt>
      <trkpt lat="47.66499" lon="-1.94738">
        <ele>11.67</ele>
        <time>2014-03-30T08:01:21Z</time>
      </trkpt>
      <trkpt lat="47.66496" lon="-1.94722">
        <ele>12.15</ele>
        <time>2014-03-30T08:01:25Z</time>
      </trkpt>
      <trkpt lat="47.66492" lon="-1.94705">
        <ele>12.63</ele>
        <time>2014-03-30T08:01:29Z</time>
      </trkpt>
      <trkpt lat="47.66488" lon="-1.94689">
        <ele>13.12</ele>
        <time>2014-03-30T08:01:33Z</time>
      </trkpt>
      <trkpt lat="47.66485" lon="-1.94673">
        <ele>13.6</ele>
        <time>2014-03-30T08:01:37Z</time>
      </trkpt>
      <trkpt lat="47.66481" lon="-1.94657">
        <ele>14.56</ele>
        <time>2014-03-30T08:01:41Z</time>
      </trkpt>
      <trkpt lat="47.66478" lon="-1.94641">
        <ele>14.56</ele>
        <time>2014-03-30T08:01:45Z</time>
      </trkpt>
      <trkpt lat="47.66474" lon="-1.94625">
        <ele>15.52</ele>
        <time>2014-03-30T08:01:49Z</time>
      </trkpt>
      <trkpt lat="47.6647" lon="-1.9461">
        <ele>16.48</ele>
        <time>2014-03-30T08:01:53Z</time>
      </trkpt>
      <trkpt lat="47.66467" lon="-1.94595">
        <ele>16.96</ele>
        <time>2014-03-30T08:01:57Z</time>
      </trkpt>
      <trkpt lat="47.66467" lon="-1.9458">
        <ele>17.44</ele>
        <time>2014-03-30T08:02:02Z</time>
      </trkpt>
      <trkpt lat="47.66475" lon="-1.94571">
        <ele>17.44</ele>
        <time>2014-03-30T08:02:06Z</time>
      </trkpt>
      <trkpt lat="47.66485" lon="-1.94562">
        <ele>17.92</ele>
        <time>2014-03-30T08:02:10Z</time>
      </trkpt>
      <trkpt lat="47.66494" lon="-1.94551">
        <ele>17.92</ele>
        <time>2014-03-30T08:02:14Z</time>
      </trkpt>
      <trkpt lat="47.66504" lon="-1.94541">
        <ele>17.44</ele>
        <time>2014-03-30T08:02:18Z</time>
      </trkpt>
      <trkpt lat="47.66513" lon="-1.94538">
        <ele>17.44</ele>
        <time>2014-03-30T08:02:21Z</time>
      </trkpt>
      <trkpt lat="47.66525" lon="-1.94537">
        <ele>16.96</ele>
        <time>2014-03-30T08:02:24Z</time>
      </trkpt>
      <trkpt lat="47.66538" lon="-1.94536">
        <ele>16.96</ele>
        <time>2014-03-30T08:02:27Z</time>
      </trkpt>
      <trkpt lat="47.66547" lon="-1.94534">
        <ele>16.96</ele>
        <time>2014-03-30T08:02:29Z</time>
      </trkpt>
      <trkpt lat="47.66561" lon="-1.94532">
        <ele>16</ele>
        <time>2014-03-30T08:02:32Z</time>
      </trkpt>
      <trkpt lat="47.6657" lon="-1.94531">
        <ele>16</ele>
        <time>2014-03-30T08:02:34Z</time>
      </trkpt>
      <trkpt lat="47.66584" lon="-1.94529">
        <ele>15.52</ele>
        <time>2014-03-30T08:02:37Z</time>
      </trkpt>
      <trkpt lat="47.66593" lon="-1.94527">
        <ele>15.04</ele>
        <time>2014-03-30T08:02:39Z</time>
      </trkpt>
      <trkpt lat="47.66603" lon="-1.94525">
        <ele>15.04</ele>
        <time>2014-03-30T08:02:41Z</time>
      </trkpt>
      <trkpt lat="47.66613" lon="-1.94524">
        <ele>15.04</ele>
        <time>2014-03-30T08:02:43Z</time>
      </trkpt>
      <trkpt lat="47.66622" lon="-1.94522">
        <ele>15.04</ele>
        <time>2014-03-30T08:02:45Z</time>
      </trkpt>
      <trkpt lat="47.66631" lon="-1.9452">
        <ele>14.56</ele>
        <time>2014-03-30T08:02:47Z</time>
      </trkpt>
      <trkpt lat="47.66645" lon="-1.94517">
        <ele>14.08</ele>
        <time>2014-03-30T08:02:50Z</time>
      </trkpt>
      <trkpt lat="47.66654" lon="-1.94516">
        <ele>14.08</ele>
        <time>2014-03-30T08:02:52Z</time>
      </trkpt>
      <trkpt lat="47.66664" lon="-1.94514">
        <ele>13.6</ele>
        <time>2014-03-30T08:02:54Z</time>
      </trkpt>
      <trkpt lat="47.66673" lon="-1.94512">
        <ele>13.6</ele>
        <time>2014-03-30T08:02:56Z</time>
      </trkpt>
      <trkpt lat="47.66683" lon="-1.94511">
        <ele>13.12</ele>
        <time>2014-03-30T08:02:58Z</time>
      </trkpt>
      <trkpt lat="47.66693" lon="-1.9451">
        <ele>12.63</ele>
        <time>2014-03-30T08:03:00Z</time>
      </trkpt>
      <trkpt lat="47.66703" lon="-1.94508">
        <ele>12.63</ele>
        <time>2014-03-30T08:03:02Z</time>
      </trkpt>
      <trkpt lat="47.66713" lon="-1.94505">
        <ele>12.63</ele>
        <time>2014-03-30T08:03:04Z</time>
      </trkpt>
      <trkpt lat="47.66722" lon="-1.94498">
        <ele>12.63</ele>
        <time>2014-03-30T08:03:06Z</time>
      </trkpt>
      <trkpt lat="47.66728" lon="-1.94486">
        <ele>12.63</ele>
        <time>2014-03-30T08:03:08Z</time>
      </trkpt>
      <trkpt lat="47.66731" lon="-1.94474">
        <ele>13.12</ele>
        <time>2014-03-30T08:03:10Z</time>
      </trkpt>
      <trkpt lat="47.66734" lon="-1.9446">
        <ele>13.6</ele>
        <time>2014-03-30T08:03:13Z</time>
      </trkpt>
      <trkpt lat="47.66738" lon="-1.94444">
        <ele>14.08</ele>
        <time>2014-03-30T08:03:17Z</time>
      </trkpt>
      <trkpt lat="47.66743" lon="-1.9443">
        <ele>14.08</ele>
        <time>2014-03-30T08:03:20Z</time>
      </trkpt>
      <trkpt lat="47.66747" lon="-1.94414">
        <ele>15.04</ele>
        <time>2014-03-30T08:03:23Z</time>
      </trkpt>
      <trkpt lat="47.66751" lon="-1.944">
        <ele>15.52</ele>
        <time>2014-03-30T08:03:26Z</time>
      </trkpt>
      <trkpt lat="47.66754" lon="-1.94386">
        <ele>15.52</ele>
        <time>2014-03-30T08:03:29Z</time>
      </trkpt>
      <trkpt lat="47.66758" lon="-1.94373">
        <ele>16.48</ele>
        <time>2014-03-30T08:03:32Z</time>
      </trkpt>
      <trkpt lat="47.66762" lon="-1.94359">
        <ele>16.48</ele>
        <time>2014-03-30T08:03:35Z</time>
      </trkpt>
      <trkpt lat="47.66766" lon="-1.94344">
        <ele>17.44</ele>
        <time>2014-03-30T08:03:38Z</time>
      </trkpt>
      <trkpt lat="47.66771" lon="-1.94329">
        <ele>17.92</ele>
        <time>2014-03-30T08:03:41Z</time>
      </trkpt>
      <trkpt lat="47.66775" lon="-1.94315">
        <ele>18.88</ele>
        <time>2014-03-30T08:03:44Z</time>
      </trkpt>
      <trkpt lat="47.66779" lon="-1.94303">
        <ele>19.84</ele>
        <time>2014-03-30T08:03:47Z</time>
      </trkpt>
      <trkpt lat="47.66782" lon="-1.94291">
        <ele>20.81</ele>
        <time>2014-03-30T08:03:50Z</time>
      </trkpt>
      <trkpt lat="47.66785" lon="-1.94274">
        <ele>20.81</ele>
        <time>2014-03-30T08:03:54Z</time>
      </trkpt>
      <trkpt lat="47.66788" lon="-1.94261">
        <ele>20.81</ele>
        <time>2014-03-30T08:03:57Z</time>
      </trkpt>
      <trkpt lat="47.66795" lon="-1.94251">
        <ele>19.84</ele>
        <time>2014-03-30T08:04:00Z</time>
      </trkpt>
      <trkpt lat="47.66804" lon="-1.94237">
        <ele>18.88</ele>
        <time>2014-03-30T08:04:03Z</time>
      </trkpt>
      <trkpt lat="47.66808" lon="-1.94225">
        <ele>18.4</ele>
        <time>2014-03-30T08:04:06Z</time>
      </trkpt>
      <trkpt lat="47.66809" lon="-1.9421">
        <ele>17.92</ele>
        <time>2014-03-30T08:04:12Z</time>
      </trkpt>
      <trkpt lat="47.66805" lon="-1.94199">
        <ele>18.88</ele>
        <time>2014-03-30T08:04:17Z</time>
      </trkpt>
      <trkpt lat="47.66799" lon="-1.94208">
        <ele>22.25</ele>
        <time>2014-03-30T08:04:23Z</time>
      </trkpt>
      <trkpt lat="47.66802" lon="-1.94223">
        <ele>23.21</ele>
        <time>2014-03-30T08:04:27Z</time>
      </trkpt>
      <trkpt lat="47.66792" lon="-1.94227">
        <ele>25.13</ele>
        <time>2014-03-30T08:04:32Z</time>
      </trkpt>
      <trkpt lat="47.66785" lon="-1.94217">
        <ele>25.61</ele>
        <time>2014-03-30T08:04:38Z</time>
      </trkpt>
      <trkpt lat="47.66784" lon="-1.94208">
        <ele>25.13</ele>
        <time>2014-03-30T08:04:44Z</time>
      </trkpt>
      <trkpt lat="47.66785" lon="-1.94196">
        <ele>24.17</ele>
        <time>2014-03-30T08:04:50Z</time>
      </trkpt>
      <trkpt lat="47.66783" lon="-1.94183">
        <ele>24.65</ele>
        <time>2014-03-30T08:04:55Z</time>
      </trkpt>
      <trkpt lat="47.6679" lon="-1.94171">
        <ele>23.69</ele>
        <time>2014-03-30T08:05:01Z</time>
      </trkpt>
      <trkpt lat="47.66789" lon="-1.94157">
        <ele>23.69</ele>
        <time>2014-03-30T08:05:08Z</time>
      </trkpt>
      <trkpt lat="47.66787" lon="-1.94142">
        <ele>24.65</ele>
        <time>2014-03-30T08:05:18Z</time>
      </trkpt>
      <trkpt lat="47.66787" lon="-1.94128">
        <ele>24.65</ele>
        <time>2014-03-30T08:05:24Z</time>
      </trkpt>
      <trkpt lat="47.66781" lon="-1.94116">
        <ele>26.57</ele>
        <time>2014-03-30T08:05:32Z</time>
      </trkpt>
      <trkpt lat="47.66771" lon="-1.94111">
        <ele>28.98</ele>
        <time>2014-03-30T08:05:44Z</time>
      </trkpt>
      <trkpt lat="47.66773" lon="-1.94098">
        <ele>28.98</ele>
        <time>2014-03-30T08:05:49Z</time>
      </trkpt>
      <trkpt lat="47.66771" lon="-1.94082">
        <ele>28.98</ele>
        <time>2014-03-30T08:05:57Z</time>
      </trkpt>
      <trkpt lat="47.66766" lon="-1.94068">
        <ele>29.46</ele>
        <time>2014-03-30T08:06:02Z</time>
      </trkpt>
      <trkpt lat="47.66771" lon="-1.94061">
        <ele>31.38</ele>
        <time>2014-03-30T08:06:12Z</time>
      </trkpt>
      <trkpt lat="47.66774" lon="-1.94075">
        <ele>29.46</ele>
        <time>2014-03-30T08:06:15Z</time>
      </trkpt>
      <trkpt lat="47.66779" lon="-1.94083">
        <ele>28.02</ele>
        <time>2014-03-30T08:06:20Z</time>
      </trkpt>
      <trkpt lat="47.66782" lon="-1.94072">
        <ele>27.53</ele>
        <time>2014-03-30T08:06:26Z</time>
      </trkpt>
      <trkpt lat="47.66792" lon="-1.94064">
        <ele>26.09</ele>
        <time>2014-03-30T08:06:31Z</time>
      </trkpt>
      <trkpt lat="47.66794" lon="-1.94053">
        <ele>26.57</ele>
        <time>2014-03-30T08:06:38Z</time>
      </trkpt>
      <trkpt lat="47.66801" lon="-1.94045">
        <ele>22.25</ele>
        <time>2014-03-30T08:06:46Z</time>
      </trkpt>
      <trkpt lat="47.66797" lon="-1.94032">
        <ele>22.73</ele>
        <time>2014-03-30T08:06:50Z</time>
      </trkpt>
      <trkpt lat="47.66791" lon="-1.94033">
        <ele>25.61</ele>
        <time>2014-03-30T08:06:58Z</time>
      </trkpt>
      <trkpt lat="47.66783" lon="-1.9403">
        <ele>28.5</ele>
        <time>2014-03-30T08:07:03Z</time>
      </trkpt>
      <trkpt lat="47.66774" lon="-1.94021">
        <ele>31.86</ele>
        <time>2014-03-30T08:07:11Z</time>
      </trkpt>
      <trkpt lat="47.66774" lon="-1.94007">
        <ele>31.86</ele>
        <time>2014-03-30T08:07:16Z</time>
      </trkpt>
      <trkpt lat="47.66776" lon="-1.93994">
        <ele>31.86</ele>
        <time>2014-03-30T08:07:24Z</time>
      </trkpt>
      <trkpt lat="47.66781" lon="-1.93985">
        <ele>31.38</ele>
        <time>2014-03-30T08:07:29Z</time>
      </trkpt>
      <trkpt lat="47.66784" lon="-1.93972">
        <ele>32.82</ele>
        <time>2014-03-30T08:07:34Z</time>
      </trkpt>
      <trkpt lat="47.66784" lon="-1.93957">
        <ele>33.78</ele>
        <time>2014-03-30T08:07:39Z</time>
      </trkpt>
      <trkpt lat="47.66794" lon="-1.93955">
        <ele>31.86</ele>
        <time>2014-03-30T08:07:43Z</time>
      </trkpt>
      <trkpt lat="47.66799" lon="-1.93944">
        <ele>30.42</ele>
        <time>2014-03-30T08:07:46Z</time>
      </trkpt>
      <trkpt lat="47.668" lon="-1.93929">
        <ele>28.98</ele>
        <time>2014-03-30T08:07:49Z</time>
      </trkpt>
      <trkpt lat="47.66797" lon="-1.93913">
        <ele>28.5</ele>
        <time>2014-03-30T08:07:54Z</time>
      </trkpt>
      <trkpt lat="47.66791" lon="-1.93897">
        <ele>29.46</ele>
        <time>2014-03-30T08:08:01Z</time>
      </trkpt>
      <trkpt lat="47.66782" lon="-1.9389">
        <ele>31.86</ele>
        <time>2014-03-30T08:08:06Z</time>
      </trkpt>
      <trkpt lat="47.66772" lon="-1.93886">
        <ele>35.23</ele>
        <time>2014-03-30T08:08:13Z</time>
      </trkpt>
      <trkpt lat="47.66765" lon="-1.93873">
        <ele>35.71</ele>
        <time>2014-03-30T08:08:20Z</time>
      </trkpt>
      <trkpt lat="47.66754" lon="-1.93861">
        <ele>35.71</ele>
        <time>2014-03-30T08:08:27Z</time>
      </trkpt>
      <trkpt lat="47.66752" lon="-1.93846">
        <ele>36.67</ele>
        <time>2014-03-30T08:08:32Z</time>
      </trkpt>
      <trkpt lat="47.66752" lon="-1.93832">
        <ele>36.67</ele>
        <time>2014-03-30T08:08:37Z</time>
      </trkpt>
      <trkpt lat="47.66753" lon="-1.93818">
        <ele>36.67</ele>
        <time>2014-03-30T08:08:41Z</time>
      </trkpt>
      <trkpt lat="47.66751" lon="-1.93799">
        <ele>36.67</ele>
        <time>2014-03-30T08:08:46Z</time>
      </trkpt>
      <trkpt lat="47.66747" lon="-1.93785">
        <ele>36.67</ele>
        <time>2014-03-30T08:08:51Z</time>
      </trkpt>
      <trkpt lat="47.66742" lon="-1.93771">
        <ele>38.11</ele>
        <time>2014-03-30T08:08:57Z</time>
      </trkpt>
      <trkpt lat="47.66734" lon="-1.93758">
        <ele>38.11</ele>
        <time>2014-03-30T08:09:04Z</time>
      </trkpt>
      <trkpt lat="47.66724" lon="-1.9375">
        <ele>40.03</ele>
        <time>2014-03-30T08:09:09Z</time>
      </trkpt>
      <trkpt lat="47.66714" lon="-1.93736">
        <ele>41.47</ele>
        <time>2014-03-30T08:09:14Z</time>
      </trkpt>
      <trkpt lat="47.66704" lon="-1.93727">
        <ele>43.4</ele>
        <time>2014-03-30T08:09:19Z</time>
      </trkpt>
      <trkpt lat="47.66695" lon="-1.93717">
        <ele>43.88</ele>
        <time>2014-03-30T08:09:25Z</time>
      </trkpt>
      <trkpt lat="47.66694" lon="-1.93703">
        <ele>44.36</ele>
        <time>2014-03-30T08:09:31Z</time>
      </trkpt>
      <trkpt lat="47.66692" lon="-1.93689">
        <ele>45.32</ele>
        <time>2014-03-30T08:09:35Z</time>
      </trkpt>
      <trkpt lat="47.66688" lon="-1.93672">
        <ele>45.8</ele>
        <time>2014-03-30T08:09:40Z</time>
      </trkpt>
      <trkpt lat="47.66689" lon="-1.93657">
        <ele>45.32</ele>
        <time>2014-03-30T08:09:44Z</time>
      </trkpt>
      <trkpt lat="47.66695" lon="-1.93647">
        <ele>44.84</ele>
        <time>2014-03-30T08:09:48Z</time>
      </trkpt>
      <trkpt lat="47.66702" lon="-1.93655">
        <ele>42.44</ele>
        <time>2014-03-30T08:09:52Z</time>
      </trkpt>
      <trkpt lat="47.66712" lon="-1.93659">
        <ele>41.47</ele>
        <time>2014-03-30T08:09:55Z</time>
      </trkpt>
      <trkpt lat="47.66714" lon="-1.9367">
        <ele>40.99</ele>
        <time>2014-03-30T08:09:59Z</time>
      </trkpt>
      <trkpt lat="47.66723" lon="-1.93673">
        <ele>40.51</ele>
        <time>2014-03-30T08:10:02Z</time>
      </trkpt>
      <trkpt lat="47.66729" lon="-1.93684">
        <ele>40.03</ele>
        <time>2014-03-30T08:10:05Z</time>
      </trkpt>
      <trkpt lat="47.66733" lon="-1.93698">
        <ele>40.03</ele>
        <time>2014-03-30T08:10:08Z</time>
      </trkpt>
      <trkpt lat="47.66739" lon="-1.93711">
        <ele>39.55</ele>
        <time>2014-03-30T08:10:11Z</time>
      </trkpt>
      <trkpt lat="47.66746" lon="-1.93721">
        <ele>38.11</ele>
        <time>2014-03-30T08:10:15Z</time>
      </trkpt>
      <trkpt lat="47.66748" lon="-1.93733">
        <ele>35.71</ele>
        <time>2014-03-30T08:10:23Z</time>
      </trkpt>
      <trkpt lat="47.66758" lon="-1.93735">
        <ele>34.74</ele>
        <time>2014-03-30T08:10:26Z</time>
      </trkpt>
      <trkpt lat="47.66765" lon="-1.93746">
        <ele>33.3</ele>
        <time>2014-03-30T08:10:33Z</time>
      </trkpt>
      <trkpt lat="47.66774" lon="-1.93743">
        <ele>32.34</ele>
        <time>2014-03-30T08:10:36Z</time>
      </trkpt>
      <trkpt lat="47.66779" lon="-1.93729">
        <ele>30.42</ele>
        <time>2014-03-30T08:10:40Z</time>
      </trkpt>
      <trkpt lat="47.66783" lon="-1.93716">
        <ele>27.53</ele>
        <time>2014-03-30T08:10:51Z</time>
      </trkpt>
      <trkpt lat="47.66777" lon="-1.93706">
        <ele>27.05</ele>
        <time>2014-03-30T08:10:57Z</time>
      </trkpt>
      <trkpt lat="47.66776" lon="-1.93693">
        <ele>28.02</ele>
        <time>2014-03-30T08:11:03Z</time>
      </trkpt>
      <trkpt lat="47.66779" lon="-1.93681">
        <ele>28.98</ele>
        <time>2014-03-30T08:11:07Z</time>
      </trkpt>
      <trkpt lat="47.6678" lon="-1.93665">
        <ele>29.94</ele>
        <time>2014-03-30T08:11:11Z</time>
      </trkpt>
      <trkpt lat="47.66772" lon="-1.93656">
        <ele>33.3</ele>
        <time>2014-03-30T08:11:17Z</time>
      </trkpt>
      <trkpt lat="47.66762" lon="-1.93658">
        <ele>37.63</ele>
        <time>2014-03-30T08:11:24Z</time>
      </trkpt>
      <trkpt lat="47.66755" lon="-1.93647">
        <ele>42.44</ele>
        <time>2014-03-30T08:11:31Z</time>
      </trkpt>
      <trkpt lat="47.66743" lon="-1.93642">
        <ele>47.24</ele>
        <time>2014-03-30T08:11:37Z</time>
      </trkpt>
      <trkpt lat="47.66733" lon="-1.93639">
        <ele>52.05</ele>
        <time>2014-03-30T08:11:45Z</time>
      </trkpt>
      <trkpt lat="47.66726" lon="-1.93625">
        <ele>57.34</ele>
        <time>2014-03-30T08:12:01Z</time>
      </trkpt>
      <trkpt lat="47.66736" lon="-1.93629">
        <ele>56.86</ele>
        <time>2014-03-30T08:12:04Z</time>
      </trkpt>
      <trkpt lat="47.66744" lon="-1.93634">
        <ele>55.41</ele>
        <time>2014-03-30T08:12:06Z</time>
      </trkpt>
      <trkpt lat="47.66752" lon="-1.9363">
        <ele>53.97</ele>
        <time>2014-03-30T08:12:08Z</time>
      </trkpt>
      <trkpt lat="47.66764" lon="-1.93631">
        <ele>51.57</ele>
        <time>2014-03-30T08:12:11Z</time>
      </trkpt>
      <trkpt lat="47.66774" lon="-1.93636">
        <ele>49.16</ele>
        <time>2014-03-30T08:12:14Z</time>
      </trkpt>
      <trkpt lat="47.66783" lon="-1.93642">
        <ele>46.76</ele>
        <time>2014-03-30T08:12:17Z</time>
      </trkpt>
      <trkpt lat="47.66788" lon="-1.93629">
        <ele>42.92</ele>
        <time>2014-03-30T08:12:21Z</time>
      </trkpt>
      <trkpt lat="47.66787" lon="-1.93614">
        <ele>39.07</ele>
        <time>2014-03-30T08:12:25Z</time>
      </trkpt>
      <trkpt lat="47.66778" lon="-1.93604">
        <ele>37.63</ele>
        <time>2014-03-30T08:12:32Z</time>
      </trkpt>
      <trkpt lat="47.66769" lon="-1.93596">
        <ele>39.07</ele>
        <time>2014-03-30T08:12:39Z</time>
      </trkpt>
      <trkpt lat="47.66758" lon="-1.93585">
        <ele>40.51</ele>
        <time>2014-03-30T08:12:47Z</time>
      </trkpt>
      <trkpt lat="47.66746" lon="-1.93579">
        <ele>42.92</ele>
        <time>2014-03-30T08:12:54Z</time>
      </trkpt>
      <trkpt lat="47.66733" lon="-1.93576">
        <ele>43.88</ele>
        <time>2014-03-30T08:13:03Z</time>
      </trkpt>
      <trkpt lat="47.66723" lon="-1.93565">
        <ele>43.4</ele>
        <time>2014-03-30T08:13:12Z</time>
      </trkpt>
      <trkpt lat="47.6671" lon="-1.93557">
        <ele>44.36</ele>
        <time>2014-03-30T08:13:20Z</time>
      </trkpt>
      <trkpt lat="47.66706" lon="-1.93542">
        <ele>42.92</ele>
        <time>2014-03-30T08:13:30Z</time>
      </trkpt>
      <trkpt lat="47.66704" lon="-1.93529">
        <ele>41.47</ele>
        <time>2014-03-30T08:13:36Z</time>
      </trkpt>
      <trkpt lat="47.66697" lon="-1.93517">
        <ele>41.47</ele>
        <time>2014-03-30T08:13:42Z</time>
      </trkpt>
      <trkpt lat="47.66692" lon="-1.93502">
        <ele>38.11</ele>
        <time>2014-03-30T08:14:38Z</time>
      </trkpt>
      <trkpt lat="47.66684" lon="-1.93503">
        <ele>37.63</ele>
        <time>2014-03-30T08:14:42Z</time>
      </trkpt>
      <trkpt lat="47.66676" lon="-1.93512">
        <ele>37.63</ele>
        <time>2014-03-30T08:14:46Z</time>
      </trkpt>
      <trkpt lat="47.6667" lon="-1.93524">
        <ele>37.63</ele>
        <time>2014-03-30T08:14:49Z</time>
      </trkpt>
      <trkpt lat="47.66665" lon="-1.93536">
        <ele>37.63</ele>
        <time>2014-03-30T08:14:52Z</time>
      </trkpt>
      <trkpt lat="47.6666" lon="-1.93549">
        <ele>38.11</ele>
        <time>2014-03-30T08:14:55Z</time>
      </trkpt>
      <trkpt lat="47.66655" lon="-1.93562">
        <ele>38.11</ele>
        <time>2014-03-30T08:14:58Z</time>
      </trkpt>
      <trkpt lat="47.66651" lon="-1.93578">
        <ele>38.11</ele>
        <time>2014-03-30T08:15:02Z</time>
      </trkpt>
      <trkpt lat="47.66648" lon="-1.93592">
        <ele>38.11</ele>
        <time>2014-03-30T08:15:05Z</time>
      </trkpt>
      <trkpt lat="47.66645" lon="-1.93607">
        <ele>38.11</ele>
        <time>2014-03-30T08:15:08Z</time>
      </trkpt>
      <trkpt lat="47.66644" lon="-1.93623">
        <ele>38.11</ele>
        <time>2014-03-30T08:15:11Z</time>
      </trkpt>
      <trkpt lat="47.66647" lon="-1.93639">
        <ele>38.11</ele>
        <time>2014-03-30T08:15:14Z</time>
      </trkpt>
      <trkpt lat="47.66647" lon="-1.93653">
        <ele>37.63</ele>
        <time>2014-03-30T08:15:17Z</time>
      </trkpt>
      <trkpt lat="47.66638" lon="-1.9366">
        <ele>37.63</ele>
        <time>2014-03-30T08:15:21Z</time>
      </trkpt>
      <trkpt lat="47.66628" lon="-1.93654">
        <ele>37.63</ele>
        <time>2014-03-30T08:15:25Z</time>
      </trkpt>
      <trkpt lat="47.66618" lon="-1.93651">
        <ele>37.63</ele>
        <time>2014-03-30T08:15:28Z</time>
      </trkpt>
      <trkpt lat="47.66617" lon="-1.93636">
        <ele>37.15</ele>
        <time>2014-03-30T08:15:33Z</time>
      </trkpt>
      <trkpt lat="47.66614" lon="-1.93621">
        <ele>37.15</ele>
        <time>2014-03-30T08:15:36Z</time>
      </trkpt>
      <trkpt lat="47.66606" lon="-1.93614">
        <ele>36.19</ele>
        <time>2014-03-30T08:15:38Z</time>
      </trkpt>
      <trkpt lat="47.66597" lon="-1.93613">
        <ele>35.23</ele>
        <time>2014-03-30T08:15:40Z</time>
      </trkpt>
      <trkpt lat="47.66589" lon="-1.93606">
        <ele>34.26</ele>
        <time>2014-03-30T08:15:42Z</time>
      </trkpt>
      <trkpt lat="47.66582" lon="-1.93593">
        <ele>32.34</ele>
        <time>2014-03-30T08:15:45Z</time>
      </trkpt>
      <trkpt lat="47.66583" lon="-1.93576">
        <ele>30.9</ele>
        <time>2014-03-30T08:15:48Z</time>
      </trkpt>
      <trkpt lat="47.66581" lon="-1.93562">
        <ele>29.94</ele>
        <time>2014-03-30T08:15:50Z</time>
      </trkpt>
      <trkpt lat="47.6658" lon="-1.93546">
        <ele>28.98</ele>
        <time>2014-03-30T08:15:52Z</time>
      </trkpt>
      <trkpt lat="47.66583" lon="-1.9353">
        <ele>28.5</ele>
        <time>2014-03-30T08:15:54Z</time>
      </trkpt>
      <trkpt lat="47.6659" lon="-1.9352">
        <ele>28.5</ele>
        <time>2014-03-30T08:15:56Z</time>
      </trkpt>
      <trkpt lat="47.666" lon="-1.93512">
        <ele>28.98</ele>
        <time>2014-03-30T08:15:59Z</time>
      </trkpt>
      <trkpt lat="47.66608" lon="-1.93504">
        <ele>30.42</ele>
        <time>2014-03-30T08:16:03Z</time>
      </trkpt>
      <trkpt lat="47.66614" lon="-1.93493">
        <ele>30.9</ele>
        <time>2014-03-30T08:16:06Z</time>
      </trkpt>
      <trkpt lat="47.66617" lon="-1.93482">
        <ele>30.9</ele>
        <time>2014-03-30T08:16:10Z</time>
      </trkpt>
      <trkpt lat="47.66614" lon="-1.93471">
        <ele>29.94</ele>
        <time>2014-03-30T08:16:14Z</time>
      </trkpt>
      <trkpt lat="47.66622" lon="-1.93457">
        <ele>30.42</ele>
        <time>2014-03-30T08:16:18Z</time>
      </trkpt>
      <trkpt lat="47.66629" lon="-1.9345">
        <ele>31.38</ele>
        <time>2014-03-30T08:16:22Z</time>
      </trkpt>
      <trkpt lat="47.66637" lon="-1.9345">
        <ele>31.86</ele>
        <time>2014-03-30T08:16:26Z</time>
      </trkpt>
      <trkpt lat="47.66644" lon="-1.93451">
        <ele>32.82</ele>
        <time>2014-03-30T08:16:30Z</time>
      </trkpt>
      <trkpt lat="47.66645" lon="-1.93438">
        <ele>33.3</ele>
        <time>2014-03-30T08:16:34Z</time>
      </trkpt>
      <trkpt lat="47.66642" lon="-1.93424">
        <ele>32.34</ele>
        <time>2014-03-30T08:16:37Z</time>
      </trkpt>
      <trkpt lat="47.66647" lon="-1.93414">
        <ele>32.82</ele>
        <time>2014-03-30T08:16:41Z</time>
      </trkpt>
      <trkpt lat="47.66655" lon="-1.93414">
        <ele>33.78</ele>
        <time>2014-03-30T08:16:47Z</time>
      </trkpt>
      <trkpt lat="47.66655" lon="-1.93429">
        <ele>34.26</ele>
        <time>2014-03-30T08:16:51Z</time>
      </trkpt>
      <trkpt lat="47.66654" lon="-1.93443">
        <ele>34.26</ele>
        <time>2014-03-30T08:16:54Z</time>
      </trkpt>
      <trkpt lat="47.66655" lon="-1.9346">
        <ele>34.74</ele>
        <time>2014-03-30T08:16:58Z</time>
      </trkpt>
      <trkpt lat="47.66656" lon="-1.93475">
        <ele>34.74</ele>
        <time>2014-03-30T08:17:02Z</time>
      </trkpt>
      <trkpt lat="47.66654" lon="-1.9349">
        <ele>34.74</ele>
        <time>2014-03-30T08:17:06Z</time>
      </trkpt>
      <trkpt lat="47.66659" lon="-1.935">
        <ele>35.71</ele>
        <time>2014-03-30T08:17:10Z</time>
      </trkpt>
      <trkpt lat="47.66663" lon="-1.93485">
        <ele>34.74</ele>
        <time>2014-03-30T08:17:14Z</time>
      </trkpt>
      <trkpt lat="47.66668" lon="-1.93471">
        <ele>35.23</ele>
        <time>2014-03-30T08:17:18Z</time>
      </trkpt>
      <trkpt lat="47.66674" lon="-1.9346">
        <ele>36.19</ele>
        <time>2014-03-30T08:17:23Z</time>
      </trkpt>
      <trkpt lat="47.66671" lon="-1.93445">
        <ele>36.19</ele>
        <time>2014-03-30T08:17:27Z</time>
      </trkpt>
      <trkpt lat="47.66669" lon="-1.93429">
        <ele>35.71</ele>
        <time>2014-03-30T08:17:30Z</time>
      </trkpt>
      <trkpt lat="47.6667" lon="-1.93415">
        <ele>35.23</ele>
        <time>2014-03-30T08:17:34Z</time>
      </trkpt>
      <trkpt lat="47.66674" lon="-1.93403">
        <ele>35.71</ele>
        <time>2014-03-30T08:17:38Z</time>
      </trkpt>
      <trkpt lat="47.66675" lon="-1.9339">
        <ele>36.19</ele>
        <time>2014-03-30T08:17:42Z</time>
      </trkpt>
      <trkpt lat="47.66673" lon="-1.93376">
        <ele>35.71</ele>
        <time>2014-03-30T08:17:46Z</time>
      </trkpt>
      <trkpt lat="47.6667" lon="-1.93365">
        <ele>36.19</ele>
        <time>2014-03-30T08:17:55Z</time>
      </trkpt>
      <trkpt lat="47.66662" lon="-1.93367">
        <ele>33.3</ele>
        <time>2014-03-30T08:18:29Z</time>
      </trkpt>
      <trkpt lat="47.6665" lon="-1.93368">
        <ele>32.34</ele>
        <time>2014-03-30T08:18:32Z</time>
      </trkpt>
      <trkpt lat="47.6664" lon="-1.93369">
        <ele>31.38</ele>
        <time>2014-03-30T08:18:34Z</time>
      </trkpt>
      <trkpt lat="47.66631" lon="-1.93369">
        <ele>30.42</ele>
        <time>2014-03-30T08:18:36Z</time>
      </trkpt>
      <trkpt lat="47.6662" lon="-1.9336">
        <ele>28.02</ele>
        <time>2014-03-30T08:18:39Z</time>
      </trkpt>
      <trkpt lat="47.66609" lon="-1.93354">
        <ele>25.61</ele>
        <time>2014-03-30T08:18:42Z</time>
      </trkpt>
      <trkpt lat="47.666" lon="-1.93352">
        <ele>22.73</ele>
        <time>2014-03-30T08:18:45Z</time>
      </trkpt>
      <trkpt lat="47.66592" lon="-1.93345">
        <ele>19.84</ele>
        <time>2014-03-30T08:18:48Z</time>
      </trkpt>
      <trkpt lat="47.66582" lon="-1.93347">
        <ele>16.48</ele>
        <time>2014-03-30T08:18:53Z</time>
      </trkpt>
      <trkpt lat="47.66574" lon="-1.93358">
        <ele>15.04</ele>
        <time>2014-03-30T08:18:56Z</time>
      </trkpt>
      <trkpt lat="47.66565" lon="-1.93371">
        <ele>13.6</ele>
        <time>2014-03-30T08:18:59Z</time>
      </trkpt>
      <trkpt lat="47.66559" lon="-1.93381">
        <ele>13.12</ele>
        <time>2014-03-30T08:19:01Z</time>
      </trkpt>
      <trkpt lat="47.66554" lon="-1.93394">
        <ele>12.63</ele>
        <time>2014-03-30T08:19:05Z</time>
      </trkpt>
      <trkpt lat="47.66551" lon="-1.93408">
        <ele>13.12</ele>
        <time>2014-03-30T08:19:10Z</time>
      </trkpt>
      <trkpt lat="47.66544" lon="-1.9342">
        <ele>15.52</ele>
        <time>2014-03-30T08:19:14Z</time>
      </trkpt>
      <trkpt lat="47.66539" lon="-1.93433">
        <ele>17.44</ele>
        <time>2014-03-30T08:19:18Z</time>
      </trkpt>
      <trkpt lat="47.66532" lon="-1.9345">
        <ele>18.88</ele>
        <time>2014-03-30T08:19:22Z</time>
      </trkpt>
      <trkpt lat="47.66527" lon="-1.93466">
        <ele>20.32</ele>
        <time>2014-03-30T08:19:26Z</time>
      </trkpt>
      <trkpt lat="47.66532" lon="-1.93462">
        <ele>22.25</ele>
        <time>2014-03-30T08:19:33Z</time>
      </trkpt>
      <trkpt lat="47.66538" lon="-1.93451">
        <ele>22.25</ele>
        <time>2014-03-30T08:19:37Z</time>
      </trkpt>
      <trkpt lat="47.66546" lon="-1.9344">
        <ele>22.73</ele>
        <time>2014-03-30T08:19:41Z</time>
      </trkpt>
      <trkpt lat="47.66552" lon="-1.93428">
        <ele>23.21</ele>
        <time>2014-03-30T08:19:45Z</time>
      </trkpt>
      <trkpt lat="47.66562" lon="-1.93419">
        <ele>23.69</ele>
        <time>2014-03-30T08:19:50Z</time>
      </trkpt>
      <trkpt lat="47.6657" lon="-1.93407">
        <ele>24.65</ele>
        <time>2014-03-30T08:19:55Z</time>
      </trkpt>
      <trkpt lat="47.66577" lon="-1.93394">
        <ele>25.13</ele>
        <time>2014-03-30T08:20:00Z</time>
      </trkpt>
      <trkpt lat="47.66587" lon="-1.93389">
        <ele>26.09</ele>
        <time>2014-03-30T08:20:06Z</time>
      </trkpt>
      <trkpt lat="47.66592" lon="-1.93401">
        <ele>27.53</ele>
        <time>2014-03-30T08:20:12Z</time>
      </trkpt>
      <trkpt lat="47.66592" lon="-1.93416">
        <ele>28.98</ele>
        <time>2014-03-30T08:20:19Z</time>
      </trkpt>
      <trkpt lat="47.66596" lon="-1.93432">
        <ele>30.42</ele>
        <time>2014-03-30T08:20:25Z</time>
      </trkpt>
      <trkpt lat="47.66599" lon="-1.93446">
        <ele>31.38</ele>
        <time>2014-03-30T08:20:32Z</time>
      </trkpt>
      <trkpt lat="47.66592" lon="-1.93458">
        <ele>31.86</ele>
        <time>2014-03-30T08:20:38Z</time>
      </trkpt>
      <trkpt lat="47.66583" lon="-1.93467">
        <ele>30.42</ele>
        <time>2014-03-30T08:20:42Z</time>
      </trkpt>
      <trkpt lat="47.6658" lon="-1.9348">
        <ele>28.02</ele>
        <time>2014-03-30T08:20:47Z</time>
      </trkpt>
      <trkpt lat="47.6658" lon="-1.93495">
        <ele>28.5</ele>
        <time>2014-03-30T08:20:53Z</time>
      </trkpt>
      <trkpt lat="47.66574" lon="-1.93505">
        <ele>28.5</ele>
        <time>2014-03-30T08:21:00Z</time>
      </trkpt>
      <trkpt lat="47.66566" lon="-1.93512">
        <ele>27.53</ele>
        <time>2014-03-30T08:21:03Z</time>
      </trkpt>
      <trkpt lat="47.66554" lon="-1.93522">
        <ele>26.09</ele>
        <time>2014-03-30T08:21:06Z</time>
      </trkpt>
      <trkpt lat="47.66545" lon="-1.93528">
        <ele>25.13</ele>
        <time>2014-03-30T08:21:09Z</time>
      </trkpt>
      <trkpt lat="47.66535" lon="-1.93532">
        <ele>22.25</ele>
        <time>2014-03-30T08:21:14Z</time>
      </trkpt>
      <trkpt lat="47.66539" lon="-1.93542">
        <ele>21.77</ele>
        <time>2014-03-30T08:21:20Z</time>
      </trkpt>
      <trkpt lat="47.66549" lon="-1.93537">
        <ele>22.73</ele>
        <time>2014-03-30T08:21:26Z</time>
      </trkpt>
      <trkpt lat="47.6655" lon="-1.93549">
        <ele>25.13</ele>
        <time>2014-03-30T08:21:33Z</time>
      </trkpt>
      <trkpt lat="47.66551" lon="-1.93566">
        <ele>25.61</ele>
        <time>2014-03-30T08:21:38Z</time>
      </trkpt>
      <trkpt lat="47.66551" lon="-1.93583">
        <ele>26.09</ele>
        <time>2014-03-30T08:21:44Z</time>
      </trkpt>
      <trkpt lat="47.66547" lon="-1.936">
        <ele>26.09</ele>
        <time>2014-03-30T08:21:49Z</time>
      </trkpt>
      <trkpt lat="47.66539" lon="-1.93613">
        <ele>25.13</ele>
        <time>2014-03-30T08:21:54Z</time>
      </trkpt>
      <trkpt lat="47.66539" lon="-1.93629">
        <ele>26.09</ele>
        <time>2014-03-30T08:21:59Z</time>
      </trkpt>
      <trkpt lat="47.66541" lon="-1.93644">
        <ele>27.53</ele>
        <time>2014-03-30T08:22:04Z</time>
      </trkpt>
      <trkpt lat="47.66546" lon="-1.9366">
        <ele>28.5</ele>
        <time>2014-03-30T08:22:09Z</time>
      </trkpt>
      <trkpt lat="47.66551" lon="-1.93673">
        <ele>29.46</ele>
        <time>2014-03-30T08:22:13Z</time>
      </trkpt>
      <trkpt lat="47.66557" lon="-1.93686">
        <ele>29.94</ele>
        <time>2014-03-30T08:22:17Z</time>
      </trkpt>
      <trkpt lat="47.66563" lon="-1.937">
        <ele>30.42</ele>
        <time>2014-03-30T08:22:21Z</time>
      </trkpt>
      <trkpt lat="47.66569" lon="-1.93712">
        <ele>30.42</ele>
        <time>2014-03-30T08:22:25Z</time>
      </trkpt>
      <trkpt lat="47.66575" lon="-1.93724">
        <ele>31.38</ele>
        <time>2014-03-30T08:22:29Z</time>
      </trkpt>
      <trkpt lat="47.66582" lon="-1.93736">
        <ele>32.34</ele>
        <time>2014-03-30T08:22:33Z</time>
      </trkpt>
      <trkpt lat="47.66587" lon="-1.93749">
        <ele>32.82</ele>
        <time>2014-03-30T08:22:37Z</time>
      </trkpt>
      <trkpt lat="47.66593" lon="-1.93761">
        <ele>33.3</ele>
        <time>2014-03-30T08:22:41Z</time>
      </trkpt>
      <trkpt lat="47.66599" lon="-1.93775">
        <ele>33.78</ele>
        <time>2014-03-30T08:22:46Z</time>
      </trkpt>
      <trkpt lat="47.66604" lon="-1.93787">
        <ele>33.3</ele>
        <time>2014-03-30T08:22:53Z</time>
      </trkpt>
      <trkpt lat="47.66596" lon="-1.93795">
        <ele>32.34</ele>
        <time>2014-03-30T08:22:57Z</time>
      </trkpt>
      <trkpt lat="47.66584" lon="-1.93806">
        <ele>30.9</ele>
        <time>2014-03-30T08:23:00Z</time>
      </trkpt>
      <trkpt lat="47.66576" lon="-1.93813">
        <ele>29.46</ele>
        <time>2014-03-30T08:23:02Z</time>
      </trkpt>
      <trkpt lat="47.66564" lon="-1.93821">
        <ele>28.02</ele>
        <time>2014-03-30T08:23:05Z</time>
      </trkpt>
      <trkpt lat="47.66556" lon="-1.93826">
        <ele>27.53</ele>
        <time>2014-03-30T08:23:08Z</time>
      </trkpt>
      <trkpt lat="47.66547" lon="-1.93834">
        <ele>27.05</ele>
        <time>2014-03-30T08:23:14Z</time>
      </trkpt>
      <trkpt lat="47.66537" lon="-1.93841">
        <ele>26.57</ele>
        <time>2014-03-30T08:23:19Z</time>
      </trkpt>
      <trkpt lat="47.66529" lon="-1.93848">
        <ele>26.57</ele>
        <time>2014-03-30T08:23:23Z</time>
      </trkpt>
      <trkpt lat="47.66519" lon="-1.93856">
        <ele>26.57</ele>
        <time>2014-03-30T08:23:28Z</time>
      </trkpt>
      <trkpt lat="47.66509" lon="-1.93863">
        <ele>27.05</ele>
        <time>2014-03-30T08:23:33Z</time>
      </trkpt>
      <trkpt lat="47.66501" lon="-1.93869">
        <ele>27.05</ele>
        <time>2014-03-30T08:23:37Z</time>
      </trkpt>
      <trkpt lat="47.66492" lon="-1.93877">
        <ele>26.57</ele>
        <time>2014-03-30T08:23:42Z</time>
      </trkpt>
      <trkpt lat="47.66483" lon="-1.93885">
        <ele>26.57</ele>
        <time>2014-03-30T08:23:47Z</time>
      </trkpt>
      <trkpt lat="47.66473" lon="-1.93893">
        <ele>26.57</ele>
        <time>2014-03-30T08:23:51Z</time>
      </trkpt>
      <trkpt lat="47.66465" lon="-1.93899">
        <ele>26.09</ele>
        <time>2014-03-30T08:23:54Z</time>
      </trkpt>
      <trkpt lat="47.66456" lon="-1.93905">
        <ele>25.61</ele>
        <time>2014-03-30T08:23:57Z</time>
      </trkpt>
      <trkpt lat="47.66448" lon="-1.93911">
        <ele>25.61</ele>
        <time>2014-03-30T08:24:00Z</time>
      </trkpt>
      <trkpt lat="47.66437" lon="-1.93919">
        <ele>25.61</ele>
        <time>2014-03-30T08:24:04Z</time>
      </trkpt>
      <trkpt lat="47.66427" lon="-1.93927">
        <ele>25.61</ele>
        <time>2014-03-30T08:24:08Z</time>
      </trkpt>
      <trkpt lat="47.66418" lon="-1.93935">
        <ele>26.09</ele>
        <time>2014-03-30T08:24:12Z</time>
      </trkpt>
      <trkpt lat="47.66409" lon="-1.93941">
        <ele>26.09</ele>
        <time>2014-03-30T08:24:16Z</time>
      </trkpt>
      <trkpt lat="47.664" lon="-1.93948">
        <ele>26.09</ele>
        <time>2014-03-30T08:24:20Z</time>
      </trkpt>
      <trkpt lat="47.66392" lon="-1.93954">
        <ele>26.57</ele>
        <time>2014-03-30T08:24:24Z</time>
      </trkpt>
      <trkpt lat="47.66385" lon="-1.93961">
        <ele>26.09</ele>
        <time>2014-03-30T08:24:30Z</time>
      </trkpt>
      <trkpt lat="47.66378" lon="-1.93956">
        <ele>26.57</ele>
        <time>2014-03-30T08:24:58Z</time>
      </trkpt>
      <trkpt lat="47.66371" lon="-1.93946">
        <ele>26.57</ele>
        <time>2014-03-30T08:27:48Z</time>
      </trkpt>
      <trkpt lat="47.66365" lon="-1.93936">
        <ele>27.05</ele>
        <time>2014-03-30T08:27:52Z</time>
      </trkpt>
      <trkpt lat="47.66358" lon="-1.93926">
        <ele>27.05</ele>
        <time>2014-03-30T08:27:55Z</time>
      </trkpt>
      <trkpt lat="47.66352" lon="-1.93916">
        <ele>27.53</ele>
        <time>2014-03-30T08:27:57Z</time>
      </trkpt>
      <trkpt lat="47.66345" lon="-1.93904">
        <ele>27.53</ele>
        <time>2014-03-30T08:27:59Z</time>
      </trkpt>
      <trkpt lat="47.66338" lon="-1.93893">
        <ele>27.05</ele>
        <time>2014-03-30T08:28:01Z</time>
      </trkpt>
      <trkpt lat="47.6633" lon="-1.93881">
        <ele>26.57</ele>
        <time>2014-03-30T08:28:03Z</time>
      </trkpt>
      <trkpt lat="47.66322" lon="-1.93869">
        <ele>26.57</ele>
        <time>2014-03-30T08:28:05Z</time>
      </trkpt>
      <trkpt lat="47.66313" lon="-1.93855">
        <ele>26.09</ele>
        <time>2014-03-30T08:28:07Z</time>
      </trkpt>
      <trkpt lat="47.66305" lon="-1.93842">
        <ele>25.61</ele>
        <time>2014-03-30T08:28:09Z</time>
      </trkpt>
      <trkpt lat="47.66297" lon="-1.93829">
        <ele>25.61</ele>
        <time>2014-03-30T08:28:11Z</time>
      </trkpt>
      <trkpt lat="47.66289" lon="-1.93817">
        <ele>25.61</ele>
        <time>2014-03-30T08:28:13Z</time>
      </trkpt>
      <trkpt lat="47.66281" lon="-1.93805">
        <ele>25.13</ele>
        <time>2014-03-30T08:28:15Z</time>
      </trkpt>
      <trkpt lat="47.66273" lon="-1.93793">
        <ele>24.65</ele>
        <time>2014-03-30T08:28:17Z</time>
      </trkpt>
      <trkpt lat="47.66266" lon="-1.93783">
        <ele>24.65</ele>
        <time>2014-03-30T08:28:19Z</time>
      </trkpt>
      <trkpt lat="47.66258" lon="-1.93771">
        <ele>25.13</ele>
        <time>2014-03-30T08:28:22Z</time>
      </trkpt>
      <trkpt lat="47.6625" lon="-1.93757">
        <ele>25.13</ele>
        <time>2014-03-30T08:28:26Z</time>
      </trkpt>
      <trkpt lat="47.66244" lon="-1.93746">
        <ele>24.65</ele>
        <time>2014-03-30T08:28:28Z</time>
      </trkpt>
      <trkpt lat="47.66237" lon="-1.93735">
        <ele>24.65</ele>
        <time>2014-03-30T08:28:30Z</time>
      </trkpt>
      <trkpt lat="47.66229" lon="-1.93725">
        <ele>24.65</ele>
        <time>2014-03-30T08:28:32Z</time>
      </trkpt>
      <trkpt lat="47.66221" lon="-1.93715">
        <ele>24.17</ele>
        <time>2014-03-30T08:28:34Z</time>
      </trkpt>
      <trkpt lat="47.66213" lon="-1.93703">
        <ele>24.17</ele>
        <time>2014-03-30T08:28:36Z</time>
      </trkpt>
      <trkpt lat="47.66205" lon="-1.93692">
        <ele>24.17</ele>
        <time>2014-03-30T08:28:38Z</time>
      </trkpt>
      <trkpt lat="47.66197" lon="-1.93682">
        <ele>24.17</ele>
        <time>2014-03-30T08:28:40Z</time>
      </trkpt>
      <trkpt lat="47.66189" lon="-1.93671">
        <ele>23.69</ele>
        <time>2014-03-30T08:28:42Z</time>
      </trkpt>
      <trkpt lat="47.66183" lon="-1.93659">
        <ele>23.21</ele>
        <time>2014-03-30T08:28:44Z</time>
      </trkpt>
      <trkpt lat="47.6618" lon="-1.93643">
        <ele>22.73</ele>
        <time>2014-03-30T08:28:46Z</time>
      </trkpt>
      <trkpt lat="47.6618" lon="-1.93626">
        <ele>22.73</ele>
        <time>2014-03-30T08:28:48Z</time>
      </trkpt>
      <trkpt lat="47.66182" lon="-1.93609">
        <ele>21.77</ele>
        <time>2014-03-30T08:28:50Z</time>
      </trkpt>
      <trkpt lat="47.66183" lon="-1.93591">
        <ele>21.29</ele>
        <time>2014-03-30T08:28:52Z</time>
      </trkpt>
      <trkpt lat="47.66184" lon="-1.93572">
        <ele>21.29</ele>
        <time>2014-03-30T08:28:54Z</time>
      </trkpt>
      <trkpt lat="47.66185" lon="-1.93554">
        <ele>21.29</ele>
        <time>2014-03-30T08:28:56Z</time>
      </trkpt>
      <trkpt lat="47.66184" lon="-1.93537">
        <ele>20.81</ele>
        <time>2014-03-30T08:28:58Z</time>
      </trkpt>
      <trkpt lat="47.66179" lon="-1.9352">
        <ele>20.32</ele>
        <time>2014-03-30T08:29:00Z</time>
      </trkpt>
      <trkpt lat="47.66169" lon="-1.93509">
        <ele>19.84</ele>
        <time>2014-03-30T08:29:02Z</time>
      </trkpt>
      <trkpt lat="47.66155" lon="-1.93505">
        <ele>19.36</ele>
        <time>2014-03-30T08:29:04Z</time>
      </trkpt>
      <trkpt lat="47.66142" lon="-1.93502">
        <ele>19.36</ele>
        <time>2014-03-30T08:29:06Z</time>
      </trkpt>
      <trkpt lat="47.66129" lon="-1.93496">
        <ele>18.88</ele>
        <time>2014-03-30T08:29:08Z</time>
      </trkpt>
      <trkpt lat="47.66118" lon="-1.93489">
        <ele>18.4</ele>
        <time>2014-03-30T08:29:10Z</time>
      </trkpt>
      <trkpt lat="47.66106" lon="-1.93487">
        <ele>18.4</ele>
        <time>2014-03-30T08:29:12Z</time>
      </trkpt>
      <trkpt lat="47.66095" lon="-1.93485">
        <ele>18.4</ele>
        <time>2014-03-30T08:29:14Z</time>
      </trkpt>
      <trkpt lat="47.66085" lon="-1.93477">
        <ele>18.4</ele>
        <time>2014-03-30T08:29:16Z</time>
      </trkpt>
      <trkpt lat="47.66077" lon="-1.93465">
        <ele>18.4</ele>
        <time>2014-03-30T08:29:18Z</time>
      </trkpt>
      <trkpt lat="47.66069" lon="-1.93452">
        <ele>17.92</ele>
        <time>2014-03-30T08:29:20Z</time>
      </trkpt>
      <trkpt lat="47.6606" lon="-1.9344">
        <ele>17.92</ele>
        <time>2014-03-30T08:29:22Z</time>
      </trkpt>
      <trkpt lat="47.66052" lon="-1.93426">
        <ele>17.44</ele>
        <time>2014-03-30T08:29:24Z</time>
      </trkpt>
      <trkpt lat="47.66045" lon="-1.9341">
        <ele>16.96</ele>
        <time>2014-03-30T08:29:26Z</time>
      </trkpt>
      <trkpt lat="47.66039" lon="-1.93392">
        <ele>16.96</ele>
        <time>2014-03-30T08:29:28Z</time>
      </trkpt>
      <trkpt lat="47.66035" lon="-1.93373">
        <ele>16.48</ele>
        <time>2014-03-30T08:29:30Z</time>
      </trkpt>
      <trkpt lat="47.66031" lon="-1.93354">
        <ele>16.48</ele>
        <time>2014-03-30T08:29:32Z</time>
      </trkpt>
      <trkpt lat="47.66027" lon="-1.93334">
        <ele>16</ele>
        <time>2014-03-30T08:29:34Z</time>
      </trkpt>
      <trkpt lat="47.66024" lon="-1.93315">
        <ele>16.48</ele>
        <time>2014-03-30T08:29:36Z</time>
      </trkpt>
      <trkpt lat="47.66021" lon="-1.93297">
        <ele>16.96</ele>
        <time>2014-03-30T08:29:38Z</time>
      </trkpt>
      <trkpt lat="47.66018" lon="-1.93279">
        <ele>16.96</ele>
        <time>2014-03-30T08:29:40Z</time>
      </trkpt>
      <trkpt lat="47.66015" lon="-1.93261">
        <ele>17.44</ele>
        <time>2014-03-30T08:29:42Z</time>
      </trkpt>
      <trkpt lat="47.66011" lon="-1.93244">
        <ele>17.44</ele>
        <time>2014-03-30T08:29:44Z</time>
      </trkpt>
      <trkpt lat="47.66007" lon="-1.93227">
        <ele>17.44</ele>
        <time>2014-03-30T08:29:46Z</time>
      </trkpt>
      <trkpt lat="47.66003" lon="-1.93209">
        <ele>17.44</ele>
        <time>2014-03-30T08:29:48Z</time>
      </trkpt>
      <trkpt lat="47.65999" lon="-1.93192">
        <ele>17.92</ele>
        <time>2014-03-30T08:29:50Z</time>
      </trkpt>
      <trkpt lat="47.65995" lon="-1.93176">
        <ele>17.92</ele>
        <time>2014-03-30T08:29:52Z</time>
      </trkpt>
      <trkpt lat="47.65991" lon="-1.93162">
        <ele>18.88</ele>
        <time>2014-03-30T08:29:54Z</time>
      </trkpt>
      <trkpt lat="47.65988" lon="-1.93148">
        <ele>19.84</ele>
        <time>2014-03-30T08:29:56Z</time>
      </trkpt>
      <trkpt lat="47.65983" lon="-1.93129">
        <ele>21.29</ele>
        <time>2014-03-30T08:29:59Z</time>
      </trkpt>
      <trkpt lat="47.65983" lon="-1.93112">
        <ele>21.77</ele>
        <time>2014-03-30T08:30:02Z</time>
      </trkpt>
      <trkpt lat="47.65989" lon="-1.93093">
        <ele>20.81</ele>
        <time>2014-03-30T08:30:05Z</time>
      </trkpt>
      <trkpt lat="47.65995" lon="-1.93075">
        <ele>19.84</ele>
        <time>2014-03-30T08:30:07Z</time>
      </trkpt>
      <trkpt lat="47.66003" lon="-1.93055">
        <ele>19.36</ele>
        <time>2014-03-30T08:30:09Z</time>
      </trkpt>
      <trkpt lat="47.66012" lon="-1.93034">
        <ele>17.92</ele>
        <time>2014-03-30T08:30:11Z</time>
      </trkpt>
      <trkpt lat="47.66026" lon="-1.93018">
        <ele>16</ele>
        <time>2014-03-30T08:30:13Z</time>
      </trkpt>
      <trkpt lat="47.66034" lon="-1.93012">
        <ele>15.52</ele>
        <time>2014-03-30T08:30:14Z</time>
      </trkpt>
      <trkpt lat="47.66042" lon="-1.93006">
        <ele>14.56</ele>
        <time>2014-03-30T08:30:15Z</time>
      </trkpt>
      <trkpt lat="47.6605" lon="-1.93">
        <ele>14.08</ele>
        <time>2014-03-30T08:30:16Z</time>
      </trkpt>
      <trkpt lat="47.66058" lon="-1.92994">
        <ele>13.12</ele>
        <time>2014-03-30T08:30:17Z</time>
      </trkpt>
      <trkpt lat="47.66066" lon="-1.92989">
        <ele>12.63</ele>
        <time>2014-03-30T08:30:18Z</time>
      </trkpt>
      <trkpt lat="47.66081" lon="-1.92978">
        <ele>11.67</ele>
        <time>2014-03-30T08:30:20Z</time>
      </trkpt>
      <trkpt lat="47.66092" lon="-1.9297">
        <ele>10.71</ele>
        <time>2014-03-30T08:30:22Z</time>
      </trkpt>
      <trkpt lat="47.66098" lon="-1.9296">
        <ele>10.23</ele>
        <time>2014-03-30T08:30:24Z</time>
      </trkpt>
      <trkpt lat="47.66097" lon="-1.92944">
        <ele>10.23</ele>
        <time>2014-03-30T08:30:27Z</time>
      </trkpt>
      <trkpt lat="47.66091" lon="-1.92927">
        <ele>9.75</ele>
        <time>2014-03-30T08:30:30Z</time>
      </trkpt>
      <trkpt lat="47.66086" lon="-1.92909">
        <ele>9.27</ele>
        <time>2014-03-30T08:30:33Z</time>
      </trkpt>
      <trkpt lat="47.66081" lon="-1.92893">
        <ele>8.79</ele>
        <time>2014-03-30T08:30:36Z</time>
      </trkpt>
      <trkpt lat="47.66076" lon="-1.92877">
        <ele>8.79</ele>
        <time>2014-03-30T08:30:39Z</time>
      </trkpt>
      <trkpt lat="47.6607" lon="-1.92859">
        <ele>8.79</ele>
        <time>2014-03-30T08:30:42Z</time>
      </trkpt>
      <trkpt lat="47.66066" lon="-1.92846">
        <ele>8.79</ele>
        <time>2014-03-30T08:30:44Z</time>
      </trkpt>
      <trkpt lat="47.66062" lon="-1.92834">
        <ele>9.27</ele>
        <time>2014-03-30T08:30:46Z</time>
      </trkpt>
      <trkpt lat="47.66057" lon="-1.92816">
        <ele>9.27</ele>
        <time>2014-03-30T08:30:49Z</time>
      </trkpt>
      <trkpt lat="47.66052" lon="-1.92798">
        <ele>9.27</ele>
        <time>2014-03-30T08:30:52Z</time>
      </trkpt>
      <trkpt lat="47.66046" lon="-1.92779">
        <ele>9.27</ele>
        <time>2014-03-30T08:30:55Z</time>
      </trkpt>
      <trkpt lat="47.66042" lon="-1.92767">
        <ele>9.27</ele>
        <time>2014-03-30T08:30:57Z</time>
      </trkpt>
      <trkpt lat="47.66038" lon="-1.92754">
        <ele>9.27</ele>
        <time>2014-03-30T08:30:59Z</time>
      </trkpt>
      <trkpt lat="47.66034" lon="-1.92741">
        <ele>9.27</ele>
        <time>2014-03-30T08:31:01Z</time>
      </trkpt>
      <trkpt lat="47.6603" lon="-1.92729">
        <ele>9.27</ele>
        <time>2014-03-30T08:31:03Z</time>
      </trkpt>
      <trkpt lat="47.66027" lon="-1.92716">
        <ele>9.27</ele>
        <time>2014-03-30T08:31:05Z</time>
      </trkpt>
      <trkpt lat="47.66023" lon="-1.92704">
        <ele>9.27</ele>
        <time>2014-03-30T08:31:07Z</time>
      </trkpt>
      <trkpt lat="47.66017" lon="-1.92686">
        <ele>9.27</ele>
        <time>2014-03-30T08:31:10Z</time>
      </trkpt>
      <trkpt lat="47.66014" lon="-1.92673">
        <ele>9.27</ele>
        <time>2014-03-30T08:31:12Z</time>
      </trkpt>
      <trkpt lat="47.6601" lon="-1.92661">
        <ele>9.75</ele>
        <time>2014-03-30T08:31:14Z</time>
      </trkpt>
      <trkpt lat="47.66006" lon="-1.92648">
        <ele>9.75</ele>
        <time>2014-03-30T08:31:16Z</time>
      </trkpt>
      <trkpt lat="47.66002" lon="-1.92636">
        <ele>9.75</ele>
        <time>2014-03-30T08:31:18Z</time>
      </trkpt>
      <trkpt lat="47.65999" lon="-1.92624">
        <ele>9.27</ele>
        <time>2014-03-30T08:31:20Z</time>
      </trkpt>
      <trkpt lat="47.65995" lon="-1.92611">
        <ele>9.27</ele>
        <time>2014-03-30T08:31:22Z</time>
      </trkpt>
      <trkpt lat="47.65991" lon="-1.92598">
        <ele>8.79</ele>
        <time>2014-03-30T08:31:24Z</time>
      </trkpt>
      <trkpt lat="47.65987" lon="-1.92585">
        <ele>8.79</ele>
        <time>2014-03-30T08:31:26Z</time>
      </trkpt>
      <trkpt lat="47.65983" lon="-1.92573">
        <ele>8.31</ele>
        <time>2014-03-30T08:31:28Z</time>
      </trkpt>
      <trkpt lat="47.65977" lon="-1.92555">
        <ele>7.83</ele>
        <time>2014-03-30T08:31:31Z</time>
      </trkpt>
      <trkpt lat="47.6597" lon="-1.92546">
        <ele>7.83</ele>
        <time>2014-03-30T08:31:34Z</time>
      </trkpt>
      <trkpt lat="47.65965" lon="-1.92536">
        <ele>9.27</ele>
        <time>2014-03-30T08:31:40Z</time>
      </trkpt>
      <trkpt lat="47.65953" lon="-1.92526">
        <ele>12.63</ele>
        <time>2014-03-30T08:31:47Z</time>
      </trkpt>
      <trkpt lat="47.65942" lon="-1.9251">
        <ele>17.44</ele>
        <time>2014-03-30T08:31:54Z</time>
      </trkpt>
      <trkpt lat="47.65932" lon="-1.92497">
        <ele>20.32</ele>
        <time>2014-03-30T08:31:59Z</time>
      </trkpt>
      <trkpt lat="47.65919" lon="-1.92484">
        <ele>24.17</ele>
        <time>2014-03-30T08:32:03Z</time>
      </trkpt>
      <trkpt lat="47.65912" lon="-1.92465">
        <ele>24.65</ele>
        <time>2014-03-30T08:32:08Z</time>
      </trkpt>
      <trkpt lat="47.65909" lon="-1.92453">
        <ele>25.61</ele>
        <time>2014-03-30T08:32:11Z</time>
      </trkpt>
      <trkpt lat="47.65903" lon="-1.92441">
        <ele>25.13</ele>
        <time>2014-03-30T08:32:14Z</time>
      </trkpt>
      <trkpt lat="47.65893" lon="-1.92423">
        <ele>25.13</ele>
        <time>2014-03-30T08:32:19Z</time>
      </trkpt>
      <trkpt lat="47.65878" lon="-1.92405">
        <ele>25.61</ele>
        <time>2014-03-30T08:32:24Z</time>
      </trkpt>
      <trkpt lat="47.65871" lon="-1.92388">
        <ele>26.57</ele>
        <time>2014-03-30T08:32:29Z</time>
      </trkpt>
      <trkpt lat="47.65866" lon="-1.92372">
        <ele>28.5</ele>
        <time>2014-03-30T08:32:35Z</time>
      </trkpt>
      <trkpt lat="47.65869" lon="-1.92357">
        <ele>29.94</ele>
        <time>2014-03-30T08:32:40Z</time>
      </trkpt>
      <trkpt lat="47.6586" lon="-1.9234">
        <ele>30.9</ele>
        <time>2014-03-30T08:32:46Z</time>
      </trkpt>
      <trkpt lat="47.65848" lon="-1.9232">
        <ele>31.38</ele>
        <time>2014-03-30T08:32:54Z</time>
      </trkpt>
      <trkpt lat="47.65837" lon="-1.92308">
        <ele>31.38</ele>
        <time>2014-03-30T08:32:58Z</time>
      </trkpt>
      <trkpt lat="47.65825" lon="-1.92297">
        <ele>30.9</ele>
        <time>2014-03-30T08:33:04Z</time>
      </trkpt>
      <trkpt lat="47.65811" lon="-1.92285">
        <ele>28.02</ele>
        <time>2014-03-30T08:33:09Z</time>
      </trkpt>
      <trkpt lat="47.65801" lon="-1.92279">
        <ele>26.57</ele>
        <time>2014-03-30T08:33:12Z</time>
      </trkpt>
      <trkpt lat="47.6579" lon="-1.92273">
        <ele>23.69</ele>
        <time>2014-03-30T08:33:17Z</time>
      </trkpt>
      <trkpt lat="47.6578" lon="-1.92262">
        <ele>21.77</ele>
        <time>2014-03-30T08:33:25Z</time>
      </trkpt>
      <trkpt lat="47.65778" lon="-1.92241">
        <ele>25.61</ele>
        <time>2014-03-30T08:33:37Z</time>
      </trkpt>
      <trkpt lat="47.65773" lon="-1.92223">
        <ele>28.98</ele>
        <time>2014-03-30T08:33:43Z</time>
      </trkpt>
      <trkpt lat="47.65768" lon="-1.92207">
        <ele>30.9</ele>
        <time>2014-03-30T08:33:47Z</time>
      </trkpt>
      <trkpt lat="47.65761" lon="-1.92192">
        <ele>33.3</ele>
        <time>2014-03-30T08:33:52Z</time>
      </trkpt>
      <trkpt lat="47.65752" lon="-1.92178">
        <ele>37.15</ele>
        <time>2014-03-30T08:33:59Z</time>
      </trkpt>
      <trkpt lat="47.65743" lon="-1.92167">
        <ele>39.55</ele>
        <time>2014-03-30T08:34:04Z</time>
      </trkpt>
      <trkpt lat="47.65733" lon="-1.9216">
        <ele>39.07</ele>
        <time>2014-03-30T08:34:10Z</time>
      </trkpt>
      <trkpt lat="47.65724" lon="-1.92161">
        <ele>37.63</ele>
        <time>2014-03-30T08:34:15Z</time>
      </trkpt>
      <trkpt lat="47.65716" lon="-1.92172">
        <ele>30.42</ele>
        <time>2014-03-30T08:34:21Z</time>
      </trkpt>
      <trkpt lat="47.65726" lon="-1.92178">
        <ele>28.02</ele>
        <time>2014-03-30T08:34:26Z</time>
      </trkpt>
      <trkpt lat="47.65735" lon="-1.92189">
        <ele>26.09</ele>
        <time>2014-03-30T08:34:29Z</time>
      </trkpt>
      <trkpt lat="47.65741" lon="-1.922">
        <ele>24.65</ele>
        <time>2014-03-30T08:34:32Z</time>
      </trkpt>
      <trkpt lat="47.6574" lon="-1.92216">
        <ele>25.61</ele>
        <time>2014-03-30T08:34:37Z</time>
      </trkpt>
      <trkpt lat="47.65736" lon="-1.92233">
        <ele>26.57</ele>
        <time>2014-03-30T08:34:43Z</time>
      </trkpt>
      <trkpt lat="47.65736" lon="-1.92248">
        <ele>26.57</ele>
        <time>2014-03-30T08:35:29Z</time>
      </trkpt>
      <trkpt lat="47.6573" lon="-1.92261">
        <ele>29.94</ele>
        <time>2014-03-30T08:35:35Z</time>
      </trkpt>
      <trkpt lat="47.65731" lon="-1.92273">
        <ele>31.38</ele>
        <time>2014-03-30T08:35:44Z</time>
      </trkpt>
      <trkpt lat="47.65736" lon="-1.92283">
        <ele>27.05</ele>
        <time>2014-03-30T08:35:51Z</time>
      </trkpt>
      <trkpt lat="47.65736" lon="-1.92299">
        <ele>27.05</ele>
        <time>2014-03-30T08:35:59Z</time>
      </trkpt>
      <trkpt lat="47.65736" lon="-1.92316">
        <ele>28.5</ele>
        <time>2014-03-30T08:36:10Z</time>
      </trkpt>
      <trkpt lat="47.65732" lon="-1.9233">
        <ele>29.94</ele>
        <time>2014-03-30T08:36:14Z</time>
      </trkpt>
      <trkpt lat="47.6573" lon="-1.92347">
        <ele>30.42</ele>
        <time>2014-03-30T08:36:18Z</time>
      </trkpt>
      <trkpt lat="47.65732" lon="-1.92362">
        <ele>29.94</ele>
        <time>2014-03-30T08:36:24Z</time>
      </trkpt>
      <trkpt lat="47.65731" lon="-1.9236">
        <ele>28.98</ele>
        <time>2014-03-30T08:36:45Z</time>
      </trkpt>
      <trkpt lat="47.65723" lon="-1.92366">
        <ele>28.98</ele>
        <time>2014-03-30T08:36:50Z</time>
      </trkpt>
      <trkpt lat="47.65718" lon="-1.92375">
        <ele>27.53</ele>
        <time>2014-03-30T08:36:53Z</time>
      </trkpt>
      <trkpt lat="47.65722" lon="-1.92391">
        <ele>25.61</ele>
        <time>2014-03-30T08:36:56Z</time>
      </trkpt>
      <trkpt lat="47.65732" lon="-1.92399">
        <ele>23.21</ele>
        <time>2014-03-30T08:36:59Z</time>
      </trkpt>
      <trkpt lat="47.65732" lon="-1.92412">
        <ele>20.81</ele>
        <time>2014-03-30T08:37:02Z</time>
      </trkpt>
      <trkpt lat="47.65732" lon="-1.92429">
        <ele>17.92</ele>
        <time>2014-03-30T08:37:07Z</time>
      </trkpt>
      <trkpt lat="47.65725" lon="-1.92443">
        <ele>17.92</ele>
        <time>2014-03-30T08:37:16Z</time>
      </trkpt>
      <trkpt lat="47.65713" lon="-1.9245">
        <ele>22.73</ele>
        <time>2014-03-30T08:37:26Z</time>
      </trkpt>
      <trkpt lat="47.65707" lon="-1.92443">
        <ele>31.38</ele>
        <time>2014-03-30T08:37:38Z</time>
      </trkpt>
      <trkpt lat="47.65696" lon="-1.92449">
        <ele>32.34</ele>
        <time>2014-03-30T08:37:50Z</time>
      </trkpt>
      <trkpt lat="47.65687" lon="-1.92458">
        <ele>33.78</ele>
        <time>2014-03-30T08:37:55Z</time>
      </trkpt>
      <trkpt lat="47.65678" lon="-1.92468">
        <ele>35.23</ele>
        <time>2014-03-30T08:38:00Z</time>
      </trkpt>
      <trkpt lat="47.65665" lon="-1.92471">
        <ele>38.11</ele>
        <time>2014-03-30T08:38:06Z</time>
      </trkpt>
      <trkpt lat="47.65654" lon="-1.92464">
        <ele>42.92</ele>
        <time>2014-03-30T08:38:12Z</time>
      </trkpt>
      <trkpt lat="47.65641" lon="-1.92463">
        <ele>45.8</ele>
        <time>2014-03-30T08:38:19Z</time>
      </trkpt>
      <trkpt lat="47.6563" lon="-1.92458">
        <ele>47.24</ele>
        <time>2014-03-30T08:38:25Z</time>
      </trkpt>
      <trkpt lat="47.65618" lon="-1.92459">
        <ele>47.72</ele>
        <time>2014-03-30T08:38:31Z</time>
      </trkpt>
      <trkpt lat="47.65607" lon="-1.92455">
        <ele>47.24</ele>
        <time>2014-03-30T08:38:38Z</time>
      </trkpt>
      <trkpt lat="47.65595" lon="-1.92454">
        <ele>47.72</ele>
        <time>2014-03-30T08:38:44Z</time>
      </trkpt>
      <trkpt lat="47.65581" lon="-1.92456">
        <ele>47.72</ele>
        <time>2014-03-30T08:38:50Z</time>
      </trkpt>
      <trkpt lat="47.65569" lon="-1.92455">
        <ele>48.68</ele>
        <time>2014-03-30T08:38:56Z</time>
      </trkpt>
      <trkpt lat="47.65562" lon="-1.92464">
        <ele>47.72</ele>
        <time>2014-03-30T08:39:03Z</time>
      </trkpt>
      <trkpt lat="47.65568" lon="-1.92474">
        <ele>45.8</ele>
        <time>2014-03-30T08:39:08Z</time>
      </trkpt>
      <trkpt lat="47.65575" lon="-1.92472">
        <ele>44.84</ele>
        <time>2014-03-30T08:39:12Z</time>
      </trkpt>
      <trkpt lat="47.65584" lon="-1.92472">
        <ele>43.4</ele>
        <time>2014-03-30T08:39:17Z</time>
      </trkpt>
      <trkpt lat="47.65588" lon="-1.92486">
        <ele>41.95</ele>
        <time>2014-03-30T08:39:21Z</time>
      </trkpt>
      <trkpt lat="47.65591" lon="-1.92503">
        <ele>39.07</ele>
        <time>2014-03-30T08:39:26Z</time>
      </trkpt>
      <trkpt lat="47.65603" lon="-1.92506">
        <ele>36.67</ele>
        <time>2014-03-30T08:39:30Z</time>
      </trkpt>
      <trkpt lat="47.65615" lon="-1.92506">
        <ele>35.71</ele>
        <time>2014-03-30T08:39:33Z</time>
      </trkpt>
      <trkpt lat="47.6563" lon="-1.92504">
        <ele>35.23</ele>
        <time>2014-03-30T08:39:36Z</time>
      </trkpt>
      <trkpt lat="47.65642" lon="-1.92502">
        <ele>35.23</ele>
        <time>2014-03-30T08:39:38Z</time>
      </trkpt>
      <trkpt lat="47.65653" lon="-1.9251">
        <ele>35.71</ele>
        <time>2014-03-30T08:39:41Z</time>
      </trkpt>
      <trkpt lat="47.65659" lon="-1.92521">
        <ele>34.74</ele>
        <time>2014-03-30T08:39:44Z</time>
      </trkpt>
      <trkpt lat="47.65674" lon="-1.92526">
        <ele>35.71</ele>
        <time>2014-03-30T08:39:56Z</time>
      </trkpt>
      <trkpt lat="47.65685" lon="-1.92532">
        <ele>30.9</ele>
        <time>2014-03-30T08:40:01Z</time>
      </trkpt>
      <trkpt lat="47.65687" lon="-1.92542">
        <ele>25.13</ele>
        <time>2014-03-30T08:40:08Z</time>
      </trkpt>
      <trkpt lat="47.65684" lon="-1.92556">
        <ele>24.65</ele>
        <time>2014-03-30T08:40:14Z</time>
      </trkpt>
      <trkpt lat="47.65681" lon="-1.92572">
        <ele>27.05</ele>
        <time>2014-03-30T08:40:22Z</time>
      </trkpt>
      <trkpt lat="47.65673" lon="-1.92586">
        <ele>29.94</ele>
        <time>2014-03-30T08:40:29Z</time>
      </trkpt>
      <trkpt lat="47.65665" lon="-1.92601">
        <ele>34.26</ele>
        <time>2014-03-30T08:40:38Z</time>
      </trkpt>
      <trkpt lat="47.65666" lon="-1.92616">
        <ele>32.34</ele>
        <time>2014-03-30T08:40:43Z</time>
      </trkpt>
      <trkpt lat="47.65662" lon="-1.92631">
        <ele>32.34</ele>
        <time>2014-03-30T08:40:49Z</time>
      </trkpt>
      <trkpt lat="47.65669" lon="-1.92646">
        <ele>31.38</ele>
        <time>2014-03-30T08:40:56Z</time>
      </trkpt>
      <trkpt lat="47.65677" lon="-1.9266">
        <ele>33.78</ele>
        <time>2014-03-30T08:41:04Z</time>
      </trkpt>
      <trkpt lat="47.65683" lon="-1.92673">
        <ele>34.26</ele>
        <time>2014-03-30T08:41:11Z</time>
      </trkpt>
      <trkpt lat="47.65677" lon="-1.92689">
        <ele>34.26</ele>
        <time>2014-03-30T08:41:18Z</time>
      </trkpt>
      <trkpt lat="47.65669" lon="-1.92702">
        <ele>35.71</ele>
        <time>2014-03-30T08:41:22Z</time>
      </trkpt>
      <trkpt lat="47.65661" lon="-1.92712">
        <ele>36.19</ele>
        <time>2014-03-30T08:41:25Z</time>
      </trkpt>
      <trkpt lat="47.65652" lon="-1.92726">
        <ele>35.71</ele>
        <time>2014-03-30T08:41:29Z</time>
      </trkpt>
      <trkpt lat="47.65645" lon="-1.92738">
        <ele>35.71</ele>
        <time>2014-03-30T08:41:32Z</time>
      </trkpt>
      <trkpt lat="47.65641" lon="-1.92753">
        <ele>36.19</ele>
        <time>2014-03-30T08:41:36Z</time>
      </trkpt>
      <trkpt lat="47.65637" lon="-1.92769">
        <ele>38.11</ele>
        <time>2014-03-30T08:41:40Z</time>
      </trkpt>
      <trkpt lat="47.65632" lon="-1.92783">
        <ele>40.51</ele>
        <time>2014-03-30T08:41:44Z</time>
      </trkpt>
      <trkpt lat="47.65626" lon="-1.92797">
        <ele>44.36</ele>
        <time>2014-03-30T08:41:50Z</time>
      </trkpt>
      <trkpt lat="47.65621" lon="-1.92813">
        <ele>47.24</ele>
        <time>2014-03-30T08:41:55Z</time>
      </trkpt>
      <trkpt lat="47.65617" lon="-1.92832">
        <ele>48.68</ele>
        <time>2014-03-30T08:42:04Z</time>
      </trkpt>
      <trkpt lat="47.65608" lon="-1.92842">
        <ele>46.28</ele>
        <time>2014-03-30T08:42:13Z</time>
      </trkpt>
      <trkpt lat="47.65598" lon="-1.92841">
        <ele>44.84</ele>
        <time>2014-03-30T08:42:21Z</time>
      </trkpt>
      <trkpt lat="47.65588" lon="-1.92839">
        <ele>46.76</ele>
        <time>2014-03-30T08:42:28Z</time>
      </trkpt>
      <trkpt lat="47.65577" lon="-1.92834">
        <ele>48.2</ele>
        <time>2014-03-30T08:42:33Z</time>
      </trkpt>
      <trkpt lat="47.65565" lon="-1.92831">
        <ele>49.16</ele>
        <time>2014-03-30T08:42:38Z</time>
      </trkpt>
      <trkpt lat="47.65552" lon="-1.92829">
        <ele>50.13</ele>
        <time>2014-03-30T08:42:44Z</time>
      </trkpt>
      <trkpt lat="47.6554" lon="-1.92826">
        <ele>49.65</ele>
        <time>2014-03-30T08:42:49Z</time>
      </trkpt>
      <trkpt lat="47.65529" lon="-1.92823">
        <ele>48.2</ele>
        <time>2014-03-30T08:42:55Z</time>
      </trkpt>
      <trkpt lat="47.65518" lon="-1.9282">
        <ele>50.61</ele>
        <time>2014-03-30T08:43:02Z</time>
      </trkpt>
      <trkpt lat="47.65506" lon="-1.92815">
        <ele>55.41</ele>
        <time>2014-03-30T08:43:12Z</time>
      </trkpt>
      <trkpt lat="47.65496" lon="-1.92813">
        <ele>59.26</ele>
        <time>2014-03-30T08:43:19Z</time>
      </trkpt>
      <trkpt lat="47.65483" lon="-1.92809">
        <ele>64.55</ele>
        <time>2014-03-30T08:43:29Z</time>
      </trkpt>
      <trkpt lat="47.6547" lon="-1.92806">
        <ele>65.03</ele>
        <time>2014-03-30T08:43:36Z</time>
      </trkpt>
      <trkpt lat="47.65457" lon="-1.928">
        <ele>65.03</ele>
        <time>2014-03-30T08:43:42Z</time>
      </trkpt>
      <trkpt lat="47.65443" lon="-1.92797">
        <ele>64.55</ele>
        <time>2014-03-30T08:43:48Z</time>
      </trkpt>
      <trkpt lat="47.65432" lon="-1.92793">
        <ele>64.07</ele>
        <time>2014-03-30T08:43:53Z</time>
      </trkpt>
      <trkpt lat="47.65418" lon="-1.9279">
        <ele>63.58</ele>
        <time>2014-03-30T08:44:01Z</time>
      </trkpt>
      <trkpt lat="47.65408" lon="-1.92801">
        <ele>58.3</ele>
        <time>2014-03-30T08:44:10Z</time>
      </trkpt>
      <trkpt lat="47.65407" lon="-1.92818">
        <ele>55.89</ele>
        <time>2014-03-30T08:44:15Z</time>
      </trkpt>
      <trkpt lat="47.65403" lon="-1.92834">
        <ele>53.97</ele>
        <time>2014-03-30T08:44:20Z</time>
      </trkpt>
      <trkpt lat="47.65411" lon="-1.92844">
        <ele>53.97</ele>
        <time>2014-03-30T08:44:25Z</time>
      </trkpt>
      <trkpt lat="47.65422" lon="-1.92847">
        <ele>53.49</ele>
        <time>2014-03-30T08:44:28Z</time>
      </trkpt>
      <trkpt lat="47.65434" lon="-1.92851">
        <ele>53.49</ele>
        <time>2014-03-30T08:44:31Z</time>
      </trkpt>
      <trkpt lat="47.65448" lon="-1.92856">
        <ele>52.53</ele>
        <time>2014-03-30T08:44:34Z</time>
      </trkpt>
      <trkpt lat="47.6546" lon="-1.92866">
        <ele>51.57</ele>
        <time>2014-03-30T08:44:37Z</time>
      </trkpt>
      <trkpt lat="47.65461" lon="-1.92882">
        <ele>50.61</ele>
        <time>2014-03-30T08:44:40Z</time>
      </trkpt>
      <trkpt lat="47.6546" lon="-1.92899">
        <ele>50.61</ele>
        <time>2014-03-30T08:44:43Z</time>
      </trkpt>
      <trkpt lat="47.65459" lon="-1.92916">
        <ele>51.09</ele>
        <time>2014-03-30T08:44:46Z</time>
      </trkpt>
      <trkpt lat="47.65459" lon="-1.92931">
        <ele>50.61</ele>
        <time>2014-03-30T08:44:49Z</time>
      </trkpt>
      <trkpt lat="47.65459" lon="-1.92946">
        <ele>50.61</ele>
        <time>2014-03-30T08:44:53Z</time>
      </trkpt>
      <trkpt lat="47.65457" lon="-1.92964">
        <ele>52.53</ele>
        <time>2014-03-30T08:44:57Z</time>
      </trkpt>
      <trkpt lat="47.65455" lon="-1.9298">
        <ele>56.37</ele>
        <time>2014-03-30T08:45:02Z</time>
      </trkpt>
      <trkpt lat="47.65456" lon="-1.93">
        <ele>58.3</ele>
        <time>2014-03-30T08:45:07Z</time>
      </trkpt>
      <trkpt lat="47.65455" lon="-1.93023">
        <ele>57.82</ele>
        <time>2014-03-30T08:45:12Z</time>
      </trkpt>
      <trkpt lat="47.65454" lon="-1.9304">
        <ele>56.86</ele>
        <time>2014-03-30T08:45:17Z</time>
      </trkpt>
      <trkpt lat="47.65453" lon="-1.93061">
        <ele>58.3</ele>
        <time>2014-03-30T08:45:22Z</time>
      </trkpt>
      <trkpt lat="47.65454" lon="-1.93082">
        <ele>59.74</ele>
        <time>2014-03-30T08:45:26Z</time>
      </trkpt>
      <trkpt lat="47.65454" lon="-1.93102">
        <ele>61.66</ele>
        <time>2014-03-30T08:45:31Z</time>
      </trkpt>
      <trkpt lat="47.65465" lon="-1.9311">
        <ele>62.14</ele>
        <time>2014-03-30T08:45:36Z</time>
      </trkpt>
      <trkpt lat="47.65476" lon="-1.93115">
        <ele>63.1</ele>
        <time>2014-03-30T08:45:39Z</time>
      </trkpt>
      <trkpt lat="47.65487" lon="-1.93118">
        <ele>65.03</ele>
        <time>2014-03-30T08:45:42Z</time>
      </trkpt>
      <trkpt lat="47.65501" lon="-1.93123">
        <ele>65.99</ele>
        <time>2014-03-30T08:45:45Z</time>
      </trkpt>
      <trkpt lat="47.65514" lon="-1.93126">
        <ele>66.47</ele>
        <time>2014-03-30T08:45:48Z</time>
      </trkpt>
      <trkpt lat="47.65515" lon="-1.93142">
        <ele>66.95</ele>
        <time>2014-03-30T08:45:52Z</time>
      </trkpt>
      <trkpt lat="47.65512" lon="-1.93157">
        <ele>67.43</ele>
        <time>2014-03-30T08:45:55Z</time>
      </trkpt>
      <trkpt lat="47.65505" lon="-1.93174">
        <ele>69.35</ele>
        <time>2014-03-30T08:45:58Z</time>
      </trkpt>
      <trkpt lat="47.65502" lon="-1.93187">
        <ele>70.79</ele>
        <time>2014-03-30T08:46:00Z</time>
      </trkpt>
      <trkpt lat="47.65496" lon="-1.93206">
        <ele>71.76</ele>
        <time>2014-03-30T08:46:03Z</time>
      </trkpt>
      <trkpt lat="47.65493" lon="-1.9322">
        <ele>72.24</ele>
        <time>2014-03-30T08:46:05Z</time>
      </trkpt>
      <trkpt lat="47.65491" lon="-1.93241">
        <ele>72.72</ele>
        <time>2014-03-30T08:46:08Z</time>
      </trkpt>
      <trkpt lat="47.65489" lon="-1.93259">
        <ele>72.24</ele>
        <time>2014-03-30T08:46:11Z</time>
      </trkpt>
      <trkpt lat="47.65488" lon="-1.93281">
        <ele>72.72</ele>
        <time>2014-03-30T08:46:14Z</time>
      </trkpt>
      <trkpt lat="47.65487" lon="-1.93301">
        <ele>71.76</ele>
        <time>2014-03-30T08:46:17Z</time>
      </trkpt>
      <trkpt lat="47.65487" lon="-1.93321">
        <ele>70.31</ele>
        <time>2014-03-30T08:46:20Z</time>
      </trkpt>
      <trkpt lat="47.65487" lon="-1.93339">
        <ele>69.35</ele>
        <time>2014-03-30T08:46:23Z</time>
      </trkpt>
      <trkpt lat="47.65481" lon="-1.93354">
        <ele>67.43</ele>
        <time>2014-03-30T08:46:26Z</time>
      </trkpt>
      <trkpt lat="47.6547" lon="-1.93359">
        <ele>65.03</ele>
        <time>2014-03-30T08:46:29Z</time>
      </trkpt>
      <trkpt lat="47.65461" lon="-1.93365">
        <ele>62.62</ele>
        <time>2014-03-30T08:46:32Z</time>
      </trkpt>
      <trkpt lat="47.65453" lon="-1.9337">
        <ele>61.66</ele>
        <time>2014-03-30T08:46:38Z</time>
      </trkpt>
      <trkpt lat="47.65441" lon="-1.93375">
        <ele>60.7</ele>
        <time>2014-03-30T08:46:42Z</time>
      </trkpt>
      <trkpt lat="47.65429" lon="-1.93377">
        <ele>60.22</ele>
        <time>2014-03-30T08:46:45Z</time>
      </trkpt>
      <trkpt lat="47.65414" lon="-1.93379">
        <ele>59.74</ele>
        <time>2014-03-30T08:46:48Z</time>
      </trkpt>
      <trkpt lat="47.65401" lon="-1.9338">
        <ele>58.78</ele>
        <time>2014-03-30T08:46:51Z</time>
      </trkpt>
      <trkpt lat="47.6539" lon="-1.93381">
        <ele>58.3</ele>
        <time>2014-03-30T08:46:54Z</time>
      </trkpt>
      <trkpt lat="47.65379" lon="-1.93382">
        <ele>57.34</ele>
        <time>2014-03-30T08:46:58Z</time>
      </trkpt>
      <trkpt lat="47.65367" lon="-1.93383">
        <ele>57.34</ele>
        <time>2014-03-30T08:47:01Z</time>
      </trkpt>
      <trkpt lat="47.65355" lon="-1.93381">
        <ele>57.34</ele>
        <time>2014-03-30T08:47:04Z</time>
      </trkpt>
      <trkpt lat="47.65343" lon="-1.93382">
        <ele>57.82</ele>
        <time>2014-03-30T08:47:07Z</time>
      </trkpt>
      <trkpt lat="47.65331" lon="-1.93382">
        <ele>57.34</ele>
        <time>2014-03-30T08:47:10Z</time>
      </trkpt>
      <trkpt lat="47.65319" lon="-1.93381">
        <ele>56.86</ele>
        <time>2014-03-30T08:47:14Z</time>
      </trkpt>
      <trkpt lat="47.65307" lon="-1.93382">
        <ele>55.41</ele>
        <time>2014-03-30T08:47:18Z</time>
      </trkpt>
      <trkpt lat="47.65296" lon="-1.93381">
        <ele>53.97</ele>
        <time>2014-03-30T08:47:23Z</time>
      </trkpt>
      <trkpt lat="47.65281" lon="-1.9338">
        <ele>45.32</ele>
        <time>2014-03-30T08:52:35Z</time>
      </trkpt>
      <trkpt lat="47.65281" lon="-1.93394">
        <ele>45.8</ele>
        <time>2014-03-30T08:52:40Z</time>
      </trkpt>
      <trkpt lat="47.65279" lon="-1.93413">
        <ele>46.28</ele>
        <time>2014-03-30T08:52:44Z</time>
      </trkpt>
      <trkpt lat="47.65275" lon="-1.93427">
        <ele>46.28</ele>
        <time>2014-03-30T08:52:46Z</time>
      </trkpt>
      <trkpt lat="47.6527" lon="-1.9344">
        <ele>46.76</ele>
        <time>2014-03-30T08:52:48Z</time>
      </trkpt>
      <trkpt lat="47.65267" lon="-1.93456">
        <ele>45.8</ele>
        <time>2014-03-30T08:52:51Z</time>
      </trkpt>
      <trkpt lat="47.65268" lon="-1.93475">
        <ele>44.84</ele>
        <time>2014-03-30T08:52:55Z</time>
      </trkpt>
      <trkpt lat="47.65265" lon="-1.93493">
        <ele>43.88</ele>
        <time>2014-03-30T08:52:59Z</time>
      </trkpt>
      <trkpt lat="47.65265" lon="-1.9351">
        <ele>42.92</ele>
        <time>2014-03-30T08:53:03Z</time>
      </trkpt>
      <trkpt lat="47.65265" lon="-1.93528">
        <ele>42.44</ele>
        <time>2014-03-30T08:53:07Z</time>
      </trkpt>
      <trkpt lat="47.65263" lon="-1.93547">
        <ele>42.92</ele>
        <time>2014-03-30T08:53:12Z</time>
      </trkpt>
      <trkpt lat="47.6526" lon="-1.93565">
        <ele>42.44</ele>
        <time>2014-03-30T08:53:18Z</time>
      </trkpt>
      <trkpt lat="47.65261" lon="-1.93583">
        <ele>42.44</ele>
        <time>2014-03-30T08:53:22Z</time>
      </trkpt>
      <trkpt lat="47.6526" lon="-1.936">
        <ele>42.92</ele>
        <time>2014-03-30T08:53:26Z</time>
      </trkpt>
      <trkpt lat="47.65258" lon="-1.93619">
        <ele>44.84</ele>
        <time>2014-03-30T08:53:33Z</time>
      </trkpt>
      <trkpt lat="47.65257" lon="-1.93637">
        <ele>45.8</ele>
        <time>2014-03-30T08:53:37Z</time>
      </trkpt>
      <trkpt lat="47.65255" lon="-1.93655">
        <ele>45.32</ele>
        <time>2014-03-30T08:53:43Z</time>
      </trkpt>
      <trkpt lat="47.65257" lon="-1.93673">
        <ele>44.36</ele>
        <time>2014-03-30T08:53:49Z</time>
      </trkpt>
      <trkpt lat="47.65256" lon="-1.93691">
        <ele>43.4</ele>
        <time>2014-03-30T08:53:54Z</time>
      </trkpt>
      <trkpt lat="47.65254" lon="-1.93707">
        <ele>44.84</ele>
        <time>2014-03-30T08:53:59Z</time>
      </trkpt>
      <trkpt lat="47.6525" lon="-1.93728">
        <ele>48.2</ele>
        <time>2014-03-30T08:54:06Z</time>
      </trkpt>
      <trkpt lat="47.65255" lon="-1.93743">
        <ele>49.65</ele>
        <time>2014-03-30T08:54:10Z</time>
      </trkpt>
      <trkpt lat="47.65248" lon="-1.93758">
        <ele>49.65</ele>
        <time>2014-03-30T08:54:15Z</time>
      </trkpt>
      <trkpt lat="47.65241" lon="-1.93769">
        <ele>49.16</ele>
        <time>2014-03-30T08:54:18Z</time>
      </trkpt>
      <trkpt lat="47.6524" lon="-1.93786">
        <ele>48.2</ele>
        <time>2014-03-30T08:54:21Z</time>
      </trkpt>
      <trkpt lat="47.65239" lon="-1.93803">
        <ele>47.72</ele>
        <time>2014-03-30T08:54:24Z</time>
      </trkpt>
      <trkpt lat="47.65238" lon="-1.93819">
        <ele>47.24</ele>
        <time>2014-03-30T08:54:27Z</time>
      </trkpt>
      <trkpt lat="47.65237" lon="-1.93837">
        <ele>47.24</ele>
        <time>2014-03-30T08:54:30Z</time>
      </trkpt>
      <trkpt lat="47.65236" lon="-1.93855">
        <ele>47.72</ele>
        <time>2014-03-30T08:54:33Z</time>
      </trkpt>
      <trkpt lat="47.65235" lon="-1.93874">
        <ele>47.72</ele>
        <time>2014-03-30T08:54:36Z</time>
      </trkpt>
      <trkpt lat="47.65234" lon="-1.93893">
        <ele>48.2</ele>
        <time>2014-03-30T08:54:39Z</time>
      </trkpt>
      <trkpt lat="47.65233" lon="-1.9391">
        <ele>47.72</ele>
        <time>2014-03-30T08:54:42Z</time>
      </trkpt>
      <trkpt lat="47.65232" lon="-1.93928">
        <ele>47.72</ele>
        <time>2014-03-30T08:54:45Z</time>
      </trkpt>
      <trkpt lat="47.65231" lon="-1.93947">
        <ele>48.2</ele>
        <time>2014-03-30T08:54:48Z</time>
      </trkpt>
      <trkpt lat="47.6523" lon="-1.93965">
        <ele>48.2</ele>
        <time>2014-03-30T08:54:51Z</time>
      </trkpt>
      <trkpt lat="47.65229" lon="-1.93983">
        <ele>48.68</ele>
        <time>2014-03-30T08:54:54Z</time>
      </trkpt>
      <trkpt lat="47.65228" lon="-1.94002">
        <ele>49.16</ele>
        <time>2014-03-30T08:54:57Z</time>
      </trkpt>
      <trkpt lat="47.65227" lon="-1.94022">
        <ele>49.65</ele>
        <time>2014-03-30T08:55:00Z</time>
      </trkpt>
      <trkpt lat="47.65226" lon="-1.94041">
        <ele>50.13</ele>
        <time>2014-03-30T08:55:03Z</time>
      </trkpt>
      <trkpt lat="47.65225" lon="-1.94055">
        <ele>50.13</ele>
        <time>2014-03-30T08:55:05Z</time>
      </trkpt>
      <trkpt lat="47.65224" lon="-1.94068">
        <ele>50.61</ele>
        <time>2014-03-30T08:55:07Z</time>
      </trkpt>
      <trkpt lat="47.65223" lon="-1.94082">
        <ele>50.61</ele>
        <time>2014-03-30T08:55:09Z</time>
      </trkpt>
      <trkpt lat="47.65222" lon="-1.94097">
        <ele>50.61</ele>
        <time>2014-03-30T08:55:11Z</time>
      </trkpt>
      <trkpt lat="47.65222" lon="-1.94111">
        <ele>50.61</ele>
        <time>2014-03-30T08:55:13Z</time>
      </trkpt>
      <trkpt lat="47.65221" lon="-1.94126">
        <ele>50.61</ele>
        <time>2014-03-30T08:55:15Z</time>
      </trkpt>
      <trkpt lat="47.6522" lon="-1.94141">
        <ele>50.13</ele>
        <time>2014-03-30T08:55:17Z</time>
      </trkpt>
      <trkpt lat="47.65219" lon="-1.94155">
        <ele>50.13</ele>
        <time>2014-03-30T08:55:19Z</time>
      </trkpt>
      <trkpt lat="47.65218" lon="-1.9417">
        <ele>50.13</ele>
        <time>2014-03-30T08:55:21Z</time>
      </trkpt>
      <trkpt lat="47.65217" lon="-1.94185">
        <ele>50.13</ele>
        <time>2014-03-30T08:55:23Z</time>
      </trkpt>
      <trkpt lat="47.65216" lon="-1.94199">
        <ele>50.61</ele>
        <time>2014-03-30T08:55:25Z</time>
      </trkpt>
      <trkpt lat="47.65215" lon="-1.94213">
        <ele>50.61</ele>
        <time>2014-03-30T08:55:27Z</time>
      </trkpt>
      <trkpt lat="47.65214" lon="-1.94228">
        <ele>50.61</ele>
        <time>2014-03-30T08:55:29Z</time>
      </trkpt>
      <trkpt lat="47.65213" lon="-1.94244">
        <ele>50.13</ele>
        <time>2014-03-30T08:55:31Z</time>
      </trkpt>
      <trkpt lat="47.65212" lon="-1.94259">
        <ele>50.13</ele>
        <time>2014-03-30T08:55:33Z</time>
      </trkpt>
      <trkpt lat="47.65211" lon="-1.94276">
        <ele>50.13</ele>
        <time>2014-03-30T08:55:35Z</time>
      </trkpt>
      <trkpt lat="47.6521" lon="-1.94292">
        <ele>49.65</ele>
        <time>2014-03-30T08:55:37Z</time>
      </trkpt>
      <trkpt lat="47.65209" lon="-1.94308">
        <ele>49.65</ele>
        <time>2014-03-30T08:55:39Z</time>
      </trkpt>
      <trkpt lat="47.65208" lon="-1.94325">
        <ele>49.65</ele>
        <time>2014-03-30T08:55:41Z</time>
      </trkpt>
      <trkpt lat="47.65208" lon="-1.94341">
        <ele>49.65</ele>
        <time>2014-03-30T08:55:43Z</time>
      </trkpt>
      <trkpt lat="47.65207" lon="-1.94357">
        <ele>49.65</ele>
        <time>2014-03-30T08:55:45Z</time>
      </trkpt>
      <trkpt lat="47.65206" lon="-1.94374">
        <ele>49.65</ele>
        <time>2014-03-30T08:55:47Z</time>
      </trkpt>
      <trkpt lat="47.65205" lon="-1.94392">
        <ele>49.16</ele>
        <time>2014-03-30T08:55:49Z</time>
      </trkpt>
      <trkpt lat="47.65204" lon="-1.94409">
        <ele>48.68</ele>
        <time>2014-03-30T08:55:51Z</time>
      </trkpt>
      <trkpt lat="47.65203" lon="-1.94428">
        <ele>48.2</ele>
        <time>2014-03-30T08:55:53Z</time>
      </trkpt>
      <trkpt lat="47.65201" lon="-1.94447">
        <ele>47.72</ele>
        <time>2014-03-30T08:55:55Z</time>
      </trkpt>
      <trkpt lat="47.65201" lon="-1.94466">
        <ele>47.24</ele>
        <time>2014-03-30T08:55:57Z</time>
      </trkpt>
      <trkpt lat="47.652" lon="-1.94484">
        <ele>46.76</ele>
        <time>2014-03-30T08:55:59Z</time>
      </trkpt>
      <trkpt lat="47.65199" lon="-1.94502">
        <ele>46.76</ele>
        <time>2014-03-30T08:56:01Z</time>
      </trkpt>
      <trkpt lat="47.65199" lon="-1.94519">
        <ele>46.28</ele>
        <time>2014-03-30T08:56:03Z</time>
      </trkpt>
      <trkpt lat="47.65198" lon="-1.94534">
        <ele>45.8</ele>
        <time>2014-03-30T08:56:05Z</time>
      </trkpt>
      <trkpt lat="47.65197" lon="-1.9455">
        <ele>45.32</ele>
        <time>2014-03-30T08:56:07Z</time>
      </trkpt>
      <trkpt lat="47.65196" lon="-1.94566">
        <ele>45.32</ele>
        <time>2014-03-30T08:56:09Z</time>
      </trkpt>
      <trkpt lat="47.65195" lon="-1.94582">
        <ele>45.8</ele>
        <time>2014-03-30T08:56:11Z</time>
      </trkpt>
      <trkpt lat="47.65194" lon="-1.94597">
        <ele>45.8</ele>
        <time>2014-03-30T08:56:13Z</time>
      </trkpt>
      <trkpt lat="47.65193" lon="-1.94613">
        <ele>46.28</ele>
        <time>2014-03-30T08:56:15Z</time>
      </trkpt>
      <trkpt lat="47.65192" lon="-1.94628">
        <ele>46.76</ele>
        <time>2014-03-30T08:56:17Z</time>
      </trkpt>
      <trkpt lat="47.65191" lon="-1.94644">
        <ele>46.76</ele>
        <time>2014-03-30T08:56:19Z</time>
      </trkpt>
      <trkpt lat="47.6519" lon="-1.94661">
        <ele>46.76</ele>
        <time>2014-03-30T08:56:21Z</time>
      </trkpt>
      <trkpt lat="47.65189" lon="-1.94677">
        <ele>46.76</ele>
        <time>2014-03-30T08:56:23Z</time>
      </trkpt>
      <trkpt lat="47.65187" lon="-1.94695">
        <ele>46.76</ele>
        <time>2014-03-30T08:56:25Z</time>
      </trkpt>
      <trkpt lat="47.65186" lon="-1.94712">
        <ele>46.76</ele>
        <time>2014-03-30T08:56:27Z</time>
      </trkpt>
      <trkpt lat="47.65185" lon="-1.94729">
        <ele>46.76</ele>
        <time>2014-03-30T08:56:29Z</time>
      </trkpt>
      <trkpt lat="47.65185" lon="-1.94746">
        <ele>46.76</ele>
        <time>2014-03-30T08:56:31Z</time>
      </trkpt>
      <trkpt lat="47.65184" lon="-1.94763">
        <ele>46.76</ele>
        <time>2014-03-30T08:56:33Z</time>
      </trkpt>
      <trkpt lat="47.65182" lon="-1.9478">
        <ele>46.76</ele>
        <time>2014-03-30T08:56:35Z</time>
      </trkpt>
      <trkpt lat="47.65181" lon="-1.94796">
        <ele>46.76</ele>
        <time>2014-03-30T08:56:37Z</time>
      </trkpt>
      <trkpt lat="47.65181" lon="-1.94813">
        <ele>46.28</ele>
        <time>2014-03-30T08:56:39Z</time>
      </trkpt>
      <trkpt lat="47.65183" lon="-1.9483">
        <ele>46.28</ele>
        <time>2014-03-30T08:56:41Z</time>
      </trkpt>
      <trkpt lat="47.65189" lon="-1.94845">
        <ele>45.32</ele>
        <time>2014-03-30T08:56:43Z</time>
      </trkpt>
      <trkpt lat="47.65199" lon="-1.94858">
        <ele>44.84</ele>
        <time>2014-03-30T08:56:45Z</time>
      </trkpt>
      <trkpt lat="47.65212" lon="-1.94865">
        <ele>44.36</ele>
        <time>2014-03-30T08:56:47Z</time>
      </trkpt>
      <trkpt lat="47.65226" lon="-1.94869">
        <ele>44.36</ele>
        <time>2014-03-30T08:56:49Z</time>
      </trkpt>
      <trkpt lat="47.6524" lon="-1.94872">
        <ele>44.36</ele>
        <time>2014-03-30T08:56:51Z</time>
      </trkpt>
      <trkpt lat="47.65255" lon="-1.94877">
        <ele>44.36</ele>
        <time>2014-03-30T08:56:53Z</time>
      </trkpt>
      <trkpt lat="47.65267" lon="-1.94885">
        <ele>44.36</ele>
        <time>2014-03-30T08:56:55Z</time>
      </trkpt>
      <trkpt lat="47.65277" lon="-1.94897">
        <ele>44.84</ele>
        <time>2014-03-30T08:56:57Z</time>
      </trkpt>
      <trkpt lat="47.65283" lon="-1.94912">
        <ele>45.32</ele>
        <time>2014-03-30T08:56:59Z</time>
      </trkpt>
      <trkpt lat="47.65286" lon="-1.94926">
        <ele>45.32</ele>
        <time>2014-03-30T08:57:01Z</time>
      </trkpt>
      <trkpt lat="47.65288" lon="-1.9494">
        <ele>45.8</ele>
        <time>2014-03-30T08:57:03Z</time>
      </trkpt>
      <trkpt lat="47.65289" lon="-1.94955">
        <ele>45.8</ele>
        <time>2014-03-30T08:57:05Z</time>
      </trkpt>
      <trkpt lat="47.65289" lon="-1.94969">
        <ele>46.28</ele>
        <time>2014-03-30T08:57:07Z</time>
      </trkpt>
      <trkpt lat="47.65288" lon="-1.94987">
        <ele>47.24</ele>
        <time>2014-03-30T08:57:10Z</time>
      </trkpt>
      <trkpt lat="47.65286" lon="-1.95003">
        <ele>47.72</ele>
        <time>2014-03-30T08:57:13Z</time>
      </trkpt>
      <trkpt lat="47.65284" lon="-1.95021">
        <ele>48.2</ele>
        <time>2014-03-30T08:57:16Z</time>
      </trkpt>
      <trkpt lat="47.65282" lon="-1.9504">
        <ele>48.68</ele>
        <time>2014-03-30T08:57:19Z</time>
      </trkpt>
      <trkpt lat="47.65281" lon="-1.95058">
        <ele>49.16</ele>
        <time>2014-03-30T08:57:22Z</time>
      </trkpt>
      <trkpt lat="47.65283" lon="-1.95077">
        <ele>50.13</ele>
        <time>2014-03-30T08:57:25Z</time>
      </trkpt>
      <trkpt lat="47.65288" lon="-1.95096">
        <ele>50.61</ele>
        <time>2014-03-30T08:57:28Z</time>
      </trkpt>
      <trkpt lat="47.65292" lon="-1.95108">
        <ele>51.09</ele>
        <time>2014-03-30T08:57:30Z</time>
      </trkpt>
      <trkpt lat="47.65296" lon="-1.9512">
        <ele>51.57</ele>
        <time>2014-03-30T08:57:32Z</time>
      </trkpt>
      <trkpt lat="47.65302" lon="-1.95137">
        <ele>52.05</ele>
        <time>2014-03-30T08:57:35Z</time>
      </trkpt>
      <trkpt lat="47.65309" lon="-1.95155">
        <ele>52.53</ele>
        <time>2014-03-30T08:57:38Z</time>
      </trkpt>
      <trkpt lat="47.65313" lon="-1.95167">
        <ele>52.53</ele>
        <time>2014-03-30T08:57:40Z</time>
      </trkpt>
      <trkpt lat="47.65319" lon="-1.95185">
        <ele>53.49</ele>
        <time>2014-03-30T08:57:43Z</time>
      </trkpt>
      <trkpt lat="47.65323" lon="-1.95198">
        <ele>53.97</ele>
        <time>2014-03-30T08:57:45Z</time>
      </trkpt>
      <trkpt lat="47.65327" lon="-1.95215">
        <ele>53.97</ele>
        <time>2014-03-30T08:57:48Z</time>
      </trkpt>
      <trkpt lat="47.65335" lon="-1.95225">
        <ele>54.45</ele>
        <time>2014-03-30T08:57:51Z</time>
      </trkpt>
      <trkpt lat="47.65345" lon="-1.95224">
        <ele>53.97</ele>
        <time>2014-03-30T08:57:54Z</time>
      </trkpt>
      <trkpt lat="47.65358" lon="-1.95219">
        <ele>53.01</ele>
        <time>2014-03-30T08:57:57Z</time>
      </trkpt>
      <trkpt lat="47.65367" lon="-1.95215">
        <ele>52.53</ele>
        <time>2014-03-30T08:57:59Z</time>
      </trkpt>
      <trkpt lat="47.65377" lon="-1.95211">
        <ele>51.57</ele>
        <time>2014-03-30T08:58:01Z</time>
      </trkpt>
      <trkpt lat="47.65388" lon="-1.95207">
        <ele>50.61</ele>
        <time>2014-03-30T08:58:03Z</time>
      </trkpt>
      <trkpt lat="47.65399" lon="-1.95203">
        <ele>49.65</ele>
        <time>2014-03-30T08:58:05Z</time>
      </trkpt>
      <trkpt lat="47.6541" lon="-1.95198">
        <ele>49.16</ele>
        <time>2014-03-30T08:58:07Z</time>
      </trkpt>
      <trkpt lat="47.65422" lon="-1.95194">
        <ele>48.2</ele>
        <time>2014-03-30T08:58:09Z</time>
      </trkpt>
      <trkpt lat="47.65435" lon="-1.9519">
        <ele>47.72</ele>
        <time>2014-03-30T08:58:11Z</time>
      </trkpt>
      <trkpt lat="47.65447" lon="-1.9519">
        <ele>46.76</ele>
        <time>2014-03-30T08:58:13Z</time>
      </trkpt>
      <trkpt lat="47.65458" lon="-1.95197">
        <ele>46.28</ele>
        <time>2014-03-30T08:58:15Z</time>
      </trkpt>
      <trkpt lat="47.65469" lon="-1.95204">
        <ele>45.8</ele>
        <time>2014-03-30T08:58:17Z</time>
      </trkpt>
      <trkpt lat="47.65481" lon="-1.95211">
        <ele>45.32</ele>
        <time>2014-03-30T08:58:19Z</time>
      </trkpt>
      <trkpt lat="47.65493" lon="-1.95219">
        <ele>44.84</ele>
        <time>2014-03-30T08:58:21Z</time>
      </trkpt>
      <trkpt lat="47.65505" lon="-1.95227">
        <ele>43.88</ele>
        <time>2014-03-30T08:58:23Z</time>
      </trkpt>
      <trkpt lat="47.65519" lon="-1.95235">
        <ele>42.92</ele>
        <time>2014-03-30T08:58:25Z</time>
      </trkpt>
      <trkpt lat="47.65532" lon="-1.95244">
        <ele>41.95</ele>
        <time>2014-03-30T08:58:27Z</time>
      </trkpt>
      <trkpt lat="47.65546" lon="-1.95253">
        <ele>40.99</ele>
        <time>2014-03-30T08:58:29Z</time>
      </trkpt>
      <trkpt lat="47.65559" lon="-1.95261">
        <ele>40.99</ele>
        <time>2014-03-30T08:58:31Z</time>
      </trkpt>
      <trkpt lat="47.65571" lon="-1.95268">
        <ele>41.47</ele>
        <time>2014-03-30T08:58:33Z</time>
      </trkpt>
      <trkpt lat="47.65581" lon="-1.95274">
        <ele>41.95</ele>
        <time>2014-03-30T08:58:35Z</time>
      </trkpt>
      <trkpt lat="47.65589" lon="-1.95279">
        <ele>42.92</ele>
        <time>2014-03-30T08:58:37Z</time>
      </trkpt>
      <trkpt lat="47.65597" lon="-1.95287">
        <ele>43.4</ele>
        <time>2014-03-30T08:58:39Z</time>
      </trkpt>
      <trkpt lat="47.65605" lon="-1.95294">
        <ele>43.88</ele>
        <time>2014-03-30T08:58:41Z</time>
      </trkpt>
      <trkpt lat="47.65613" lon="-1.95302">
        <ele>43.88</ele>
        <time>2014-03-30T08:58:43Z</time>
      </trkpt>
      <trkpt lat="47.65624" lon="-1.9531">
        <ele>44.84</ele>
        <time>2014-03-30T08:58:46Z</time>
      </trkpt>
      <trkpt lat="47.65636" lon="-1.95312">
        <ele>45.8</ele>
        <time>2014-03-30T08:58:49Z</time>
      </trkpt>
      <trkpt lat="47.65649" lon="-1.95314">
        <ele>45.8</ele>
        <time>2014-03-30T08:58:52Z</time>
      </trkpt>
      <trkpt lat="47.65661" lon="-1.95315">
        <ele>45.8</ele>
        <time>2014-03-30T08:58:55Z</time>
      </trkpt>
      <trkpt lat="47.65671" lon="-1.95318">
        <ele>45.32</ele>
        <time>2014-03-30T08:58:58Z</time>
      </trkpt>
      <trkpt lat="47.65681" lon="-1.95318">
        <ele>44.84</ele>
        <time>2014-03-30T08:59:01Z</time>
      </trkpt>
      <trkpt lat="47.65691" lon="-1.95312">
        <ele>44.36</ele>
        <time>2014-03-30T08:59:04Z</time>
      </trkpt>
      <trkpt lat="47.65699" lon="-1.95304">
        <ele>43.88</ele>
        <time>2014-03-30T08:59:07Z</time>
      </trkpt>
      <trkpt lat="47.65707" lon="-1.953">
        <ele>42.92</ele>
        <time>2014-03-30T08:59:10Z</time>
      </trkpt>
      <trkpt lat="47.65709" lon="-1.95315">
        <ele>43.88</ele>
        <time>2014-03-30T08:59:15Z</time>
      </trkpt>
      <trkpt lat="47.65707" lon="-1.95329">
        <ele>44.36</ele>
        <time>2014-03-30T08:59:22Z</time>
      </trkpt>
      <trkpt lat="47.657" lon="-1.95338">
        <ele>44.36</ele>
        <time>2014-03-30T08:59:31Z</time>
      </trkpt>
      <trkpt lat="47.65692" lon="-1.95335">
        <ele>44.84</ele>
        <time>2014-03-30T08:59:35Z</time>
      </trkpt>
      <trkpt lat="47.65682" lon="-1.95337">
        <ele>45.32</ele>
        <time>2014-03-30T08:59:41Z</time>
      </trkpt>
      <trkpt lat="47.65673" lon="-1.95339">
        <ele>46.76</ele>
        <time>2014-03-30T08:59:45Z</time>
      </trkpt>
      <trkpt lat="47.65662" lon="-1.95345">
        <ele>47.24</ele>
        <time>2014-03-30T08:59:49Z</time>
      </trkpt>
      <trkpt lat="47.65653" lon="-1.95351">
        <ele>48.68</ele>
        <time>2014-03-30T08:59:53Z</time>
      </trkpt>
      <trkpt lat="47.65649" lon="-1.95364">
        <ele>49.16</ele>
        <time>2014-03-30T08:59:57Z</time>
      </trkpt>
      <trkpt lat="47.65647" lon="-1.95379">
        <ele>49.16</ele>
        <time>2014-03-30T09:00:02Z</time>
      </trkpt>
      <trkpt lat="47.65645" lon="-1.95395">
        <ele>50.61</ele>
        <time>2014-03-30T09:00:07Z</time>
      </trkpt>
      <trkpt lat="47.65645" lon="-1.95411">
        <ele>51.57</ele>
        <time>2014-03-30T09:00:13Z</time>
      </trkpt>
      <trkpt lat="47.65645" lon="-1.95427">
        <ele>52.53</ele>
        <time>2014-03-30T09:00:19Z</time>
      </trkpt>
      <trkpt lat="47.65653" lon="-1.95436">
        <ele>52.53</ele>
        <time>2014-03-30T09:00:25Z</time>
      </trkpt>
      <trkpt lat="47.6566" lon="-1.95447">
        <ele>53.97</ele>
        <time>2014-03-30T09:00:31Z</time>
      </trkpt>
      <trkpt lat="47.65653" lon="-1.95456">
        <ele>55.89</ele>
        <time>2014-03-30T09:00:40Z</time>
      </trkpt>
      <trkpt lat="47.65643" lon="-1.95464">
        <ele>57.34</ele>
        <time>2014-03-30T09:00:46Z</time>
      </trkpt>
      <trkpt lat="47.65632" lon="-1.95464">
        <ele>56.86</ele>
        <time>2014-03-30T09:00:49Z</time>
      </trkpt>
      <trkpt lat="47.65622" lon="-1.9546">
        <ele>57.82</ele>
        <time>2014-03-30T09:00:56Z</time>
      </trkpt>
      <trkpt lat="47.65624" lon="-1.95444">
        <ele>58.78</ele>
        <time>2014-03-30T09:01:03Z</time>
      </trkpt>
      <trkpt lat="47.65616" lon="-1.95439">
        <ele>60.22</ele>
        <time>2014-03-30T09:01:09Z</time>
      </trkpt>
      <trkpt lat="47.65606" lon="-1.95434">
        <ele>58.3</ele>
        <time>2014-03-30T09:01:13Z</time>
      </trkpt>
      <trkpt lat="47.65609" lon="-1.95424">
        <ele>58.78</ele>
        <time>2014-03-30T09:01:19Z</time>
      </trkpt>
      <trkpt lat="47.65616" lon="-1.95412">
        <ele>59.74</ele>
        <time>2014-03-30T09:01:26Z</time>
      </trkpt>
      <trkpt lat="47.65623" lon="-1.954">
        <ele>59.74</ele>
        <time>2014-03-30T09:01:30Z</time>
      </trkpt>
      <trkpt lat="47.6562" lon="-1.95384">
        <ele>58.3</ele>
        <time>2014-03-30T09:01:34Z</time>
      </trkpt>
      <trkpt lat="47.65614" lon="-1.95378">
        <ele>58.3</ele>
        <time>2014-03-30T09:01:39Z</time>
      </trkpt>
      <trkpt lat="47.65607" lon="-1.95387">
        <ele>58.78</ele>
        <time>2014-03-30T09:01:46Z</time>
      </trkpt>
      <trkpt lat="47.65599" lon="-1.95383">
        <ele>57.34</ele>
        <time>2014-03-30T09:01:53Z</time>
      </trkpt>
      <trkpt lat="47.65596" lon="-1.95373">
        <ele>57.34</ele>
        <time>2014-03-30T09:01:59Z</time>
      </trkpt>
      <trkpt lat="47.65587" lon="-1.9538">
        <ele>57.82</ele>
        <time>2014-03-30T09:02:05Z</time>
      </trkpt>
      <trkpt lat="47.65584" lon="-1.95394">
        <ele>60.22</ele>
        <time>2014-03-30T09:02:11Z</time>
      </trkpt>
      <trkpt lat="47.65577" lon="-1.95408">
        <ele>62.14</ele>
        <time>2014-03-30T09:02:17Z</time>
      </trkpt>
      <trkpt lat="47.65569" lon="-1.9541">
        <ele>64.07</ele>
        <time>2014-03-30T09:02:22Z</time>
      </trkpt>
      <trkpt lat="47.65561" lon="-1.95406">
        <ele>63.58</ele>
        <time>2014-03-30T09:02:26Z</time>
      </trkpt>
      <trkpt lat="47.65555" lon="-1.9542">
        <ele>63.1</ele>
        <time>2014-03-30T09:02:31Z</time>
      </trkpt>
      <trkpt lat="47.65561" lon="-1.95433">
        <ele>62.62</ele>
        <time>2014-03-30T09:02:37Z</time>
      </trkpt>
      <trkpt lat="47.6557" lon="-1.9544">
        <ele>64.55</ele>
        <time>2014-03-30T09:02:42Z</time>
      </trkpt>
      <trkpt lat="47.65575" lon="-1.95447">
        <ele>66.95</ele>
        <time>2014-03-30T09:02:49Z</time>
      </trkpt>
      <trkpt lat="47.65588" lon="-1.95448">
        <ele>67.43</ele>
        <time>2014-03-30T09:02:58Z</time>
      </trkpt>
      <trkpt lat="47.65599" lon="-1.95455">
        <ele>70.79</ele>
        <time>2014-03-30T09:03:03Z</time>
      </trkpt>
      <trkpt lat="47.65608" lon="-1.95465">
        <ele>71.76</ele>
        <time>2014-03-30T09:03:07Z</time>
      </trkpt>
      <trkpt lat="47.65616" lon="-1.95474">
        <ele>70.31</ele>
        <time>2014-03-30T09:03:11Z</time>
      </trkpt>
      <trkpt lat="47.65627" lon="-1.95476">
        <ele>69.35</ele>
        <time>2014-03-30T09:03:14Z</time>
      </trkpt>
      <trkpt lat="47.65634" lon="-1.95488">
        <ele>68.87</ele>
        <time>2014-03-30T09:03:18Z</time>
      </trkpt>
      <trkpt lat="47.65644" lon="-1.95497">
        <ele>68.39</ele>
        <time>2014-03-30T09:03:23Z</time>
      </trkpt>
      <trkpt lat="47.65654" lon="-1.955">
        <ele>67.43</ele>
        <time>2014-03-30T09:03:26Z</time>
      </trkpt>
      <trkpt lat="47.65665" lon="-1.95505">
        <ele>65.51</ele>
        <time>2014-03-30T09:03:31Z</time>
      </trkpt>
      <trkpt lat="47.65671" lon="-1.95519">
        <ele>64.55</ele>
        <time>2014-03-30T09:03:35Z</time>
      </trkpt>
      <trkpt lat="47.65677" lon="-1.95535">
        <ele>65.51</ele>
        <time>2014-03-30T09:03:40Z</time>
      </trkpt>
      <trkpt lat="47.6568" lon="-1.95553">
        <ele>65.51</ele>
        <time>2014-03-30T09:03:43Z</time>
      </trkpt>
      <trkpt lat="47.6568" lon="-1.95571">
        <ele>64.55</ele>
        <time>2014-03-30T09:03:47Z</time>
      </trkpt>
      <trkpt lat="47.65681" lon="-1.95592">
        <ele>63.58</ele>
        <time>2014-03-30T09:03:52Z</time>
      </trkpt>
      <trkpt lat="47.65683" lon="-1.95609">
        <ele>63.58</ele>
        <time>2014-03-30T09:03:57Z</time>
      </trkpt>
      <trkpt lat="47.65677" lon="-1.95618">
        <ele>63.1</ele>
        <time>2014-03-30T09:04:03Z</time>
      </trkpt>
      <trkpt lat="47.65668" lon="-1.95619">
        <ele>61.18</ele>
        <time>2014-03-30T09:04:08Z</time>
      </trkpt>
      <trkpt lat="47.65658" lon="-1.95621">
        <ele>60.7</ele>
        <time>2014-03-30T09:04:14Z</time>
      </trkpt>
      <trkpt lat="47.65648" lon="-1.9562">
        <ele>61.66</ele>
        <time>2014-03-30T09:04:19Z</time>
      </trkpt>
      <trkpt lat="47.65639" lon="-1.95622">
        <ele>61.18</ele>
        <time>2014-03-30T09:04:24Z</time>
      </trkpt>
      <trkpt lat="47.65627" lon="-1.95623">
        <ele>60.22</ele>
        <time>2014-03-30T09:04:29Z</time>
      </trkpt>
      <trkpt lat="47.65618" lon="-1.95624">
        <ele>60.22</ele>
        <time>2014-03-30T09:04:32Z</time>
      </trkpt>
      <trkpt lat="47.65608" lon="-1.95627">
        <ele>60.7</ele>
        <time>2014-03-30T09:04:35Z</time>
      </trkpt>
      <trkpt lat="47.65599" lon="-1.9563">
        <ele>61.18</ele>
        <time>2014-03-30T09:04:38Z</time>
      </trkpt>
      <trkpt lat="47.6559" lon="-1.95634">
        <ele>61.66</ele>
        <time>2014-03-30T09:04:41Z</time>
      </trkpt>
      <trkpt lat="47.65579" lon="-1.95638">
        <ele>61.66</ele>
        <time>2014-03-30T09:04:45Z</time>
      </trkpt>
      <trkpt lat="47.65568" lon="-1.95646">
        <ele>62.14</ele>
        <time>2014-03-30T09:04:49Z</time>
      </trkpt>
      <trkpt lat="47.65558" lon="-1.95655">
        <ele>62.14</ele>
        <time>2014-03-30T09:04:53Z</time>
      </trkpt>
      <trkpt lat="47.65547" lon="-1.95662">
        <ele>62.14</ele>
        <time>2014-03-30T09:04:57Z</time>
      </trkpt>
      <trkpt lat="47.65536" lon="-1.9567">
        <ele>62.14</ele>
        <time>2014-03-30T09:05:01Z</time>
      </trkpt>
      <trkpt lat="47.65525" lon="-1.95678">
        <ele>62.62</ele>
        <time>2014-03-30T09:05:05Z</time>
      </trkpt>
      <trkpt lat="47.65516" lon="-1.95685">
        <ele>62.62</ele>
        <time>2014-03-30T09:05:08Z</time>
      </trkpt>
      <trkpt lat="47.65507" lon="-1.95692">
        <ele>62.62</ele>
        <time>2014-03-30T09:05:11Z</time>
      </trkpt>
      <trkpt lat="47.65497" lon="-1.95699">
        <ele>63.1</ele>
        <time>2014-03-30T09:05:14Z</time>
      </trkpt>
      <trkpt lat="47.65487" lon="-1.95707">
        <ele>63.1</ele>
        <time>2014-03-30T09:05:17Z</time>
      </trkpt>
      <trkpt lat="47.65477" lon="-1.95714">
        <ele>63.1</ele>
        <time>2014-03-30T09:05:20Z</time>
      </trkpt>
      <trkpt lat="47.65467" lon="-1.95722">
        <ele>63.1</ele>
        <time>2014-03-30T09:05:23Z</time>
      </trkpt>
      <trkpt lat="47.65457" lon="-1.9573">
        <ele>63.58</ele>
        <time>2014-03-30T09:05:26Z</time>
      </trkpt>
      <trkpt lat="47.65446" lon="-1.95737">
        <ele>64.07</ele>
        <time>2014-03-30T09:05:29Z</time>
      </trkpt>
      <trkpt lat="47.65435" lon="-1.95743">
        <ele>64.55</ele>
        <time>2014-03-30T09:05:32Z</time>
      </trkpt>
      <trkpt lat="47.65427" lon="-1.95754">
        <ele>64.07</ele>
        <time>2014-03-30T09:05:35Z</time>
      </trkpt>
      <trkpt lat="47.65422" lon="-1.95771">
        <ele>65.03</ele>
        <time>2014-03-30T09:05:38Z</time>
      </trkpt>
      <trkpt lat="47.65419" lon="-1.95788">
        <ele>65.51</ele>
        <time>2014-03-30T09:05:41Z</time>
      </trkpt>
      <trkpt lat="47.65416" lon="-1.95806">
        <ele>65.99</ele>
        <time>2014-03-30T09:05:44Z</time>
      </trkpt>
      <trkpt lat="47.65413" lon="-1.95819">
        <ele>65.99</ele>
        <time>2014-03-30T09:05:47Z</time>
      </trkpt>
      <trkpt lat="47.65404" lon="-1.95818">
        <ele>65.99</ele>
        <time>2014-03-30T09:05:50Z</time>
      </trkpt>
      <trkpt lat="47.65393" lon="-1.95808">
        <ele>66.47</ele>
        <time>2014-03-30T09:05:53Z</time>
      </trkpt>
      <trkpt lat="47.65386" lon="-1.958">
        <ele>65.99</ele>
        <time>2014-03-30T09:05:55Z</time>
      </trkpt>
      <trkpt lat="47.65378" lon="-1.95791">
        <ele>65.99</ele>
        <time>2014-03-30T09:05:57Z</time>
      </trkpt>
      <trkpt lat="47.65371" lon="-1.95783">
        <ele>65.99</ele>
        <time>2014-03-30T09:05:59Z</time>
      </trkpt>
      <trkpt lat="47.65363" lon="-1.95775">
        <ele>65.99</ele>
        <time>2014-03-30T09:06:01Z</time>
      </trkpt>
      <trkpt lat="47.65352" lon="-1.95763">
        <ele>65.99</ele>
        <time>2014-03-30T09:06:04Z</time>
      </trkpt>
      <trkpt lat="47.65344" lon="-1.95754">
        <ele>65.99</ele>
        <time>2014-03-30T09:06:06Z</time>
      </trkpt>
      <trkpt lat="47.65336" lon="-1.95745">
        <ele>65.99</ele>
        <time>2014-03-30T09:06:08Z</time>
      </trkpt>
      <trkpt lat="47.65327" lon="-1.95735">
        <ele>65.99</ele>
        <time>2014-03-30T09:06:10Z</time>
      </trkpt>
      <trkpt lat="47.65319" lon="-1.95727">
        <ele>65.99</ele>
        <time>2014-03-30T09:06:12Z</time>
      </trkpt>
      <trkpt lat="47.65311" lon="-1.95718">
        <ele>66.47</ele>
        <time>2014-03-30T09:06:14Z</time>
      </trkpt>
      <trkpt lat="47.65303" lon="-1.95709">
        <ele>66.95</ele>
        <time>2014-03-30T09:06:16Z</time>
      </trkpt>
      <trkpt lat="47.65295" lon="-1.957">
        <ele>66.95</ele>
        <time>2014-03-30T09:06:18Z</time>
      </trkpt>
      <trkpt lat="47.65287" lon="-1.95692">
        <ele>67.43</ele>
        <time>2014-03-30T09:06:20Z</time>
      </trkpt>
      <trkpt lat="47.65279" lon="-1.95683">
        <ele>67.91</ele>
        <time>2014-03-30T09:06:22Z</time>
      </trkpt>
      <trkpt lat="47.65272" lon="-1.95674">
        <ele>67.91</ele>
        <time>2014-03-30T09:06:24Z</time>
      </trkpt>
      <trkpt lat="47.65264" lon="-1.95666">
        <ele>68.39</ele>
        <time>2014-03-30T09:06:26Z</time>
      </trkpt>
      <trkpt lat="47.65256" lon="-1.95658">
        <ele>68.39</ele>
        <time>2014-03-30T09:06:28Z</time>
      </trkpt>
      <trkpt lat="47.65248" lon="-1.9565">
        <ele>68.87</ele>
        <time>2014-03-30T09:06:30Z</time>
      </trkpt>
      <trkpt lat="47.65241" lon="-1.95641">
        <ele>68.39</ele>
        <time>2014-03-30T09:06:32Z</time>
      </trkpt>
      <trkpt lat="47.6523" lon="-1.9563">
        <ele>68.39</ele>
        <time>2014-03-30T09:06:35Z</time>
      </trkpt>
      <trkpt lat="47.65221" lon="-1.9562">
        <ele>68.87</ele>
        <time>2014-03-30T09:06:38Z</time>
      </trkpt>
      <trkpt lat="47.65212" lon="-1.9561">
        <ele>69.35</ele>
        <time>2014-03-30T09:06:41Z</time>
      </trkpt>
      <trkpt lat="47.65202" lon="-1.95599">
        <ele>69.83</ele>
        <time>2014-03-30T09:06:44Z</time>
      </trkpt>
      <trkpt lat="47.65192" lon="-1.95587">
        <ele>70.31</ele>
        <time>2014-03-30T09:06:47Z</time>
      </trkpt>
      <trkpt lat="47.65181" lon="-1.95575">
        <ele>70.31</ele>
        <time>2014-03-30T09:06:50Z</time>
      </trkpt>
      <trkpt lat="47.65172" lon="-1.95565">
        <ele>70.31</ele>
        <time>2014-03-30T09:06:53Z</time>
      </trkpt>
      <trkpt lat="47.65162" lon="-1.95554">
        <ele>69.83</ele>
        <time>2014-03-30T09:06:56Z</time>
      </trkpt>
      <trkpt lat="47.65151" lon="-1.95543">
        <ele>69.83</ele>
        <time>2014-03-30T09:06:59Z</time>
      </trkpt>
      <trkpt lat="47.65141" lon="-1.95533">
        <ele>70.31</ele>
        <time>2014-03-30T09:07:02Z</time>
      </trkpt>
      <trkpt lat="47.65132" lon="-1.95524">
        <ele>70.31</ele>
        <time>2014-03-30T09:07:05Z</time>
      </trkpt>
      <trkpt lat="47.65121" lon="-1.95513">
        <ele>69.83</ele>
        <time>2014-03-30T09:07:08Z</time>
      </trkpt>
      <trkpt lat="47.65111" lon="-1.95504">
        <ele>69.83</ele>
        <time>2014-03-30T09:07:11Z</time>
      </trkpt>
      <trkpt lat="47.65103" lon="-1.95511">
        <ele>70.79</ele>
        <time>2014-03-30T09:07:14Z</time>
      </trkpt>
      <trkpt lat="47.65101" lon="-1.95524">
        <ele>72.24</ele>
        <time>2014-03-30T09:07:17Z</time>
      </trkpt>
      <trkpt lat="47.65102" lon="-1.95542">
        <ele>74.16</ele>
        <time>2014-03-30T09:07:21Z</time>
      </trkpt>
      <trkpt lat="47.65102" lon="-1.9556">
        <ele>75.12</ele>
        <time>2014-03-30T09:07:25Z</time>
      </trkpt>
      <trkpt lat="47.65102" lon="-1.95577">
        <ele>76.56</ele>
        <time>2014-03-30T09:07:29Z</time>
      </trkpt>
      <trkpt lat="47.651" lon="-1.95592">
        <ele>78</ele>
        <time>2014-03-30T09:07:33Z</time>
      </trkpt>
      <trkpt lat="47.65096" lon="-1.95607">
        <ele>78.48</ele>
        <time>2014-03-30T09:07:37Z</time>
      </trkpt>
      <trkpt lat="47.65092" lon="-1.9562">
        <ele>79.45</ele>
        <time>2014-03-30T09:07:41Z</time>
      </trkpt>
      <trkpt lat="47.65087" lon="-1.95635">
        <ele>81.37</ele>
        <time>2014-03-30T09:07:45Z</time>
      </trkpt>
      <trkpt lat="47.65082" lon="-1.95649">
        <ele>82.33</ele>
        <time>2014-03-30T09:07:49Z</time>
      </trkpt>
      <trkpt lat="47.65077" lon="-1.95664">
        <ele>83.29</ele>
        <time>2014-03-30T09:07:53Z</time>
      </trkpt>
      <trkpt lat="47.65072" lon="-1.95681">
        <ele>83.29</ele>
        <time>2014-03-30T09:07:57Z</time>
      </trkpt>
      <trkpt lat="47.65068" lon="-1.95698">
        <ele>83.77</ele>
        <time>2014-03-30T09:08:01Z</time>
      </trkpt>
      <trkpt lat="47.65064" lon="-1.95712">
        <ele>83.29</ele>
        <time>2014-03-30T09:08:04Z</time>
      </trkpt>
      <trkpt lat="47.6506" lon="-1.95725">
        <ele>83.29</ele>
        <time>2014-03-30T09:08:07Z</time>
      </trkpt>
      <trkpt lat="47.65055" lon="-1.95741">
        <ele>83.29</ele>
        <time>2014-03-30T09:08:10Z</time>
      </trkpt>
      <trkpt lat="47.65048" lon="-1.95759">
        <ele>83.29</ele>
        <time>2014-03-30T09:08:13Z</time>
      </trkpt>
      <trkpt lat="47.65041" lon="-1.95775">
        <ele>83.29</ele>
        <time>2014-03-30T09:08:16Z</time>
      </trkpt>
      <trkpt lat="47.65035" lon="-1.95792">
        <ele>83.77</ele>
        <time>2014-03-30T09:08:19Z</time>
      </trkpt>
      <trkpt lat="47.6503" lon="-1.95809">
        <ele>83.77</ele>
        <time>2014-03-30T09:08:22Z</time>
      </trkpt>
      <trkpt lat="47.65023" lon="-1.95826">
        <ele>84.25</ele>
        <time>2014-03-30T09:08:25Z</time>
      </trkpt>
      <trkpt lat="47.65016" lon="-1.95843">
        <ele>84.25</ele>
        <time>2014-03-30T09:08:28Z</time>
      </trkpt>
      <trkpt lat="47.65009" lon="-1.95858">
        <ele>84.25</ele>
        <time>2014-03-30T09:08:31Z</time>
      </trkpt>
      <trkpt lat="47.65002" lon="-1.95874">
        <ele>84.73</ele>
        <time>2014-03-30T09:08:34Z</time>
      </trkpt>
      <trkpt lat="47.64994" lon="-1.95891">
        <ele>84.25</ele>
        <time>2014-03-30T09:08:37Z</time>
      </trkpt>
      <trkpt lat="47.64988" lon="-1.95902">
        <ele>84.25</ele>
        <time>2014-03-30T09:08:39Z</time>
      </trkpt>
      <trkpt lat="47.64982" lon="-1.95913">
        <ele>84.25</ele>
        <time>2014-03-30T09:08:41Z</time>
      </trkpt>
      <trkpt lat="47.64976" lon="-1.95924">
        <ele>84.25</ele>
        <time>2014-03-30T09:08:43Z</time>
      </trkpt>
      <trkpt lat="47.64968" lon="-1.95938">
        <ele>84.25</ele>
        <time>2014-03-30T09:08:46Z</time>
      </trkpt>
      <trkpt lat="47.6496" lon="-1.95951">
        <ele>84.25</ele>
        <time>2014-03-30T09:08:49Z</time>
      </trkpt>
      <trkpt lat="47.64952" lon="-1.95964">
        <ele>84.25</ele>
        <time>2014-03-30T09:08:52Z</time>
      </trkpt>
      <trkpt lat="47.64944" lon="-1.95975">
        <ele>84.73</ele>
        <time>2014-03-30T09:08:55Z</time>
      </trkpt>
      <trkpt lat="47.64938" lon="-1.95987">
        <ele>84.73</ele>
        <time>2014-03-30T09:08:58Z</time>
      </trkpt>
      <trkpt lat="47.64931" lon="-1.95996">
        <ele>84.25</ele>
        <time>2014-03-30T09:09:02Z</time>
      </trkpt>
      <trkpt lat="47.64929" lon="-1.96">
        <ele>85.69</ele>
        <time>2014-03-30T09:14:18Z</time>
      </trkpt>
      <trkpt lat="47.64922" lon="-1.96014">
        <ele>84.25</ele>
        <time>2014-03-30T09:14:24Z</time>
      </trkpt>
      <trkpt lat="47.64914" lon="-1.96025">
        <ele>84.25</ele>
        <time>2014-03-30T09:14:28Z</time>
      </trkpt>
      <trkpt lat="47.64906" lon="-1.96031">
        <ele>84.25</ele>
        <time>2014-03-30T09:14:33Z</time>
      </trkpt>
      <trkpt lat="47.64897" lon="-1.9603">
        <ele>84.25</ele>
        <time>2014-03-30T09:14:38Z</time>
      </trkpt>
      <trkpt lat="47.64888" lon="-1.96028">
        <ele>83.29</ele>
        <time>2014-03-30T09:14:42Z</time>
      </trkpt>
      <trkpt lat="47.64878" lon="-1.96024">
        <ele>81.85</ele>
        <time>2014-03-30T09:14:46Z</time>
      </trkpt>
      <trkpt lat="47.6487" lon="-1.96021">
        <ele>80.89</ele>
        <time>2014-03-30T09:14:51Z</time>
      </trkpt>
      <trkpt lat="47.64871" lon="-1.96007">
        <ele>82.33</ele>
        <time>2014-03-30T09:14:56Z</time>
      </trkpt>
      <trkpt lat="47.6487" lon="-1.95991">
        <ele>82.81</ele>
        <time>2014-03-30T09:14:59Z</time>
      </trkpt>
      <trkpt lat="47.64867" lon="-1.95974">
        <ele>84.25</ele>
        <time>2014-03-30T09:15:03Z</time>
      </trkpt>
      <trkpt lat="47.64859" lon="-1.9596">
        <ele>85.69</ele>
        <time>2014-03-30T09:15:07Z</time>
      </trkpt>
      <trkpt lat="47.64851" lon="-1.95945">
        <ele>84.73</ele>
        <time>2014-03-30T09:15:10Z</time>
      </trkpt>
      <trkpt lat="47.64837" lon="-1.95933">
        <ele>84.25</ele>
        <time>2014-03-30T09:15:14Z</time>
      </trkpt>
      <trkpt lat="47.64828" lon="-1.95921">
        <ele>82.81</ele>
        <time>2014-03-30T09:15:20Z</time>
      </trkpt>
      <trkpt lat="47.64816" lon="-1.9592">
        <ele>81.37</ele>
        <time>2014-03-30T09:15:24Z</time>
      </trkpt>
      <trkpt lat="47.64807" lon="-1.95914">
        <ele>79.93</ele>
        <time>2014-03-30T09:15:28Z</time>
      </trkpt>
      <trkpt lat="47.64805" lon="-1.95927">
        <ele>77.52</ele>
        <time>2014-03-30T09:15:34Z</time>
      </trkpt>
      <trkpt lat="47.64809" lon="-1.95943">
        <ele>77.52</ele>
        <time>2014-03-30T09:15:38Z</time>
      </trkpt>
      <trkpt lat="47.64809" lon="-1.95958">
        <ele>77.52</ele>
        <time>2014-03-30T09:15:43Z</time>
      </trkpt>
      <trkpt lat="47.64814" lon="-1.95969">
        <ele>78.48</ele>
        <time>2014-03-30T09:15:48Z</time>
      </trkpt>
      <trkpt lat="47.64818" lon="-1.95984">
        <ele>78.97</ele>
        <time>2014-03-30T09:15:55Z</time>
      </trkpt>
      <trkpt lat="47.64827" lon="-1.95989">
        <ele>79.93</ele>
        <time>2014-03-30T09:16:01Z</time>
      </trkpt>
      <trkpt lat="47.64837" lon="-1.96003">
        <ele>81.37</ele>
        <time>2014-03-30T09:16:10Z</time>
      </trkpt>
      <trkpt lat="47.6484" lon="-1.96018">
        <ele>83.29</ele>
        <time>2014-03-30T09:16:14Z</time>
      </trkpt>
      <trkpt lat="47.64832" lon="-1.96032">
        <ele>83.29</ele>
        <time>2014-03-30T09:16:18Z</time>
      </trkpt>
      <trkpt lat="47.64823" lon="-1.96048">
        <ele>84.73</ele>
        <time>2014-03-30T09:16:22Z</time>
      </trkpt>
      <trkpt lat="47.64821" lon="-1.96064">
        <ele>86.66</ele>
        <time>2014-03-30T09:16:25Z</time>
      </trkpt>
      <trkpt lat="47.64827" lon="-1.96073">
        <ele>88.1</ele>
        <time>2014-03-30T09:16:31Z</time>
      </trkpt>
      <trkpt lat="47.64838" lon="-1.96086">
        <ele>86.18</ele>
        <time>2014-03-30T09:16:39Z</time>
      </trkpt>
      <trkpt lat="47.64842" lon="-1.96075">
        <ele>85.21</ele>
        <time>2014-03-30T09:16:45Z</time>
      </trkpt>
      <trkpt lat="47.64849" lon="-1.96068">
        <ele>85.69</ele>
        <time>2014-03-30T09:16:50Z</time>
      </trkpt>
      <trkpt lat="47.64859" lon="-1.96073">
        <ele>85.69</ele>
        <time>2014-03-30T09:16:55Z</time>
      </trkpt>
      <trkpt lat="47.64867" lon="-1.96083">
        <ele>87.62</ele>
        <time>2014-03-30T09:17:01Z</time>
      </trkpt>
      <trkpt lat="47.6488" lon="-1.96087">
        <ele>89.06</ele>
        <time>2014-03-30T09:17:07Z</time>
      </trkpt>
      <trkpt lat="47.64886" lon="-1.961">
        <ele>90.02</ele>
        <time>2014-03-30T09:17:11Z</time>
      </trkpt>
      <trkpt lat="47.64891" lon="-1.96115">
        <ele>91.94</ele>
        <time>2014-03-30T09:17:15Z</time>
      </trkpt>
      <trkpt lat="47.64893" lon="-1.96132">
        <ele>93.39</ele>
        <time>2014-03-30T09:17:21Z</time>
      </trkpt>
      <trkpt lat="47.64893" lon="-1.96151">
        <ele>93.39</ele>
        <time>2014-03-30T09:17:26Z</time>
      </trkpt>
      <trkpt lat="47.64888" lon="-1.96165">
        <ele>92.9</ele>
        <time>2014-03-30T09:17:30Z</time>
      </trkpt>
      <trkpt lat="47.64891" lon="-1.9618">
        <ele>92.9</ele>
        <time>2014-03-30T09:17:34Z</time>
      </trkpt>
      <trkpt lat="47.64899" lon="-1.96185">
        <ele>92.9</ele>
        <time>2014-03-30T09:17:38Z</time>
      </trkpt>
      <trkpt lat="47.64901" lon="-1.96201">
        <ele>91.94</ele>
        <time>2014-03-30T09:17:42Z</time>
      </trkpt>
      <trkpt lat="47.64899" lon="-1.96217">
        <ele>91.46</ele>
        <time>2014-03-30T09:17:46Z</time>
      </trkpt>
      <trkpt lat="47.64899" lon="-1.96237">
        <ele>92.9</ele>
        <time>2014-03-30T09:17:50Z</time>
      </trkpt>
      <trkpt lat="47.64903" lon="-1.96256">
        <ele>91.46</ele>
        <time>2014-03-30T09:17:55Z</time>
      </trkpt>
      <trkpt lat="47.64909" lon="-1.96269">
        <ele>91.94</ele>
        <time>2014-03-30T09:17:59Z</time>
      </trkpt>
      <trkpt lat="47.64919" lon="-1.96276">
        <ele>92.9</ele>
        <time>2014-03-30T09:18:04Z</time>
      </trkpt>
      <trkpt lat="47.64927" lon="-1.96267">
        <ele>92.9</ele>
        <time>2014-03-30T09:18:08Z</time>
      </trkpt>
      <trkpt lat="47.64935" lon="-1.9626">
        <ele>93.39</ele>
        <time>2014-03-30T09:18:12Z</time>
      </trkpt>
      <trkpt lat="47.64948" lon="-1.96259">
        <ele>94.83</ele>
        <time>2014-03-30T09:18:16Z</time>
      </trkpt>
      <trkpt lat="47.64962" lon="-1.96256">
        <ele>98.19</ele>
        <time>2014-03-30T09:18:20Z</time>
      </trkpt>
      <trkpt lat="47.6497" lon="-1.96241">
        <ele>98.19</ele>
        <time>2014-03-30T09:18:25Z</time>
      </trkpt>
      <trkpt lat="47.64972" lon="-1.96228">
        <ele>96.27</ele>
        <time>2014-03-30T09:18:28Z</time>
      </trkpt>
      <trkpt lat="47.64973" lon="-1.96213">
        <ele>94.35</ele>
        <time>2014-03-30T09:18:31Z</time>
      </trkpt>
      <trkpt lat="47.64972" lon="-1.96195">
        <ele>90.98</ele>
        <time>2014-03-30T09:18:35Z</time>
      </trkpt>
      <trkpt lat="47.64972" lon="-1.96176">
        <ele>89.54</ele>
        <time>2014-03-30T09:18:39Z</time>
      </trkpt>
      <trkpt lat="47.64972" lon="-1.96157">
        <ele>90.98</ele>
        <time>2014-03-30T09:18:43Z</time>
      </trkpt>
      <trkpt lat="47.6497" lon="-1.96139">
        <ele>92.42</ele>
        <time>2014-03-30T09:18:47Z</time>
      </trkpt>
      <trkpt lat="47.64968" lon="-1.96122">
        <ele>94.35</ele>
        <time>2014-03-30T09:18:51Z</time>
      </trkpt>
      <trkpt lat="47.64975" lon="-1.9611">
        <ele>97.23</ele>
        <time>2014-03-30T09:18:56Z</time>
      </trkpt>
      <trkpt lat="47.64976" lon="-1.96092">
        <ele>98.19</ele>
        <time>2014-03-30T09:19:01Z</time>
      </trkpt>
      <trkpt lat="47.64974" lon="-1.96074">
        <ele>97.23</ele>
        <time>2014-03-30T09:19:04Z</time>
      </trkpt>
      <trkpt lat="47.6497" lon="-1.96055">
        <ele>95.79</ele>
        <time>2014-03-30T09:19:08Z</time>
      </trkpt>
      <trkpt lat="47.64968" lon="-1.96038">
        <ele>94.83</ele>
        <time>2014-03-30T09:19:12Z</time>
      </trkpt>
      <trkpt lat="47.6497" lon="-1.96019">
        <ele>95.79</ele>
        <time>2014-03-30T09:19:17Z</time>
      </trkpt>
      <trkpt lat="47.64969" lon="-1.96">
        <ele>96.27</ele>
        <time>2014-03-30T09:19:21Z</time>
      </trkpt>
      <trkpt lat="47.6497" lon="-1.95984">
        <ele>96.75</ele>
        <time>2014-03-30T09:19:25Z</time>
      </trkpt>
      <trkpt lat="47.64975" lon="-1.95969">
        <ele>96.75</ele>
        <time>2014-03-30T09:19:29Z</time>
      </trkpt>
      <trkpt lat="47.64986" lon="-1.95957">
        <ele>97.23</ele>
        <time>2014-03-30T09:19:33Z</time>
      </trkpt>
      <trkpt lat="47.64995" lon="-1.95947">
        <ele>97.23</ele>
        <time>2014-03-30T09:19:36Z</time>
      </trkpt>
      <trkpt lat="47.65002" lon="-1.95937">
        <ele>97.23</ele>
        <time>2014-03-30T09:19:39Z</time>
      </trkpt>
      <trkpt lat="47.65012" lon="-1.95933">
        <ele>97.71</ele>
        <time>2014-03-30T09:19:42Z</time>
      </trkpt>
      <trkpt lat="47.65022" lon="-1.95929">
        <ele>97.71</ele>
        <time>2014-03-30T09:19:45Z</time>
      </trkpt>
      <trkpt lat="47.65033" lon="-1.95925">
        <ele>96.75</ele>
        <time>2014-03-30T09:19:48Z</time>
      </trkpt>
      <trkpt lat="47.65043" lon="-1.95921">
        <ele>95.79</ele>
        <time>2014-03-30T09:19:51Z</time>
      </trkpt>
      <trkpt lat="47.65053" lon="-1.95917">
        <ele>94.35</ele>
        <time>2014-03-30T09:19:54Z</time>
      </trkpt>
      <trkpt lat="47.65066" lon="-1.95909">
        <ele>91.94</ele>
        <time>2014-03-30T09:19:58Z</time>
      </trkpt>
      <trkpt lat="47.65078" lon="-1.95903">
        <ele>90.5</ele>
        <time>2014-03-30T09:20:02Z</time>
      </trkpt>
      <trkpt lat="47.65087" lon="-1.95899">
        <ele>89.54</ele>
        <time>2014-03-30T09:20:05Z</time>
      </trkpt>
      <trkpt lat="47.65098" lon="-1.95893">
        <ele>88.58</ele>
        <time>2014-03-30T09:20:09Z</time>
      </trkpt>
      <trkpt lat="47.65108" lon="-1.95889">
        <ele>87.62</ele>
        <time>2014-03-30T09:20:13Z</time>
      </trkpt>
      <trkpt lat="47.65118" lon="-1.95887">
        <ele>87.14</ele>
        <time>2014-03-30T09:20:18Z</time>
      </trkpt>
      <trkpt lat="47.65128" lon="-1.95885">
        <ele>87.14</ele>
        <time>2014-03-30T09:20:22Z</time>
      </trkpt>
      <trkpt lat="47.65135" lon="-1.95896">
        <ele>86.18</ele>
        <time>2014-03-30T09:20:25Z</time>
      </trkpt>
      <trkpt lat="47.65143" lon="-1.95908">
        <ele>85.21</ele>
        <time>2014-03-30T09:20:28Z</time>
      </trkpt>
      <trkpt lat="47.65148" lon="-1.95923">
        <ele>84.73</ele>
        <time>2014-03-30T09:20:31Z</time>
      </trkpt>
      <trkpt lat="47.65149" lon="-1.95938">
        <ele>83.77</ele>
        <time>2014-03-30T09:20:34Z</time>
      </trkpt>
      <trkpt lat="47.65151" lon="-1.95952">
        <ele>82.81</ele>
        <time>2014-03-30T09:20:37Z</time>
      </trkpt>
      <trkpt lat="47.65154" lon="-1.95968">
        <ele>81.85</ele>
        <time>2014-03-30T09:20:40Z</time>
      </trkpt>
      <trkpt lat="47.65158" lon="-1.95979">
        <ele>81.37</ele>
        <time>2014-03-30T09:20:43Z</time>
      </trkpt>
      <trkpt lat="47.65168" lon="-1.95983">
        <ele>80.41</ele>
        <time>2014-03-30T09:20:46Z</time>
      </trkpt>
      <trkpt lat="47.65177" lon="-1.95986">
        <ele>80.89</ele>
        <time>2014-03-30T09:20:49Z</time>
      </trkpt>
      <trkpt lat="47.65188" lon="-1.9599">
        <ele>82.81</ele>
        <time>2014-03-30T09:20:53Z</time>
      </trkpt>
      <trkpt lat="47.65194" lon="-1.96005">
        <ele>84.25</ele>
        <time>2014-03-30T09:20:58Z</time>
      </trkpt>
      <trkpt lat="47.652" lon="-1.96023">
        <ele>84.25</ele>
        <time>2014-03-30T09:21:03Z</time>
      </trkpt>
      <trkpt lat="47.65203" lon="-1.96039">
        <ele>82.81</ele>
        <time>2014-03-30T09:21:07Z</time>
      </trkpt>
      <trkpt lat="47.65204" lon="-1.96059">
        <ele>81.85</ele>
        <time>2014-03-30T09:21:12Z</time>
      </trkpt>
      <trkpt lat="47.65206" lon="-1.96074">
        <ele>80.41</ele>
        <time>2014-03-30T09:21:16Z</time>
      </trkpt>
      <trkpt lat="47.65214" lon="-1.96087">
        <ele>79.45</ele>
        <time>2014-03-30T09:21:20Z</time>
      </trkpt>
      <trkpt lat="47.65223" lon="-1.96094">
        <ele>78.97</ele>
        <time>2014-03-30T09:21:33Z</time>
      </trkpt>
      <trkpt lat="47.65231" lon="-1.96089">
        <ele>78</ele>
        <time>2014-03-30T09:22:00Z</time>
      </trkpt>
      <trkpt lat="47.6524" lon="-1.96078">
        <ele>78</ele>
        <time>2014-03-30T09:22:03Z</time>
      </trkpt>
      <trkpt lat="47.6524" lon="-1.96086">
        <ele>78.97</ele>
        <time>2014-03-30T09:22:09Z</time>
      </trkpt>
      <trkpt lat="47.65233" lon="-1.96099">
        <ele>80.89</ele>
        <time>2014-03-30T09:22:15Z</time>
      </trkpt>
      <trkpt lat="47.65226" lon="-1.96109">
        <ele>81.85</ele>
        <time>2014-03-30T09:22:19Z</time>
      </trkpt>
      <trkpt lat="47.6522" lon="-1.96122">
        <ele>83.29</ele>
        <time>2014-03-30T09:22:23Z</time>
      </trkpt>
      <trkpt lat="47.6521" lon="-1.96127">
        <ele>84.25</ele>
        <time>2014-03-30T09:22:27Z</time>
      </trkpt>
      <trkpt lat="47.652" lon="-1.96135">
        <ele>84.73</ele>
        <time>2014-03-30T09:22:31Z</time>
      </trkpt>
      <trkpt lat="47.65191" lon="-1.96147">
        <ele>84.25</ele>
        <time>2014-03-30T09:22:35Z</time>
      </trkpt>
      <trkpt lat="47.65184" lon="-1.96158">
        <ele>84.25</ele>
        <time>2014-03-30T09:22:38Z</time>
      </trkpt>
      <trkpt lat="47.65184" lon="-1.96171">
        <ele>84.73</ele>
        <time>2014-03-30T09:22:42Z</time>
      </trkpt>
      <trkpt lat="47.65192" lon="-1.96182">
        <ele>85.69</ele>
        <time>2014-03-30T09:22:47Z</time>
      </trkpt>
      <trkpt lat="47.65205" lon="-1.96181">
        <ele>87.14</ele>
        <time>2014-03-30T09:22:52Z</time>
      </trkpt>
      <trkpt lat="47.65215" lon="-1.96187">
        <ele>87.62</ele>
        <time>2014-03-30T09:22:56Z</time>
      </trkpt>
      <trkpt lat="47.65225" lon="-1.9619">
        <ele>88.58</ele>
        <time>2014-03-30T09:23:00Z</time>
      </trkpt>
      <trkpt lat="47.65235" lon="-1.9618">
        <ele>87.14</ele>
        <time>2014-03-30T09:23:03Z</time>
      </trkpt>
      <trkpt lat="47.65245" lon="-1.9617">
        <ele>84.25</ele>
        <time>2014-03-30T09:23:07Z</time>
      </trkpt>
      <trkpt lat="47.65256" lon="-1.96165">
        <ele>80.89</ele>
        <time>2014-03-30T09:23:10Z</time>
      </trkpt>
      <trkpt lat="47.65269" lon="-1.96163">
        <ele>77.04</ele>
        <time>2014-03-30T09:23:14Z</time>
      </trkpt>
      <trkpt lat="47.65272" lon="-1.96177">
        <ele>75.6</ele>
        <time>2014-03-30T09:23:17Z</time>
      </trkpt>
      <trkpt lat="47.65272" lon="-1.96193">
        <ele>75.12</ele>
        <time>2014-03-30T09:23:20Z</time>
      </trkpt>
      <trkpt lat="47.65264" lon="-1.96201">
        <ele>75.6</ele>
        <time>2014-03-30T09:23:24Z</time>
      </trkpt>
      <trkpt lat="47.65256" lon="-1.96207">
        <ele>80.89</ele>
        <time>2014-03-30T09:23:31Z</time>
      </trkpt>
      <trkpt lat="47.65259" lon="-1.96218">
        <ele>84.73</ele>
        <time>2014-03-30T09:23:37Z</time>
      </trkpt>
      <trkpt lat="47.6527" lon="-1.96222">
        <ele>85.21</ele>
        <time>2014-03-30T09:23:40Z</time>
      </trkpt>
      <trkpt lat="47.6528" lon="-1.9623">
        <ele>84.25</ele>
        <time>2014-03-30T09:23:43Z</time>
      </trkpt>
      <trkpt lat="47.65283" lon="-1.96245">
        <ele>84.25</ele>
        <time>2014-03-30T09:23:46Z</time>
      </trkpt>
      <trkpt lat="47.65277" lon="-1.96255">
        <ele>83.77</ele>
        <time>2014-03-30T09:23:51Z</time>
      </trkpt>
      <trkpt lat="47.65267" lon="-1.9626">
        <ele>83.77</ele>
        <time>2014-03-30T09:23:59Z</time>
      </trkpt>
      <trkpt lat="47.65256" lon="-1.96253">
        <ele>82.81</ele>
        <time>2014-03-30T09:24:06Z</time>
      </trkpt>
      <trkpt lat="47.65244" lon="-1.96243">
        <ele>82.81</ele>
        <time>2014-03-30T09:24:12Z</time>
      </trkpt>
      <trkpt lat="47.65233" lon="-1.96238">
        <ele>84.25</ele>
        <time>2014-03-30T09:24:17Z</time>
      </trkpt>
      <trkpt lat="47.6522" lon="-1.96233">
        <ele>86.18</ele>
        <time>2014-03-30T09:24:23Z</time>
      </trkpt>
      <trkpt lat="47.6521" lon="-1.96229">
        <ele>85.21</ele>
        <time>2014-03-30T09:24:29Z</time>
      </trkpt>
      <trkpt lat="47.65197" lon="-1.96227">
        <ele>85.21</ele>
        <time>2014-03-30T09:24:33Z</time>
      </trkpt>
      <trkpt lat="47.65193" lon="-1.96241">
        <ele>85.21</ele>
        <time>2014-03-30T09:24:37Z</time>
      </trkpt>
      <trkpt lat="47.65189" lon="-1.96257">
        <ele>85.21</ele>
        <time>2014-03-30T09:24:41Z</time>
      </trkpt>
      <trkpt lat="47.65189" lon="-1.96273">
        <ele>84.73</ele>
        <time>2014-03-30T09:24:44Z</time>
      </trkpt>
      <trkpt lat="47.65195" lon="-1.96286">
        <ele>84.73</ele>
        <time>2014-03-30T09:24:48Z</time>
      </trkpt>
      <trkpt lat="47.65204" lon="-1.96281">
        <ele>86.66</ele>
        <time>2014-03-30T09:24:52Z</time>
      </trkpt>
      <trkpt lat="47.65213" lon="-1.96287">
        <ele>87.62</ele>
        <time>2014-03-30T09:24:56Z</time>
      </trkpt>
      <trkpt lat="47.65223" lon="-1.96298">
        <ele>88.1</ele>
        <time>2014-03-30T09:25:00Z</time>
      </trkpt>
      <trkpt lat="47.65235" lon="-1.96307">
        <ele>87.62</ele>
        <time>2014-03-30T09:25:03Z</time>
      </trkpt>
      <trkpt lat="47.65248" lon="-1.96313">
        <ele>86.66</ele>
        <time>2014-03-30T09:25:06Z</time>
      </trkpt>
      <trkpt lat="47.65262" lon="-1.9632">
        <ele>85.69</ele>
        <time>2014-03-30T09:25:09Z</time>
      </trkpt>
      <trkpt lat="47.65271" lon="-1.96328">
        <ele>84.73</ele>
        <time>2014-03-30T09:25:11Z</time>
      </trkpt>
      <trkpt lat="47.65281" lon="-1.96336">
        <ele>82.81</ele>
        <time>2014-03-30T09:25:13Z</time>
      </trkpt>
      <trkpt lat="47.6529" lon="-1.96347">
        <ele>80.41</ele>
        <time>2014-03-30T09:25:15Z</time>
      </trkpt>
      <trkpt lat="47.65294" lon="-1.96363">
        <ele>77.52</ele>
        <time>2014-03-30T09:25:18Z</time>
      </trkpt>
      <trkpt lat="47.65285" lon="-1.96365">
        <ele>75.12</ele>
        <time>2014-03-30T09:25:22Z</time>
      </trkpt>
      <trkpt lat="47.65277" lon="-1.96369">
        <ele>75.12</ele>
        <time>2014-03-30T09:25:27Z</time>
      </trkpt>
      <trkpt lat="47.65268" lon="-1.96365">
        <ele>74.64</ele>
        <time>2014-03-30T09:25:32Z</time>
      </trkpt>
      <trkpt lat="47.65257" lon="-1.96364">
        <ele>74.16</ele>
        <time>2014-03-30T09:25:37Z</time>
      </trkpt>
      <trkpt lat="47.65245" lon="-1.96364">
        <ele>74.16</ele>
        <time>2014-03-30T09:25:42Z</time>
      </trkpt>
      <trkpt lat="47.65235" lon="-1.96358">
        <ele>74.16</ele>
        <time>2014-03-30T09:25:47Z</time>
      </trkpt>
      <trkpt lat="47.65223" lon="-1.96356">
        <ele>73.68</ele>
        <time>2014-03-30T09:25:52Z</time>
      </trkpt>
      <trkpt lat="47.65211" lon="-1.96359">
        <ele>74.16</ele>
        <time>2014-03-30T09:25:56Z</time>
      </trkpt>
      <trkpt lat="47.65201" lon="-1.96354">
        <ele>74.16</ele>
        <time>2014-03-30T09:26:00Z</time>
      </trkpt>
      <trkpt lat="47.65188" lon="-1.96346">
        <ele>74.64</ele>
        <time>2014-03-30T09:26:05Z</time>
      </trkpt>
      <trkpt lat="47.65184" lon="-1.96331">
        <ele>75.6</ele>
        <time>2014-03-30T09:26:10Z</time>
      </trkpt>
      <trkpt lat="47.65177" lon="-1.96315">
        <ele>77.52</ele>
        <time>2014-03-30T09:26:16Z</time>
      </trkpt>
      <trkpt lat="47.65172" lon="-1.96299">
        <ele>78.48</ele>
        <time>2014-03-30T09:26:21Z</time>
      </trkpt>
      <trkpt lat="47.65162" lon="-1.96285">
        <ele>79.45</ele>
        <time>2014-03-30T09:26:29Z</time>
      </trkpt>
      <trkpt lat="47.65163" lon="-1.96267">
        <ele>78.97</ele>
        <time>2014-03-30T09:26:36Z</time>
      </trkpt>
      <trkpt lat="47.65161" lon="-1.96248">
        <ele>80.89</ele>
        <time>2014-03-30T09:26:42Z</time>
      </trkpt>
      <trkpt lat="47.65157" lon="-1.96231">
        <ele>81.85</ele>
        <time>2014-03-30T09:26:47Z</time>
      </trkpt>
      <trkpt lat="47.65155" lon="-1.96207">
        <ele>85.21</ele>
        <time>2014-03-30T09:26:52Z</time>
      </trkpt>
      <trkpt lat="47.65146" lon="-1.9619">
        <ele>87.14</ele>
        <time>2014-03-30T09:26:58Z</time>
      </trkpt>
      <trkpt lat="47.65138" lon="-1.96172">
        <ele>88.1</ele>
        <time>2014-03-30T09:27:04Z</time>
      </trkpt>
      <trkpt lat="47.65127" lon="-1.9617">
        <ele>86.18</ele>
        <time>2014-03-30T09:27:12Z</time>
      </trkpt>
      <trkpt lat="47.65118" lon="-1.96175">
        <ele>84.25</ele>
        <time>2014-03-30T09:27:15Z</time>
      </trkpt>
      <trkpt lat="47.65107" lon="-1.96183">
        <ele>82.81</ele>
        <time>2014-03-30T09:27:18Z</time>
      </trkpt>
      <trkpt lat="47.65097" lon="-1.96191">
        <ele>81.37</ele>
        <time>2014-03-30T09:27:21Z</time>
      </trkpt>
      <trkpt lat="47.65086" lon="-1.96201">
        <ele>80.41</ele>
        <time>2014-03-30T09:27:24Z</time>
      </trkpt>
      <trkpt lat="47.65075" lon="-1.96211">
        <ele>79.93</ele>
        <time>2014-03-30T09:27:27Z</time>
      </trkpt>
      <trkpt lat="47.65064" lon="-1.9622">
        <ele>79.45</ele>
        <time>2014-03-30T09:27:30Z</time>
      </trkpt>
      <trkpt lat="47.65052" lon="-1.9623">
        <ele>79.45</ele>
        <time>2014-03-30T09:27:33Z</time>
      </trkpt>
      <trkpt lat="47.6504" lon="-1.9624">
        <ele>78.48</ele>
        <time>2014-03-30T09:27:36Z</time>
      </trkpt>
      <trkpt lat="47.65033" lon="-1.96247">
        <ele>78</ele>
        <time>2014-03-30T09:27:38Z</time>
      </trkpt>
      <trkpt lat="47.65022" lon="-1.96257">
        <ele>78</ele>
        <time>2014-03-30T09:27:41Z</time>
      </trkpt>
      <trkpt lat="47.65011" lon="-1.96267">
        <ele>78.48</ele>
        <time>2014-03-30T09:27:44Z</time>
      </trkpt>
      <trkpt lat="47.65" lon="-1.96276">
        <ele>78</ele>
        <time>2014-03-30T09:27:47Z</time>
      </trkpt>
      <trkpt lat="47.64989" lon="-1.96285">
        <ele>78</ele>
        <time>2014-03-30T09:27:50Z</time>
      </trkpt>
      <trkpt lat="47.64977" lon="-1.96293">
        <ele>77.52</ele>
        <time>2014-03-30T09:27:53Z</time>
      </trkpt>
      <trkpt lat="47.64966" lon="-1.96302">
        <ele>77.52</ele>
        <time>2014-03-30T09:27:56Z</time>
      </trkpt>
      <trkpt lat="47.64956" lon="-1.9631">
        <ele>77.52</ele>
        <time>2014-03-30T09:27:59Z</time>
      </trkpt>
      <trkpt lat="47.64947" lon="-1.96318">
        <ele>76.56</ele>
        <time>2014-03-30T09:28:02Z</time>
      </trkpt>
      <trkpt lat="47.64938" lon="-1.96324">
        <ele>76.08</ele>
        <time>2014-03-30T09:28:05Z</time>
      </trkpt>
      <trkpt lat="47.6493" lon="-1.96332">
        <ele>76.56</ele>
        <time>2014-03-30T09:28:09Z</time>
      </trkpt>
      <trkpt lat="47.64929" lon="-1.96348">
        <ele>76.08</ele>
        <time>2014-03-30T09:28:13Z</time>
      </trkpt>
      <trkpt lat="47.64935" lon="-1.96364">
        <ele>76.08</ele>
        <time>2014-03-30T09:28:16Z</time>
      </trkpt>
      <trkpt lat="47.64943" lon="-1.96382">
        <ele>75.6</ele>
        <time>2014-03-30T09:28:19Z</time>
      </trkpt>
      <trkpt lat="47.64948" lon="-1.96394">
        <ele>75.6</ele>
        <time>2014-03-30T09:28:21Z</time>
      </trkpt>
      <trkpt lat="47.6496" lon="-1.96407">
        <ele>76.08</ele>
        <time>2014-03-30T09:28:24Z</time>
      </trkpt>
      <trkpt lat="47.64968" lon="-1.96417">
        <ele>76.08</ele>
        <time>2014-03-30T09:28:26Z</time>
      </trkpt>
      <trkpt lat="47.64977" lon="-1.96425">
        <ele>76.08</ele>
        <time>2014-03-30T09:28:28Z</time>
      </trkpt>
      <trkpt lat="47.64987" lon="-1.96432">
        <ele>76.08</ele>
        <time>2014-03-30T09:28:31Z</time>
      </trkpt>
      <trkpt lat="47.64994" lon="-1.96443">
        <ele>75.6</ele>
        <time>2014-03-30T09:28:34Z</time>
      </trkpt>
      <trkpt lat="47.64997" lon="-1.96456">
        <ele>75.12</ele>
        <time>2014-03-30T09:28:36Z</time>
      </trkpt>
      <trkpt lat="47.64997" lon="-1.96475">
        <ele>74.16</ele>
        <time>2014-03-30T09:28:39Z</time>
      </trkpt>
      <trkpt lat="47.64991" lon="-1.96487">
        <ele>73.2</ele>
        <time>2014-03-30T09:28:42Z</time>
      </trkpt>
      <trkpt lat="47.64982" lon="-1.96492">
        <ele>72.72</ele>
        <time>2014-03-30T09:28:45Z</time>
      </trkpt>
      <trkpt lat="47.64972" lon="-1.96493">
        <ele>73.2</ele>
        <time>2014-03-30T09:28:48Z</time>
      </trkpt>
      <trkpt lat="47.64961" lon="-1.96497">
        <ele>74.64</ele>
        <time>2014-03-30T09:28:52Z</time>
      </trkpt>
      <trkpt lat="47.64955" lon="-1.96485">
        <ele>75.6</ele>
        <time>2014-03-30T09:28:55Z</time>
      </trkpt>
      <trkpt lat="47.64947" lon="-1.96472">
        <ele>75.6</ele>
        <time>2014-03-30T09:28:58Z</time>
      </trkpt>
      <trkpt lat="47.6494" lon="-1.96459">
        <ele>75.6</ele>
        <time>2014-03-30T09:29:01Z</time>
      </trkpt>
      <trkpt lat="47.64932" lon="-1.96454">
        <ele>75.6</ele>
        <time>2014-03-30T09:29:05Z</time>
      </trkpt>
      <trkpt lat="47.6493" lon="-1.96467">
        <ele>75.12</ele>
        <time>2014-03-30T09:29:09Z</time>
      </trkpt>
      <trkpt lat="47.64933" lon="-1.96484">
        <ele>74.64</ele>
        <time>2014-03-30T09:29:12Z</time>
      </trkpt>
      <trkpt lat="47.64936" lon="-1.96502">
        <ele>74.64</ele>
        <time>2014-03-30T09:29:15Z</time>
      </trkpt>
      <trkpt lat="47.64935" lon="-1.96516">
        <ele>74.16</ele>
        <time>2014-03-30T09:29:18Z</time>
      </trkpt>
      <trkpt lat="47.64933" lon="-1.9653">
        <ele>75.12</ele>
        <time>2014-03-30T09:29:23Z</time>
      </trkpt>
      <trkpt lat="47.64922" lon="-1.96536">
        <ele>75.6</ele>
        <time>2014-03-30T09:29:27Z</time>
      </trkpt>
      <trkpt lat="47.64912" lon="-1.96542">
        <ele>76.56</ele>
        <time>2014-03-30T09:29:31Z</time>
      </trkpt>
      <trkpt lat="47.649" lon="-1.9654">
        <ele>77.04</ele>
        <time>2014-03-30T09:29:35Z</time>
      </trkpt>
      <trkpt lat="47.64888" lon="-1.96538">
        <ele>77.04</ele>
        <time>2014-03-30T09:29:38Z</time>
      </trkpt>
      <trkpt lat="47.64878" lon="-1.96527">
        <ele>77.04</ele>
        <time>2014-03-30T09:29:42Z</time>
      </trkpt>
      <trkpt lat="47.64867" lon="-1.96517">
        <ele>76.56</ele>
        <time>2014-03-30T09:29:46Z</time>
      </trkpt>
      <trkpt lat="47.64858" lon="-1.96503">
        <ele>75.6</ele>
        <time>2014-03-30T09:29:50Z</time>
      </trkpt>
      <trkpt lat="47.6486" lon="-1.96488">
        <ele>74.64</ele>
        <time>2014-03-30T09:29:53Z</time>
      </trkpt>
      <trkpt lat="47.64858" lon="-1.96472">
        <ele>73.2</ele>
        <time>2014-03-30T09:29:57Z</time>
      </trkpt>
      <trkpt lat="47.6485" lon="-1.96458">
        <ele>71.76</ele>
        <time>2014-03-30T09:30:02Z</time>
      </trkpt>
      <trkpt lat="47.64849" lon="-1.96439">
        <ele>71.76</ele>
        <time>2014-03-30T09:30:06Z</time>
      </trkpt>
      <trkpt lat="47.64846" lon="-1.96425">
        <ele>71.27</ele>
        <time>2014-03-30T09:30:10Z</time>
      </trkpt>
      <trkpt lat="47.64838" lon="-1.96418">
        <ele>71.27</ele>
        <time>2014-03-30T09:30:14Z</time>
      </trkpt>
      <trkpt lat="47.64823" lon="-1.96408">
        <ele>72.72</ele>
        <time>2014-03-30T09:30:18Z</time>
      </trkpt>
      <trkpt lat="47.64808" lon="-1.96406">
        <ele>72.72</ele>
        <time>2014-03-30T09:30:22Z</time>
      </trkpt>
      <trkpt lat="47.64798" lon="-1.96409">
        <ele>72.24</ele>
        <time>2014-03-30T09:30:24Z</time>
      </trkpt>
      <trkpt lat="47.64788" lon="-1.96411">
        <ele>71.76</ele>
        <time>2014-03-30T09:30:26Z</time>
      </trkpt>
      <trkpt lat="47.64777" lon="-1.96412">
        <ele>70.79</ele>
        <time>2014-03-30T09:30:28Z</time>
      </trkpt>
      <trkpt lat="47.64766" lon="-1.96411">
        <ele>70.79</ele>
        <time>2014-03-30T09:30:30Z</time>
      </trkpt>
      <trkpt lat="47.64755" lon="-1.9641">
        <ele>70.31</ele>
        <time>2014-03-30T09:30:32Z</time>
      </trkpt>
      <trkpt lat="47.64744" lon="-1.96406">
        <ele>69.83</ele>
        <time>2014-03-30T09:30:34Z</time>
      </trkpt>
      <trkpt lat="47.64734" lon="-1.96403">
        <ele>68.87</ele>
        <time>2014-03-30T09:30:36Z</time>
      </trkpt>
      <trkpt lat="47.64723" lon="-1.96399">
        <ele>68.87</ele>
        <time>2014-03-30T09:30:38Z</time>
      </trkpt>
      <trkpt lat="47.64712" lon="-1.96395">
        <ele>68.39</ele>
        <time>2014-03-30T09:30:40Z</time>
      </trkpt>
      <trkpt lat="47.64701" lon="-1.96391">
        <ele>68.39</ele>
        <time>2014-03-30T09:30:42Z</time>
      </trkpt>
      <trkpt lat="47.64689" lon="-1.96386">
        <ele>67.91</ele>
        <time>2014-03-30T09:30:44Z</time>
      </trkpt>
      <trkpt lat="47.64678" lon="-1.96382">
        <ele>67.43</ele>
        <time>2014-03-30T09:30:46Z</time>
      </trkpt>
      <trkpt lat="47.64667" lon="-1.96378">
        <ele>66.95</ele>
        <time>2014-03-30T09:30:48Z</time>
      </trkpt>
      <trkpt lat="47.64656" lon="-1.96373">
        <ele>66.95</ele>
        <time>2014-03-30T09:30:50Z</time>
      </trkpt>
      <trkpt lat="47.64646" lon="-1.96368">
        <ele>66.47</ele>
        <time>2014-03-30T09:30:52Z</time>
      </trkpt>
      <trkpt lat="47.64637" lon="-1.96377">
        <ele>66.47</ele>
        <time>2014-03-30T09:30:55Z</time>
      </trkpt>
      <trkpt lat="47.6464" lon="-1.96395">
        <ele>66.95</ele>
        <time>2014-03-30T09:30:58Z</time>
      </trkpt>
      <trkpt lat="47.64643" lon="-1.96408">
        <ele>67.43</ele>
        <time>2014-03-30T09:31:00Z</time>
      </trkpt>
      <trkpt lat="47.64647" lon="-1.96426">
        <ele>67.43</ele>
        <time>2014-03-30T09:31:03Z</time>
      </trkpt>
      <trkpt lat="47.64651" lon="-1.96442">
        <ele>67.91</ele>
        <time>2014-03-30T09:31:06Z</time>
      </trkpt>
      <trkpt lat="47.64654" lon="-1.96456">
        <ele>67.91</ele>
        <time>2014-03-30T09:31:09Z</time>
      </trkpt>
      <trkpt lat="47.64658" lon="-1.9647">
        <ele>67.91</ele>
        <time>2014-03-30T09:31:12Z</time>
      </trkpt>
      <trkpt lat="47.64661" lon="-1.96484">
        <ele>67.91</ele>
        <time>2014-03-30T09:31:15Z</time>
      </trkpt>
      <trkpt lat="47.64664" lon="-1.96502">
        <ele>68.39</ele>
        <time>2014-03-30T09:31:18Z</time>
      </trkpt>
      <trkpt lat="47.64668" lon="-1.96521">
        <ele>68.39</ele>
        <time>2014-03-30T09:31:21Z</time>
      </trkpt>
      <trkpt lat="47.64671" lon="-1.96535">
        <ele>68.39</ele>
        <time>2014-03-30T09:31:23Z</time>
      </trkpt>
      <trkpt lat="47.64674" lon="-1.96548">
        <ele>68.39</ele>
        <time>2014-03-30T09:31:25Z</time>
      </trkpt>
      <trkpt lat="47.64677" lon="-1.96563">
        <ele>68.39</ele>
        <time>2014-03-30T09:31:27Z</time>
      </trkpt>
      <trkpt lat="47.64681" lon="-1.96579">
        <ele>68.39</ele>
        <time>2014-03-30T09:31:29Z</time>
      </trkpt>
      <trkpt lat="47.64684" lon="-1.96595">
        <ele>67.91</ele>
        <time>2014-03-30T09:31:31Z</time>
      </trkpt>
      <trkpt lat="47.64688" lon="-1.96611">
        <ele>67.43</ele>
        <time>2014-03-30T09:31:33Z</time>
      </trkpt>
      <trkpt lat="47.64692" lon="-1.96627">
        <ele>67.43</ele>
        <time>2014-03-30T09:31:35Z</time>
      </trkpt>
      <trkpt lat="47.64695" lon="-1.96643">
        <ele>66.95</ele>
        <time>2014-03-30T09:31:37Z</time>
      </trkpt>
      <trkpt lat="47.647" lon="-1.9666">
        <ele>66.47</ele>
        <time>2014-03-30T09:31:39Z</time>
      </trkpt>
      <trkpt lat="47.64704" lon="-1.96677">
        <ele>66.47</ele>
        <time>2014-03-30T09:31:41Z</time>
      </trkpt>
      <trkpt lat="47.64709" lon="-1.96694">
        <ele>65.99</ele>
        <time>2014-03-30T09:31:43Z</time>
      </trkpt>
      <trkpt lat="47.64714" lon="-1.96712">
        <ele>65.99</ele>
        <time>2014-03-30T09:31:45Z</time>
      </trkpt>
      <trkpt lat="47.64719" lon="-1.9673">
        <ele>65.99</ele>
        <time>2014-03-30T09:31:47Z</time>
      </trkpt>
      <trkpt lat="47.64724" lon="-1.96749">
        <ele>65.99</ele>
        <time>2014-03-30T09:31:49Z</time>
      </trkpt>
      <trkpt lat="47.6473" lon="-1.96767">
        <ele>65.51</ele>
        <time>2014-03-30T09:31:51Z</time>
      </trkpt>
      <trkpt lat="47.64737" lon="-1.96785">
        <ele>65.51</ele>
        <time>2014-03-30T09:31:53Z</time>
      </trkpt>
      <trkpt lat="47.64743" lon="-1.96803">
        <ele>65.51</ele>
        <time>2014-03-30T09:31:55Z</time>
      </trkpt>
      <trkpt lat="47.64749" lon="-1.96822">
        <ele>65.03</ele>
        <time>2014-03-30T09:31:57Z</time>
      </trkpt>
      <trkpt lat="47.64755" lon="-1.9684">
        <ele>65.03</ele>
        <time>2014-03-30T09:31:59Z</time>
      </trkpt>
      <trkpt lat="47.64761" lon="-1.96858">
        <ele>64.55</ele>
        <time>2014-03-30T09:32:01Z</time>
      </trkpt>
      <trkpt lat="47.64767" lon="-1.96875">
        <ele>64.55</ele>
        <time>2014-03-30T09:32:03Z</time>
      </trkpt>
      <trkpt lat="47.64773" lon="-1.96892">
        <ele>64.07</ele>
        <time>2014-03-30T09:32:05Z</time>
      </trkpt>
      <trkpt lat="47.64778" lon="-1.96907">
        <ele>64.07</ele>
        <time>2014-03-30T09:32:07Z</time>
      </trkpt>
      <trkpt lat="47.64784" lon="-1.96925">
        <ele>63.58</ele>
        <time>2014-03-30T09:32:10Z</time>
      </trkpt>
      <trkpt lat="47.64789" lon="-1.9694">
        <ele>63.58</ele>
        <time>2014-03-30T09:32:12Z</time>
      </trkpt>
      <trkpt lat="47.64794" lon="-1.96957">
        <ele>63.1</ele>
        <time>2014-03-30T09:32:14Z</time>
      </trkpt>
      <trkpt lat="47.64799" lon="-1.96975">
        <ele>62.62</ele>
        <time>2014-03-30T09:32:16Z</time>
      </trkpt>
      <trkpt lat="47.64805" lon="-1.96993">
        <ele>62.14</ele>
        <time>2014-03-30T09:32:18Z</time>
      </trkpt>
      <trkpt lat="47.64811" lon="-1.97012">
        <ele>62.14</ele>
        <time>2014-03-30T09:32:20Z</time>
      </trkpt>
      <trkpt lat="47.64817" lon="-1.97031">
        <ele>61.66</ele>
        <time>2014-03-30T09:32:22Z</time>
      </trkpt>
      <trkpt lat="47.64823" lon="-1.97051">
        <ele>61.18</ele>
        <time>2014-03-30T09:32:24Z</time>
      </trkpt>
      <trkpt lat="47.64829" lon="-1.9707">
        <ele>60.7</ele>
        <time>2014-03-30T09:32:26Z</time>
      </trkpt>
      <trkpt lat="47.64835" lon="-1.9709">
        <ele>60.7</ele>
        <time>2014-03-30T09:32:28Z</time>
      </trkpt>
      <trkpt lat="47.64841" lon="-1.9711">
        <ele>60.22</ele>
        <time>2014-03-30T09:32:30Z</time>
      </trkpt>
      <trkpt lat="47.64847" lon="-1.97129">
        <ele>59.74</ele>
        <time>2014-03-30T09:32:32Z</time>
      </trkpt>
      <trkpt lat="47.64852" lon="-1.97148">
        <ele>59.74</ele>
        <time>2014-03-30T09:32:34Z</time>
      </trkpt>
      <trkpt lat="47.64858" lon="-1.97166">
        <ele>59.26</ele>
        <time>2014-03-30T09:32:36Z</time>
      </trkpt>
      <trkpt lat="47.64863" lon="-1.97184">
        <ele>58.78</ele>
        <time>2014-03-30T09:32:38Z</time>
      </trkpt>
      <trkpt lat="47.64868" lon="-1.97201">
        <ele>58.78</ele>
        <time>2014-03-30T09:32:40Z</time>
      </trkpt>
      <trkpt lat="47.64873" lon="-1.97216">
        <ele>58.3</ele>
        <time>2014-03-30T09:32:42Z</time>
      </trkpt>
      <trkpt lat="47.64878" lon="-1.97232">
        <ele>57.82</ele>
        <time>2014-03-30T09:32:45Z</time>
      </trkpt>
      <trkpt lat="47.64884" lon="-1.97238">
        <ele>57.82</ele>
        <time>2014-03-30T09:32:51Z</time>
      </trkpt>
      <trkpt lat="47.64893" lon="-1.97232">
        <ele>58.78</ele>
        <time>2014-03-30T09:32:59Z</time>
      </trkpt>
      <trkpt lat="47.64904" lon="-1.97231">
        <ele>61.66</ele>
        <time>2014-03-30T09:33:06Z</time>
      </trkpt>
      <trkpt lat="47.64908" lon="-1.97219">
        <ele>65.51</ele>
        <time>2014-03-30T09:33:13Z</time>
      </trkpt>
      <trkpt lat="47.6491" lon="-1.97205">
        <ele>68.39</ele>
        <time>2014-03-30T09:33:19Z</time>
      </trkpt>
      <trkpt lat="47.64915" lon="-1.97188">
        <ele>69.35</ele>
        <time>2014-03-30T09:33:27Z</time>
      </trkpt>
      <trkpt lat="47.64923" lon="-1.97176">
        <ele>70.31</ele>
        <time>2014-03-30T09:33:33Z</time>
      </trkpt>
      <trkpt lat="47.64935" lon="-1.97174">
        <ele>71.27</ele>
        <time>2014-03-30T09:33:39Z</time>
      </trkpt>
      <trkpt lat="47.64944" lon="-1.97181">
        <ele>71.76</ele>
        <time>2014-03-30T09:33:45Z</time>
      </trkpt>
      <trkpt lat="47.64953" lon="-1.97193">
        <ele>73.2</ele>
        <time>2014-03-30T09:33:52Z</time>
      </trkpt>
      <trkpt lat="47.6495" lon="-1.97199">
        <ele>72.24</ele>
        <time>2014-03-30T09:33:59Z</time>
      </trkpt>
      <trkpt lat="47.64947" lon="-1.97217">
        <ele>72.24</ele>
        <time>2014-03-30T09:34:04Z</time>
      </trkpt>
      <trkpt lat="47.64951" lon="-1.97231">
        <ele>71.27</ele>
        <time>2014-03-30T09:34:08Z</time>
      </trkpt>
      <trkpt lat="47.64945" lon="-1.97239">
        <ele>69.35</ele>
        <time>2014-03-30T09:34:13Z</time>
      </trkpt>
      <trkpt lat="47.64937" lon="-1.97236">
        <ele>66.47</ele>
        <time>2014-03-30T09:34:21Z</time>
      </trkpt>
      <trkpt lat="47.64926" lon="-1.97231">
        <ele>66.95</ele>
        <time>2014-03-30T09:34:28Z</time>
      </trkpt>
      <trkpt lat="47.64915" lon="-1.97238">
        <ele>65.99</ele>
        <time>2014-03-30T09:34:48Z</time>
      </trkpt>
      <trkpt lat="47.64919" lon="-1.97251">
        <ele>65.51</ele>
        <time>2014-03-30T09:35:07Z</time>
      </trkpt>
      <trkpt lat="47.64914" lon="-1.97264">
        <ele>64.55</ele>
        <time>2014-03-30T09:35:14Z</time>
      </trkpt>
      <trkpt lat="47.64914" lon="-1.97279">
        <ele>65.51</ele>
        <time>2014-03-30T09:35:18Z</time>
      </trkpt>
      <trkpt lat="47.64916" lon="-1.97292">
        <ele>66.47</ele>
        <time>2014-03-30T09:35:22Z</time>
      </trkpt>
      <trkpt lat="47.64919" lon="-1.97309">
        <ele>66.47</ele>
        <time>2014-03-30T09:35:26Z</time>
      </trkpt>
      <trkpt lat="47.64927" lon="-1.97319">
        <ele>65.99</ele>
        <time>2014-03-30T09:35:30Z</time>
      </trkpt>
      <trkpt lat="47.64937" lon="-1.97324">
        <ele>65.99</ele>
        <time>2014-03-30T09:35:34Z</time>
      </trkpt>
      <trkpt lat="47.64942" lon="-1.97338">
        <ele>63.58</ele>
        <time>2014-03-30T09:35:37Z</time>
      </trkpt>
      <trkpt lat="47.64946" lon="-1.97351">
        <ele>61.18</ele>
        <time>2014-03-30T09:35:39Z</time>
      </trkpt>
      <trkpt lat="47.64945" lon="-1.97365">
        <ele>58.78</ele>
        <time>2014-03-30T09:35:43Z</time>
      </trkpt>
      <trkpt lat="47.64938" lon="-1.97377">
        <ele>56.86</ele>
        <time>2014-03-30T09:35:46Z</time>
      </trkpt>
      <trkpt lat="47.64942" lon="-1.97392">
        <ele>55.41</ele>
        <time>2014-03-30T09:35:49Z</time>
      </trkpt>
      <trkpt lat="47.64951" lon="-1.97407">
        <ele>54.93</ele>
        <time>2014-03-30T09:35:52Z</time>
      </trkpt>
      <trkpt lat="47.64958" lon="-1.97418">
        <ele>53.97</ele>
        <time>2014-03-30T09:35:54Z</time>
      </trkpt>
      <trkpt lat="47.64965" lon="-1.9743">
        <ele>53.49</ele>
        <time>2014-03-30T09:35:56Z</time>
      </trkpt>
      <trkpt lat="47.64973" lon="-1.97442">
        <ele>52.53</ele>
        <time>2014-03-30T09:35:58Z</time>
      </trkpt>
      <trkpt lat="47.6498" lon="-1.97454">
        <ele>51.57</ele>
        <time>2014-03-30T09:36:00Z</time>
      </trkpt>
      <trkpt lat="47.64986" lon="-1.97465">
        <ele>51.09</ele>
        <time>2014-03-30T09:36:02Z</time>
      </trkpt>
      <trkpt lat="47.64992" lon="-1.97476">
        <ele>50.13</ele>
        <time>2014-03-30T09:36:08Z</time>
      </trkpt>
      <trkpt lat="47.64985" lon="-1.97486">
        <ele>50.61</ele>
        <time>2014-03-30T09:36:13Z</time>
      </trkpt>
      <trkpt lat="47.64978" lon="-1.97499">
        <ele>52.05</ele>
        <time>2014-03-30T09:36:18Z</time>
      </trkpt>
      <trkpt lat="47.64982" lon="-1.97513">
        <ele>52.05</ele>
        <time>2014-03-30T09:36:21Z</time>
      </trkpt>
      <trkpt lat="47.64986" lon="-1.97529">
        <ele>52.53</ele>
        <time>2014-03-30T09:36:24Z</time>
      </trkpt>
      <trkpt lat="47.64988" lon="-1.97546">
        <ele>52.53</ele>
        <time>2014-03-30T09:36:27Z</time>
      </trkpt>
      <trkpt lat="47.64989" lon="-1.97563">
        <ele>53.49</ele>
        <time>2014-03-30T09:36:30Z</time>
      </trkpt>
      <trkpt lat="47.64985" lon="-1.97577">
        <ele>54.45</ele>
        <time>2014-03-30T09:36:33Z</time>
      </trkpt>
      <trkpt lat="47.64979" lon="-1.97589">
        <ele>53.97</ele>
        <time>2014-03-30T09:36:36Z</time>
      </trkpt>
      <trkpt lat="47.64976" lon="-1.97605">
        <ele>53.97</ele>
        <time>2014-03-30T09:36:39Z</time>
      </trkpt>
      <trkpt lat="47.64973" lon="-1.97621">
        <ele>53.49</ele>
        <time>2014-03-30T09:36:42Z</time>
      </trkpt>
      <trkpt lat="47.64974" lon="-1.97642">
        <ele>53.01</ele>
        <time>2014-03-30T09:36:46Z</time>
      </trkpt>
      <trkpt lat="47.64976" lon="-1.97657">
        <ele>53.49</ele>
        <time>2014-03-30T09:36:56Z</time>
      </trkpt>
      <trkpt lat="47.64984" lon="-1.9767">
        <ele>52.53</ele>
        <time>2014-03-30T09:37:01Z</time>
      </trkpt>
      <trkpt lat="47.64992" lon="-1.97687">
        <ele>50.13</ele>
        <time>2014-03-30T09:37:06Z</time>
      </trkpt>
      <trkpt lat="47.64999" lon="-1.977">
        <ele>50.61</ele>
        <time>2014-03-30T09:37:09Z</time>
      </trkpt>
      <trkpt lat="47.65008" lon="-1.97707">
        <ele>51.09</ele>
        <time>2014-03-30T09:37:11Z</time>
      </trkpt>
      <trkpt lat="47.65017" lon="-1.97714">
        <ele>51.57</ele>
        <time>2014-03-30T09:37:13Z</time>
      </trkpt>
      <trkpt lat="47.65027" lon="-1.97721">
        <ele>51.09</ele>
        <time>2014-03-30T09:37:15Z</time>
      </trkpt>
      <trkpt lat="47.6504" lon="-1.97731">
        <ele>48.68</ele>
        <time>2014-03-30T09:37:17Z</time>
      </trkpt>
      <trkpt lat="47.65054" lon="-1.97741">
        <ele>46.28</ele>
        <time>2014-03-30T09:37:19Z</time>
      </trkpt>
      <trkpt lat="47.65067" lon="-1.97751">
        <ele>44.36</ele>
        <time>2014-03-30T09:37:21Z</time>
      </trkpt>
      <trkpt lat="47.6508" lon="-1.97762">
        <ele>42.44</ele>
        <time>2014-03-30T09:37:23Z</time>
      </trkpt>
      <trkpt lat="47.65093" lon="-1.97774">
        <ele>41.47</ele>
        <time>2014-03-30T09:37:25Z</time>
      </trkpt>
      <trkpt lat="47.65105" lon="-1.97784">
        <ele>40.03</ele>
        <time>2014-03-30T09:37:27Z</time>
      </trkpt>
      <trkpt lat="47.65118" lon="-1.97795">
        <ele>39.55</ele>
        <time>2014-03-30T09:37:29Z</time>
      </trkpt>
      <trkpt lat="47.6513" lon="-1.97806">
        <ele>39.07</ele>
        <time>2014-03-30T09:37:31Z</time>
      </trkpt>
      <trkpt lat="47.65142" lon="-1.97816">
        <ele>39.07</ele>
        <time>2014-03-30T09:37:33Z</time>
      </trkpt>
      <trkpt lat="47.65153" lon="-1.97826">
        <ele>38.59</ele>
        <time>2014-03-30T09:37:35Z</time>
      </trkpt>
      <trkpt lat="47.65164" lon="-1.97836">
        <ele>38.59</ele>
        <time>2014-03-30T09:37:37Z</time>
      </trkpt>
      <trkpt lat="47.65175" lon="-1.97845">
        <ele>38.11</ele>
        <time>2014-03-30T09:37:39Z</time>
      </trkpt>
      <trkpt lat="47.65186" lon="-1.97854">
        <ele>38.59</ele>
        <time>2014-03-30T09:37:41Z</time>
      </trkpt>
      <trkpt lat="47.65196" lon="-1.97863">
        <ele>38.59</ele>
        <time>2014-03-30T09:37:43Z</time>
      </trkpt>
      <trkpt lat="47.65206" lon="-1.97872">
        <ele>38.11</ele>
        <time>2014-03-30T09:37:45Z</time>
      </trkpt>
      <trkpt lat="47.65217" lon="-1.97881">
        <ele>37.63</ele>
        <time>2014-03-30T09:37:47Z</time>
      </trkpt>
      <trkpt lat="47.65227" lon="-1.9789">
        <ele>37.63</ele>
        <time>2014-03-30T09:37:49Z</time>
      </trkpt>
      <trkpt lat="47.65237" lon="-1.97899">
        <ele>37.63</ele>
        <time>2014-03-30T09:37:51Z</time>
      </trkpt>
      <trkpt lat="47.65247" lon="-1.97907">
        <ele>37.63</ele>
        <time>2014-03-30T09:37:53Z</time>
      </trkpt>
      <trkpt lat="47.65257" lon="-1.97916">
        <ele>38.11</ele>
        <time>2014-03-30T09:37:55Z</time>
      </trkpt>
      <trkpt lat="47.65266" lon="-1.97924">
        <ele>38.59</ele>
        <time>2014-03-30T09:37:57Z</time>
      </trkpt>
      <trkpt lat="47.65275" lon="-1.97931">
        <ele>39.55</ele>
        <time>2014-03-30T09:37:59Z</time>
      </trkpt>
      <trkpt lat="47.65286" lon="-1.9794">
        <ele>40.03</ele>
        <time>2014-03-30T09:38:02Z</time>
      </trkpt>
      <trkpt lat="47.65295" lon="-1.97949">
        <ele>40.51</ele>
        <time>2014-03-30T09:38:06Z</time>
      </trkpt>
      <trkpt lat="47.65299" lon="-1.97962">
        <ele>40.03</ele>
        <time>2014-03-30T09:38:09Z</time>
      </trkpt>
      <trkpt lat="47.65301" lon="-1.97981">
        <ele>39.55</ele>
        <time>2014-03-30T09:38:12Z</time>
      </trkpt>
      <trkpt lat="47.65302" lon="-1.97995">
        <ele>39.55</ele>
        <time>2014-03-30T09:38:14Z</time>
      </trkpt>
      <trkpt lat="47.65304" lon="-1.9801">
        <ele>39.07</ele>
        <time>2014-03-30T09:38:16Z</time>
      </trkpt>
      <trkpt lat="47.65305" lon="-1.98026">
        <ele>39.07</ele>
        <time>2014-03-30T09:38:18Z</time>
      </trkpt>
      <trkpt lat="47.65307" lon="-1.98042">
        <ele>38.59</ele>
        <time>2014-03-30T09:38:20Z</time>
      </trkpt>
      <trkpt lat="47.65308" lon="-1.98058">
        <ele>38.11</ele>
        <time>2014-03-30T09:38:22Z</time>
      </trkpt>
      <trkpt lat="47.6531" lon="-1.98074">
        <ele>37.63</ele>
        <time>2014-03-30T09:38:24Z</time>
      </trkpt>
      <trkpt lat="47.65312" lon="-1.98089">
        <ele>37.15</ele>
        <time>2014-03-30T09:38:26Z</time>
      </trkpt>
      <trkpt lat="47.65314" lon="-1.98104">
        <ele>36.19</ele>
        <time>2014-03-30T09:38:28Z</time>
      </trkpt>
      <trkpt lat="47.65315" lon="-1.98118">
        <ele>35.71</ele>
        <time>2014-03-30T09:38:30Z</time>
      </trkpt>
      <trkpt lat="47.65317" lon="-1.98133">
        <ele>35.71</ele>
        <time>2014-03-30T09:38:32Z</time>
      </trkpt>
      <trkpt lat="47.65318" lon="-1.98148">
        <ele>35.23</ele>
        <time>2014-03-30T09:38:34Z</time>
      </trkpt>
      <trkpt lat="47.6532" lon="-1.98163">
        <ele>35.23</ele>
        <time>2014-03-30T09:38:36Z</time>
      </trkpt>
      <trkpt lat="47.65321" lon="-1.98178">
        <ele>34.74</ele>
        <time>2014-03-30T09:38:38Z</time>
      </trkpt>
      <trkpt lat="47.65323" lon="-1.98193">
        <ele>34.74</ele>
        <time>2014-03-30T09:38:40Z</time>
      </trkpt>
      <trkpt lat="47.65324" lon="-1.98208">
        <ele>34.74</ele>
        <time>2014-03-30T09:38:42Z</time>
      </trkpt>
      <trkpt lat="47.65325" lon="-1.98223">
        <ele>34.74</ele>
        <time>2014-03-30T09:38:44Z</time>
      </trkpt>
      <trkpt lat="47.65327" lon="-1.98237">
        <ele>34.74</ele>
        <time>2014-03-30T09:38:46Z</time>
      </trkpt>
      <trkpt lat="47.65327" lon="-1.98255">
        <ele>35.71</ele>
        <time>2014-03-30T09:38:49Z</time>
      </trkpt>
      <trkpt lat="47.65318" lon="-1.98263">
        <ele>35.71</ele>
        <time>2014-03-30T09:38:52Z</time>
      </trkpt>
      <trkpt lat="47.65308" lon="-1.98263">
        <ele>36.19</ele>
        <time>2014-03-30T09:38:54Z</time>
      </trkpt>
      <trkpt lat="47.65297" lon="-1.98263">
        <ele>35.71</ele>
        <time>2014-03-30T09:38:56Z</time>
      </trkpt>
      <trkpt lat="47.65286" lon="-1.98262">
        <ele>35.23</ele>
        <time>2014-03-30T09:38:58Z</time>
      </trkpt>
      <trkpt lat="47.65274" lon="-1.9826">
        <ele>35.23</ele>
        <time>2014-03-30T09:39:00Z</time>
      </trkpt>
      <trkpt lat="47.65263" lon="-1.9826">
        <ele>35.23</ele>
        <time>2014-03-30T09:39:02Z</time>
      </trkpt>
      <trkpt lat="47.65252" lon="-1.98259">
        <ele>35.71</ele>
        <time>2014-03-30T09:39:04Z</time>
      </trkpt>
      <trkpt lat="47.65242" lon="-1.98259">
        <ele>36.67</ele>
        <time>2014-03-30T09:39:06Z</time>
      </trkpt>
      <trkpt lat="47.65231" lon="-1.98259">
        <ele>37.15</ele>
        <time>2014-03-30T09:39:08Z</time>
      </trkpt>
      <trkpt lat="47.65222" lon="-1.9826">
        <ele>38.11</ele>
        <time>2014-03-30T09:39:10Z</time>
      </trkpt>
      <trkpt lat="47.65208" lon="-1.98259">
        <ele>39.07</ele>
        <time>2014-03-30T09:39:13Z</time>
      </trkpt>
      <trkpt lat="47.65196" lon="-1.98258">
        <ele>39.55</ele>
        <time>2014-03-30T09:39:16Z</time>
      </trkpt>
      <trkpt lat="47.65184" lon="-1.98257">
        <ele>40.99</ele>
        <time>2014-03-30T09:39:19Z</time>
      </trkpt>
      <trkpt lat="47.65174" lon="-1.98257">
        <ele>41.47</ele>
        <time>2014-03-30T09:39:22Z</time>
      </trkpt>
      <trkpt lat="47.65162" lon="-1.98257">
        <ele>43.4</ele>
        <time>2014-03-30T09:39:26Z</time>
      </trkpt>
      <trkpt lat="47.65151" lon="-1.98256">
        <ele>45.8</ele>
        <time>2014-03-30T09:39:30Z</time>
      </trkpt>
      <trkpt lat="47.6514" lon="-1.98256">
        <ele>47.72</ele>
        <time>2014-03-30T09:39:34Z</time>
      </trkpt>
      <trkpt lat="47.65129" lon="-1.98255">
        <ele>48.68</ele>
        <time>2014-03-30T09:39:38Z</time>
      </trkpt>
      <trkpt lat="47.65117" lon="-1.98256">
        <ele>49.65</ele>
        <time>2014-03-30T09:39:42Z</time>
      </trkpt>
      <trkpt lat="47.65107" lon="-1.98256">
        <ele>50.61</ele>
        <time>2014-03-30T09:39:46Z</time>
      </trkpt>
      <trkpt lat="47.65097" lon="-1.98256">
        <ele>51.09</ele>
        <time>2014-03-30T09:39:50Z</time>
      </trkpt>
      <trkpt lat="47.65086" lon="-1.98257">
        <ele>51.09</ele>
        <time>2014-03-30T09:39:54Z</time>
      </trkpt>
      <trkpt lat="47.65074" lon="-1.98258">
        <ele>51.09</ele>
        <time>2014-03-30T09:39:58Z</time>
      </trkpt>
      <trkpt lat="47.65063" lon="-1.9826">
        <ele>52.53</ele>
        <time>2014-03-30T09:40:02Z</time>
      </trkpt>
      <trkpt lat="47.65054" lon="-1.98266">
        <ele>53.49</ele>
        <time>2014-03-30T09:40:06Z</time>
      </trkpt>
      <trkpt lat="47.65052" lon="-1.98284">
        <ele>55.41</ele>
        <time>2014-03-30T09:40:11Z</time>
      </trkpt>
      <trkpt lat="47.65054" lon="-1.98299">
        <ele>55.89</ele>
        <time>2014-03-30T09:40:15Z</time>
      </trkpt>
      <trkpt lat="47.65056" lon="-1.98315">
        <ele>55.89</ele>
        <time>2014-03-30T09:40:19Z</time>
      </trkpt>
      <trkpt lat="47.65058" lon="-1.98332">
        <ele>56.86</ele>
        <time>2014-03-30T09:40:23Z</time>
      </trkpt>
      <trkpt lat="47.65059" lon="-1.98348">
        <ele>57.34</ele>
        <time>2014-03-30T09:40:27Z</time>
      </trkpt>
      <trkpt lat="47.65061" lon="-1.98365">
        <ele>57.82</ele>
        <time>2014-03-30T09:40:31Z</time>
      </trkpt>
      <trkpt lat="47.65062" lon="-1.98381">
        <ele>58.78</ele>
        <time>2014-03-30T09:40:35Z</time>
      </trkpt>
      <trkpt lat="47.65064" lon="-1.98398">
        <ele>59.26</ele>
        <time>2014-03-30T09:40:39Z</time>
      </trkpt>
      <trkpt lat="47.65067" lon="-1.98414">
        <ele>60.22</ele>
        <time>2014-03-30T09:40:43Z</time>
      </trkpt>
      <trkpt lat="47.6507" lon="-1.9843">
        <ele>60.7</ele>
        <time>2014-03-30T09:40:47Z</time>
      </trkpt>
      <trkpt lat="47.65073" lon="-1.98447">
        <ele>61.18</ele>
        <time>2014-03-30T09:40:51Z</time>
      </trkpt>
      <trkpt lat="47.65076" lon="-1.98463">
        <ele>61.66</ele>
        <time>2014-03-30T09:40:55Z</time>
      </trkpt>
      <trkpt lat="47.65072" lon="-1.98476">
        <ele>62.14</ele>
        <time>2014-03-30T09:40:59Z</time>
      </trkpt>
      <trkpt lat="47.65062" lon="-1.98483">
        <ele>62.62</ele>
        <time>2014-03-30T09:41:03Z</time>
      </trkpt>
      <trkpt lat="47.65051" lon="-1.98486">
        <ele>63.58</ele>
        <time>2014-03-30T09:41:07Z</time>
      </trkpt>
      <trkpt lat="47.65041" lon="-1.98488">
        <ele>64.55</ele>
        <time>2014-03-30T09:41:11Z</time>
      </trkpt>
      <trkpt lat="47.65031" lon="-1.98491">
        <ele>65.51</ele>
        <time>2014-03-30T09:41:15Z</time>
      </trkpt>
      <trkpt lat="47.65021" lon="-1.98495">
        <ele>66.47</ele>
        <time>2014-03-30T09:41:19Z</time>
      </trkpt>
      <trkpt lat="47.65012" lon="-1.98498">
        <ele>67.43</ele>
        <time>2014-03-30T09:41:23Z</time>
      </trkpt>
      <trkpt lat="47.65002" lon="-1.98499">
        <ele>68.39</ele>
        <time>2014-03-30T09:41:27Z</time>
      </trkpt>
      <trkpt lat="47.64991" lon="-1.985">
        <ele>68.39</ele>
        <time>2014-03-30T09:41:31Z</time>
      </trkpt>
      <trkpt lat="47.6498" lon="-1.98498">
        <ele>67.91</ele>
        <time>2014-03-30T09:41:35Z</time>
      </trkpt>
      <trkpt lat="47.64972" lon="-1.98491">
        <ele>68.39</ele>
        <time>2014-03-30T09:41:38Z</time>
      </trkpt>
      <trkpt lat="47.64963" lon="-1.98483">
        <ele>67.91</ele>
        <time>2014-03-30T09:41:41Z</time>
      </trkpt>
      <trkpt lat="47.6495" lon="-1.98479">
        <ele>66.95</ele>
        <time>2014-03-30T09:41:44Z</time>
      </trkpt>
      <trkpt lat="47.64941" lon="-1.98475">
        <ele>66.47</ele>
        <time>2014-03-30T09:41:46Z</time>
      </trkpt>
      <trkpt lat="47.6493" lon="-1.98472">
        <ele>65.03</ele>
        <time>2014-03-30T09:41:48Z</time>
      </trkpt>
      <trkpt lat="47.64919" lon="-1.98468">
        <ele>63.1</ele>
        <time>2014-03-30T09:41:50Z</time>
      </trkpt>
      <trkpt lat="47.64907" lon="-1.98464">
        <ele>61.18</ele>
        <time>2014-03-30T09:41:52Z</time>
      </trkpt>
      <trkpt lat="47.64897" lon="-1.98461">
        <ele>59.74</ele>
        <time>2014-03-30T09:41:54Z</time>
      </trkpt>
      <trkpt lat="47.64887" lon="-1.98456">
        <ele>57.82</ele>
        <time>2014-03-30T09:41:57Z</time>
      </trkpt>
      <trkpt lat="47.64888" lon="-1.98442">
        <ele>55.89</ele>
        <time>2014-03-30T09:42:00Z</time>
      </trkpt>
      <trkpt lat="47.64891" lon="-1.98426">
        <ele>55.89</ele>
        <time>2014-03-30T09:42:03Z</time>
      </trkpt>
      <trkpt lat="47.64895" lon="-1.98411">
        <ele>55.89</ele>
        <time>2014-03-30T09:42:06Z</time>
      </trkpt>
      <trkpt lat="47.64902" lon="-1.98397">
        <ele>56.86</ele>
        <time>2014-03-30T09:42:11Z</time>
      </trkpt>
      <trkpt lat="47.64908" lon="-1.98385">
        <ele>56.86</ele>
        <time>2014-03-30T09:42:15Z</time>
      </trkpt>
      <trkpt lat="47.64912" lon="-1.98369">
        <ele>55.89</ele>
        <time>2014-03-30T09:42:20Z</time>
      </trkpt>
      <trkpt lat="47.64905" lon="-1.98356">
        <ele>53.97</ele>
        <time>2014-03-30T09:42:24Z</time>
      </trkpt>
      <trkpt lat="47.64898" lon="-1.98343">
        <ele>53.01</ele>
        <time>2014-03-30T09:42:27Z</time>
      </trkpt>
      <trkpt lat="47.64887" lon="-1.98336">
        <ele>52.05</ele>
        <time>2014-03-30T09:42:30Z</time>
      </trkpt>
      <trkpt lat="47.64876" lon="-1.98331">
        <ele>51.57</ele>
        <time>2014-03-30T09:42:33Z</time>
      </trkpt>
      <trkpt lat="47.64864" lon="-1.98327">
        <ele>51.09</ele>
        <time>2014-03-30T09:42:36Z</time>
      </trkpt>
      <trkpt lat="47.64852" lon="-1.98325">
        <ele>51.57</ele>
        <time>2014-03-30T09:42:39Z</time>
      </trkpt>
      <trkpt lat="47.64841" lon="-1.9832">
        <ele>52.53</ele>
        <time>2014-03-30T09:42:42Z</time>
      </trkpt>
      <trkpt lat="47.64831" lon="-1.98317">
        <ele>53.49</ele>
        <time>2014-03-30T09:42:45Z</time>
      </trkpt>
      <trkpt lat="47.64822" lon="-1.9832">
        <ele>53.49</ele>
        <time>2014-03-30T09:42:49Z</time>
      </trkpt>
      <trkpt lat="47.6481" lon="-1.9832">
        <ele>55.41</ele>
        <time>2014-03-30T09:42:58Z</time>
      </trkpt>
      <trkpt lat="47.648" lon="-1.98318">
        <ele>55.89</ele>
        <time>2014-03-30T09:43:02Z</time>
      </trkpt>
      <trkpt lat="47.64786" lon="-1.98313">
        <ele>55.41</ele>
        <time>2014-03-30T09:43:06Z</time>
      </trkpt>
      <trkpt lat="47.64774" lon="-1.98309">
        <ele>56.37</ele>
        <time>2014-03-30T09:43:10Z</time>
      </trkpt>
      <trkpt lat="47.64762" lon="-1.98302">
        <ele>58.3</ele>
        <time>2014-03-30T09:43:14Z</time>
      </trkpt>
      <trkpt lat="47.64752" lon="-1.98297">
        <ele>60.22</ele>
        <time>2014-03-30T09:43:18Z</time>
      </trkpt>
      <trkpt lat="47.64739" lon="-1.98293">
        <ele>63.58</ele>
        <time>2014-03-30T09:43:23Z</time>
      </trkpt>
      <trkpt lat="47.64728" lon="-1.98291">
        <ele>65.51</ele>
        <time>2014-03-30T09:43:27Z</time>
      </trkpt>
      <trkpt lat="47.64716" lon="-1.98288">
        <ele>66.47</ele>
        <time>2014-03-30T09:43:31Z</time>
      </trkpt>
      <trkpt lat="47.64703" lon="-1.98286">
        <ele>67.43</ele>
        <time>2014-03-30T09:43:35Z</time>
      </trkpt>
      <trkpt lat="47.64688" lon="-1.98281">
        <ele>66.95</ele>
        <time>2014-03-30T09:43:40Z</time>
      </trkpt>
      <trkpt lat="47.64673" lon="-1.98276">
        <ele>65.99</ele>
        <time>2014-03-30T09:43:47Z</time>
      </trkpt>
      <trkpt lat="47.64662" lon="-1.98274">
        <ele>66.47</ele>
        <time>2014-03-30T09:43:52Z</time>
      </trkpt>
      <trkpt lat="47.6465" lon="-1.98273">
        <ele>65.51</ele>
        <time>2014-03-30T09:43:56Z</time>
      </trkpt>
      <trkpt lat="47.6464" lon="-1.98272">
        <ele>65.03</ele>
        <time>2014-03-30T09:44:00Z</time>
      </trkpt>
      <trkpt lat="47.64629" lon="-1.9827">
        <ele>65.03</ele>
        <time>2014-03-30T09:44:05Z</time>
      </trkpt>
      <trkpt lat="47.64618" lon="-1.98268">
        <ele>65.03</ele>
        <time>2014-03-30T09:44:10Z</time>
      </trkpt>
      <trkpt lat="47.64607" lon="-1.98266">
        <ele>64.55</ele>
        <time>2014-03-30T09:44:15Z</time>
      </trkpt>
      <trkpt lat="47.64596" lon="-1.98265">
        <ele>64.07</ele>
        <time>2014-03-30T09:44:20Z</time>
      </trkpt>
      <trkpt lat="47.64585" lon="-1.98265">
        <ele>63.58</ele>
        <time>2014-03-30T09:44:26Z</time>
      </trkpt>
      <trkpt lat="47.64576" lon="-1.98266">
        <ele>64.55</ele>
        <time>2014-03-30T09:44:31Z</time>
      </trkpt>
      <trkpt lat="47.64565" lon="-1.98264">
        <ele>65.51</ele>
        <time>2014-03-30T09:44:36Z</time>
      </trkpt>
      <trkpt lat="47.64554" lon="-1.98263">
        <ele>65.99</ele>
        <time>2014-03-30T09:44:41Z</time>
      </trkpt>
      <trkpt lat="47.64544" lon="-1.9826">
        <ele>67.43</ele>
        <time>2014-03-30T09:44:46Z</time>
      </trkpt>
      <trkpt lat="47.64533" lon="-1.98258">
        <ele>66.95</ele>
        <time>2014-03-30T09:44:50Z</time>
      </trkpt>
      <trkpt lat="47.64523" lon="-1.98254">
        <ele>66.95</ele>
        <time>2014-03-30T09:44:54Z</time>
      </trkpt>
      <trkpt lat="47.6452" lon="-1.98241">
        <ele>66.95</ele>
        <time>2014-03-30T09:44:59Z</time>
      </trkpt>
      <trkpt lat="47.64531" lon="-1.98237">
        <ele>67.43</ele>
        <time>2014-03-30T09:45:03Z</time>
      </trkpt>
      <trkpt lat="47.64543" lon="-1.98234">
        <ele>67.91</ele>
        <time>2014-03-30T09:45:06Z</time>
      </trkpt>
      <trkpt lat="47.64554" lon="-1.98229">
        <ele>67.91</ele>
        <time>2014-03-30T09:45:09Z</time>
      </trkpt>
      <trkpt lat="47.64564" lon="-1.98225">
        <ele>67.91</ele>
        <time>2014-03-30T09:45:12Z</time>
      </trkpt>
      <trkpt lat="47.64577" lon="-1.98219">
        <ele>68.39</ele>
        <time>2014-03-30T09:45:15Z</time>
      </trkpt>
      <trkpt lat="47.64586" lon="-1.98213">
        <ele>68.87</ele>
        <time>2014-03-30T09:45:17Z</time>
      </trkpt>
      <trkpt lat="47.64598" lon="-1.98203">
        <ele>69.35</ele>
        <time>2014-03-30T09:45:19Z</time>
      </trkpt>
      <trkpt lat="47.64611" lon="-1.98188">
        <ele>68.87</ele>
        <time>2014-03-30T09:45:21Z</time>
      </trkpt>
      <trkpt lat="47.64624" lon="-1.98171">
        <ele>66.95</ele>
        <time>2014-03-30T09:45:23Z</time>
      </trkpt>
      <trkpt lat="47.64636" lon="-1.98156">
        <ele>65.03</ele>
        <time>2014-03-30T09:45:25Z</time>
      </trkpt>
      <trkpt lat="47.64647" lon="-1.98141">
        <ele>63.58</ele>
        <time>2014-03-30T09:45:27Z</time>
      </trkpt>
      <trkpt lat="47.64657" lon="-1.98125">
        <ele>62.14</ele>
        <time>2014-03-30T09:45:29Z</time>
      </trkpt>
      <trkpt lat="47.64667" lon="-1.98111">
        <ele>61.18</ele>
        <time>2014-03-30T09:45:31Z</time>
      </trkpt>
      <trkpt lat="47.64677" lon="-1.98098">
        <ele>60.22</ele>
        <time>2014-03-30T09:45:33Z</time>
      </trkpt>
      <trkpt lat="47.64685" lon="-1.98087">
        <ele>59.26</ele>
        <time>2014-03-30T09:45:35Z</time>
      </trkpt>
      <trkpt lat="47.64692" lon="-1.98075">
        <ele>58.78</ele>
        <time>2014-03-30T09:45:37Z</time>
      </trkpt>
      <trkpt lat="47.647" lon="-1.9806">
        <ele>57.82</ele>
        <time>2014-03-30T09:45:40Z</time>
      </trkpt>
      <trkpt lat="47.64706" lon="-1.98047">
        <ele>56.37</ele>
        <time>2014-03-30T09:45:43Z</time>
      </trkpt>
      <trkpt lat="47.64712" lon="-1.98035">
        <ele>55.89</ele>
        <time>2014-03-30T09:45:46Z</time>
      </trkpt>
      <trkpt lat="47.6472" lon="-1.98022">
        <ele>56.37</ele>
        <time>2014-03-30T09:45:49Z</time>
      </trkpt>
      <trkpt lat="47.64729" lon="-1.98011">
        <ele>56.86</ele>
        <time>2014-03-30T09:45:52Z</time>
      </trkpt>
      <trkpt lat="47.64741" lon="-1.98002">
        <ele>58.3</ele>
        <time>2014-03-30T09:45:55Z</time>
      </trkpt>
      <trkpt lat="47.64755" lon="-1.97994">
        <ele>58.3</ele>
        <time>2014-03-30T09:45:58Z</time>
      </trkpt>
      <trkpt lat="47.64768" lon="-1.97988">
        <ele>57.34</ele>
        <time>2014-03-30T09:46:01Z</time>
      </trkpt>
      <trkpt lat="47.64779" lon="-1.97985">
        <ele>56.86</ele>
        <time>2014-03-30T09:46:04Z</time>
      </trkpt>
      <trkpt lat="47.64786" lon="-1.97972">
        <ele>57.34</ele>
        <time>2014-03-30T09:46:08Z</time>
      </trkpt>
      <trkpt lat="47.64791" lon="-1.97959">
        <ele>57.34</ele>
        <time>2014-03-30T09:46:11Z</time>
      </trkpt>
      <trkpt lat="47.64793" lon="-1.97945">
        <ele>57.34</ele>
        <time>2014-03-30T09:46:14Z</time>
      </trkpt>
      <trkpt lat="47.64785" lon="-1.9793">
        <ele>57.34</ele>
        <time>2014-03-30T09:46:18Z</time>
      </trkpt>
      <trkpt lat="47.64778" lon="-1.97919">
        <ele>57.82</ele>
        <time>2014-03-30T09:46:21Z</time>
      </trkpt>
      <trkpt lat="47.64771" lon="-1.97907">
        <ele>57.82</ele>
        <time>2014-03-30T09:46:24Z</time>
      </trkpt>
      <trkpt lat="47.64765" lon="-1.97896">
        <ele>58.78</ele>
        <time>2014-03-30T09:46:27Z</time>
      </trkpt>
      <trkpt lat="47.64758" lon="-1.97886">
        <ele>58.78</ele>
        <time>2014-03-30T09:46:30Z</time>
      </trkpt>
      <trkpt lat="47.64751" lon="-1.97874">
        <ele>59.26</ele>
        <time>2014-03-30T09:46:34Z</time>
      </trkpt>
      <trkpt lat="47.64744" lon="-1.97862">
        <ele>59.26</ele>
        <time>2014-03-30T09:46:38Z</time>
      </trkpt>
      <trkpt lat="47.64736" lon="-1.97849">
        <ele>58.78</ele>
        <time>2014-03-30T09:46:42Z</time>
      </trkpt>
      <trkpt lat="47.64729" lon="-1.97837">
        <ele>58.3</ele>
        <time>2014-03-30T09:46:46Z</time>
      </trkpt>
      <trkpt lat="47.64721" lon="-1.97826">
        <ele>59.26</ele>
        <time>2014-03-30T09:46:50Z</time>
      </trkpt>
      <trkpt lat="47.64713" lon="-1.97816">
        <ele>60.22</ele>
        <time>2014-03-30T09:46:55Z</time>
      </trkpt>
      <trkpt lat="47.64707" lon="-1.97826">
        <ele>62.14</ele>
        <time>2014-03-30T09:47:01Z</time>
      </trkpt>
      <trkpt lat="47.64708" lon="-1.97841">
        <ele>62.14</ele>
        <time>2014-03-30T09:47:05Z</time>
      </trkpt>
      <trkpt lat="47.64706" lon="-1.97857">
        <ele>60.7</ele>
        <time>2014-03-30T09:47:09Z</time>
      </trkpt>
      <trkpt lat="47.64702" lon="-1.97871">
        <ele>60.22</ele>
        <time>2014-03-30T09:47:13Z</time>
      </trkpt>
      <trkpt lat="47.64697" lon="-1.97886">
        <ele>60.7</ele>
        <time>2014-03-30T09:47:17Z</time>
      </trkpt>
      <trkpt lat="47.64688" lon="-1.97895">
        <ele>61.66</ele>
        <time>2014-03-30T09:47:21Z</time>
      </trkpt>
      <trkpt lat="47.64686" lon="-1.97911">
        <ele>61.66</ele>
        <time>2014-03-30T09:47:25Z</time>
      </trkpt>
      <trkpt lat="47.6468" lon="-1.97929">
        <ele>60.22</ele>
        <time>2014-03-30T09:47:31Z</time>
      </trkpt>
      <trkpt lat="47.64673" lon="-1.97942">
        <ele>58.78</ele>
        <time>2014-03-30T09:47:36Z</time>
      </trkpt>
      <trkpt lat="47.64663" lon="-1.97954">
        <ele>60.22</ele>
        <time>2014-03-30T09:47:41Z</time>
      </trkpt>
      <trkpt lat="47.64651" lon="-1.97962">
        <ele>62.14</ele>
        <time>2014-03-30T09:47:48Z</time>
      </trkpt>
      <trkpt lat="47.64639" lon="-1.97966">
        <ele>66.95</ele>
        <time>2014-03-30T09:47:59Z</time>
      </trkpt>
      <trkpt lat="47.64624" lon="-1.97971">
        <ele>70.79</ele>
        <time>2014-03-30T09:48:08Z</time>
      </trkpt>
      <trkpt lat="47.64613" lon="-1.97982">
        <ele>74.16</ele>
        <time>2014-03-30T09:48:20Z</time>
      </trkpt>
      <trkpt lat="47.64603" lon="-1.97994">
        <ele>77.04</ele>
        <time>2014-03-30T09:48:28Z</time>
      </trkpt>
      <trkpt lat="47.64591" lon="-1.98001">
        <ele>78.97</ele>
        <time>2014-03-30T09:48:36Z</time>
      </trkpt>
      <trkpt lat="47.64579" lon="-1.98008">
        <ele>81.85</ele>
        <time>2014-03-30T09:48:45Z</time>
      </trkpt>
      <trkpt lat="47.64569" lon="-1.9802">
        <ele>86.18</ele>
        <time>2014-03-30T09:48:54Z</time>
      </trkpt>
      <trkpt lat="47.64557" lon="-1.98029">
        <ele>90.5</ele>
        <time>2014-03-30T09:49:02Z</time>
      </trkpt>
      <trkpt lat="47.64549" lon="-1.98021">
        <ele>90.98</ele>
        <time>2014-03-30T09:49:09Z</time>
      </trkpt>
      <trkpt lat="47.64552" lon="-1.9801">
        <ele>91.46</ele>
        <time>2014-03-30T09:49:17Z</time>
      </trkpt>
      <trkpt lat="47.64555" lon="-1.97994">
        <ele>90.5</ele>
        <time>2014-03-30T09:49:25Z</time>
      </trkpt>
      <trkpt lat="47.64559" lon="-1.97979">
        <ele>89.54</ele>
        <time>2014-03-30T09:49:30Z</time>
      </trkpt>
      <trkpt lat="47.64563" lon="-1.97965">
        <ele>89.54</ele>
        <time>2014-03-30T09:49:35Z</time>
      </trkpt>
      <trkpt lat="47.64564" lon="-1.9795">
        <ele>88.58</ele>
        <time>2014-03-30T09:49:40Z</time>
      </trkpt>
      <trkpt lat="47.64555" lon="-1.97941">
        <ele>86.66</ele>
        <time>2014-03-30T09:49:46Z</time>
      </trkpt>
      <trkpt lat="47.64545" lon="-1.97929">
        <ele>84.73</ele>
        <time>2014-03-30T09:49:52Z</time>
      </trkpt>
      <trkpt lat="47.64539" lon="-1.97913">
        <ele>85.21</ele>
        <time>2014-03-30T09:50:00Z</time>
      </trkpt>
      <trkpt lat="47.64531" lon="-1.97898">
        <ele>83.77</ele>
        <time>2014-03-30T09:50:07Z</time>
      </trkpt>
      <trkpt lat="47.64521" lon="-1.97895">
        <ele>82.81</ele>
        <time>2014-03-30T09:50:12Z</time>
      </trkpt>
      <trkpt lat="47.64508" lon="-1.97888">
        <ele>80.89</ele>
        <time>2014-03-30T09:50:17Z</time>
      </trkpt>
      <trkpt lat="47.645" lon="-1.97878">
        <ele>78.48</ele>
        <time>2014-03-30T09:50:20Z</time>
      </trkpt>
      <trkpt lat="47.64499" lon="-1.97863">
        <ele>77.52</ele>
        <time>2014-03-30T09:50:23Z</time>
      </trkpt>
      <trkpt lat="47.64499" lon="-1.97849">
        <ele>78.97</ele>
        <time>2014-03-30T09:50:27Z</time>
      </trkpt>
      <trkpt lat="47.64496" lon="-1.97835">
        <ele>80.89</ele>
        <time>2014-03-30T09:50:32Z</time>
      </trkpt>
      <trkpt lat="47.64487" lon="-1.9783">
        <ele>81.85</ele>
        <time>2014-03-30T09:50:38Z</time>
      </trkpt>
      <trkpt lat="47.64478" lon="-1.97842">
        <ele>83.29</ele>
        <time>2014-03-30T09:50:45Z</time>
      </trkpt>
      <trkpt lat="47.64468" lon="-1.97852">
        <ele>85.21</ele>
        <time>2014-03-30T09:50:52Z</time>
      </trkpt>
      <trkpt lat="47.64458" lon="-1.97864">
        <ele>87.14</ele>
        <time>2014-03-30T09:51:01Z</time>
      </trkpt>
      <trkpt lat="47.64445" lon="-1.97877">
        <ele>89.06</ele>
        <time>2014-03-30T09:51:06Z</time>
      </trkpt>
      <trkpt lat="47.64434" lon="-1.9789">
        <ele>91.46</ele>
        <time>2014-03-30T09:51:11Z</time>
      </trkpt>
      <trkpt lat="47.64421" lon="-1.97896">
        <ele>91.94</ele>
        <time>2014-03-30T09:51:16Z</time>
      </trkpt>
      <trkpt lat="47.64409" lon="-1.97901">
        <ele>90.98</ele>
        <time>2014-03-30T09:51:22Z</time>
      </trkpt>
      <trkpt lat="47.64399" lon="-1.97911">
        <ele>91.46</ele>
        <time>2014-03-30T09:51:27Z</time>
      </trkpt>
      <trkpt lat="47.64389" lon="-1.97916">
        <ele>91.94</ele>
        <time>2014-03-30T09:51:32Z</time>
      </trkpt>
      <trkpt lat="47.64379" lon="-1.97921">
        <ele>92.42</ele>
        <time>2014-03-30T09:51:37Z</time>
      </trkpt>
      <trkpt lat="47.64373" lon="-1.97915">
        <ele>91.94</ele>
        <time>2014-03-30T09:51:42Z</time>
      </trkpt>
      <trkpt lat="47.6437" lon="-1.97899">
        <ele>93.39</ele>
        <time>2014-03-30T09:51:48Z</time>
      </trkpt>
      <trkpt lat="47.64376" lon="-1.97884">
        <ele>93.39</ele>
        <time>2014-03-30T09:51:53Z</time>
      </trkpt>
      <trkpt lat="47.64374" lon="-1.9787">
        <ele>90.98</ele>
        <time>2014-03-30T09:51:58Z</time>
      </trkpt>
      <trkpt lat="47.64371" lon="-1.97853">
        <ele>89.54</ele>
        <time>2014-03-30T09:52:04Z</time>
      </trkpt>
      <trkpt lat="47.64367" lon="-1.97832">
        <ele>89.54</ele>
        <time>2014-03-30T09:52:10Z</time>
      </trkpt>
      <trkpt lat="47.64363" lon="-1.97812">
        <ele>90.02</ele>
        <time>2014-03-30T09:52:15Z</time>
      </trkpt>
      <trkpt lat="47.64358" lon="-1.97794">
        <ele>90.5</ele>
        <time>2014-03-30T09:52:20Z</time>
      </trkpt>
      <trkpt lat="47.64347" lon="-1.97793">
        <ele>90.5</ele>
        <time>2014-03-30T09:52:25Z</time>
      </trkpt>
      <trkpt lat="47.64335" lon="-1.97798">
        <ele>90.5</ele>
        <time>2014-03-30T09:52:30Z</time>
      </trkpt>
      <trkpt lat="47.64324" lon="-1.97802">
        <ele>91.46</ele>
        <time>2014-03-30T09:52:35Z</time>
      </trkpt>
      <trkpt lat="47.64309" lon="-1.97805">
        <ele>90.98</ele>
        <time>2014-03-30T09:52:40Z</time>
      </trkpt>
      <trkpt lat="47.64295" lon="-1.97802">
        <ele>88.58</ele>
        <time>2014-03-30T09:52:45Z</time>
      </trkpt>
      <trkpt lat="47.64294" lon="-1.97788">
        <ele>85.21</ele>
        <time>2014-03-30T09:52:51Z</time>
      </trkpt>
      <trkpt lat="47.64285" lon="-1.97781">
        <ele>88.1</ele>
        <time>2014-03-30T09:53:01Z</time>
      </trkpt>
      <trkpt lat="47.64275" lon="-1.97769">
        <ele>90.02</ele>
        <time>2014-03-30T09:53:06Z</time>
      </trkpt>
      <trkpt lat="47.64269" lon="-1.97754">
        <ele>90.02</ele>
        <time>2014-03-30T09:53:10Z</time>
      </trkpt>
      <trkpt lat="47.64268" lon="-1.97738">
        <ele>88.58</ele>
        <time>2014-03-30T09:53:15Z</time>
      </trkpt>
      <trkpt lat="47.64272" lon="-1.97725">
        <ele>88.1</ele>
        <time>2014-03-30T09:53:19Z</time>
      </trkpt>
      <trkpt lat="47.64269" lon="-1.97708">
        <ele>87.62</ele>
        <time>2014-03-30T09:53:24Z</time>
      </trkpt>
      <trkpt lat="47.64265" lon="-1.97691">
        <ele>89.06</ele>
        <time>2014-03-30T09:53:29Z</time>
      </trkpt>
      <trkpt lat="47.64261" lon="-1.97674">
        <ele>91.94</ele>
        <time>2014-03-30T09:53:35Z</time>
      </trkpt>
      <trkpt lat="47.64257" lon="-1.97656">
        <ele>95.31</ele>
        <time>2014-03-30T09:53:42Z</time>
      </trkpt>
      <trkpt lat="47.64251" lon="-1.97641">
        <ele>96.75</ele>
        <time>2014-03-30T09:53:49Z</time>
      </trkpt>
      <trkpt lat="47.64242" lon="-1.97644">
        <ele>97.23</ele>
        <time>2014-03-30T09:53:53Z</time>
      </trkpt>
      <trkpt lat="47.64236" lon="-1.97657">
        <ele>96.75</ele>
        <time>2014-03-30T09:53:57Z</time>
      </trkpt>
      <trkpt lat="47.64229" lon="-1.97668">
        <ele>94.35</ele>
        <time>2014-03-30T09:54:02Z</time>
      </trkpt>
      <trkpt lat="47.64228" lon="-1.97679">
        <ele>90.98</ele>
        <time>2014-03-30T09:54:06Z</time>
      </trkpt>
      <trkpt lat="47.64231" lon="-1.97693">
        <ele>89.54</ele>
        <time>2014-03-30T09:54:09Z</time>
      </trkpt>
      <trkpt lat="47.64231" lon="-1.97709">
        <ele>88.58</ele>
        <time>2014-03-30T09:54:13Z</time>
      </trkpt>
      <trkpt lat="47.64233" lon="-1.97725">
        <ele>87.62</ele>
        <time>2014-03-30T09:54:17Z</time>
      </trkpt>
      <trkpt lat="47.64231" lon="-1.97742">
        <ele>85.69</ele>
        <time>2014-03-30T09:54:22Z</time>
      </trkpt>
      <trkpt lat="47.6423" lon="-1.97761">
        <ele>84.25</ele>
        <time>2014-03-30T09:54:27Z</time>
      </trkpt>
      <trkpt lat="47.64235" lon="-1.97776">
        <ele>84.73</ele>
        <time>2014-03-30T09:54:32Z</time>
      </trkpt>
      <trkpt lat="47.64233" lon="-1.97794">
        <ele>83.77</ele>
        <time>2014-03-30T09:54:38Z</time>
      </trkpt>
      <trkpt lat="47.64236" lon="-1.97813">
        <ele>82.33</ele>
        <time>2014-03-30T09:54:43Z</time>
      </trkpt>
      <trkpt lat="47.6424" lon="-1.97835">
        <ele>82.33</ele>
        <time>2014-03-30T09:54:48Z</time>
      </trkpt>
      <trkpt lat="47.64243" lon="-1.97854">
        <ele>82.33</ele>
        <time>2014-03-30T09:54:53Z</time>
      </trkpt>
      <trkpt lat="47.64246" lon="-1.97872">
        <ele>82.33</ele>
        <time>2014-03-30T09:54:57Z</time>
      </trkpt>
      <trkpt lat="47.6425" lon="-1.97893">
        <ele>82.81</ele>
        <time>2014-03-30T09:55:01Z</time>
      </trkpt>
      <trkpt lat="47.64253" lon="-1.97915">
        <ele>81.37</ele>
        <time>2014-03-30T09:55:06Z</time>
      </trkpt>
      <trkpt lat="47.64255" lon="-1.9793">
        <ele>80.41</ele>
        <time>2014-03-30T09:55:10Z</time>
      </trkpt>
      <trkpt lat="47.6426" lon="-1.97946">
        <ele>78</ele>
        <time>2014-03-30T09:55:14Z</time>
      </trkpt>
      <trkpt lat="47.64263" lon="-1.97963">
        <ele>76.56</ele>
        <time>2014-03-30T09:55:19Z</time>
      </trkpt>
      <trkpt lat="47.64264" lon="-1.97978">
        <ele>76.56</ele>
        <time>2014-03-30T09:55:25Z</time>
      </trkpt>
      <trkpt lat="47.6427" lon="-1.97991">
        <ele>76.56</ele>
        <time>2014-03-30T09:55:30Z</time>
      </trkpt>
      <trkpt lat="47.64275" lon="-1.98004">
        <ele>78</ele>
        <time>2014-03-30T09:55:35Z</time>
      </trkpt>
      <trkpt lat="47.64275" lon="-1.98021">
        <ele>78.97</ele>
        <time>2014-03-30T09:55:40Z</time>
      </trkpt>
      <trkpt lat="47.64277" lon="-1.98041">
        <ele>78.48</ele>
        <time>2014-03-30T09:55:45Z</time>
      </trkpt>
      <trkpt lat="47.6428" lon="-1.98058">
        <ele>78</ele>
        <time>2014-03-30T09:55:49Z</time>
      </trkpt>
      <trkpt lat="47.64277" lon="-1.98073">
        <ele>76.08</ele>
        <time>2014-03-30T09:55:53Z</time>
      </trkpt>
      <trkpt lat="47.64276" lon="-1.98091">
        <ele>76.08</ele>
        <time>2014-03-30T09:55:59Z</time>
      </trkpt>
      <trkpt lat="47.64274" lon="-1.9811">
        <ele>77.52</ele>
        <time>2014-03-30T09:56:06Z</time>
      </trkpt>
      <trkpt lat="47.64268" lon="-1.98127">
        <ele>78</ele>
        <time>2014-03-30T09:56:10Z</time>
      </trkpt>
      <trkpt lat="47.64265" lon="-1.98144">
        <ele>78</ele>
        <time>2014-03-30T09:56:13Z</time>
      </trkpt>
      <trkpt lat="47.64262" lon="-1.98158">
        <ele>78</ele>
        <time>2014-03-30T09:56:16Z</time>
      </trkpt>
      <trkpt lat="47.64259" lon="-1.98175">
        <ele>77.04</ele>
        <time>2014-03-30T09:56:20Z</time>
      </trkpt>
      <trkpt lat="47.64259" lon="-1.98189">
        <ele>77.04</ele>
        <time>2014-03-30T09:56:24Z</time>
      </trkpt>
      <trkpt lat="47.6426" lon="-1.98205">
        <ele>77.04</ele>
        <time>2014-03-30T09:56:29Z</time>
      </trkpt>
      <trkpt lat="47.6426" lon="-1.98222">
        <ele>77.04</ele>
        <time>2014-03-30T09:56:33Z</time>
      </trkpt>
      <trkpt lat="47.6426" lon="-1.98237">
        <ele>77.52</ele>
        <time>2014-03-30T09:56:37Z</time>
      </trkpt>
      <trkpt lat="47.6426" lon="-1.98252">
        <ele>77.52</ele>
        <time>2014-03-30T09:56:42Z</time>
      </trkpt>
      <trkpt lat="47.6426" lon="-1.98266">
        <ele>77.04</ele>
        <time>2014-03-30T09:56:46Z</time>
      </trkpt>
      <trkpt lat="47.6426" lon="-1.98281">
        <ele>76.08</ele>
        <time>2014-03-30T09:56:50Z</time>
      </trkpt>
      <trkpt lat="47.6426" lon="-1.98298">
        <ele>75.12</ele>
        <time>2014-03-30T09:56:53Z</time>
      </trkpt>
      <trkpt lat="47.6426" lon="-1.98318">
        <ele>74.64</ele>
        <time>2014-03-30T09:56:56Z</time>
      </trkpt>
      <trkpt lat="47.64259" lon="-1.98334">
        <ele>74.16</ele>
        <time>2014-03-30T09:56:59Z</time>
      </trkpt>
      <trkpt lat="47.64259" lon="-1.98349">
        <ele>74.16</ele>
        <time>2014-03-30T09:57:02Z</time>
      </trkpt>
      <trkpt lat="47.64259" lon="-1.98366">
        <ele>74.16</ele>
        <time>2014-03-30T09:57:05Z</time>
      </trkpt>
      <trkpt lat="47.6426" lon="-1.98382">
        <ele>73.68</ele>
        <time>2014-03-30T09:57:08Z</time>
      </trkpt>
      <trkpt lat="47.64259" lon="-1.98398">
        <ele>73.2</ele>
        <time>2014-03-30T09:57:11Z</time>
      </trkpt>
      <trkpt lat="47.6426" lon="-1.98414">
        <ele>72.24</ele>
        <time>2014-03-30T09:57:14Z</time>
      </trkpt>
      <trkpt lat="47.6426" lon="-1.9843">
        <ele>72.24</ele>
        <time>2014-03-30T09:57:17Z</time>
      </trkpt>
      <trkpt lat="47.6426" lon="-1.98446">
        <ele>72.24</ele>
        <time>2014-03-30T09:57:20Z</time>
      </trkpt>
      <trkpt lat="47.6426" lon="-1.98462">
        <ele>72.24</ele>
        <time>2014-03-30T09:57:23Z</time>
      </trkpt>
      <trkpt lat="47.6426" lon="-1.98479">
        <ele>72.24</ele>
        <time>2014-03-30T09:57:26Z</time>
      </trkpt>
      <trkpt lat="47.64259" lon="-1.98494">
        <ele>71.76</ele>
        <time>2014-03-30T09:57:29Z</time>
      </trkpt>
      <trkpt lat="47.6426" lon="-1.98513">
        <ele>70.79</ele>
        <time>2014-03-30T09:57:33Z</time>
      </trkpt>
      <trkpt lat="47.64261" lon="-1.98532">
        <ele>70.79</ele>
        <time>2014-03-30T09:57:36Z</time>
      </trkpt>
      <trkpt lat="47.64262" lon="-1.98551">
        <ele>70.31</ele>
        <time>2014-03-30T09:57:39Z</time>
      </trkpt>
      <trkpt lat="47.64262" lon="-1.98567">
        <ele>68.87</ele>
        <time>2014-03-30T09:57:42Z</time>
      </trkpt>
      <trkpt lat="47.64263" lon="-1.98585">
        <ele>67.91</ele>
        <time>2014-03-30T09:57:45Z</time>
      </trkpt>
      <trkpt lat="47.64265" lon="-1.98605">
        <ele>66.47</ele>
        <time>2014-03-30T09:57:48Z</time>
      </trkpt>
      <trkpt lat="47.64266" lon="-1.98625">
        <ele>65.03</ele>
        <time>2014-03-30T09:57:51Z</time>
      </trkpt>
      <trkpt lat="47.64269" lon="-1.98645">
        <ele>63.1</ele>
        <time>2014-03-30T09:57:54Z</time>
      </trkpt>
      <trkpt lat="47.6427" lon="-1.98665">
        <ele>62.14</ele>
        <time>2014-03-30T09:57:57Z</time>
      </trkpt>
      <trkpt lat="47.64271" lon="-1.98679">
        <ele>61.18</ele>
        <time>2014-03-30T09:57:59Z</time>
      </trkpt>
      <trkpt lat="47.64272" lon="-1.98694">
        <ele>60.7</ele>
        <time>2014-03-30T09:58:01Z</time>
      </trkpt>
      <trkpt lat="47.64272" lon="-1.98709">
        <ele>60.7</ele>
        <time>2014-03-30T09:58:03Z</time>
      </trkpt>
      <trkpt lat="47.64274" lon="-1.98726">
        <ele>61.18</ele>
        <time>2014-03-30T09:58:05Z</time>
      </trkpt>
      <trkpt lat="47.64275" lon="-1.98741">
        <ele>61.66</ele>
        <time>2014-03-30T09:58:07Z</time>
      </trkpt>
      <trkpt lat="47.64276" lon="-1.98763">
        <ele>62.62</ele>
        <time>2014-03-30T09:58:10Z</time>
      </trkpt>
      <trkpt lat="47.64278" lon="-1.98779">
        <ele>62.62</ele>
        <time>2014-03-30T09:58:12Z</time>
      </trkpt>
      <trkpt lat="47.6428" lon="-1.98796">
        <ele>62.62</ele>
        <time>2014-03-30T09:58:15Z</time>
      </trkpt>
      <trkpt lat="47.64285" lon="-1.98795">
        <ele>63.58</ele>
        <time>2014-03-30T09:58:19Z</time>
      </trkpt>
      <trkpt lat="47.64286" lon="-1.98784">
        <ele>65.03</ele>
        <time>2014-03-30T09:58:23Z</time>
      </trkpt>
      <trkpt lat="47.64294" lon="-1.98777">
        <ele>65.99</ele>
        <time>2014-03-30T09:58:30Z</time>
      </trkpt>
      <trkpt lat="47.64307" lon="-1.98781">
        <ele>67.43</ele>
        <time>2014-03-30T09:58:37Z</time>
      </trkpt>
      <trkpt lat="47.6432" lon="-1.9878">
        <ele>68.87</ele>
        <time>2014-03-30T09:58:42Z</time>
      </trkpt>
      <trkpt lat="47.6433" lon="-1.98773">
        <ele>70.31</ele>
        <time>2014-03-30T09:58:46Z</time>
      </trkpt>
      <trkpt lat="47.64341" lon="-1.9877">
        <ele>71.27</ele>
        <time>2014-03-30T09:58:50Z</time>
      </trkpt>
      <trkpt lat="47.64352" lon="-1.98765">
        <ele>70.79</ele>
        <time>2014-03-30T09:58:54Z</time>
      </trkpt>
      <trkpt lat="47.64364" lon="-1.98758">
        <ele>69.83</ele>
        <time>2014-03-30T09:58:59Z</time>
      </trkpt>
      <trkpt lat="47.64375" lon="-1.98754">
        <ele>67.91</ele>
        <time>2014-03-30T09:59:03Z</time>
      </trkpt>
      <trkpt lat="47.64385" lon="-1.98758">
        <ele>66.47</ele>
        <time>2014-03-30T09:59:07Z</time>
      </trkpt>
      <trkpt lat="47.64393" lon="-1.9877">
        <ele>66.47</ele>
        <time>2014-03-30T09:59:11Z</time>
      </trkpt>
      <trkpt lat="47.64399" lon="-1.98787">
        <ele>66.47</ele>
        <time>2014-03-30T09:59:15Z</time>
      </trkpt>
      <trkpt lat="47.64397" lon="-1.98801">
        <ele>65.99</ele>
        <time>2014-03-30T09:59:20Z</time>
      </trkpt>
      <trkpt lat="47.64401" lon="-1.98817">
        <ele>64.55</ele>
        <time>2014-03-30T09:59:24Z</time>
      </trkpt>
      <trkpt lat="47.64407" lon="-1.98833">
        <ele>64.55</ele>
        <time>2014-03-30T09:59:29Z</time>
      </trkpt>
      <trkpt lat="47.64417" lon="-1.98848">
        <ele>64.07</ele>
        <time>2014-03-30T09:59:33Z</time>
      </trkpt>
      <trkpt lat="47.64424" lon="-1.98864">
        <ele>65.51</ele>
        <time>2014-03-30T09:59:37Z</time>
      </trkpt>
      <trkpt lat="47.64427" lon="-1.98882">
        <ele>65.51</ele>
        <time>2014-03-30T09:59:41Z</time>
      </trkpt>
      <trkpt lat="47.64426" lon="-1.989">
        <ele>64.55</ele>
        <time>2014-03-30T09:59:47Z</time>
      </trkpt>
      <trkpt lat="47.64427" lon="-1.98915">
        <ele>64.07</ele>
        <time>2014-03-30T09:59:50Z</time>
      </trkpt>
      <trkpt lat="47.64431" lon="-1.9893">
        <ele>64.07</ele>
        <time>2014-03-30T09:59:53Z</time>
      </trkpt>
      <trkpt lat="47.64432" lon="-1.9895">
        <ele>63.58</ele>
        <time>2014-03-30T09:59:57Z</time>
      </trkpt>
      <trkpt lat="47.64436" lon="-1.98966">
        <ele>64.07</ele>
        <time>2014-03-30T10:00:00Z</time>
      </trkpt>
      <trkpt lat="47.64445" lon="-1.98975">
        <ele>65.99</ele>
        <time>2014-03-30T10:00:04Z</time>
      </trkpt>
      <trkpt lat="47.64455" lon="-1.9898">
        <ele>67.43</ele>
        <time>2014-03-30T10:00:08Z</time>
      </trkpt>
      <trkpt lat="47.64465" lon="-1.98982">
        <ele>68.39</ele>
        <time>2014-03-30T10:00:12Z</time>
      </trkpt>
      <trkpt lat="47.64473" lon="-1.98991">
        <ele>68.39</ele>
        <time>2014-03-30T10:00:15Z</time>
      </trkpt>
      <trkpt lat="47.64483" lon="-1.99004">
        <ele>67.91</ele>
        <time>2014-03-30T10:00:19Z</time>
      </trkpt>
      <trkpt lat="47.64491" lon="-1.99018">
        <ele>66.95</ele>
        <time>2014-03-30T10:00:22Z</time>
      </trkpt>
      <trkpt lat="47.64499" lon="-1.99028">
        <ele>65.51</ele>
        <time>2014-03-30T10:00:25Z</time>
      </trkpt>
      <trkpt lat="47.64507" lon="-1.99039">
        <ele>64.55</ele>
        <time>2014-03-30T10:00:28Z</time>
      </trkpt>
      <trkpt lat="47.64516" lon="-1.9905">
        <ele>64.07</ele>
        <time>2014-03-30T10:00:31Z</time>
      </trkpt>
      <trkpt lat="47.64522" lon="-1.99065">
        <ele>63.1</ele>
        <time>2014-03-30T10:00:34Z</time>
      </trkpt>
      <trkpt lat="47.64528" lon="-1.99081">
        <ele>62.62</ele>
        <time>2014-03-30T10:00:38Z</time>
      </trkpt>
      <trkpt lat="47.64529" lon="-1.99098">
        <ele>62.62</ele>
        <time>2014-03-30T10:00:43Z</time>
      </trkpt>
      <trkpt lat="47.64527" lon="-1.99111">
        <ele>62.62</ele>
        <time>2014-03-30T10:00:47Z</time>
      </trkpt>
      <trkpt lat="47.64533" lon="-1.99123">
        <ele>62.14</ele>
        <time>2014-03-30T10:00:50Z</time>
      </trkpt>
      <trkpt lat="47.64541" lon="-1.99137">
        <ele>62.14</ele>
        <time>2014-03-30T10:00:53Z</time>
      </trkpt>
      <trkpt lat="47.64548" lon="-1.99151">
        <ele>61.66</ele>
        <time>2014-03-30T10:00:56Z</time>
      </trkpt>
      <trkpt lat="47.64556" lon="-1.99164">
        <ele>61.66</ele>
        <time>2014-03-30T10:00:59Z</time>
      </trkpt>
      <trkpt lat="47.64564" lon="-1.99177">
        <ele>62.14</ele>
        <time>2014-03-30T10:01:02Z</time>
      </trkpt>
      <trkpt lat="47.64571" lon="-1.99191">
        <ele>61.66</ele>
        <time>2014-03-30T10:01:05Z</time>
      </trkpt>
      <trkpt lat="47.64579" lon="-1.99205">
        <ele>62.14</ele>
        <time>2014-03-30T10:01:08Z</time>
      </trkpt>
      <trkpt lat="47.64588" lon="-1.9922">
        <ele>62.14</ele>
        <time>2014-03-30T10:01:11Z</time>
      </trkpt>
      <trkpt lat="47.64596" lon="-1.99235">
        <ele>62.14</ele>
        <time>2014-03-30T10:01:14Z</time>
      </trkpt>
      <trkpt lat="47.64603" lon="-1.99246">
        <ele>61.66</ele>
        <time>2014-03-30T10:01:16Z</time>
      </trkpt>
      <trkpt lat="47.64609" lon="-1.99256">
        <ele>61.66</ele>
        <time>2014-03-30T10:01:18Z</time>
      </trkpt>
      <trkpt lat="47.64615" lon="-1.99266">
        <ele>61.66</ele>
        <time>2014-03-30T10:01:20Z</time>
      </trkpt>
      <trkpt lat="47.64621" lon="-1.99276">
        <ele>61.66</ele>
        <time>2014-03-30T10:01:22Z</time>
      </trkpt>
      <trkpt lat="47.64627" lon="-1.99287">
        <ele>61.66</ele>
        <time>2014-03-30T10:01:24Z</time>
      </trkpt>
      <trkpt lat="47.64635" lon="-1.99302">
        <ele>61.66</ele>
        <time>2014-03-30T10:01:27Z</time>
      </trkpt>
      <trkpt lat="47.64643" lon="-1.99317">
        <ele>62.14</ele>
        <time>2014-03-30T10:01:30Z</time>
      </trkpt>
      <trkpt lat="47.64649" lon="-1.99327">
        <ele>62.14</ele>
        <time>2014-03-30T10:01:32Z</time>
      </trkpt>
      <trkpt lat="47.64658" lon="-1.99342">
        <ele>62.14</ele>
        <time>2014-03-30T10:01:35Z</time>
      </trkpt>
      <trkpt lat="47.64664" lon="-1.99352">
        <ele>62.14</ele>
        <time>2014-03-30T10:01:37Z</time>
      </trkpt>
      <trkpt lat="47.6467" lon="-1.99363">
        <ele>62.14</ele>
        <time>2014-03-30T10:01:39Z</time>
      </trkpt>
      <trkpt lat="47.64676" lon="-1.99374">
        <ele>62.62</ele>
        <time>2014-03-30T10:01:41Z</time>
      </trkpt>
      <trkpt lat="47.64681" lon="-1.99385">
        <ele>62.62</ele>
        <time>2014-03-30T10:01:43Z</time>
      </trkpt>
      <trkpt lat="47.64687" lon="-1.99396">
        <ele>62.62</ele>
        <time>2014-03-30T10:01:45Z</time>
      </trkpt>
      <trkpt lat="47.64692" lon="-1.99407">
        <ele>62.62</ele>
        <time>2014-03-30T10:01:47Z</time>
      </trkpt>
      <trkpt lat="47.64698" lon="-1.99418">
        <ele>63.1</ele>
        <time>2014-03-30T10:01:49Z</time>
      </trkpt>
      <trkpt lat="47.64705" lon="-1.99434">
        <ele>63.58</ele>
        <time>2014-03-30T10:01:52Z</time>
      </trkpt>
      <trkpt lat="47.64713" lon="-1.9945">
        <ele>64.55</ele>
        <time>2014-03-30T10:01:55Z</time>
      </trkpt>
      <trkpt lat="47.6472" lon="-1.99465">
        <ele>65.03</ele>
        <time>2014-03-30T10:01:58Z</time>
      </trkpt>
      <trkpt lat="47.64726" lon="-1.99479">
        <ele>65.03</ele>
        <time>2014-03-30T10:02:01Z</time>
      </trkpt>
      <trkpt lat="47.64732" lon="-1.99489">
        <ele>65.51</ele>
        <time>2014-03-30T10:02:04Z</time>
      </trkpt>
      <trkpt lat="47.64733" lon="-1.99505">
        <ele>65.99</ele>
        <time>2014-03-30T10:02:09Z</time>
      </trkpt>
      <trkpt lat="47.6474" lon="-1.99512">
        <ele>66.95</ele>
        <time>2014-03-30T10:02:15Z</time>
      </trkpt>
      <trkpt lat="47.64748" lon="-1.99522">
        <ele>67.43</ele>
        <time>2014-03-30T10:02:19Z</time>
      </trkpt>
      <trkpt lat="47.64755" lon="-1.99533">
        <ele>67.43</ele>
        <time>2014-03-30T10:02:23Z</time>
      </trkpt>
      <trkpt lat="47.64762" lon="-1.99543">
        <ele>67.91</ele>
        <time>2014-03-30T10:02:26Z</time>
      </trkpt>
      <trkpt lat="47.6477" lon="-1.9955">
        <ele>67.43</ele>
        <time>2014-03-30T10:02:29Z</time>
      </trkpt>
      <trkpt lat="47.6478" lon="-1.99555">
        <ele>66.47</ele>
        <time>2014-03-30T10:02:32Z</time>
      </trkpt>
      <trkpt lat="47.64788" lon="-1.99567">
        <ele>66.47</ele>
        <time>2014-03-30T10:02:35Z</time>
      </trkpt>
      <trkpt lat="47.64793" lon="-1.99581">
        <ele>66.95</ele>
        <time>2014-03-30T10:02:38Z</time>
      </trkpt>
      <trkpt lat="47.64798" lon="-1.99593">
        <ele>67.43</ele>
        <time>2014-03-30T10:02:41Z</time>
      </trkpt>
      <trkpt lat="47.64809" lon="-1.99599">
        <ele>68.39</ele>
        <time>2014-03-30T10:02:45Z</time>
      </trkpt>
      <trkpt lat="47.64817" lon="-1.99605">
        <ele>68.39</ele>
        <time>2014-03-30T10:02:48Z</time>
      </trkpt>
      <trkpt lat="47.64825" lon="-1.99612">
        <ele>68.39</ele>
        <time>2014-03-30T10:02:51Z</time>
      </trkpt>
      <trkpt lat="47.64833" lon="-1.9962">
        <ele>68.87</ele>
        <time>2014-03-30T10:02:54Z</time>
      </trkpt>
      <trkpt lat="47.64841" lon="-1.99629">
        <ele>68.87</ele>
        <time>2014-03-30T10:02:58Z</time>
      </trkpt>
      <trkpt lat="47.6485" lon="-1.99635">
        <ele>70.31</ele>
        <time>2014-03-30T10:03:02Z</time>
      </trkpt>
      <trkpt lat="47.64859" lon="-1.99639">
        <ele>70.31</ele>
        <time>2014-03-30T10:03:06Z</time>
      </trkpt>
      <trkpt lat="47.64867" lon="-1.99628">
        <ele>70.31</ele>
        <time>2014-03-30T10:03:11Z</time>
      </trkpt>
      <trkpt lat="47.64874" lon="-1.99614">
        <ele>70.31</ele>
        <time>2014-03-30T10:03:15Z</time>
      </trkpt>
      <trkpt lat="47.64881" lon="-1.99602">
        <ele>70.31</ele>
        <time>2014-03-30T10:03:18Z</time>
      </trkpt>
      <trkpt lat="47.64887" lon="-1.99591">
        <ele>70.31</ele>
        <time>2014-03-30T10:03:21Z</time>
      </trkpt>
      <trkpt lat="47.64894" lon="-1.99577">
        <ele>70.79</ele>
        <time>2014-03-30T10:03:25Z</time>
      </trkpt>
      <trkpt lat="47.64901" lon="-1.99565">
        <ele>69.83</ele>
        <time>2014-03-30T10:03:28Z</time>
      </trkpt>
      <trkpt lat="47.64907" lon="-1.99553">
        <ele>70.31</ele>
        <time>2014-03-30T10:03:31Z</time>
      </trkpt>
      <trkpt lat="47.64913" lon="-1.99541">
        <ele>69.83</ele>
        <time>2014-03-30T10:03:34Z</time>
      </trkpt>
      <trkpt lat="47.64918" lon="-1.99531">
        <ele>69.83</ele>
        <time>2014-03-30T10:03:37Z</time>
      </trkpt>
      <trkpt lat="47.64924" lon="-1.9952">
        <ele>70.31</ele>
        <time>2014-03-30T10:03:40Z</time>
      </trkpt>
      <trkpt lat="47.6493" lon="-1.99508">
        <ele>70.31</ele>
        <time>2014-03-30T10:03:43Z</time>
      </trkpt>
      <trkpt lat="47.64936" lon="-1.99496">
        <ele>70.79</ele>
        <time>2014-03-30T10:03:46Z</time>
      </trkpt>
      <trkpt lat="47.64942" lon="-1.99485">
        <ele>70.79</ele>
        <time>2014-03-30T10:03:49Z</time>
      </trkpt>
      <trkpt lat="47.64949" lon="-1.99472">
        <ele>70.79</ele>
        <time>2014-03-30T10:03:53Z</time>
      </trkpt>
      <trkpt lat="47.64956" lon="-1.99463">
        <ele>70.79</ele>
        <time>2014-03-30T10:03:56Z</time>
      </trkpt>
      <trkpt lat="47.64966" lon="-1.99455">
        <ele>71.27</ele>
        <time>2014-03-30T10:04:00Z</time>
      </trkpt>
      <trkpt lat="47.64976" lon="-1.99459">
        <ele>71.27</ele>
        <time>2014-03-30T10:04:04Z</time>
      </trkpt>
      <trkpt lat="47.64976" lon="-1.99471">
        <ele>70.79</ele>
        <time>2014-03-30T10:04:08Z</time>
      </trkpt>
      <trkpt lat="47.64969" lon="-1.99482">
        <ele>71.27</ele>
        <time>2014-03-30T10:04:13Z</time>
      </trkpt>
      <trkpt lat="47.64962" lon="-1.99493">
        <ele>71.76</ele>
        <time>2014-03-30T10:04:18Z</time>
      </trkpt>
      <trkpt lat="47.64956" lon="-1.99504">
        <ele>71.76</ele>
        <time>2014-03-30T10:04:23Z</time>
      </trkpt>
      <trkpt lat="47.64951" lon="-1.99516">
        <ele>72.72</ele>
        <time>2014-03-30T10:04:28Z</time>
      </trkpt>
      <trkpt lat="47.64947" lon="-1.99526">
        <ele>69.35</ele>
        <time>2014-03-30T10:05:57Z</time>
      </trkpt>
    </trkseg>
  </trk>
</gpx>